GFSWCAN_prec_kuchsnow_009.txt.gz
Snowfall_Accumulation
0.0 0.0 0.0 0.0 0.0 0.0 0.0 0.0 0.0 0.0 0.0 0.0 0.0 0.0 0.0 0.0 0.0 0.0 0.0 0.0 0.0 0.0 0.0 0.0 0.0 0.0 0.0 0.0 0.0 0.0 0.0 0.0 0.0 0.0 0.0 0.0 0.0 0.0 0.0 0.0 0.0 0.0 0.0 0.0 0.0 0.0 0.0 0.0 0.0 0.0 0.0 0.0 0.0 0.0
0.0 0.0 0.0 0.0 0.0 0.0 0.0 0.0 0.0 0.0 0.0 0.0 0.0 0.0 0.0 0.0 0.0 0.0 0.0 0.0 0.0 0.0 0.0 0.0 0.0 0.0 0.0 0.0 0.0 0.0 0.0 0.0 0.0 0.0 0.0 0.0 0.0 0.0 0.0 0.0 0.0 0.0 0.0 0.0 0.0 0.0 0.0 0.0 0.0 0.0 0.0 0.0 0.0 0.0
0.0 0.0 0.0 0.0 0.0 0.0 0.0 0.0 0.0 0.0 0.0 0.0 0.0 0.0 0.0 0.0 0.0 0.0 0.0 0.0 0.0 0.0 0.0 0.0 0.0 0.0 0.0 0.0 0.0 0.0 0.0 0.0 0.0 0.0 0.0 0.0 0.0 0.0 0.0 0.0 0.0 0.0 0.0 0.0 0.0 0.0 0.0 0.0 0.0 0.0 0.0 0.0 0.0 0.0
0.0 0.0 0.0 0.0 0.0 0.0 0.0 0.0 0.0 0.0 0.0 0.0 0.0 0.0 0.0 0.0 0.0 0.0 0.0 0.0 0.0 0.0 0.0 0.0 0.0 0.0 0.0 0.0 0.0 0.0 0.0 0.0 0.0 0.0 0.0 0.0 0.0 0.0 0.0 0.0 0.0 0.0 0.0 0.0 0.0 0.0 0.0 0.0 0.0 0.0 0.0 0.0 0.0 0.0
0.0 0.0 0.0 0.0 0.0 0.0 0.0 0.0 0.0 0.0 0.0 0.0 0.0 0.0 0.0 0.0 0.0 0.0 0.0 0.0 0.0 0.0 0.0 0.0 0.0 0.0 0.0 0.0 0.0 0.0 0.0 0.0 0.0 0.0 0.0 0.0 0.0 0.0 0.0 0.0 0.0 0.0 0.0 0.0 0.0 0.0 0.0 0.0 0.0 0.0 0.0 0.0 0.0 0.0
0.0 0.0 0.0 0.0 0.0 0.0 0.0 0.0 0.0 0.0 0.0 0.0 0.0 0.0 0.0 0.0 0.0 0.0 0.0 0.0 0.0 0.0 0.0 0.0 0.0 0.0 0.0 0.0 0.0 0.0 0.0 0.0 0.0 0.0 0.0 0.0 0.0 0.0 0.0 0.0 0.0 0.0 0.0 0.0 0.0 0.0 0.0 0.0 0.0 0.0 0.0 0.0 0.0 0.0
0.0 0.0 0.0 0.0 0.0 0.0 0.0 0.0 0.0 0.0 0.0 0.0 0.0 0.0 0.0 0.0 0.0 0.0 0.1 0.0 0.0 0.0 0.0 0.0 0.0 0.0 0.0 0.0 0.0 0.0 0.0 0.0 0.0 0.0 0.0 0.0 0.0 0.0 0.0 0.0 0.0 0.0 0.0 0.0 0.0 0.0 0.0 0.0 0.0 0.0 0.0 0.0 0.0 0.0
0.0 0.0 0.0 0.0 0.0 0.0 0.0 0.0 0.0 0.0 0.0 0.0 0.0 0.0 0.0 0.0 0.0 0.0 0.0 0.0 0.0 0.0 0.0 0.0 0.0 0.0 0.0 0.0 0.0 0.0 0.0 0.0 0.0 0.0 0.0 0.0 0.0 0.0 0.0 0.0 0.0 0.0 0.0 0.0 0.0 0.0 0.0 0.0 0.0 0.0 0.0 0.0 0.0 0.0
0.0 0.0 0.0 0.0 0.0 0.0 0.0 0.0 0.0 0.0 0.0 0.0 0.0 0.0 0.0 0.0 0.0 0.0 0.0 0.0 0.0 0.0 0.0 0.0 0.0 0.0 0.0 0.0 0.0 0.0 0.0 0.0 0.0 0.0 0.0 0.0 0.0 0.0 0.0 0.0 0.0 0.0 0.0 0.0 0.0 0.0 0.0 0.0 0.0 0.0 0.0 0.0 0.0 0.0
0.0 0.0 0.0 0.0 0.0 0.0 0.0 0.0 0.0 0.0 0.0 0.0 0.0 0.0 0.0 0.0 0.0 0.0 0.0 0.0 0.0 0.0 0.0 0.0 0.0 0.0 0.0 0.0 0.0 0.0 0.0 0.0 0.0 0.0 0.0 0.0 0.0 0.0 0.0 0.0 0.0 0.0 0.0 0.0 0.0 0.0 0.0 0.0 0.0 0.0 0.0 0.0 0.0 0.0
0.0 0.0 0.0 0.0 0.0 0.0 0.0 0.0 0.0 0.0 0.0 0.0 0.0 0.3 0.0 0.0 0.0 0.0 0.0 0.0 0.0 0.0 0.0 0.0 0.0 0.0 0.0 0.0 0.0 0.0 0.0 0.0 0.0 0.0 0.0 0.0 0.0 0.0 0.0 0.0 0.0 0.0 0.0 0.0 0.0 0.0 0.0 0.0 0.0 0.0 0.0 0.0 0.0 0.0
0.0 0.0 0.0 0.0 0.0 0.0 0.0 0.0 0.0 0.0 0.0 0.0 0.0 0.0 0.0 1.1 3.2 4.8 3.2 0.0 0.0 0.0 0.0 0.0 0.0 0.0 0.0 0.0 0.0 0.0 0.0 0.0 0.0 0.0 0.0 0.0 0.0 0.0 0.0 0.0 0.0 0.0 0.0 0.0 0.0 0.0 0.0 0.0 0.0 0.0 0.0 0.0 0.0 0.0
0.0 0.0 0.0 0.0 0.0 0.0 0.0 0.0 0.0 0.0 0.0 0.0 0.1 1.3 2.3 4.1 6.8 3.7 2.2 0.4 0.0 0.0 0.0 0.0 0.0 0.0 0.0 0.0 0.0 0.0 0.0 0.0 0.0 0.0 0.0 0.0 0.0 0.0 0.0 0.0 0.0 0.0 0.0 0.0 0.0 0.0 0.0 0.0 0.0 0.0 0.0 0.0 0.0 0.0
0.0 0.0 0.0 0.0 0.0 0.0 0.0 0.0 0.0 0.0 0.0 0.1 0.8 1.8 3.0 3.5 3.1 2.0 1.1 0.6 0.0 0.0 0.0 0.0 0.0 0.0 0.0 0.0 0.0 0.0 0.0 0.0 0.0 0.0 0.0 0.0 0.0 0.0 0.0 0.0 0.0 0.0 0.0 0.0 0.0 0.0 0.0 0.0 0.0 0.0 0.0 0.0 0.0 0.0
0.0 0.0 0.0 0.0 0.0 0.0 0.0 0.0 0.0 0.0 0.0 0.0 0.9 1.6 1.4 1.3 0.6 0.3 0.1 0.3 0.0 0.0 0.0 0.0 0.0 0.0 0.0 0.0 0.0 0.0 0.0 0.0 0.0 0.0 0.0 0.0 0.0 0.0 0.0 0.0 0.0 0.0 0.0 0.0 0.0 0.0 0.0 0.0 0.0 0.0 0.0 0.0 0.0 0.0
0.0 0.0 0.0 0.0 0.0 0.0 0.0 0.0 0.0 0.0 0.0 0.2 0.6 1.4 0.6 0.5 0.3 0.1 0.0 0.1 0.0 0.0 0.0 0.0 0.0 0.0 0.0 0.0 0.0 0.0 0.0 0.0 0.0 0.0 0.0 0.0 0.0 0.0 0.0 0.0 0.0 0.0 0.0 0.0 0.0 0.0 0.0 0.0 0.0 0.0 0.0 0.0 0.0 0.0
0.0 0.0 0.0 0.0 0.0 0.0 0.0 0.0 0.0 0.0 0.1 0.0 0.2 0.4 0.6 0.3 0.3 0.2 0.0 0.0 0.0 0.0 0.0 0.0 0.1 0.0 0.0 0.0 0.0 0.0 0.0 0.0 0.0 0.0 0.0 0.0 0.0 0.0 0.0 0.0 0.0 0.0 0.0 0.0 0.0 0.0 0.0 0.0 0.0 0.0 0.0 0.0 0.0 0.0
0.0 0.0 0.0 0.0 0.0 0.0 0.0 0.0 0.0 0.0 0.0 0.0 0.0 0.0 0.0 0.0 0.2 0.1 0.0 0.0 0.0 0.0 0.6 1.1 0.5 0.1 0.0 0.0 0.0 0.0 0.0 0.0 0.0 0.0 0.0 0.0 0.0 0.0 0.0 0.0 0.0 0.0 0.0 0.0 0.0 0.0 0.0 0.0 0.0 0.0 0.0 0.0 0.0 0.0
0.0 0.0 0.0 0.0 0.0 0.0 0.0 0.0 0.0 0.0 0.0 0.0 0.0 0.0 0.0 0.0 0.0 0.0 0.0 0.0 0.0 0.0 0.0 1.5 1.2 0.1 0.0 0.0 0.0 0.0 0.0 0.0 0.0 0.0 0.0 0.0 0.0 0.0 0.0 0.0 0.0 0.0 0.0 0.0 0.0 0.0 0.0 0.0 0.0 0.0 0.0 0.0 0.0 0.0
0.0 0.0 0.0 0.0 0.0 0.0 0.0 0.0 0.0 0.0 0.0 0.0 0.0 0.0 0.0 0.0 0.0 0.0 0.0 0.1 0.3 1.5 1.7 1.6 0.0 0.2 0.1 0.1 0.0 0.0 0.0 0.0 0.0 0.0 0.0 0.0 0.0 0.0 0.0 0.0 0.0 0.0 0.0 0.0 0.0 0.0 0.0 0.0 0.0 0.0 0.0 0.0 0.0 0.0
0.0 0.0 0.0 0.0 0.0 0.0 0.0 0.0 0.0 0.0 0.0 0.0 0.0 0.0 0.0 0.0 0.0 0.0 0.0 0.9 1.6 2.5 1.9 1.2 0.2 0.0 0.0 0.5 0.2 0.0 0.0 0.0 0.0 0.0 0.0 0.0 0.0 0.0 0.0 0.0 0.0 0.0 0.0 0.0 0.0 0.0 0.0 0.0 0.0 0.0 0.0 0.0 0.0 0.0
0.0 0.0 0.0 0.0 0.0 0.0 0.0 0.0 0.0 0.0 0.0 0.0 0.0 0.0 0.0 0.0 0.0 0.0 0.0 1.7 3.4 2.0 1.5 1.1 1.0 0.6 0.2 0.0 0.8 0.5 0.1 0.0 0.0 0.0 0.0 0.0 0.0 0.0 0.0 0.0 0.0 0.0 0.0 0.0 0.0 0.0 0.0 0.0 0.0 0.0 0.0 0.0 0.0 0.0
0.0 0.0 0.0 0.0 0.0 0.0 0.0 0.0 0.0 0.0 0.0 0.0 0.0 0.0 0.0 0.0 0.0 0.0 1.1 1.5 1.6 1.2 1.0 0.8 1.0 2.2 2.3 1.8 1.5 1.1 0.6 0.1 0.0 0.0 0.0 0.0 0.0 0.0 0.0 0.0 0.0 0.0 0.0 0.0 0.0 0.0 0.0 0.0 0.0 0.0 0.0 0.0 0.0 0.0
0.0 0.0 0.0 0.0 0.0 0.0 0.0 0.0 0.0 0.0 0.0 0.0 0.0 0.0 0.0 0.0 0.0 0.0 0.8 0.6 0.4 0.4 1.3 1.6 1.3 1.1 0.6 1.5 1.8 2.2 2.3 1.4 0.4 0.0 0.0 0.0 0.0 0.0 0.0 0.0 0.0 0.0 0.0 0.0 0.0 0.0 0.0 0.0 0.0 0.0 0.0 0.0 0.0 0.0
0.0 0.0 0.0 0.0 0.0 0.0 0.0 0.0 0.0 0.0 0.0 0.0 0.0 0.0 0.0 0.0 0.2 0.2 0.0 0.0 0.1 0.2 0.6 1.4 1.5 1.4 1.4 1.0 1.4 1.3 1.2 1.5 1.4 1.0 0.1 0.0 0.0 0.0 0.0 0.0 0.0 0.0 0.0 0.0 0.0 0.0 0.0 0.0 0.0 0.0 0.0 0.0 0.0 0.0
0.0 0.0 0.0 0.0 0.0 0.0 0.0 0.0 0.0 0.0 0.0 0.0 0.0 0.0 0.0 0.1 0.2 0.0 0.0 0.0 0.1 0.3 0.4 0.6 1.2 1.2 0.9 0.8 1.0 1.8 1.7 1.5 1.3 1.5 1.4 0.1 0.0 0.0 0.0 0.0 0.0 0.0 0.0 0.0 0.0 0.0 0.0 0.0 0.0 0.0 0.0 0.0 0.0 0.0
0.0 0.0 0.0 0.0 0.0 0.0 0.0 0.0 0.0 0.0 0.0 0.0 0.0 0.0 0.0 0.0 0.1 0.0 0.0 0.0 0.0 0.4 0.7 1.1 2.2 1.9 1.3 1.4 1.3 1.8 2.0 2.2 2.0 1.5 2.0 2.9 2.8 1.6 0.6 0.2 0.1 0.1 0.0 0.0 0.1 0.1 0.0 0.0 0.0 0.0 0.0 0.0 0.0 0.1
0.0 0.0 0.0 0.0 0.0 0.0 0.0 0.0 0.0 0.0 0.0 0.0 0.0 0.0 0.0 0.0 0.0 0.0 0.0 0.0 0.0 0.0 0.8 1.3 1.8 2.4 2.2 1.9 1.9 2.6 2.8 3.1 3.4 3.2 3.3 3.9 4.3 4.2 3.4 2.0 1.2 1.5 1.1 0.5 0.1 0.1 0.0 0.0 0.0 0.0 0.0 0.1 0.1 0.0
0.0 0.0 0.0 0.0 0.0 0.0 0.0 0.0 0.0 0.0 0.0 0.0 0.0 0.0 0.0 0.0 0.0 0.0 0.0 0.0 0.0 0.8 1.0 1.5 1.9 2.0 2.8 2.9 2.8 3.5 3.5 3.3 2.5 1.8 1.2 1.4 3.0 4.9 4.6 2.8 3.3 3.0 1.9 0.7 0.4 0.4 0.1 0.0 0.0 0.0 0.1 0.0 0.0 0.0
0.0 0.0 0.0 0.0 0.0 0.0 0.0 0.0 0.0 0.0 0.0 0.0 0.0 0.0 0.0 0.0 0.0 0.0 0.0 0.0 0.0 1.4 1.8 2.4 2.3 2.4 3.5 3.4 3.5 3.3 4.1 4.1 3.3 1.3 1.0 1.4 1.6 2.7 3.5 3.3 3.3 3.1 2.2 1.2 1.0 0.8 0.4 0.3 0.2 0.1 0.0 0.0 0.0 0.0
0.0 0.0 0.0 0.0 0.0 0.0 0.0 0.0 0.0 0.0 0.0 0.0 0.0 0.0 0.0 0.0 0.0 0.0 0.3 0.6 1.4 2.0 2.7 3.4 3.8 4.4 4.6 5.0 4.9 4.4 4.5 5.2 5.3 4.7 3.3 2.8 2.7 2.8 3.3 3.4 2.8 2.2 1.6 1.2 1.0 0.8 0.5 0.3 0.1 0.0 0.0 0.0 0.0 0.0
0.0 0.0 0.0 0.0 0.0 0.1 0.0 0.0 0.0 0.0 0.0 0.0 0.0 0.0 0.0 0.0 0.0 0.0 0.5 0.8 1.8 2.3 2.7 3.4 3.9 5.0 5.6 5.4 5.3 5.1 3.8 4.0 4.7 4.7 3.7 2.7 2.4 2.2 2.1 2.2 2.0 1.6 1.4 1.1 0.6 0.2 0.1 0.0 0.0 0.0 0.0 0.0 0.0 0.0
0.1 0.0 0.1 0.0 0.0 0.0 0.0 0.0 0.0 0.0 0.0 0.0 0.0 0.0 0.0 0.1 0.0 0.4 0.6 1.0 2.0 2.5 2.7 4.1 4.7 4.7 4.4 4.4 4.7 5.0 5.0 4.9 4.3 3.7 3.4 2.4 1.6 1.5 1.5 1.2 0.9 0.6 0.2 0.1 0.0 0.0 0.0 0.0 0.0 0.0 0.0 0.0 0.0 0.0

GFSWCAN_prec_kuchsnow_015.txt.gz
Snowfall_Accumulation
0.0 0.0 0.0 0.0 0.0 0.0 0.0 0.0 0.0 0.0 0.0 0.0 0.0 0.0 0.0 0.0 0.0 0.0 0.0 0.0 0.0 0.0 0.0 0.0 0.0 0.0 0.0 0.0 0.0 0.0 0.0 0.0 0.0 0.0 0.0 0.0 0.0 0.0 0.0 0.0 0.0 0.0 0.0 0.0 0.0 0.0 0.0 0.0 0.0 0.0 0.0 0.0 0.0 0.0
0.0 0.0 0.0 0.0 0.0 0.0 0.0 0.0 0.0 0.0 0.0 0.0 0.0 0.0 0.0 0.0 0.0 0.0 0.0 0.0 0.0 0.0 0.0 0.0 0.0 0.0 0.0 0.0 0.0 0.0 0.0 0.0 0.0 0.0 0.0 0.0 0.0 0.0 0.0 0.0 0.0 0.0 0.0 0.0 0.0 0.0 0.0 0.0 0.0 0.0 0.0 0.0 0.0 0.0
0.0 0.0 0.0 0.0 0.0 0.0 0.0 0.0 0.0 0.0 0.0 0.0 0.0 0.0 0.0 0.0 0.0 0.0 0.0 0.0 0.0 0.0 0.0 0.0 0.0 0.0 0.0 0.0 0.0 0.0 0.0 0.0 0.0 0.0 0.0 0.0 0.0 0.0 0.0 0.0 0.0 0.0 0.0 0.0 0.0 0.0 0.0 0.0 0.0 0.0 0.0 0.0 0.0 0.0
0.0 0.0 0.0 0.0 0.0 0.0 0.0 0.0 0.0 0.0 0.0 0.0 0.0 0.0 0.0 0.0 0.0 0.0 0.0 0.0 0.0 0.1 0.0 0.0 0.0 0.0 0.0 0.0 0.0 0.0 0.0 0.0 0.0 0.0 0.0 0.0 0.0 0.0 0.0 0.0 0.0 0.0 0.0 0.0 0.0 0.0 0.0 0.0 0.0 0.0 0.0 0.0 0.0 0.0
0.0 0.0 0.0 0.0 0.0 0.0 0.0 0.0 0.0 0.0 0.0 0.0 0.0 0.0 0.0 0.0 0.0 0.0 0.0 0.0 0.0 0.0 0.1 0.0 0.0 0.0 0.0 0.0 0.0 0.0 0.0 0.0 0.0 0.0 0.0 0.0 0.0 0.0 0.0 0.0 0.0 0.0 0.0 0.0 0.0 0.0 0.0 0.0 0.0 0.0 0.0 0.0 0.0 0.0
0.0 0.0 0.0 0.0 0.0 0.0 0.0 0.0 0.0 0.0 0.0 0.0 0.0 0.0 0.0 0.0 0.0 0.0 0.0 0.0 0.0 0.0 0.0 0.0 0.0 0.0 0.0 0.0 0.0 0.0 0.0 0.0 0.0 0.0 0.0 0.0 0.0 0.0 0.0 0.0 0.0 0.0 0.0 0.0 0.0 0.0 0.0 0.0 0.0 0.0 0.0 0.0 0.0 0.0
0.0 0.0 0.0 0.0 0.0 0.0 0.0 0.0 0.0 0.0 0.0 0.0 0.0 0.0 0.0 0.0 0.0 0.0 0.1 0.0 0.0 0.0 0.0 0.0 0.0 0.0 0.0 0.0 0.0 0.0 0.0 0.0 0.0 0.0 0.0 0.0 0.0 0.0 0.0 0.0 0.0 0.0 0.0 0.0 0.0 0.0 0.0 0.0 0.0 0.0 0.0 0.0 0.0 0.0
0.0 0.0 0.0 0.0 0.0 0.0 0.0 0.0 0.0 0.0 0.0 0.0 0.0 0.0 0.0 0.0 0.0 0.0 0.0 0.0 0.0 0.0 0.0 0.0 0.0 0.0 0.0 0.0 0.0 0.0 0.0 0.0 0.0 0.0 0.0 0.0 0.0 0.0 0.0 0.0 0.0 0.0 0.0 0.0 0.0 0.0 0.0 0.0 0.0 0.0 0.0 0.0 0.0 0.0
0.0 0.0 0.0 0.0 0.0 0.0 0.0 0.0 0.0 0.0 0.0 0.0 0.0 0.0 0.0 0.0 0.0 0.0 0.0 0.0 0.0 0.0 0.0 0.0 0.0 0.0 0.0 0.0 0.0 0.0 0.0 0.0 0.0 0.0 0.0 0.0 0.0 0.0 0.0 0.0 0.0 0.0 0.0 0.0 0.0 0.0 0.0 0.0 0.0 0.0 0.0 0.0 0.0 0.0
0.0 0.0 0.0 0.0 0.0 0.0 0.0 0.0 0.0 0.0 0.0 0.0 0.0 0.0 0.2 0.0 0.0 0.0 0.0 0.0 0.0 0.0 0.0 0.0 0.0 0.0 0.0 0.0 0.0 0.0 0.0 0.0 0.0 0.0 0.0 0.0 0.0 0.0 0.0 0.0 0.0 0.0 0.0 0.0 0.0 0.0 0.0 0.0 0.0 0.0 0.0 0.0 0.0 0.0
0.0 0.0 0.0 0.0 0.0 0.0 0.0 0.0 0.0 0.0 0.0 0.0 0.0 0.3 0.0 0.0 0.0 0.0 2.1 1.0 0.0 0.0 0.0 0.0 0.0 0.0 0.0 0.0 0.0 0.0 0.0 0.0 0.0 0.0 0.0 0.0 0.0 0.0 0.0 0.0 0.0 0.0 0.0 0.0 0.0 0.0 0.0 0.0 0.0 0.0 0.0 0.0 0.0 0.0
0.0 0.0 0.0 0.0 0.0 0.0 0.0 0.0 0.0 0.0 0.0 0.0 0.0 0.0 0.0 1.7 4.1 6.0 5.9 0.6 0.0 0.0 0.0 0.0 0.0 0.0 0.0 0.0 0.0 0.0 0.0 0.0 0.0 0.0 0.0 0.0 0.0 0.0 0.0 0.0 0.0 0.0 0.0 0.0 0.0 0.0 0.0 0.0 0.0 0.0 0.0 0.0 0.0 0.0
0.0 0.0 0.0 0.0 0.0 0.0 0.0 0.0 0.0 0.0 0.0 0.0 0.1 1.3 2.6 4.6 7.4 4.7 4.2 0.9 0.0 0.0 0.0 0.0 0.0 0.0 0.0 0.0 0.0 0.0 0.0 0.0 0.0 0.0 0.0 0.0 0.0 0.0 0.0 0.0 0.0 0.0 0.0 0.0 0.0 0.0 0.0 0.0 0.0 0.0 0.0 0.0 0.0 0.0
0.0 0.0 0.0 0.0 0.0 0.0 0.0 0.0 0.0 0.0 0.0 0.1 0.8 1.8 3.0 3.5 3.1 2.0 1.1 0.8 0.0 0.0 0.0 0.0 0.0 0.0 0.0 0.0 0.0 0.0 0.0 0.0 0.0 0.0 0.0 0.0 0.0 0.0 0.0 0.0 0.0 0.0 0.0 0.0 0.0 0.0 0.0 0.0 0.0 0.0 0.0 0.0 0.0 0.0
0.0 0.0 0.0 0.0 0.0 0.0 0.0 0.0 0.0 0.0 0.0 0.0 0.9 1.6 1.4 1.3 0.6 0.3 0.1 0.4 0.0 0.0 0.0 0.0 0.0 0.0 0.0 0.0 0.0 0.0 0.0 0.0 0.0 0.0 0.0 0.0 0.0 0.0 0.0 0.0 0.0 0.0 0.0 0.0 0.0 0.0 0.0 0.0 0.0 0.0 0.0 0.0 0.0 0.0
0.0 0.0 0.0 0.0 0.0 0.0 0.0 0.0 0.0 0.0 0.0 0.2 0.6 1.4 0.6 0.5 0.3 0.1 0.0 0.1 0.0 0.0 0.0 0.0 0.0 0.0 0.0 0.0 0.0 0.0 0.0 0.0 0.0 0.0 0.0 0.0 0.0 0.0 0.0 0.0 0.0 0.0 0.0 0.0 0.0 0.0 0.0 0.0 0.0 0.0 0.0 0.0 0.0 0.0
0.0 0.0 0.0 0.0 0.0 0.0 0.0 0.0 0.0 0.0 0.1 0.0 0.2 0.4 0.6 0.3 0.3 0.2 0.0 0.0 0.0 0.0 0.2 0.4 0.3 0.0 0.0 0.0 0.0 0.0 0.0 0.0 0.0 0.0 0.0 0.0 0.0 0.0 0.0 0.0 0.0 0.0 0.0 0.0 0.0 0.0 0.0 0.0 0.0 0.0 0.0 0.0 0.0 0.0
0.0 0.0 0.0 0.0 0.0 0.0 0.0 0.0 0.0 0.0 0.0 0.0 0.0 0.0 0.0 0.0 0.2 0.1 0.0 0.0 0.0 0.0 0.9 2.1 1.3 0.6 0.1 0.0 0.0 0.0 0.0 0.0 0.0 0.0 0.0 0.0 0.0 0.0 0.0 0.0 0.0 0.0 0.0 0.0 0.0 0.0 0.0 0.0 0.0 0.0 0.0 0.0 0.0 0.0
0.0 0.0 0.0 0.0 0.0 0.0 0.0 0.0 0.0 0.0 0.0 0.0 0.0 0.0 0.0 0.0 0.0 0.0 0.0 0.0 0.0 0.0 0.0 1.8 1.7 0.1 0.0 0.0 0.0 0.0 0.0 0.0 0.0 0.0 0.0 0.0 0.0 0.0 0.0 0.0 0.0 0.0 0.0 0.0 0.0 0.0 0.0 0.0 0.0 0.0 0.0 0.0 0.0 0.0
0.0 0.0 0.0 0.0 0.0 0.0 0.0 0.0 0.0 0.0 0.0 0.0 0.0 0.0 0.0 0.0 0.0 0.0 0.0 0.1 0.3 1.5 1.8 1.6 0.0 0.2 0.1 0.3 0.3 0.1 0.0 0.0 0.0 0.0 0.0 0.0 0.0 0.0 0.0 0.0 0.0 0.0 0.0 0.0 0.0 0.0 0.0 0.0 0.0 0.0 0.0 0.0 0.0 0.0
0.0 0.0 0.0 0.0 0.0 0.0 0.0 0.0 0.0 0.0 0.0 0.0 0.0 0.0 0.0 0.0 0.0 0.0 0.0 0.9 1.6 2.5 1.9 1.2 0.2 0.1 0.0 0.5 0.2 0.0 0.0 0.0 0.0 0.0 0.0 0.0 0.0 0.0 0.0 0.0 0.0 0.0 0.0 0.0 0.0 0.0 0.0 0.0 0.0 0.0 0.0 0.0 0.0 0.0
0.2 0.0 0.0 0.0 0.0 0.0 0.0 0.0 0.0 0.0 0.0 0.0 0.0 0.0 0.0 0.0 0.0 0.0 0.0 1.7 3.4 2.0 1.5 1.1 1.0 0.6 0.2 0.0 0.8 0.9 0.4 0.0 0.0 0.0 0.0 0.0 0.0 0.0 0.0 0.0 0.0 0.0 0.0 0.0 0.0 0.0 0.0 0.0 0.0 0.0 0.0 0.0 0.0 0.0
0.0 0.0 0.0 0.0 0.0 0.0 0.0 0.0 0.0 0.0 0.0 0.0 0.0 0.0 0.0 0.0 0.0 0.0 1.1 1.5 1.6 1.2 1.0 0.8 1.0 2.2 2.3 1.8 1.5 1.1 0.6 0.1 0.0 0.2 0.1 0.0 0.0 0.0 0.0 0.0 0.0 0.0 0.0 0.0 0.0 0.0 0.0 0.0 0.0 0.0 0.0 0.0 0.0 0.0
0.0 0.0 0.0 0.0 0.0 0.0 0.0 0.0 0.0 0.0 0.0 0.0 0.0 0.0 0.0 0.0 0.0 0.0 0.8 0.6 0.4 0.4 1.3 1.6 1.3 1.1 0.6 1.5 1.8 2.2 2.3 1.4 0.4 0.0 0.7 0.3 0.1 0.0 0.0 0.0 0.0 0.0 0.0 0.0 0.0 0.0 0.0 0.0 0.0 0.0 0.0 0.0 0.0 0.0
0.1 0.0 0.0 0.0 0.0 0.0 0.0 0.0 0.0 0.0 0.0 0.0 0.0 0.0 0.0 0.0 0.2 0.2 0.0 0.0 0.1 0.2 0.6 1.4 1.5 1.4 1.4 1.0 1.4 1.3 1.2 1.5 2.5 2.7 0.1 1.5 0.8 0.2 0.0 0.0 0.3 0.0 0.0 0.0 0.0 0.0 0.0 0.0 0.0 0.0 0.0 0.0 0.0 0.0
0.1 0.0 0.0 0.0 0.0 0.0 0.0 0.0 0.0 0.0 0.0 0.0 0.0 0.0 0.0 0.1 0.2 0.0 0.0 0.0 0.1 0.3 0.4 0.6 1.2 1.2 0.9 0.8 1.0 1.8 1.7 1.5 1.3 2.4 1.4 2.0 1.6 2.1 1.9 0.1 1.3 0.7 0.1 0.0 0.0 0.0 0.0 0.0 0.0 0.0 0.0 0.0 0.1 0.0
0.0 0.0 0.0 0.0 0.0 0.0 0.0 0.0 0.0 0.0 0.0 0.0 0.0 0.0 0.0 0.0 0.1 0.0 0.0 0.0 0.0 0.4 0.7 1.1 2.2 1.9 1.3 1.4 1.3 1.8 2.0 2.2 2.0 1.5 2.0 4.3 4.0 2.5 1.2 1.9 1.7 1.2 0.8 0.3 0.1 0.1 0.0 0.1 0.0 0.1 0.1 0.0 0.0 0.1
0.0 0.0 0.0 0.0 0.0 0.0 0.0 0.0 0.0 0.0 0.0 0.0 0.0 0.0 0.0 0.0 0.0 0.0 0.0 0.0 0.0 0.0 0.8 1.3 1.8 2.4 2.2 1.9 1.9 2.6 2.8 3.1 3.4 3.2 4.5 5.2 5.4 5.0 3.9 3.1 2.4 2.7 2.3 1.1 0.2 0.5 0.4 0.2 0.1 0.5 0.2 0.1 0.1 0.0
0.0 0.0 0.0 0.0 0.0 0.0 0.0 0.0 0.0 0.0 0.0 0.0 0.0 0.0 0.0 0.0 0.0 0.0 0.0 0.0 0.0 0.8 1.0 1.5 1.9 2.0 2.8 2.9 2.8 3.5 3.5 3.6 3.1 2.5 2.0 2.4 4.3 6.0 5.6 4.8 5.5 5.1 3.1 2.7 1.7 1.2 0.5 1.1 1.1 0.8 0.6 0.3 0.1 0.1
0.0 0.0 0.0 0.0 0.0 0.0 0.0 0.0 0.0 0.0 0.0 0.0 0.0 0.0 0.0 0.0 0.0 0.0 0.0 0.0 0.0 1.4 1.8 2.4 2.3 2.4 3.5 3.4 3.5 3.3 4.1 4.1 3.8 2.0 1.7 2.2 2.8 4.1 5.8 5.6 5.7 5.8 5.1 3.9 4.3 4.2 2.5 2.4 2.2 1.4 0.4 0.6 0.6 0.7
0.0 0.0 0.0 0.0 0.0 0.0 0.0 0.0 0.0 0.0 0.0 0.0 0.0 0.0 0.0 0.0 0.0 0.0 0.3 0.6 1.4 2.0 2.7 3.4 3.8 4.4 4.6 5.0 4.9 4.4 4.5 5.2 5.3 5.5 4.3 4.3 4.4 4.7 5.5 5.8 5.4 5.1 4.9 4.2 3.1 2.3 2.1 1.9 1.5 1.2 1.2 1.1 1.0 0.9
0.0 0.0 0.0 0.0 0.0 0.1 0.0 0.0 0.0 0.0 0.0 0.0 0.0 0.0 0.0 0.0 0.0 0.0 0.5 0.8 1.8 2.3 2.7 3.4 3.9 5.0 5.6 5.4 5.4 5.2 3.8 4.6 4.7 5.9 5.0 4.2 4.1 3.3 4.3 4.8 4.8 4.6 4.6 4.5 3.8 3.3 2.4 1.7 1.6 1.2 1.1 0.9 0.6 0.3
0.2 0.0 0.1 0.0 0.0 0.0 0.0 0.0 0.0 0.0 0.0 0.0 0.0 0.0 0.0 0.1 0.0 0.4 0.6 1.0 2.0 2.5 2.7 4.1 4.7 4.7 4.5 4.4 4.8 5.1 5.1 4.9 5.7 5.3 5.0 4.3 3.6 3.8 4.2 4.3 4.5 4.5 4.1 3.8 3.6 3.0 2.6 1.9 1.4 1.0 0.6 0.3 0.1 0.0

GFSWCAN_prec_kuchsnow_021.txt.gz
Snowfall_Accumulation
0.0 0.0 0.0 0.0 0.0 0.0 0.0 0.0 0.0 0.0 0.0 0.0 0.0 0.0 0.0 0.0 0.0 0.0 0.0 0.0 0.0 0.0 0.0 0.0 0.0 0.0 0.0 0.0 0.0 0.0 0.0 0.0 0.0 0.0 0.0 0.0 0.0 0.0 0.0 0.0 0.0 0.0 0.0 0.0 0.1 0.2 0.0 0.0 0.0 0.0 0.0 0.0 0.0 0.0
0.0 0.0 0.0 0.0 0.0 0.0 0.0 0.0 0.0 0.0 0.0 0.0 0.0 0.0 0.0 0.0 0.0 0.0 0.0 0.0 0.0 0.0 0.0 0.0 0.0 0.0 0.0 0.0 0.0 0.0 0.0 0.0 0.0 0.0 0.0 0.0 0.0 0.0 0.0 0.0 0.0 0.0 0.0 0.0 0.0 0.0 0.0 0.0 0.0 0.0 0.0 0.0 0.0 0.0
0.0 0.0 0.0 0.0 0.0 0.0 0.0 0.0 0.0 0.0 0.0 0.0 0.0 0.0 0.0 0.0 0.0 0.0 0.0 0.0 0.0 0.0 0.0 0.0 0.0 0.0 0.0 0.0 0.0 0.0 0.0 0.0 0.0 0.0 0.0 0.0 0.0 0.0 0.0 0.0 0.0 0.0 0.0 0.0 0.0 0.0 0.0 0.0 0.0 0.0 0.0 0.0 0.0 0.0
0.0 0.0 0.0 0.0 0.0 0.0 0.0 0.0 0.0 0.0 0.0 0.0 0.0 0.0 0.0 0.0 0.0 0.0 0.0 0.0 0.0 0.1 0.5 0.0 0.0 0.0 0.0 0.0 0.0 0.0 0.0 0.0 0.0 0.0 0.0 0.0 0.0 0.0 0.0 0.0 0.0 0.0 0.0 0.0 0.0 0.0 0.0 0.0 0.0 0.0 0.0 0.0 0.0 0.0
0.0 0.0 0.0 0.0 0.0 0.0 0.0 0.0 0.0 0.0 0.0 0.0 0.0 0.0 0.0 0.0 0.0 0.0 0.0 0.0 0.0 0.1 1.3 0.7 0.0 0.0 0.0 0.0 0.0 0.0 0.0 0.0 0.0 0.0 0.0 0.0 0.0 0.0 0.0 0.0 0.0 0.0 0.0 0.0 0.0 0.0 0.0 0.0 0.0 0.0 0.0 0.0 0.0 0.0
0.0 0.0 0.0 0.0 0.0 0.0 0.0 0.0 0.0 0.0 0.0 0.0 0.0 0.0 0.0 0.0 0.0 0.0 0.0 0.0 0.0 0.0 0.8 2.4 0.0 0.0 0.0 0.0 0.0 0.0 0.0 0.0 0.0 0.0 0.0 0.0 0.0 0.0 0.0 0.0 0.0 0.0 0.0 0.0 0.0 0.0 0.0 0.0 0.0 0.0 0.0 0.0 0.0 0.0
0.0 0.0 0.0 0.0 0.0 0.0 0.0 0.0 0.0 0.0 0.0 0.0 0.0 0.0 0.0 0.0 0.0 0.1 0.1 0.0 0.0 0.0 1.9 3.2 0.0 0.0 0.0 0.0 0.0 0.0 0.0 0.0 0.0 0.0 0.0 0.0 0.0 0.0 0.0 0.0 0.0 0.0 0.0 0.0 0.0 0.0 0.0 0.0 0.0 0.0 0.0 0.0 0.0 0.0
0.0 0.0 0.0 0.0 0.0 0.0 0.0 0.0 0.0 0.0 0.0 0.0 0.0 0.0 0.0 0.0 0.0 0.0 0.0 0.0 0.0 1.0 1.2 3.4 0.0 0.0 0.0 0.0 0.0 0.0 0.0 0.0 0.0 0.0 0.0 0.0 0.0 0.0 0.0 0.0 0.0 0.0 0.0 0.0 0.0 0.0 0.0 0.0 0.0 0.0 0.0 0.0 0.0 0.0
0.0 0.0 0.0 0.0 0.0 0.0 0.0 0.0 0.0 0.0 0.0 0.0 0.0 0.0 0.0 0.0 0.0 0.0 0.0 0.0 0.0 0.0 2.7 0.5 0.1 0.1 0.0 0.0 0.0 0.0 0.0 0.0 0.0 0.0 0.0 0.0 0.0 0.0 0.0 0.0 0.0 0.0 0.0 0.0 0.0 0.0 0.0 0.0 0.0 0.0 0.0 0.0 0.0 0.0
0.0 0.0 0.0 0.0 0.0 0.0 0.0 0.0 0.0 0.0 0.0 0.0 0.0 0.0 0.2 0.0 0.0 0.0 0.0 0.6 0.8 0.5 0.2 0.3 0.0 0.0 0.0 0.0 0.0 0.0 0.0 0.0 0.0 0.0 0.0 0.0 0.0 0.0 0.0 0.0 0.0 0.0 0.0 0.0 0.0 0.0 0.0 0.0 0.0 0.0 0.0 0.0 0.0 0.0
0.0 0.0 0.0 0.0 0.0 0.0 0.0 0.0 0.0 0.0 0.0 0.0 0.0 0.3 0.0 0.0 0.0 0.0 3.4 2.7 0.7 0.3 0.0 0.0 0.0 0.0 0.0 0.0 0.0 0.0 0.0 0.0 0.0 0.0 0.0 0.0 0.0 0.0 0.0 0.0 0.0 0.0 0.0 0.0 0.0 0.0 0.0 0.0 0.0 0.0 0.0 0.0 0.0 0.0
0.0 0.0 0.0 0.0 0.0 0.0 0.0 0.0 0.0 0.0 0.0 0.0 0.0 0.0 0.0 1.7 4.4 6.4 6.4 0.7 0.0 0.1 0.0 0.0 0.0 0.0 0.0 0.0 0.0 0.0 0.0 0.0 0.0 0.0 0.0 0.0 0.0 0.0 0.0 0.0 0.0 0.0 0.0 0.0 0.0 0.0 0.0 0.0 0.0 0.0 0.0 0.0 0.0 0.0
0.0 0.0 0.0 0.0 0.0 0.0 0.0 0.0 0.0 0.0 0.0 0.0 0.1 1.3 2.6 4.6 7.6 4.8 4.3 1.0 0.1 0.1 0.0 0.0 0.0 0.0 0.0 0.0 0.0 0.0 0.0 0.0 0.0 0.0 0.0 0.0 0.0 0.0 0.0 0.0 0.0 0.0 0.0 0.0 0.0 0.0 0.0 0.0 0.0 0.0 0.0 0.0 0.0 0.0
0.0 0.0 0.0 0.0 0.0 0.0 0.0 0.0 0.0 0.0 0.0 0.1 0.8 1.8 3.0 3.5 3.1 2.0 1.1 0.8 0.0 0.1 0.0 0.0 0.0 0.0 0.0 0.0 0.0 0.0 0.0 0.0 0.0 0.0 0.0 0.0 0.0 0.0 0.0 0.0 0.0 0.0 0.0 0.0 0.0 0.0 0.0 0.0 0.0 0.0 0.0 0.0 0.0 0.0
0.0 0.0 0.0 0.0 0.0 0.0 0.0 0.0 0.0 0.0 0.0 0.0 0.9 1.6 1.4 1.3 0.6 0.3 0.1 0.4 0.0 0.0 0.0 0.0 0.0 0.0 0.0 0.0 0.0 0.0 0.0 0.0 0.0 0.0 0.0 0.0 0.0 0.0 0.0 0.0 0.0 0.0 0.0 0.0 0.0 0.0 0.0 0.0 0.0 0.0 0.0 0.0 0.0 0.0
0.0 0.0 0.0 0.0 0.0 0.0 0.0 0.0 0.0 0.0 0.0 0.2 0.6 1.4 0.6 0.5 0.3 0.1 0.0 0.1 0.0 0.0 0.0 0.0 0.0 0.0 0.0 0.0 0.0 0.0 0.0 0.0 0.0 0.0 0.0 0.0 0.0 0.0 0.0 0.0 0.0 0.0 0.0 0.0 0.0 0.0 0.0 0.0 0.0 0.0 0.0 0.0 0.0 0.0
0.0 0.0 0.0 0.0 0.0 0.0 0.0 0.0 0.0 0.0 0.1 0.0 0.2 0.4 0.6 0.3 0.3 0.2 0.0 0.0 0.0 0.0 0.3 0.6 0.5 0.0 0.0 0.0 0.0 0.0 0.0 0.0 0.0 0.0 0.0 0.0 0.0 0.0 0.0 0.0 0.0 0.0 0.0 0.0 0.0 0.0 0.0 0.0 0.0 0.0 0.0 0.0 0.0 0.0
0.0 0.0 0.0 0.0 0.0 0.0 0.0 0.0 0.0 0.0 0.0 0.0 0.0 0.0 0.0 0.0 0.2 0.1 0.0 0.0 0.0 0.0 0.9 2.5 1.4 0.8 0.1 0.0 0.0 0.0 0.0 0.0 0.0 0.0 0.0 0.0 0.0 0.0 0.0 0.0 0.0 0.0 0.0 0.0 0.0 0.0 0.0 0.0 0.0 0.0 0.0 0.0 0.0 0.0
0.0 0.0 0.0 0.0 0.0 0.0 0.0 0.0 0.0 0.0 0.0 0.0 0.0 0.0 0.0 0.0 0.0 0.0 0.0 0.0 0.0 0.0 0.0 1.8 2.0 0.3 0.0 0.0 0.0 0.0 0.0 0.0 0.0 0.0 0.0 0.0 0.0 0.0 0.0 0.0 0.0 0.0 0.0 0.0 0.0 0.0 0.0 0.0 0.0 0.0 0.0 0.0 0.0 0.0
0.0 0.0 0.0 0.0 0.0 0.0 0.0 0.0 0.0 0.0 0.0 0.0 0.0 0.0 0.0 0.0 0.0 0.0 0.0 0.1 0.3 1.5 1.8 1.6 0.0 0.2 0.1 0.3 0.3 0.1 0.0 0.0 0.0 0.0 0.0 0.0 0.0 0.0 0.0 0.0 0.0 0.0 0.0 0.0 0.0 0.0 0.0 0.0 0.0 0.0 0.0 0.0 0.0 0.0
0.0 0.0 0.0 0.0 0.1 0.0 0.0 0.0 0.0 0.0 0.0 0.0 0.0 0.0 0.0 0.0 0.0 0.0 0.0 0.9 1.6 2.5 1.9 1.2 0.2 0.1 0.0 0.5 0.2 0.0 0.0 0.0 0.0 0.0 0.0 0.0 0.0 0.0 0.0 0.0 0.0 0.0 0.0 0.0 0.0 0.0 0.0 0.0 0.0 0.0 0.0 0.0 0.0 0.0
0.4 0.0 1.0 0.6 0.2 0.0 0.0 0.0 0.0 0.0 0.0 0.0 0.0 0.0 0.0 0.0 0.0 0.0 0.0 1.7 3.4 2.0 1.5 1.1 1.0 0.6 0.2 0.0 0.8 0.9 0.4 0.0 0.0 0.0 0.0 0.0 0.0 0.0 0.0 0.0 0.0 0.0 0.0 0.0 0.0 0.0 0.0 0.0 0.0 0.0 0.0 0.0 0.0 0.0
0.3 0.7 0.8 0.2 0.1 0.1 0.0 0.0 0.0 0.0 0.0 0.0 0.0 0.0 0.0 0.0 0.0 0.0 1.1 1.5 1.6 1.2 1.0 0.8 1.0 2.2 2.3 1.8 1.5 1.1 0.6 0.1 0.0 0.2 0.1 0.0 0.0 0.0 0.0 0.0 0.0 0.0 0.0 0.0 0.0 0.0 0.0 0.0 0.0 0.0 0.0 0.0 0.0 0.0
0.0 0.7 0.6 0.5 0.4 0.1 0.0 0.0 0.0 0.0 0.0 0.0 0.0 0.0 0.0 0.0 0.0 0.0 0.8 0.6 0.4 0.4 1.3 1.6 1.3 1.1 0.6 1.5 1.8 2.2 2.3 1.4 0.4 0.0 0.7 0.3 0.1 0.0 0.0 0.0 0.0 0.0 0.0 0.0 0.0 0.0 0.0 0.0 0.0 0.0 0.0 0.0 0.0 0.0
1.8 1.4 0.7 0.6 0.1 0.0 0.0 0.0 0.0 0.0 0.0 0.0 0.0 0.0 0.0 0.0 0.2 0.2 0.0 0.0 0.1 0.2 0.6 1.4 1.5 1.4 1.4 1.0 1.4 1.3 1.2 1.5 2.5 2.7 0.1 1.5 0.8 0.2 0.0 0.0 0.3 0.0 0.0 0.2 0.1 0.0 0.0 0.0 0.0 0.0 0.0 0.0 0.0 0.0
1.4 0.5 0.2 0.0 0.0 0.0 0.0 0.0 0.0 0.0 0.0 0.0 0.0 0.0 0.0 0.1 0.2 0.0 0.0 0.0 0.1 0.3 0.4 0.6 1.2 1.2 0.9 0.8 1.0 1.8 1.7 1.5 1.3 2.4 1.4 2.0 1.6 2.1 2.0 0.1 1.3 0.7 0.1 0.0 0.5 0.5 0.3 0.1 0.1 0.0 0.0 0.0 0.1 0.0
0.4 0.4 0.0 0.0 0.0 0.0 0.0 0.0 0.0 0.0 0.0 0.0 0.0 0.0 0.0 0.0 0.1 0.0 0.0 0.0 0.0 0.4 0.7 1.1 2.2 1.9 1.3 1.4 1.3 1.8 2.0 2.2 2.0 1.5 2.0 4.3 4.0 2.5 1.2 1.9 1.7 1.2 0.8 0.3 1.0 0.6 0.6 0.6 0.4 0.4 0.4 0.3 0.1 0.2
0.0 0.0 0.0 0.0 0.0 0.0 0.0 0.0 0.0 0.0 0.0 0.0 0.0 0.0 0.0 0.0 0.0 0.0 0.0 0.0 0.0 0.0 0.8 1.3 1.8 2.4 2.2 1.9 1.9 2.6 2.8 3.1 3.4 3.2 4.5 5.2 5.4 5.0 3.9 3.1 2.4 2.7 2.8 2.0 1.3 1.4 1.3 0.9 0.7 1.4 1.0 0.9 0.7 0.4
0.0 0.0 0.0 0.0 0.0 0.0 0.0 0.0 0.0 0.0 0.0 0.0 0.0 0.0 0.0 0.0 0.0 0.0 0.0 0.0 0.0 0.8 1.0 1.5 1.9 2.0 2.8 2.9 2.8 3.5 3.5 3.6 3.1 2.5 2.0 2.4 4.3 6.0 5.6 4.8 5.5 5.6 3.7 3.7 2.6 2.5 1.8 2.4 2.5 2.6 3.1 2.9 2.6 2.1
0.0 0.0 0.0 0.0 0.0 0.0 0.0 0.0 0.0 0.0 0.0 0.0 0.0 0.0 0.0 0.0 0.0 0.0 0.0 0.0 0.0 1.4 1.8 2.4 2.3 2.4 3.5 3.4 3.5 3.3 4.1 4.1 3.8 2.0 1.8 2.2 2.8 4.1 5.8 5.7 5.9 6.3 5.9 5.3 6.2 6.8 4.8 5.5 5.6 5.6 4.5 4.6 4.1 3.3
0.0 0.0 0.0 0.0 0.0 0.0 0.0 0.0 0.0 0.0 0.0 0.0 0.0 0.0 0.0 0.0 0.0 0.0 0.3 0.6 1.4 2.0 2.7 3.4 3.8 4.4 4.6 5.0 4.9 4.4 4.5 5.2 5.3 5.5 4.4 4.4 4.5 4.7 5.5 5.8 5.4 5.8 5.9 5.6 5.0 4.8 4.6 4.2 3.7 3.8 4.0 3.7 3.2 2.2
0.0 0.0 0.0 0.0 0.0 0.1 0.0 0.0 0.0 0.0 0.0 0.0 0.0 0.0 0.0 0.0 0.0 0.0 0.5 0.8 1.8 2.3 2.7 3.4 3.9 5.0 5.6 5.4 5.4 5.3 3.9 4.8 4.7 5.9 5.0 4.3 4.2 3.3 4.3 4.8 5.5 5.5 6.0 6.1 5.5 5.5 5.3 5.4 5.8 5.2 4.8 4.5 3.7 2.9
0.2 0.0 0.1 0.0 0.0 0.0 0.0 0.0 0.0 0.0 0.0 0.0 0.0 0.0 0.0 0.1 0.0 0.4 0.6 1.0 2.0 2.5 2.7 4.1 4.7 4.7 4.5 4.4 4.9 5.2 5.2 5.1 5.8 5.5 5.2 4.6 3.9 4.1 4.5 4.7 5.4 5.7 5.7 5.9 6.5 6.7 6.9 6.3 6.0 5.8 4.9 4.3 3.4 2.7

GFSWCAN_prec_kuchsnow_024.txt.gz
Snowfall_Accumulation
0.0 0.0 0.0 0.0 0.0 0.0 0.0 0.0 0.0 0.0 0.0 0.0 0.0 0.0 0.0 0.0 0.0 0.0 0.0 0.0 0.0 0.0 0.0 0.0 0.0 0.0 0.0 0.0 0.0 0.0 0.0 0.0 0.0 0.0 0.0 0.0 0.0 0.0 0.0 0.0 0.0 0.0 0.0 0.1 0.1 0.3 0.0 0.0 0.0 0.0 0.0 0.0 0.0 0.0
0.0 0.0 0.0 0.0 0.0 0.0 0.0 0.0 0.0 0.0 0.0 0.0 0.0 0.0 0.0 0.0 0.0 0.0 0.0 0.0 0.0 0.0 0.0 0.0 0.0 0.0 0.0 0.0 0.0 0.0 0.0 0.0 0.0 0.0 0.0 0.0 0.0 0.0 0.0 0.0 0.0 0.0 0.0 0.0 0.0 0.0 0.0 0.0 0.0 0.0 0.0 0.0 0.0 0.0
0.0 0.0 0.0 0.0 0.0 0.0 0.0 0.0 0.0 0.0 0.0 0.0 0.0 0.0 0.0 0.0 0.0 0.0 0.0 0.0 0.0 0.0 0.0 0.0 0.0 0.0 0.0 0.0 0.0 0.0 0.0 0.0 0.0 0.0 0.0 0.0 0.0 0.0 0.0 0.0 0.0 0.0 0.0 0.0 0.0 0.0 0.0 0.0 0.0 0.0 0.0 0.0 0.0 0.0
0.0 0.0 0.0 0.0 0.0 0.0 0.0 0.0 0.0 0.0 0.0 0.0 0.0 0.0 0.0 0.0 0.0 0.0 0.0 0.0 0.0 0.1 0.5 0.0 0.0 0.0 0.0 0.0 0.0 0.0 0.0 0.0 0.0 0.0 0.0 0.0 0.0 0.0 0.0 0.0 0.0 0.0 0.0 0.0 0.0 0.0 0.0 0.0 0.0 0.0 0.0 0.0 0.0 0.0
0.0 0.0 0.0 0.0 0.0 0.0 0.0 0.0 0.0 0.0 0.0 0.0 0.0 0.0 0.0 0.0 0.0 0.0 0.0 0.0 0.0 0.1 1.3 0.7 0.0 0.0 0.0 0.0 0.0 0.0 0.0 0.0 0.0 0.0 0.0 0.0 0.0 0.0 0.0 0.0 0.0 0.0 0.0 0.0 0.0 0.0 0.0 0.0 0.0 0.0 0.0 0.0 0.0 0.0
0.0 0.0 0.0 0.0 0.0 0.0 0.0 0.0 0.0 0.0 0.0 0.0 0.0 0.0 0.0 0.0 0.0 0.0 0.0 0.0 0.0 0.0 0.9 2.4 0.0 0.0 0.0 0.0 0.0 0.0 0.0 0.0 0.0 0.0 0.0 0.0 0.0 0.0 0.0 0.0 0.0 0.0 0.0 0.0 0.0 0.0 0.0 0.0 0.0 0.0 0.0 0.0 0.0 0.0
0.0 0.0 0.0 0.0 0.0 0.0 0.0 0.0 0.0 0.0 0.0 0.0 0.0 0.0 0.0 0.0 0.0 0.1 0.1 0.0 0.0 0.0 1.9 6.6 3.4 0.0 0.0 0.0 0.0 0.0 0.0 0.0 0.0 0.0 0.0 0.0 0.0 0.0 0.0 0.0 0.0 0.0 0.0 0.0 0.0 0.0 0.0 0.0 0.0 0.0 0.0 0.0 0.0 0.0
0.0 0.0 0.0 0.0 0.0 0.0 0.0 0.0 0.0 0.0 0.0 0.0 0.0 0.0 0.0 0.0 0.0 0.0 0.0 0.0 0.0 1.5 2.8 7.9 4.2 0.0 0.0 0.0 0.0 0.0 0.0 0.0 0.0 0.0 0.0 0.0 0.0 0.0 0.0 0.0 0.0 0.0 0.0 0.0 0.0 0.0 0.0 0.0 0.0 0.0 0.0 0.0 0.0 0.0
0.0 0.0 0.0 0.0 0.0 0.0 0.0 0.0 0.0 0.0 0.0 0.0 0.0 0.0 0.0 0.0 0.0 0.0 0.0 0.0 0.0 0.0 4.9 2.8 2.6 1.1 0.0 0.0 0.0 0.0 0.0 0.0 0.0 0.0 0.0 0.0 0.0 0.0 0.0 0.0 0.0 0.0 0.0 0.0 0.0 0.0 0.0 0.0 0.0 0.0 0.0 0.0 0.0 0.0
0.0 0.0 0.0 0.0 0.0 0.0 0.0 0.0 0.0 0.0 0.0 0.0 0.0 0.0 0.2 0.0 0.0 0.0 0.0 0.9 1.3 1.2 1.4 2.2 0.0 0.0 0.0 0.0 0.0 0.0 0.0 0.0 0.0 0.0 0.0 0.0 0.0 0.0 0.0 0.0 0.0 0.0 0.0 0.0 0.0 0.0 0.0 0.0 0.0 0.0 0.0 0.0 0.0 0.0
0.0 0.0 0.0 0.0 0.0 0.0 0.0 0.0 0.0 0.0 0.0 0.0 0.0 0.3 0.0 0.0 0.0 0.0 3.6 2.9 0.9 0.9 0.8 0.5 0.0 0.0 0.0 0.0 0.0 0.0 0.0 0.0 0.0 0.0 0.0 0.0 0.0 0.0 0.0 0.0 0.0 0.0 0.0 0.0 0.0 0.0 0.0 0.0 0.0 0.0 0.0 0.0 0.0 0.0
0.0 0.0 0.0 0.0 0.0 0.0 0.0 0.0 0.0 0.0 0.0 0.0 0.0 0.0 0.0 1.7 4.4 6.7 6.5 0.7 0.0 0.1 0.0 0.0 0.0 0.0 0.0 0.0 0.0 0.0 0.0 0.0 0.0 0.0 0.0 0.0 0.0 0.0 0.0 0.0 0.0 0.0 0.0 0.0 0.0 0.0 0.0 0.0 0.0 0.0 0.0 0.0 0.0 0.0
0.0 0.0 0.0 0.0 0.0 0.0 0.0 0.0 0.0 0.0 0.0 0.0 0.1 1.3 2.6 4.6 7.6 5.0 4.3 1.0 0.1 0.1 0.0 0.0 0.0 0.0 0.0 0.0 0.0 0.0 0.0 0.0 0.0 0.0 0.0 0.0 0.0 0.0 0.0 0.0 0.0 0.0 0.0 0.0 0.0 0.0 0.0 0.0 0.0 0.0 0.0 0.0 0.0 0.0
0.0 0.0 0.0 0.0 0.0 0.0 0.0 0.0 0.0 0.0 0.0 0.1 0.8 1.8 3.0 3.5 3.1 2.0 1.1 0.8 0.0 0.2 0.0 0.0 0.0 0.0 0.0 0.0 0.0 0.0 0.0 0.0 0.0 0.0 0.0 0.0 0.0 0.0 0.0 0.0 0.0 0.0 0.0 0.0 0.0 0.0 0.0 0.0 0.0 0.0 0.0 0.0 0.0 0.0
0.0 0.0 0.0 0.0 0.0 0.0 0.0 0.0 0.0 0.0 0.0 0.0 0.9 1.6 1.4 1.3 0.6 0.3 0.1 0.4 0.0 0.0 0.0 0.0 0.0 0.0 0.0 0.0 0.0 0.0 0.0 0.0 0.0 0.0 0.0 0.0 0.0 0.0 0.0 0.0 0.0 0.0 0.0 0.0 0.0 0.0 0.0 0.0 0.0 0.0 0.0 0.0 0.0 0.0
0.0 0.0 0.0 0.0 0.0 0.0 0.0 0.0 0.0 0.0 0.0 0.2 0.7 1.4 0.6 0.5 0.3 0.1 0.0 0.1 0.0 0.0 0.0 0.0 0.0 0.0 0.0 0.0 0.0 0.0 0.0 0.0 0.0 0.0 0.0 0.0 0.0 0.0 0.0 0.0 0.0 0.0 0.0 0.0 0.0 0.0 0.0 0.0 0.0 0.0 0.0 0.0 0.0 0.0
0.0 0.0 0.0 0.0 0.0 0.0 0.0 0.0 0.0 0.0 0.1 0.0 0.2 0.4 0.6 0.3 0.3 0.2 0.0 0.0 0.0 0.1 0.6 0.7 0.7 0.0 0.0 0.1 0.0 0.0 0.0 0.0 0.0 0.0 0.0 0.0 0.0 0.0 0.0 0.0 0.0 0.0 0.0 0.0 0.0 0.0 0.0 0.0 0.0 0.0 0.0 0.0 0.0 0.0
0.0 0.0 0.0 0.0 0.0 0.0 0.0 0.0 0.0 0.0 0.0 0.0 0.0 0.0 0.0 0.0 0.2 0.1 0.0 0.0 0.0 0.1 1.2 2.9 1.4 0.9 0.1 0.0 0.0 0.0 0.0 0.0 0.0 0.0 0.0 0.0 0.0 0.0 0.0 0.0 0.0 0.0 0.0 0.0 0.0 0.0 0.0 0.0 0.0 0.0 0.0 0.0 0.0 0.0
0.0 0.0 0.0 0.0 0.0 0.0 0.0 0.0 0.0 0.0 0.0 0.0 0.0 0.0 0.0 0.0 0.0 0.0 0.0 0.0 0.0 0.0 0.1 2.0 2.1 0.3 0.0 0.0 0.0 0.0 0.0 0.0 0.0 0.0 0.0 0.0 0.0 0.0 0.0 0.0 0.0 0.0 0.0 0.0 0.0 0.0 0.0 0.0 0.0 0.0 0.0 0.0 0.0 0.0
0.0 0.0 0.0 0.0 0.0 0.0 0.0 0.0 0.0 0.0 0.0 0.0 0.0 0.0 0.0 0.0 0.0 0.0 0.0 0.1 0.3 1.5 1.8 1.6 0.0 0.2 0.1 0.3 0.3 0.1 0.0 0.0 0.0 0.0 0.0 0.0 0.0 0.0 0.0 0.0 0.0 0.0 0.0 0.0 0.0 0.0 0.0 0.0 0.0 0.0 0.0 0.0 0.0 0.0
0.0 0.0 0.0 0.0 0.3 0.0 0.0 0.0 0.0 0.0 0.0 0.0 0.0 0.0 0.0 0.0 0.0 0.0 0.0 0.9 1.6 2.5 1.9 1.2 0.2 0.1 0.0 0.5 0.2 0.0 0.0 0.0 0.0 0.0 0.0 0.0 0.0 0.0 0.0 0.0 0.0 0.0 0.0 0.0 0.0 0.0 0.0 0.0 0.0 0.0 0.0 0.0 0.0 0.0
0.4 0.0 1.4 1.2 0.4 0.0 0.0 0.0 0.0 0.0 0.0 0.0 0.0 0.0 0.0 0.0 0.0 0.0 0.0 1.7 3.4 2.0 1.5 1.1 1.0 0.6 0.2 0.0 0.8 0.9 0.4 0.0 0.0 0.0 0.0 0.0 0.0 0.0 0.0 0.0 0.0 0.0 0.0 0.0 0.0 0.0 0.0 0.0 0.0 0.0 0.0 0.0 0.0 0.0
0.3 1.3 1.8 1.0 0.4 0.3 0.0 0.0 0.0 0.0 0.0 0.0 0.0 0.0 0.0 0.0 0.0 0.0 1.1 1.5 1.6 1.2 1.0 0.8 1.0 2.2 2.3 1.8 1.5 1.1 0.6 0.1 0.0 0.2 0.1 0.0 0.0 0.0 0.0 0.0 0.0 0.0 0.0 0.0 0.0 0.0 0.0 0.0 0.0 0.0 0.0 0.0 0.0 0.0
0.0 2.0 2.0 1.4 0.8 0.3 0.0 0.0 0.0 0.0 0.0 0.0 0.0 0.0 0.0 0.0 0.0 0.0 0.8 0.6 0.4 0.4 1.3 1.6 1.3 1.1 0.6 1.5 1.8 2.2 2.3 1.4 0.4 0.0 0.7 0.3 0.1 0.0 0.0 0.0 0.0 0.0 0.0 0.0 0.0 0.0 0.0 0.0 0.0 0.0 0.0 0.0 0.0 0.0
4.1 3.7 1.9 1.5 0.3 0.0 0.0 0.0 0.0 0.0 0.0 0.0 0.2 0.0 0.0 0.0 0.2 0.2 0.0 0.0 0.1 0.2 0.6 1.4 1.5 1.4 1.4 1.0 1.4 1.3 1.2 1.5 2.5 2.7 0.1 1.5 0.8 0.2 0.0 0.0 0.3 0.0 0.0 0.2 0.1 0.0 0.0 0.0 0.0 0.0 0.0 0.0 0.0 0.0
4.1 1.5 0.4 0.0 0.0 0.0 0.0 0.0 0.0 0.0 0.0 0.0 0.2 0.0 0.0 0.1 0.2 0.0 0.0 0.0 0.1 0.3 0.4 0.6 1.2 1.2 0.9 0.8 1.0 1.8 1.7 1.5 1.3 2.4 1.4 2.0 1.6 2.1 2.0 0.1 1.3 0.7 0.1 0.0 0.5 0.5 0.3 0.1 0.1 0.0 0.0 0.0 0.2 0.1
2.1 1.2 0.0 0.0 0.0 0.0 0.0 0.0 0.0 0.0 0.0 0.3 0.0 0.0 0.0 0.0 0.1 0.0 0.0 0.0 0.0 0.4 0.7 1.1 2.2 1.9 1.3 1.4 1.3 1.8 2.0 2.2 2.0 1.5 2.0 4.3 4.0 2.5 1.2 1.9 1.7 1.2 0.8 0.3 1.0 0.6 0.6 0.6 0.4 0.6 0.5 0.6 0.5 0.4
0.4 0.0 0.0 0.0 0.0 0.0 0.0 0.0 0.0 0.0 0.0 0.0 0.0 0.0 0.0 0.0 0.0 0.0 0.0 0.0 0.0 0.0 0.8 1.3 1.8 2.4 2.2 1.9 1.9 2.6 2.8 3.1 3.4 3.2 4.5 5.2 5.4 5.0 3.9 3.1 2.4 2.7 2.8 2.0 1.3 1.4 1.3 0.9 0.7 1.5 1.2 1.1 1.1 0.9
0.0 0.0 0.0 0.0 0.0 0.0 0.0 0.0 0.0 0.0 0.0 0.0 0.0 0.0 0.0 0.0 0.0 0.0 0.0 0.0 0.0 0.8 1.0 1.5 1.9 2.0 2.8 2.9 2.8 3.5 3.5 3.6 3.1 2.5 2.0 2.4 4.3 6.0 5.6 4.8 5.5 5.6 3.7 3.7 2.6 2.5 2.0 2.5 2.5 2.6 3.1 3.2 3.0 2.9
0.0 0.0 0.0 0.0 0.0 0.0 0.0 0.0 0.0 0.0 0.0 0.0 0.0 0.0 0.0 0.0 0.0 0.0 0.0 0.0 0.0 1.4 1.8 2.4 2.3 2.4 3.5 3.4 3.5 3.3 4.1 4.1 3.8 2.0 1.8 2.2 2.8 4.1 5.8 5.7 5.9 6.3 5.9 5.3 6.2 6.8 4.8 5.8 6.0 6.2 5.1 5.1 4.8 4.4
0.0 0.0 0.0 0.0 0.0 0.0 0.0 0.0 0.0 0.0 0.0 0.0 0.0 0.0 0.0 0.0 0.0 0.0 0.3 0.6 1.4 2.0 2.7 3.4 3.8 4.4 4.6 5.0 4.9 4.4 4.5 5.2 5.3 5.5 4.4 4.4 4.5 4.7 5.5 5.8 5.4 5.8 5.9 5.6 5.0 4.8 4.9 4.6 4.1 4.0 4.0 4.1 3.9 3.2
0.0 0.0 0.0 0.0 0.0 0.1 0.0 0.0 0.0 0.0 0.0 0.0 0.0 0.0 0.0 0.0 0.0 0.0 0.5 0.8 1.8 2.3 2.7 3.4 3.9 5.0 5.6 5.4 5.4 5.3 3.9 4.8 4.7 5.9 5.0 4.3 4.2 3.3 4.3 4.8 5.5 5.5 6.0 6.1 5.5 5.8 5.7 5.6 6.0 5.6 5.4 5.3 4.7 4.3
0.2 0.0 0.1 0.0 0.0 0.0 0.0 0.0 0.0 0.0 0.0 0.0 0.0 0.0 0.0 0.1 0.0 0.4 0.6 1.0 2.0 2.5 2.7 4.1 4.7 4.7 4.5 4.4 4.9 5.2 5.2 5.1 5.8 5.5 5.2 4.8 4.1 4.3 4.7 4.7 5.5 5.9 5.9 6.1 6.8 7.0 7.3 6.8 6.5 6.3 5.6 5.2 4.8 4.3

GFSWCAN_prec_kuchsnow_027.txt.gz
Snowfall_Accumulation
0.0 0.0 0.0 0.0 0.0 0.0 0.0 0.0 0.0 0.0 0.0 0.0 0.0 0.0 0.0 0.0 0.0 0.0 0.0 0.0 0.0 0.0 0.0 0.0 0.0 0.0 0.0 0.0 0.0 0.0 0.0 0.0 0.0 0.0 0.0 0.0 0.0 0.0 0.0 0.0 0.0 0.0 0.0 0.1 0.2 0.5 0.0 0.0 0.0 0.0 0.0 0.0 0.0 0.0
0.0 0.0 0.0 0.0 0.0 0.0 0.0 0.0 0.0 0.0 0.0 0.0 0.0 0.0 0.0 0.0 0.0 0.0 0.0 0.0 0.0 0.0 0.0 0.0 0.0 0.0 0.0 0.0 0.0 0.0 0.0 0.0 0.0 0.0 0.0 0.0 0.0 0.0 0.0 0.0 0.0 0.0 0.0 0.0 0.0 0.0 0.0 0.0 0.0 0.0 0.0 0.0 0.0 0.0
0.0 0.0 0.0 0.0 0.0 0.0 0.0 0.0 0.0 0.0 0.0 0.0 0.0 0.0 0.0 0.0 0.0 0.0 0.0 0.0 0.0 0.0 0.0 0.0 0.0 0.0 0.0 0.0 0.0 0.0 0.0 0.0 0.0 0.0 0.0 0.0 0.0 0.0 0.0 0.0 0.0 0.0 0.0 0.0 0.0 0.0 0.0 0.0 0.0 0.0 0.0 0.0 0.0 0.0
0.0 0.0 0.0 0.0 0.0 0.0 0.0 0.0 0.0 0.0 0.0 0.0 0.0 0.0 0.0 0.0 0.0 0.0 0.0 0.0 0.0 0.2 0.7 0.0 0.0 0.0 0.0 0.0 0.0 0.0 0.0 0.0 0.0 0.0 0.0 0.0 0.0 0.0 0.0 0.0 0.0 0.0 0.0 0.0 0.0 0.0 0.0 0.0 0.0 0.0 0.0 0.0 0.0 0.0
0.0 0.0 0.0 0.0 0.0 0.0 0.0 0.0 0.0 0.0 0.0 0.0 0.0 0.0 0.0 0.0 0.0 0.0 0.0 0.0 0.0 0.3 1.5 0.7 0.0 0.0 0.0 0.0 0.0 0.0 0.0 0.0 0.0 0.0 0.0 0.0 0.0 0.0 0.0 0.0 0.0 0.0 0.0 0.0 0.0 0.0 0.0 0.0 0.0 0.0 0.0 0.0 0.0 0.0
0.0 0.0 0.0 0.0 0.0 0.0 0.0 0.0 0.0 0.0 0.0 0.0 0.0 0.0 0.0 0.0 0.0 0.0 0.0 0.0 0.0 0.0 1.3 2.4 0.0 0.0 0.0 0.0 0.0 0.0 0.0 0.0 0.0 0.0 0.0 0.0 0.0 0.0 0.0 0.0 0.0 0.0 0.0 0.0 0.0 0.0 0.0 0.0 0.0 0.0 0.0 0.0 0.0 0.0
0.0 0.0 0.0 0.0 0.0 0.0 0.0 0.0 0.0 0.0 0.0 0.0 0.0 0.0 0.0 0.0 0.0 0.1 0.1 0.0 0.0 0.0 2.1 7.3 4.1 0.0 0.0 0.0 0.0 0.0 0.0 0.0 0.0 0.0 0.0 0.0 0.0 0.0 0.0 0.0 0.0 0.0 0.0 0.0 0.0 0.0 0.0 0.0 0.0 0.0 0.0 0.0 0.0 0.0
0.0 0.0 0.0 0.0 0.0 0.0 0.0 0.0 0.0 0.0 0.0 0.0 0.0 0.0 0.0 0.0 0.0 0.0 0.0 0.0 0.0 1.5 3.5 10.2 8.1 3.2 0.0 0.0 0.0 0.0 0.0 0.0 0.0 0.0 0.0 0.0 0.0 0.0 0.0 0.0 0.0 0.0 0.0 0.0 0.0 0.0 0.0 0.0 0.0 0.0 0.0 0.0 0.0 0.0
0.0 0.0 0.0 0.0 0.0 0.0 0.0 0.0 0.0 0.0 0.0 0.0 0.0 0.0 0.0 0.0 0.0 0.0 0.0 0.0 0.0 0.0 5.9 4.8 8.2 4.0 0.0 0.0 0.0 0.0 0.0 0.0 0.0 0.0 0.0 0.0 0.0 0.0 0.0 0.0 0.0 0.0 0.0 0.0 0.0 0.0 0.0 0.0 0.0 0.0 0.0 0.0 0.0 0.0
0.0 0.0 0.0 0.0 0.0 0.0 0.0 0.0 0.0 0.0 0.0 0.0 0.0 0.0 0.2 0.0 0.0 0.0 0.0 1.0 1.5 1.4 1.9 3.9 1.0 0.0 0.0 0.0 0.0 0.0 0.0 0.0 0.7 0.0 0.0 0.0 0.0 0.0 0.0 0.0 0.0 0.0 0.0 0.0 0.0 0.0 0.0 0.0 0.0 0.0 0.0 0.0 0.0 0.0
0.0 0.0 0.0 0.0 0.0 0.0 0.0 0.0 0.0 0.0 0.0 0.0 0.0 0.3 0.0 0.0 0.0 0.0 3.8 3.1 1.0 1.2 1.4 1.1 0.0 0.0 0.0 0.0 0.0 0.0 0.0 0.0 0.3 0.1 0.0 0.0 0.0 0.0 0.0 0.0 0.0 0.0 0.0 0.0 0.0 0.0 0.0 0.0 0.0 0.0 0.0 0.0 0.0 0.0
0.0 0.0 0.0 0.0 0.0 0.0 0.0 0.0 0.0 0.0 0.0 0.0 0.0 0.0 0.0 1.7 4.5 6.8 6.5 0.8 0.1 0.2 0.1 0.0 0.0 0.0 0.0 0.0 0.0 0.0 0.2 0.3 0.2 0.0 0.0 0.0 0.0 0.0 0.0 0.0 0.0 0.0 0.0 0.0 0.0 0.0 0.0 0.0 0.0 0.0 0.0 0.0 0.0 0.0
0.0 0.0 0.0 0.0 0.0 0.0 0.0 0.0 0.0 0.0 0.0 0.0 0.1 1.3 2.6 4.6 7.6 5.0 4.3 1.0 0.2 0.2 0.0 0.1 0.0 0.0 0.0 0.0 0.0 0.0 0.0 0.0 0.0 0.0 0.0 0.0 0.0 0.0 0.0 0.0 0.0 0.0 0.0 0.0 0.0 0.0 0.0 0.0 0.0 0.0 0.0 0.0 0.0 0.0
0.0 0.0 0.0 0.0 0.0 0.0 0.0 0.0 0.0 0.0 0.0 0.1 0.8 1.8 3.0 3.5 3.1 2.0 1.1 0.8 0.0 0.2 0.0 0.0 0.0 0.0 0.0 0.0 0.0 0.0 0.0 0.0 0.0 0.0 0.0 0.0 0.0 0.0 0.0 0.0 0.0 0.0 0.0 0.0 0.0 0.0 0.0 0.0 0.0 0.0 0.0 0.0 0.0 0.0
0.0 0.0 0.0 0.0 0.0 0.0 0.0 0.0 0.0 0.0 0.0 0.0 0.9 1.6 1.4 1.3 0.6 0.3 0.1 0.4 0.0 0.0 0.0 0.0 0.0 0.0 0.0 0.0 0.0 0.0 0.0 0.0 0.0 0.0 0.0 0.0 0.0 0.0 0.0 0.0 0.0 0.0 0.0 0.0 0.0 0.0 0.0 0.0 0.0 0.0 0.0 0.0 0.0 0.2
0.0 0.0 0.0 0.0 0.0 0.0 0.0 0.0 0.0 0.0 0.0 0.2 0.7 1.4 0.6 0.5 0.3 0.1 0.0 0.1 0.0 0.0 0.1 0.1 0.1 0.0 0.0 0.0 0.0 0.0 0.0 0.0 0.0 0.0 0.0 0.0 0.0 0.0 0.0 0.0 0.0 0.0 0.0 0.0 0.0 0.0 0.0 0.0 0.0 0.0 0.0 0.0 0.0 0.6
0.0 0.0 0.0 0.0 0.0 0.0 0.0 0.0 0.0 0.0 0.1 0.0 0.2 0.4 0.6 0.3 0.3 0.2 0.0 0.0 0.0 0.2 0.8 1.0 1.0 0.0 0.0 0.1 0.0 0.0 0.0 0.0 0.0 0.0 0.0 0.0 0.0 0.0 0.0 0.0 0.0 0.0 0.0 0.0 0.0 0.0 0.0 0.0 0.0 0.0 0.0 0.0 0.0 0.0
0.0 0.0 0.0 0.0 0.0 0.0 0.0 0.0 0.0 0.0 0.0 0.0 0.0 0.0 0.0 0.0 0.2 0.1 0.0 0.0 0.0 0.2 1.3 3.2 1.4 1.1 0.1 0.0 0.0 0.0 0.0 0.0 0.0 0.0 0.0 0.0 0.0 0.0 0.0 0.0 0.0 0.0 0.0 0.0 0.0 0.0 0.0 0.0 0.0 0.0 0.0 0.0 0.0 0.0
0.0 0.0 0.0 0.0 0.0 0.0 0.0 0.0 0.0 0.0 0.0 0.0 0.0 0.0 0.0 0.0 0.0 0.0 0.0 0.0 0.0 0.0 0.3 2.2 2.1 0.3 0.0 0.0 0.0 0.0 0.0 0.0 0.0 0.0 0.0 0.0 0.0 0.0 0.0 0.0 0.0 0.0 0.0 0.0 0.0 0.0 0.0 0.0 0.0 0.0 0.0 0.0 0.0 0.0
0.0 0.0 0.0 0.0 0.0 0.0 0.0 0.0 0.0 0.0 0.0 0.0 0.0 0.0 0.0 0.0 0.0 0.0 0.0 0.1 0.3 1.5 1.8 1.7 0.0 0.2 0.1 0.3 0.3 0.1 0.0 0.0 0.0 0.0 0.0 0.0 0.0 0.0 0.0 0.0 0.0 0.0 0.0 0.0 0.0 0.0 0.0 0.0 0.0 0.0 0.0 0.0 0.0 0.0
0.0 0.0 0.0 0.0 0.3 0.1 0.0 0.0 0.0 0.0 0.0 0.0 0.0 0.0 0.0 0.0 0.0 0.0 0.0 0.9 1.6 2.5 1.9 1.2 0.2 0.1 0.0 0.5 0.2 0.0 0.0 0.0 0.0 0.0 0.0 0.0 0.0 0.0 0.0 0.0 0.0 0.0 0.0 0.0 0.0 0.0 0.0 0.0 0.0 0.0 0.0 0.0 0.0 0.0
0.4 0.0 1.7 1.5 1.1 0.4 0.2 0.0 0.0 0.0 0.0 0.0 0.0 0.0 0.0 0.0 0.0 0.0 0.0 1.7 3.4 2.0 1.5 1.1 1.0 0.6 0.2 0.0 0.8 0.9 0.4 0.0 0.0 0.0 0.0 0.0 0.0 0.0 0.0 0.0 0.0 0.0 0.0 0.0 0.0 0.0 0.0 0.0 0.0 0.0 0.0 0.0 0.0 0.0
0.3 1.3 2.7 1.9 1.2 0.9 0.1 0.0 0.0 0.0 0.0 0.0 0.0 0.0 0.0 0.0 0.0 0.0 1.1 1.5 1.6 1.2 1.0 0.8 1.0 2.2 2.3 1.8 1.5 1.1 0.6 0.1 0.0 0.2 0.1 0.0 0.0 0.0 0.0 0.0 0.0 0.0 0.0 0.0 0.0 0.0 0.0 0.0 0.0 0.0 0.0 0.0 0.0 0.0
0.0 2.6 3.3 2.5 1.5 0.6 0.1 0.0 0.0 0.0 0.0 0.0 0.0 0.0 0.0 0.0 0.0 0.0 0.8 0.6 0.4 0.4 1.3 1.6 1.3 1.1 0.6 1.5 1.8 2.2 2.3 1.4 0.4 0.0 0.7 0.3 0.1 0.0 0.0 0.0 0.0 0.0 0.0 0.0 0.0 0.0 0.0 0.0 0.0 0.0 0.0 0.0 0.0 0.0
5.2 4.8 2.9 2.4 0.7 0.1 0.0 0.0 0.0 0.0 0.0 0.0 0.2 0.0 0.0 0.0 0.2 0.2 0.0 0.0 0.1 0.2 0.6 1.4 1.5 1.4 1.4 1.0 1.4 1.3 1.2 1.5 2.5 2.7 0.1 1.5 0.8 0.2 0.0 0.0 0.3 0.0 0.0 0.2 0.1 0.0 0.0 0.0 0.0 0.0 0.0 0.0 0.0 0.0
5.4 2.2 0.8 0.0 0.0 0.0 0.0 0.0 0.0 0.0 0.0 0.0 0.2 0.0 0.0 0.1 0.2 0.0 0.0 0.0 0.1 0.3 0.4 0.6 1.2 1.2 0.9 0.8 1.0 1.8 1.7 1.5 1.3 2.4 1.4 2.0 1.6 2.1 2.0 0.1 1.3 0.7 0.1 0.0 0.5 0.5 0.3 0.1 0.1 0.0 0.0 0.0 0.2 0.1
2.7 1.2 0.0 0.0 0.0 0.0 0.0 0.0 0.0 0.0 0.0 0.3 0.0 0.0 0.0 0.0 0.1 0.0 0.0 0.0 0.0 0.4 0.7 1.1 2.2 1.9 1.3 1.4 1.3 1.8 2.0 2.2 2.0 1.5 2.0 4.3 4.0 2.5 1.2 1.9 1.7 1.2 0.8 0.3 1.0 0.6 0.6 0.6 0.4 0.6 0.5 0.6 0.5 0.4
0.4 0.0 0.0 0.0 0.0 0.0 0.0 0.0 0.0 0.0 0.0 0.0 0.0 0.0 0.0 0.0 0.0 0.0 0.0 0.0 0.0 0.0 0.8 1.3 1.8 2.4 2.2 1.9 1.9 2.6 2.8 3.1 3.4 3.2 4.5 5.2 5.4 5.0 3.9 3.1 2.4 2.7 2.8 2.0 1.3 1.4 1.3 0.9 0.7 1.5 1.2 1.1 1.1 0.9
0.0 0.0 0.0 0.0 0.0 0.0 0.0 0.0 0.0 0.0 0.0 0.0 0.0 0.0 0.0 0.0 0.0 0.0 0.0 0.0 0.0 0.8 1.0 1.5 1.9 2.0 2.8 2.9 2.8 3.5 3.5 3.6 3.1 2.5 2.0 2.4 4.3 6.0 5.6 4.8 5.5 5.6 3.7 3.7 2.6 2.5 2.1 2.5 2.5 2.6 3.1 3.2 3.0 2.9
0.0 0.0 0.0 0.0 0.0 0.0 0.0 0.0 0.0 0.0 0.0 0.0 0.0 0.0 0.0 0.0 0.0 0.0 0.0 0.0 0.0 1.4 1.8 2.4 2.3 2.4 3.5 3.4 3.5 3.3 4.1 4.1 3.8 2.0 1.8 2.2 2.8 4.1 5.8 5.7 5.9 6.3 5.9 5.3 6.2 6.8 4.8 5.8 6.2 6.2 5.6 5.5 5.0 4.7
0.0 0.0 0.0 0.0 0.0 0.0 0.0 0.0 0.0 0.0 0.0 0.0 0.0 0.0 0.0 0.0 0.0 0.0 0.3 0.6 1.4 2.0 2.7 3.4 3.8 4.4 4.6 5.0 4.9 4.4 4.5 5.2 5.3 5.5 4.4 4.4 4.5 4.7 5.5 5.8 5.4 5.8 5.9 5.6 5.0 4.8 4.9 4.6 4.1 4.2 4.2 4.2 3.9 3.4
0.0 0.0 0.0 0.0 0.0 0.1 0.0 0.0 0.0 0.0 0.0 0.0 0.0 0.0 0.0 0.0 0.0 0.0 0.5 0.8 1.8 2.3 2.7 3.4 3.9 5.0 5.6 5.4 5.4 5.3 3.9 4.8 4.7 5.9 5.0 4.3 4.2 3.3 4.3 4.8 5.5 5.5 6.0 6.1 5.5 5.8 5.7 5.8 6.2 5.7 5.7 5.5 5.0 4.5
0.3 0.0 0.1 0.0 0.0 0.0 0.0 0.0 0.0 0.0 0.0 0.0 0.0 0.0 0.0 0.1 0.0 0.4 0.6 1.0 2.0 2.5 2.7 4.1 4.7 4.7 4.5 4.4 4.9 5.2 5.2 5.1 5.8 5.5 5.2 4.8 4.2 4.3 4.7 5.0 5.6 6.0 6.1 6.2 6.9 7.2 7.5 7.0 6.8 6.6 5.9 5.5 5.1 4.8

GFSWCAN_prec_kuchsnow_030.txt.gz
Snowfall_Accumulation
0.0 0.0 0.0 0.0 0.0 0.0 0.0 0.0 0.0 0.0 0.0 0.0 0.0 0.0 0.0 0.0 0.0 0.0 0.0 0.0 0.0 0.0 0.0 0.0 0.0 0.0 0.0 0.0 0.0 0.0 0.0 0.0 0.0 0.0 0.0 0.0 0.0 0.0 0.0 0.0 0.0 0.0 0.0 0.1 0.2 0.6 0.0 0.0 0.0 0.0 0.0 0.0 0.0 0.0
0.0 0.0 0.0 0.0 0.0 0.0 0.0 0.0 0.0 0.0 0.0 0.0 0.0 0.0 0.0 0.0 0.0 0.0 0.0 0.0 0.0 0.0 0.0 0.0 0.0 0.0 0.0 0.0 0.0 0.0 0.0 0.0 0.0 0.0 0.0 0.0 0.0 0.0 0.0 0.0 0.0 0.0 0.0 0.0 0.0 0.0 0.0 0.0 0.0 0.0 0.0 0.0 0.0 0.0
0.0 0.0 0.0 0.0 0.0 0.0 0.0 0.0 0.0 0.0 0.0 0.0 0.0 0.0 0.0 0.0 0.0 0.0 0.0 0.0 0.0 0.0 0.0 0.0 0.0 0.0 0.0 0.0 0.0 0.0 0.0 0.0 0.0 0.0 0.0 0.0 0.0 0.0 0.0 0.0 0.0 0.0 0.0 0.0 0.0 0.0 0.0 0.0 0.0 0.0 0.0 0.0 0.0 0.0
0.0 0.0 0.0 0.0 0.0 0.0 0.0 0.0 0.0 0.0 0.0 0.0 0.0 0.0 0.0 0.0 0.0 0.0 0.0 0.0 0.0 0.2 1.1 0.0 0.0 0.0 0.0 0.0 0.0 0.0 0.0 0.0 0.0 0.0 0.0 0.0 0.0 0.0 0.0 0.0 0.0 0.0 0.0 0.0 0.0 0.0 0.0 0.0 0.0 0.0 0.0 0.0 0.0 0.0
0.0 0.0 0.0 0.0 0.0 0.0 0.0 0.0 0.0 0.0 0.0 0.0 0.0 0.0 0.0 0.0 0.0 0.0 0.0 0.0 0.0 0.3 2.0 0.7 0.0 0.0 0.0 0.0 0.0 0.0 0.0 0.0 0.0 0.0 0.0 0.0 0.0 0.0 0.0 0.0 0.0 0.0 0.0 0.0 0.0 0.0 0.0 0.0 0.0 0.0 0.0 0.0 0.0 0.0
0.0 0.0 0.0 0.0 0.0 0.0 0.0 0.0 0.0 0.0 0.0 0.0 0.0 0.0 0.0 0.0 0.0 0.0 0.0 0.0 0.0 0.0 2.1 2.9 0.0 0.0 0.0 0.0 0.0 0.0 0.0 0.0 0.0 0.0 0.0 0.0 0.0 0.0 0.0 0.0 0.0 0.0 0.0 0.0 0.0 0.0 0.0 0.0 0.0 0.0 0.0 0.0 0.0 0.0
0.0 0.0 0.0 0.0 0.0 0.0 0.0 0.0 0.0 0.0 0.0 0.0 0.0 0.0 0.0 0.0 0.0 0.1 0.1 0.0 0.0 0.0 2.4 7.6 4.1 0.1 0.0 0.0 0.0 0.0 0.0 0.0 0.0 0.0 0.0 0.0 0.0 0.0 0.0 0.0 0.0 0.0 0.0 0.0 0.0 0.0 0.0 0.0 0.0 0.0 0.0 0.0 0.0 0.0
0.0 0.0 0.0 0.0 0.0 0.0 0.0 0.0 0.0 0.0 0.0 0.0 0.0 0.0 0.0 0.0 0.0 0.0 0.0 0.0 0.0 1.5 3.9 10.9 8.8 4.2 0.0 0.0 0.0 0.0 0.0 0.0 0.0 0.0 0.0 0.0 0.0 0.0 0.0 0.0 0.0 0.0 0.0 0.0 0.0 0.0 0.0 0.0 0.0 0.0 0.0 0.0 0.0 0.0
0.0 0.0 0.0 0.0 0.0 0.0 0.0 0.0 0.0 0.0 0.0 0.0 0.0 0.0 0.0 0.0 0.0 0.0 0.0 0.0 0.0 0.1 6.6 6.0 9.5 5.4 0.0 0.0 0.0 0.0 0.0 0.0 0.0 0.0 0.0 0.0 0.0 0.0 0.0 0.0 0.0 0.0 0.0 0.0 0.0 0.0 0.0 0.0 0.0 0.0 0.0 0.0 0.0 0.0
0.0 0.0 0.0 0.0 0.0 0.0 0.0 0.0 0.0 0.0 0.0 0.0 0.0 0.0 0.2 0.0 0.0 0.0 0.0 1.1 1.7 1.7 2.3 5.1 1.7 1.2 0.0 0.0 0.0 0.0 0.0 0.0 0.7 0.0 0.0 0.0 0.0 0.0 0.0 0.0 0.0 0.0 0.0 0.0 0.0 0.0 0.0 0.0 0.0 0.0 0.0 0.0 0.0 0.0
0.0 0.0 0.0 0.0 0.0 0.0 0.0 0.0 0.0 0.0 0.0 0.0 0.0 0.3 0.0 0.0 0.0 0.0 3.8 3.3 1.2 1.4 1.6 1.6 0.6 0.4 0.0 0.0 0.0 0.0 0.0 0.0 0.3 0.1 0.0 0.0 0.0 0.0 0.0 0.0 0.0 0.0 0.0 0.0 0.0 0.0 0.0 0.0 0.0 0.0 0.0 0.0 0.0 0.0
0.0 0.0 0.0 0.0 0.0 0.0 0.0 0.0 0.0 0.0 0.0 0.0 0.0 0.0 0.0 1.7 4.5 6.9 6.5 0.8 0.2 0.4 0.2 0.3 0.0 0.0 0.0 0.0 0.0 0.0 0.2 0.3 0.2 0.0 0.0 0.0 0.0 0.0 0.0 0.0 0.0 0.0 0.0 0.0 0.0 0.0 0.0 0.0 0.0 0.0 0.0 0.0 0.0 0.0
0.0 0.0 0.0 0.0 0.0 0.0 0.0 0.0 0.0 0.0 0.0 0.0 0.1 1.3 2.7 4.6 7.7 5.0 4.3 1.0 0.3 0.2 0.2 0.5 0.9 0.0 0.0 0.0 0.0 0.0 0.0 0.1 0.0 0.1 0.0 0.0 0.0 0.0 0.0 0.0 0.0 0.0 0.0 0.0 0.0 0.0 0.0 0.0 0.0 0.0 0.0 0.0 0.0 0.0
0.0 0.0 0.0 0.0 0.0 0.0 0.0 0.0 0.0 0.0 0.0 0.1 0.8 1.8 3.0 3.5 3.1 2.0 1.1 0.8 0.0 0.2 0.0 0.0 0.3 0.3 0.0 0.0 0.0 0.0 0.0 0.0 0.0 0.0 0.0 0.0 0.0 0.0 0.0 0.0 0.0 0.0 0.0 0.0 0.0 0.0 0.0 0.0 0.0 0.0 0.0 0.0 0.0 0.0
0.0 0.0 0.0 0.0 0.0 0.0 0.0 0.0 0.0 0.0 0.0 0.0 0.9 1.6 1.4 1.3 0.6 0.3 0.1 0.4 0.0 0.0 0.0 0.0 0.0 0.0 0.1 0.0 0.0 0.0 0.0 0.0 0.0 0.0 0.0 0.0 0.0 0.0 0.0 0.0 0.0 0.0 0.0 0.0 0.0 0.0 0.0 0.0 0.0 0.0 0.0 0.0 0.0 0.2
0.0 0.0 0.0 0.0 0.0 0.0 0.0 0.0 0.0 0.0 0.0 0.2 0.7 1.4 0.6 0.5 0.3 0.1 0.0 0.1 0.0 0.0 0.1 0.2 0.1 0.1 0.0 0.0 0.0 0.0 0.0 0.0 0.0 0.0 0.0 0.0 0.0 0.0 0.0 0.0 0.0 0.0 0.0 0.0 0.0 0.0 0.0 0.0 0.0 0.0 0.0 0.0 0.0 0.6
0.0 0.0 0.0 0.0 0.0 0.0 0.0 0.0 0.0 0.0 0.1 0.0 0.2 0.4 0.6 0.3 0.3 0.2 0.0 0.0 0.0 0.2 1.0 1.2 1.2 0.0 0.1 0.1 0.0 0.0 0.0 0.0 0.0 0.0 0.0 0.0 0.0 0.0 0.0 0.0 0.0 0.0 0.0 0.0 0.0 0.0 0.0 0.0 0.0 0.0 0.0 0.0 0.0 0.0
0.0 0.0 0.0 0.0 0.0 0.0 0.0 0.0 0.0 0.0 0.0 0.0 0.0 0.0 0.0 0.0 0.2 0.2 0.0 0.0 0.0 0.4 1.3 3.8 1.7 1.2 0.1 0.0 0.0 0.0 0.0 0.0 0.0 0.0 0.0 0.0 0.0 0.0 0.0 0.0 0.0 0.0 0.0 0.0 0.0 0.0 0.0 0.0 0.0 0.0 0.0 0.0 0.0 0.0
0.0 0.0 0.0 0.0 0.0 0.0 0.0 0.0 0.0 0.0 0.0 0.0 0.0 0.0 0.0 0.0 0.0 0.0 0.0 0.0 0.0 0.0 0.3 2.5 2.4 0.3 0.0 0.0 0.0 0.0 0.0 0.0 0.0 0.0 0.0 0.0 0.0 0.0 0.0 0.0 0.0 0.0 0.0 0.0 0.0 0.0 0.0 0.0 0.0 0.0 0.0 0.0 0.0 0.0
0.0 0.0 0.0 0.0 0.0 0.0 0.0 0.0 0.0 0.0 0.0 0.0 0.0 0.0 0.0 0.0 0.0 0.0 0.0 0.1 0.3 1.5 1.8 1.9 0.0 0.2 0.1 0.3 0.3 0.1 0.0 0.0 0.0 0.0 0.0 0.0 0.0 0.0 0.0 0.0 0.0 0.0 0.0 0.0 0.0 0.0 0.0 0.0 0.0 0.0 0.0 0.0 0.0 0.0
0.0 0.0 0.0 0.0 0.3 0.1 0.0 0.0 0.0 0.0 0.0 0.0 0.0 0.0 0.0 0.0 0.0 0.0 0.0 1.0 1.7 2.5 1.9 1.2 0.2 0.1 0.0 0.5 0.2 0.0 0.0 0.0 0.0 0.0 0.0 0.0 0.0 0.0 0.0 0.0 0.0 0.0 0.0 0.0 0.0 0.0 0.0 0.0 0.0 0.0 0.0 0.0 0.0 0.0
0.4 0.0 1.7 1.5 1.4 0.4 0.2 0.0 0.0 0.0 0.0 0.0 0.0 0.0 0.0 0.0 0.0 0.0 0.0 1.7 3.4 2.0 1.5 1.1 1.0 0.6 0.2 0.0 0.8 0.9 0.4 0.0 0.0 0.0 0.0 0.0 0.0 0.0 0.0 0.0 0.0 0.0 0.0 0.0 0.0 0.0 0.0 0.0 0.0 0.0 0.0 0.0 0.0 0.0
0.3 1.3 2.8 2.3 1.7 1.2 0.1 0.0 0.0 0.0 0.0 0.0 0.0 0.0 0.0 0.0 0.0 0.0 1.1 1.5 1.6 1.2 1.0 0.8 1.0 2.2 2.3 1.8 1.5 1.1 0.6 0.1 0.0 0.2 0.1 0.0 0.0 0.0 0.0 0.0 0.0 0.0 0.0 0.0 0.0 0.0 0.0 0.0 0.0 0.0 0.0 0.0 0.0 0.0
0.0 2.6 3.3 2.5 1.7 0.8 0.2 0.0 0.0 0.0 0.0 0.0 0.0 0.0 0.0 0.0 0.0 0.0 0.8 0.6 0.4 0.4 1.3 1.6 1.3 1.1 0.6 1.5 1.8 2.2 2.3 1.4 0.4 0.0 0.7 0.3 0.1 0.0 0.0 0.0 0.0 0.0 0.0 0.0 0.0 0.0 0.0 0.0 0.0 0.0 0.0 0.0 0.0 0.0
5.2 4.8 3.0 2.4 0.8 0.2 0.0 0.0 0.0 0.0 0.0 0.0 0.2 0.0 0.0 0.0 0.2 0.2 0.0 0.0 0.1 0.2 0.6 1.4 1.5 1.4 1.4 1.0 1.4 1.3 1.2 1.5 2.5 2.7 0.1 1.5 0.8 0.2 0.0 0.0 0.3 0.0 0.0 0.2 0.1 0.0 0.0 0.0 0.0 0.0 0.0 0.0 0.0 0.0
5.6 2.2 0.8 0.0 0.0 0.0 0.0 0.0 0.0 0.0 0.0 0.0 0.2 0.0 0.0 0.1 0.2 0.0 0.0 0.0 0.1 0.3 0.4 0.6 1.2 1.2 0.9 0.8 1.0 1.8 1.7 1.5 1.3 2.4 1.4 2.0 1.6 2.1 2.0 0.1 1.3 0.7 0.1 0.0 0.5 0.5 0.3 0.1 0.1 0.0 0.0 0.0 0.2 0.1
2.8 1.2 0.0 0.0 0.0 0.0 0.0 0.0 0.0 0.0 0.0 0.3 0.0 0.0 0.0 0.0 0.1 0.0 0.0 0.0 0.0 0.4 0.7 1.1 2.2 1.9 1.3 1.4 1.3 1.8 2.0 2.2 2.0 1.5 2.0 4.3 4.0 2.5 1.2 1.9 1.7 1.2 0.8 0.3 1.0 0.6 0.6 0.6 0.4 0.6 0.5 0.6 0.5 0.4
0.4 0.0 0.0 0.0 0.0 0.0 0.0 0.0 0.0 0.0 0.0 0.0 0.0 0.0 0.0 0.0 0.0 0.0 0.0 0.0 0.0 0.0 0.8 1.3 1.8 2.4 2.2 1.9 1.9 2.6 2.8 3.1 3.4 3.2 4.5 5.2 5.4 5.0 3.9 3.1 2.4 2.7 2.8 2.0 1.3 1.4 1.3 0.9 0.7 1.5 1.2 1.1 1.1 0.9
0.0 0.0 0.0 0.0 0.0 0.0 0.0 0.0 0.0 0.0 0.0 0.0 0.0 0.0 0.0 0.0 0.0 0.0 0.0 0.0 0.0 0.8 1.0 1.5 1.9 2.0 2.8 2.9 2.8 3.5 3.5 3.6 3.1 2.5 2.0 2.4 4.3 6.0 5.6 4.8 5.5 5.6 3.7 3.7 2.6 2.5 2.1 2.6 2.5 2.6 3.1 3.2 3.0 2.9
0.0 0.0 0.0 0.0 0.0 0.0 0.0 0.0 0.0 0.0 0.0 0.0 0.0 0.0 0.0 0.0 0.0 0.0 0.0 0.0 0.0 1.4 1.8 2.4 2.3 2.4 3.5 3.4 3.5 3.3 4.1 4.1 3.8 2.0 1.8 2.2 2.8 4.1 5.8 5.7 5.9 6.3 5.9 5.3 6.2 6.8 4.8 5.8 6.2 6.3 5.6 5.5 5.2 4.7
0.0 0.0 0.0 0.0 0.0 0.0 0.0 0.0 0.0 0.0 0.0 0.0 0.0 0.0 0.0 0.0 0.0 0.0 0.3 0.6 1.4 2.0 2.7 3.4 3.8 4.4 4.6 5.0 4.9 4.4 4.5 5.2 5.3 5.5 4.4 4.4 4.5 4.7 5.5 5.8 5.4 5.8 5.9 5.7 5.1 4.8 4.9 4.6 4.1 4.2 4.2 4.2 3.9 3.5
0.0 0.0 0.0 0.0 0.0 0.1 0.0 0.0 0.0 0.0 0.0 0.0 0.0 0.0 0.0 0.0 0.0 0.0 0.5 0.8 1.8 2.3 2.7 3.4 3.9 5.0 5.6 5.4 5.4 5.3 3.9 4.8 4.7 5.9 5.0 4.3 4.2 3.3 4.3 4.8 5.5 5.5 6.1 6.2 5.5 5.8 5.7 5.9 6.2 5.7 5.7 5.6 5.3 4.7
1.0 0.5 0.4 0.3 0.0 0.0 0.0 0.0 0.0 0.0 0.0 0.0 0.0 0.0 0.0 0.1 0.0 0.4 0.6 1.0 2.0 2.5 2.7 4.1 4.7 4.7 4.5 4.4 4.9 5.2 5.2 5.1 5.8 5.5 5.2 4.8 4.3 4.3 4.8 5.1 5.6 6.2 6.2 6.3 6.9 7.2 7.5 7.1 6.8 6.6 6.0 5.7 5.3 5.0

GFSWCAN_prec_kuchsnow_033.txt.gz
Snowfall_Accumulation
0.0 0.0 0.0 0.0 0.0 0.0 0.0 0.0 0.0 0.0 0.0 0.0 0.0 0.0 0.0 0.0 0.0 0.0 0.0 0.0 0.0 0.0 0.0 0.0 0.0 0.0 0.0 0.0 0.0 0.0 0.0 0.0 0.0 0.0 0.0 0.0 0.0 0.0 0.0 0.0 0.0 0.0 0.0 0.1 0.2 0.6 0.0 0.0 0.0 0.0 0.0 0.0 0.0 0.0
0.0 0.0 0.0 0.0 0.0 0.0 0.0 0.0 0.0 0.0 0.0 0.0 0.0 0.0 0.0 0.0 0.0 0.0 0.0 0.0 0.0 0.0 0.0 0.0 0.0 0.0 0.0 0.0 0.0 0.0 0.0 0.0 0.0 0.0 0.0 0.0 0.0 0.0 0.0 0.0 0.0 0.0 0.0 0.0 0.0 0.0 0.0 0.0 0.0 0.0 0.0 0.0 0.0 0.0
0.0 0.0 0.0 0.0 0.0 0.0 0.0 0.0 0.0 0.0 0.0 0.0 0.0 0.0 0.0 0.0 0.0 0.0 0.0 0.0 0.0 0.2 0.0 0.0 0.0 0.0 0.0 0.0 0.0 0.0 0.0 0.0 0.0 0.0 0.0 0.0 0.0 0.0 0.0 0.0 0.0 0.0 0.0 0.0 0.0 0.0 0.0 0.0 0.0 0.0 0.0 0.0 0.0 0.0
0.0 0.0 0.0 0.0 0.0 0.0 0.0 0.0 0.0 0.0 0.0 0.0 0.0 0.0 0.0 0.0 0.0 0.0 0.0 0.0 0.0 0.2 1.3 0.0 0.0 0.0 0.0 0.0 0.0 0.0 0.0 0.0 0.0 0.0 0.0 0.0 0.0 0.0 0.0 0.0 0.0 0.0 0.0 0.0 0.0 0.0 0.0 0.0 0.0 0.0 0.0 0.0 0.0 0.0
0.0 0.0 0.0 0.0 0.0 0.0 0.0 0.0 0.0 0.0 0.0 0.0 0.0 0.0 0.0 0.0 0.0 0.0 0.0 0.0 0.0 0.3 2.0 0.7 0.0 0.0 0.0 0.0 0.0 0.0 0.0 0.0 0.2 0.7 0.0 0.0 0.0 0.0 0.0 0.0 0.0 0.0 0.0 0.0 0.0 0.0 0.0 0.0 0.0 0.0 0.0 0.0 0.0 0.0
0.0 0.0 0.0 0.0 0.0 0.0 0.0 0.0 0.0 0.0 0.0 0.0 0.0 0.0 0.0 0.0 0.0 0.0 0.0 0.0 0.0 0.0 2.3 3.0 0.0 0.0 0.0 0.0 0.0 0.0 0.0 0.0 0.8 0.3 0.0 0.0 0.0 0.0 0.0 0.0 0.0 0.0 0.0 0.0 0.0 0.0 0.0 0.0 0.0 0.0 0.0 0.0 0.0 0.0
0.0 0.0 0.0 0.0 0.0 0.0 0.0 0.0 0.0 0.0 0.0 0.0 0.0 0.0 0.0 0.0 0.0 0.1 0.1 0.0 0.0 0.0 2.4 7.6 4.1 0.1 0.0 0.0 0.0 0.0 0.0 0.0 1.1 0.7 0.0 0.0 0.0 0.0 0.0 0.0 0.0 0.0 0.0 0.0 0.0 0.0 0.0 0.0 0.0 0.0 0.0 0.0 0.0 0.0
0.0 0.0 0.0 0.0 0.0 0.0 0.0 0.0 0.0 0.0 0.0 0.0 0.0 0.0 0.0 0.0 0.0 0.0 0.0 0.0 0.0 1.5 4.0 11.1 8.8 4.6 0.0 0.0 0.1 0.0 0.0 0.0 1.7 0.0 0.0 0.0 0.0 0.0 0.0 0.0 0.0 0.0 0.0 0.0 0.0 0.0 0.0 0.0 0.0 0.0 0.0 0.0 0.0 0.0
0.0 0.0 0.0 0.0 0.0 0.0 0.0 0.0 0.0 0.0 0.0 0.0 0.0 0.0 0.0 0.0 0.0 0.0 0.0 0.0 0.0 0.1 6.8 6.0 9.7 5.8 0.0 0.0 0.0 0.0 0.0 1.5 0.0 0.0 0.0 0.0 0.0 0.0 0.0 0.0 0.0 0.0 0.0 0.0 0.0 0.0 0.0 0.0 0.0 0.0 0.0 0.0 0.0 0.0
0.0 0.0 0.0 0.0 0.0 0.0 0.0 0.0 0.0 0.0 0.0 0.0 0.0 0.0 0.2 0.0 0.0 0.0 0.0 1.2 1.9 1.8 2.6 5.9 2.1 1.8 0.0 1.4 0.0 0.0 0.0 0.7 1.8 0.0 0.0 0.0 0.0 0.0 0.0 0.0 0.0 0.0 0.0 0.0 0.0 0.0 0.0 0.0 0.0 0.0 0.0 0.0 0.0 0.0
0.0 0.0 0.0 0.0 0.0 0.0 0.0 0.0 0.0 0.0 0.0 0.0 0.0 0.3 0.0 0.0 0.0 0.0 4.0 3.4 1.2 1.6 1.8 2.1 1.6 1.0 0.0 0.0 0.0 0.0 0.0 0.0 0.3 0.2 0.0 0.0 0.0 0.0 0.0 0.0 0.0 0.0 0.0 0.0 0.0 0.0 0.0 0.0 0.0 0.0 0.0 0.0 0.0 0.0
0.0 0.0 0.0 0.0 0.0 0.0 0.0 0.0 0.0 0.0 0.0 0.0 0.0 0.0 0.0 1.7 4.6 7.0 6.5 0.8 0.3 0.5 0.3 0.6 0.4 0.0 0.0 0.0 0.0 0.0 0.2 0.3 0.3 0.0 0.0 0.0 0.0 0.0 0.0 0.0 0.0 0.0 0.0 0.0 0.0 0.0 0.0 0.0 0.0 0.0 0.0 0.0 0.0 0.0
0.0 0.0 0.0 0.0 0.0 0.0 0.0 0.0 0.0 0.0 0.0 0.0 0.1 1.3 2.7 4.7 7.8 5.1 4.3 1.1 0.4 0.3 0.3 0.6 0.9 0.0 0.0 0.0 0.0 0.0 0.0 0.1 0.0 0.2 0.0 0.0 0.0 0.0 0.0 0.0 0.0 0.0 0.0 0.0 0.0 0.0 0.0 0.0 0.0 0.0 0.0 0.0 0.0 0.0
0.0 0.0 0.0 0.0 0.0 0.0 0.0 0.0 0.0 0.0 0.0 0.1 0.8 1.8 3.0 3.5 3.3 2.2 1.3 1.0 0.0 0.2 0.0 0.0 0.6 0.7 0.0 0.2 0.0 0.4 0.1 0.0 0.0 0.0 0.0 0.0 0.0 0.0 0.0 0.0 0.0 0.0 0.0 0.0 0.0 0.0 0.0 0.0 0.0 0.0 0.0 0.0 0.0 0.0
0.0 0.0 0.0 0.0 0.0 0.0 0.0 0.0 0.0 0.0 0.0 0.0 0.9 1.6 1.4 1.3 0.6 0.3 0.1 0.4 0.0 0.0 0.0 0.0 0.0 0.0 0.5 0.6 0.1 0.0 0.0 0.0 0.0 0.0 0.0 0.0 0.0 0.0 0.0 0.0 0.0 0.0 0.0 0.0 0.0 0.0 0.0 0.0 0.0 0.0 0.0 0.0 0.0 0.2
0.0 0.0 0.0 0.0 0.0 0.0 0.0 0.0 0.0 0.0 0.0 0.2 0.7 1.4 0.6 0.5 0.3 0.1 0.0 0.1 0.0 0.0 0.1 0.2 0.3 0.5 0.3 0.2 0.0 0.0 0.0 0.0 0.0 0.0 0.0 0.0 0.0 0.0 0.0 0.0 0.0 0.0 0.0 0.0 0.0 0.0 0.0 0.0 0.0 0.0 0.0 0.0 0.0 0.6
0.0 0.0 0.0 0.0 0.0 0.0 0.0 0.0 0.0 0.0 0.1 0.0 0.2 0.4 0.6 0.3 0.3 0.2 0.0 0.0 0.0 0.2 1.0 1.5 1.6 0.2 0.2 0.3 0.0 0.0 0.0 0.0 0.0 0.0 0.0 0.0 0.0 0.0 0.0 0.0 0.0 0.0 0.0 0.0 0.0 0.0 0.0 0.0 0.0 0.0 0.0 0.0 0.0 0.0
0.0 0.0 0.0 0.0 0.0 0.0 0.0 0.0 0.0 0.0 0.0 0.0 0.0 0.0 0.0 0.0 0.2 0.2 0.0 0.0 0.0 0.4 1.3 4.3 2.2 1.4 0.2 0.1 0.0 0.0 0.0 0.0 0.0 0.0 0.0 0.0 0.0 0.0 0.0 0.0 0.0 0.0 0.0 0.0 0.0 0.0 0.0 0.0 0.0 0.0 0.0 0.0 0.0 0.0
0.0 0.0 0.0 0.0 0.0 0.0 0.0 0.0 0.0 0.0 0.0 0.0 0.0 0.0 0.0 0.0 0.0 0.0 0.0 0.0 0.0 0.0 0.3 2.5 2.4 0.4 0.0 0.0 0.0 0.0 0.0 0.0 0.0 0.0 0.0 0.0 0.0 0.0 0.0 0.0 0.0 0.0 0.0 0.0 0.0 0.0 0.0 0.0 0.0 0.0 0.0 0.0 0.0 0.0
0.0 0.0 0.0 0.0 0.0 0.0 0.0 0.0 0.0 0.0 0.0 0.0 0.0 0.0 0.0 0.0 0.0 0.0 0.0 0.1 0.3 1.6 1.8 1.9 0.0 0.2 0.1 0.3 0.3 0.1 0.0 0.0 0.0 0.0 0.0 0.0 0.0 0.0 0.0 0.0 0.0 0.0 0.0 0.0 0.0 0.0 0.0 0.0 0.0 0.0 0.0 0.0 0.0 0.0
0.0 0.0 0.0 0.0 0.3 0.1 0.0 0.0 0.0 0.0 0.0 0.0 0.0 0.0 0.0 0.0 0.0 0.0 0.0 1.0 2.0 2.5 1.9 1.2 0.2 0.1 0.0 0.5 0.2 0.0 0.0 0.0 0.0 0.0 0.0 0.0 0.0 0.0 0.0 0.0 0.0 0.0 0.0 0.0 0.0 0.0 0.0 0.0 0.0 0.0 0.0 0.0 0.0 0.0
0.4 0.0 1.7 1.5 1.6 0.4 0.2 0.0 0.0 0.0 0.0 0.0 0.0 0.0 0.0 0.0 0.0 0.0 0.0 1.7 3.4 2.0 1.5 1.1 1.0 0.6 0.2 0.0 0.8 0.9 0.4 0.0 0.0 0.0 0.0 0.0 0.0 0.0 0.0 0.0 0.0 0.0 0.0 0.0 0.0 0.0 0.0 0.0 0.0 0.0 0.0 0.0 0.0 0.0
0.3 1.3 2.8 2.3 1.7 1.2 0.1 0.0 0.1 0.0 0.0 0.0 0.0 0.0 0.0 0.0 0.0 0.0 1.1 1.5 1.6 1.2 1.0 0.8 1.0 2.2 2.3 1.8 1.5 1.1 0.6 0.1 0.0 0.2 0.1 0.0 0.0 0.0 0.0 0.0 0.0 0.0 0.0 0.0 0.0 0.0 0.0 0.0 0.0 0.0 0.0 0.0 0.0 0.0
0.0 2.6 3.3 2.5 1.7 0.8 0.3 0.0 0.1 0.0 0.0 0.0 0.0 0.0 0.0 0.0 0.0 0.0 0.8 0.6 0.4 0.4 1.3 1.6 1.3 1.1 0.6 1.5 1.8 2.2 2.3 1.4 0.4 0.0 0.7 0.3 0.1 0.0 0.0 0.0 0.0 0.0 0.0 0.0 0.0 0.0 0.0 0.0 0.0 0.0 0.0 0.0 0.0 0.0
5.2 4.8 3.0 2.4 1.0 0.4 0.1 0.0 0.0 0.0 0.0 0.0 0.2 0.0 0.0 0.0 0.2 0.2 0.0 0.0 0.1 0.2 0.6 1.4 1.5 1.4 1.4 1.0 1.4 1.3 1.2 1.5 2.5 2.7 0.1 1.5 0.8 0.2 0.0 0.0 0.3 0.0 0.0 0.2 0.1 0.0 0.0 0.0 0.0 0.0 0.0 0.0 0.0 0.0
5.7 2.2 0.8 0.0 0.0 0.0 0.0 0.0 0.0 0.0 0.0 0.0 0.2 0.0 0.0 0.1 0.2 0.0 0.0 0.0 0.1 0.3 0.4 0.6 1.2 1.2 0.9 0.8 1.0 1.8 1.7 1.5 1.3 2.4 1.4 2.0 1.6 2.1 2.0 0.1 1.3 0.7 0.1 0.0 0.5 0.5 0.3 0.1 0.1 0.0 0.0 0.0 0.2 0.1
2.8 1.2 0.0 0.0 0.0 0.0 0.0 0.0 0.0 0.0 0.0 0.3 0.0 0.0 0.0 0.0 0.1 0.0 0.0 0.0 0.0 0.4 0.7 1.1 2.2 1.9 1.3 1.4 1.3 1.8 2.0 2.2 2.0 1.5 2.0 4.3 4.0 2.5 1.2 1.9 1.7 1.2 0.8 0.3 1.0 0.6 0.6 0.6 0.4 0.6 0.5 0.6 0.5 0.4
0.4 0.0 0.0 0.0 0.0 0.0 0.0 0.0 0.0 0.0 0.0 0.0 0.0 0.0 0.0 0.0 0.0 0.0 0.0 0.0 0.0 0.0 0.8 1.3 1.8 2.4 2.2 1.9 1.9 2.6 2.8 3.1 3.4 3.2 4.5 5.2 5.4 5.0 3.9 3.1 2.4 2.7 2.8 2.0 1.3 1.4 1.3 0.9 0.7 1.5 1.2 1.1 1.1 0.9
0.0 0.0 0.0 0.0 0.0 0.0 0.0 0.0 0.0 0.0 0.0 0.0 0.0 0.0 0.0 0.0 0.0 0.0 0.0 0.0 0.0 0.8 1.0 1.5 1.9 2.0 2.8 2.9 2.8 3.5 3.5 3.6 3.1 2.5 2.0 2.4 4.3 6.0 5.6 4.8 5.5 5.6 3.7 3.7 2.6 2.5 2.1 2.6 2.5 2.6 3.1 3.2 3.0 2.9
0.0 0.0 0.0 0.0 0.0 0.0 0.0 0.0 0.0 0.0 0.0 0.0 0.0 0.0 0.0 0.0 0.0 0.0 0.0 0.0 0.0 1.4 1.8 2.4 2.3 2.4 3.5 3.4 3.5 3.3 4.1 4.1 3.8 2.0 1.8 2.2 2.8 4.1 5.8 5.7 5.9 6.3 5.9 5.3 6.2 6.8 4.8 5.8 6.2 6.3 5.6 5.5 5.3 4.7
0.0 0.0 0.0 0.0 0.0 0.0 0.0 0.0 0.0 0.0 0.0 0.0 0.0 0.0 0.0 0.0 0.0 0.0 0.3 0.6 1.4 2.0 2.7 3.4 3.8 4.4 4.6 5.0 4.9 4.4 4.5 5.2 5.3 5.5 4.4 4.4 4.5 4.7 5.5 5.8 5.4 5.8 5.9 5.7 5.1 4.8 4.9 4.6 4.1 4.3 4.2 4.2 3.9 3.5
0.0 0.0 0.0 0.0 0.0 0.1 0.0 0.0 0.0 0.0 0.0 0.0 0.0 0.0 0.0 0.0 0.0 0.0 0.5 0.8 1.8 2.3 2.7 3.4 3.9 5.0 5.6 5.4 5.4 5.3 3.9 4.8 4.7 5.9 5.0 4.3 4.2 3.3 4.3 4.8 5.5 5.5 6.1 6.2 5.5 5.9 5.9 6.0 6.2 5.7 5.7 5.6 5.3 4.7
1.0 0.5 0.4 0.3 0.0 0.0 0.0 0.0 0.0 0.0 0.0 0.0 0.0 0.0 0.0 0.1 0.0 0.4 0.6 1.0 2.0 2.5 2.7 4.1 4.7 4.7 4.5 4.4 4.9 5.2 5.2 5.1 5.8 5.5 5.2 4.8 4.3 4.3 4.8 5.3 5.6 6.3 6.4 6.4 6.9 7.3 7.7 7.2 6.9 6.6 6.0 5.7 5.3 5.0

GFSWCAN_prec_kuchsnow_036.txt.gz
Snowfall_Accumulation
0.0 0.0 0.0 0.0 0.0 0.0 0.0 0.0 0.0 0.0 0.0 0.0 0.0 0.0 0.0 0.0 0.0 0.0 0.0 0.0 0.0 0.0 0.0 0.0 0.0 0.0 0.0 0.0 0.0 0.0 0.0 0.0 0.0 0.0 0.0 0.0 0.0 0.0 0.0 0.0 0.0 0.0 0.0 0.2 0.3 0.7 0.0 0.0 0.0 0.0 0.0 0.0 0.0 0.0
0.0 0.0 0.0 0.0 0.0 0.0 0.0 0.0 0.0 0.0 0.0 0.0 0.0 0.0 0.0 0.0 0.0 0.0 0.0 0.0 0.0 0.0 0.0 0.0 0.0 0.0 0.0 0.0 0.0 0.0 0.0 0.0 0.0 0.0 0.0 0.0 0.0 0.0 0.0 0.0 0.0 0.0 0.0 0.0 0.0 0.0 0.0 0.0 0.0 0.0 0.0 0.0 0.0 0.0
0.0 0.0 0.0 0.0 0.0 0.0 0.0 0.0 0.0 0.0 0.0 0.0 0.0 0.0 0.0 0.0 0.0 0.0 0.0 0.0 0.0 0.2 0.0 0.0 0.0 0.0 0.0 0.0 0.0 0.0 0.0 0.0 0.0 0.0 0.0 0.0 0.0 0.0 0.0 0.0 0.0 0.0 0.0 0.0 0.0 0.0 0.0 0.0 0.0 0.0 0.0 0.0 0.0 0.0
0.0 0.0 0.0 0.0 0.0 0.0 0.0 0.0 0.0 0.0 0.0 0.0 0.0 0.0 0.0 0.0 0.0 0.0 0.0 0.0 0.0 0.2 1.4 0.0 0.0 0.0 0.0 0.0 0.0 0.0 0.0 0.0 0.0 0.4 0.0 0.0 0.0 0.0 0.0 0.0 0.0 0.0 0.0 0.0 0.0 0.0 0.0 0.0 0.0 0.0 0.0 0.0 0.0 0.0
0.0 0.0 0.0 0.0 0.0 0.0 0.0 0.0 0.0 0.0 0.0 0.0 0.0 0.0 0.0 0.0 0.0 0.0 0.0 0.0 0.0 0.3 2.0 0.7 0.0 0.0 0.0 0.0 0.0 0.0 0.0 0.0 0.2 0.7 1.3 0.0 0.0 0.0 0.0 0.0 0.0 0.0 0.0 0.0 0.0 0.0 0.0 0.0 0.0 0.0 0.0 0.0 0.0 0.0
0.0 0.0 0.0 0.0 0.0 0.0 0.0 0.0 0.0 0.0 0.0 0.0 0.0 0.0 0.0 0.0 0.0 0.0 0.0 0.0 0.0 0.0 2.4 3.1 0.0 0.0 0.0 0.0 0.0 0.0 0.0 0.0 0.8 0.3 1.6 0.0 0.0 0.0 0.0 0.0 0.0 0.0 0.0 0.0 0.0 0.0 0.0 0.0 0.0 0.0 0.0 0.0 0.0 0.0
0.0 0.0 0.0 0.0 0.0 0.0 0.0 0.0 0.0 0.0 0.0 0.0 0.0 0.0 0.0 0.0 0.0 0.1 0.1 0.0 0.0 0.0 2.6 7.7 4.1 0.1 0.0 0.0 0.0 0.0 0.0 0.0 1.1 1.0 0.0 0.8 0.0 0.0 0.0 0.0 0.0 0.0 0.0 0.0 0.0 0.0 0.0 0.0 0.0 0.0 0.0 0.0 0.0 0.0
0.0 0.0 0.0 0.0 0.0 0.0 0.0 0.0 0.0 0.0 0.0 0.0 0.0 0.0 0.0 0.0 0.0 0.0 0.0 0.0 0.0 1.5 4.1 11.2 8.8 4.6 0.0 0.0 0.1 0.0 0.0 0.0 1.7 0.5 0.0 0.1 0.0 0.0 0.0 0.0 0.0 0.0 0.0 0.0 0.0 0.0 0.0 0.0 0.0 0.0 0.0 0.0 0.0 0.0
0.0 0.0 0.0 0.0 0.0 0.0 0.0 0.0 0.0 0.0 0.0 0.0 0.0 0.0 0.0 0.0 0.0 0.0 0.0 0.0 0.0 0.1 6.9 6.1 9.8 6.0 0.2 0.0 0.0 0.0 0.0 1.5 0.2 0.6 0.0 0.0 0.0 0.0 0.0 0.0 0.0 0.0 0.0 0.0 0.0 0.0 0.0 0.0 0.0 0.0 0.0 0.0 0.0 0.0
0.0 0.0 0.0 0.0 0.0 0.0 0.0 0.0 0.0 0.0 0.0 0.0 0.0 0.0 0.2 0.0 0.0 0.0 0.0 1.3 2.2 2.0 2.7 6.2 2.4 2.5 0.8 1.7 0.1 0.5 0.0 1.3 3.6 0.0 0.0 0.3 0.0 0.0 0.0 0.0 0.0 0.0 0.0 0.0 0.0 0.0 0.0 0.0 0.0 0.0 0.0 0.0 0.0 0.0
0.0 0.0 0.0 0.0 0.0 0.0 0.0 0.0 0.0 0.0 0.0 0.0 0.0 0.3 0.0 0.0 0.0 0.0 4.1 3.5 1.4 1.8 2.0 2.3 2.0 1.8 0.0 2.0 0.5 0.0 1.3 0.6 1.2 0.7 0.0 0.1 0.0 0.0 0.0 0.0 0.0 0.0 0.0 0.0 0.0 0.0 0.0 0.0 0.0 0.0 0.0 0.0 0.0 0.0
0.0 0.0 0.0 0.0 0.0 0.0 0.0 0.0 0.0 0.0 0.0 0.0 0.0 0.0 0.0 1.7 4.6 7.1 6.6 0.9 0.5 0.9 0.6 0.8 0.5 0.2 0.3 0.0 0.0 0.0 0.3 0.3 0.3 0.0 0.0 0.0 0.0 0.0 0.0 0.0 0.0 0.0 0.0 0.0 0.0 0.0 0.0 0.0 0.0 0.0 0.0 0.0 0.0 0.0
0.0 0.0 0.0 0.0 0.0 0.0 0.0 0.0 0.0 0.0 0.0 0.0 0.1 1.3 2.7 4.7 8.0 5.5 4.6 1.3 0.4 0.3 0.4 0.6 0.9 0.1 0.0 0.0 0.0 0.0 0.1 0.1 0.0 0.2 0.0 0.0 0.0 0.0 0.0 0.0 0.0 0.0 0.0 0.0 0.0 0.0 0.0 0.0 0.0 0.0 0.0 0.0 0.0 0.0
0.0 0.0 0.0 0.0 0.0 0.0 0.0 0.0 0.0 0.0 0.0 0.1 0.8 1.8 3.0 3.5 3.3 2.2 1.3 1.0 0.0 0.2 0.0 0.0 0.6 0.8 0.0 0.6 0.0 0.5 0.1 0.1 0.1 0.0 0.0 0.0 0.0 0.0 0.0 0.0 0.0 0.0 0.0 0.0 0.0 0.0 0.0 0.0 0.0 0.0 0.0 0.0 0.0 0.0
0.0 0.0 0.0 0.0 0.0 0.0 0.0 0.0 0.0 0.0 0.0 0.0 0.9 1.6 1.4 1.3 0.6 0.3 0.1 0.4 0.0 0.0 0.0 0.0 0.0 0.2 0.9 1.0 0.2 0.0 0.1 0.1 0.0 0.0 0.0 0.0 0.0 0.0 0.0 0.0 0.0 0.0 0.0 0.0 0.0 0.0 0.0 0.0 0.0 0.0 0.0 0.0 0.0 0.2
0.0 0.0 0.0 0.0 0.0 0.0 0.0 0.0 0.0 0.0 0.0 0.2 0.7 1.4 0.6 0.5 0.3 0.1 0.0 0.1 0.0 0.0 0.1 0.2 0.3 0.8 0.6 0.6 0.3 0.0 0.0 0.0 0.0 0.0 0.0 0.0 0.0 0.0 0.0 0.0 0.0 0.0 0.0 0.0 0.0 0.0 0.0 0.0 0.0 0.0 0.0 0.0 0.0 0.6
0.0 0.0 0.0 0.0 0.0 0.0 0.0 0.0 0.0 0.0 0.1 0.0 0.2 0.4 0.6 0.3 0.3 0.2 0.0 0.0 0.0 0.2 1.0 1.5 2.1 0.4 0.4 0.5 0.0 0.0 0.0 0.0 0.0 0.0 0.0 0.0 0.0 0.0 0.0 0.0 0.0 0.0 0.0 0.0 0.0 0.0 0.0 0.0 0.0 0.0 0.0 0.0 0.0 0.0
0.0 0.0 0.0 0.0 0.0 0.0 0.0 0.0 0.0 0.0 0.0 0.0 0.0 0.0 0.0 0.0 0.2 0.2 0.0 0.0 0.0 0.4 1.3 4.4 2.4 1.6 0.3 0.1 0.0 0.0 0.0 0.0 0.0 0.0 0.0 0.0 0.0 0.0 0.0 0.0 0.0 0.0 0.0 0.0 0.0 0.0 0.0 0.0 0.0 0.0 0.0 0.0 0.0 0.0
0.0 0.0 0.0 0.0 0.0 0.0 0.0 0.0 0.0 0.0 0.0 0.0 0.0 0.0 0.0 0.0 0.0 0.0 0.0 0.0 0.0 0.0 0.3 2.5 2.4 0.4 0.0 0.0 0.0 0.0 0.0 0.0 0.0 0.0 0.0 0.0 0.0 0.0 0.0 0.0 0.0 0.0 0.0 0.0 0.0 0.0 0.0 0.0 0.0 0.0 0.0 0.0 0.0 0.0
0.0 0.0 0.0 0.0 0.0 0.0 0.0 0.0 0.0 0.0 0.0 0.0 0.0 0.0 0.0 0.0 0.0 0.0 0.0 0.1 0.3 1.6 1.8 1.9 0.0 0.2 0.1 0.3 0.3 0.1 0.0 0.0 0.0 0.0 0.0 0.0 0.0 0.0 0.0 0.0 0.0 0.0 0.0 0.0 0.0 0.0 0.0 0.0 0.0 0.0 0.0 0.0 0.0 0.0
0.0 0.0 0.0 0.0 0.3 0.1 0.0 0.0 0.0 0.0 0.0 0.0 0.0 0.0 0.0 0.0 0.0 0.0 0.0 1.0 2.0 2.5 1.9 1.2 0.2 0.1 0.0 0.5 0.2 0.0 0.0 0.0 0.0 0.0 0.0 0.0 0.0 0.0 0.0 0.0 0.0 0.0 0.0 0.0 0.0 0.0 0.0 0.0 0.0 0.0 0.0 0.0 0.0 0.0
0.4 0.0 1.7 1.5 1.6 0.4 0.2 0.0 0.0 0.0 0.0 0.0 0.0 0.0 0.0 0.0 0.0 0.0 0.1 1.7 3.4 2.0 1.5 1.1 1.0 0.6 0.2 0.0 0.8 0.9 0.4 0.0 0.0 0.0 0.0 0.0 0.0 0.0 0.0 0.0 0.0 0.0 0.0 0.0 0.0 0.0 0.0 0.0 0.0 0.0 0.0 0.0 0.0 0.0
0.3 1.3 2.8 2.3 1.7 1.2 0.1 0.1 0.1 0.0 0.0 0.0 0.0 0.0 0.0 0.0 0.0 0.0 1.1 1.5 1.6 1.2 1.0 0.8 1.0 2.2 2.3 1.8 1.5 1.1 0.6 0.1 0.0 0.2 0.1 0.0 0.0 0.0 0.0 0.0 0.0 0.0 0.0 0.0 0.0 0.0 0.0 0.0 0.0 0.0 0.0 0.0 0.0 0.0
0.0 2.6 3.3 2.5 1.7 0.8 0.4 0.1 0.2 0.0 0.0 0.0 0.0 0.0 0.0 0.0 0.0 0.0 0.8 0.6 0.4 0.4 1.3 1.6 1.3 1.1 0.6 1.5 1.8 2.2 2.3 1.4 0.4 0.0 0.7 0.3 0.1 0.0 0.0 0.0 0.0 0.0 0.0 0.0 0.0 0.0 0.0 0.0 0.0 0.0 0.0 0.0 0.0 0.0
5.2 4.8 3.0 2.4 1.0 0.6 0.2 0.1 0.1 0.0 0.0 0.0 0.2 0.0 0.0 0.0 0.2 0.2 0.0 0.0 0.1 0.2 0.6 1.4 1.5 1.4 1.4 1.0 1.4 1.3 1.2 1.5 2.5 2.7 0.1 1.5 0.8 0.2 0.0 0.0 0.3 0.0 0.0 0.2 0.1 0.0 0.0 0.0 0.0 0.0 0.0 0.0 0.0 0.0
5.9 2.2 0.8 0.0 0.0 0.0 0.0 0.0 0.0 0.0 0.0 0.0 0.2 0.0 0.0 0.1 0.2 0.0 0.0 0.0 0.1 0.3 0.4 0.6 1.2 1.2 0.9 0.8 1.0 1.8 1.7 1.5 1.3 2.4 1.4 2.0 1.6 2.1 2.0 0.1 1.3 0.7 0.1 0.0 0.5 0.5 0.3 0.1 0.1 0.0 0.0 0.0 0.2 0.1
3.0 1.2 0.0 0.0 0.1 0.1 0.0 0.0 0.0 0.0 0.0 0.3 0.0 0.0 0.0 0.0 0.1 0.0 0.0 0.0 0.0 0.4 0.7 1.1 2.2 1.9 1.3 1.4 1.3 1.8 2.0 2.2 2.0 1.5 2.0 4.3 4.0 2.5 1.2 1.9 1.7 1.2 0.8 0.3 1.0 0.6 0.6 0.6 0.4 0.6 0.5 0.6 0.5 0.4
0.4 0.0 0.0 0.0 0.0 0.0 0.0 0.0 0.0 0.0 0.0 0.0 0.0 0.0 0.0 0.0 0.0 0.0 0.0 0.0 0.0 0.0 0.8 1.3 1.8 2.4 2.2 1.9 1.9 2.6 2.8 3.1 3.4 3.2 4.5 5.2 5.4 5.0 3.9 3.1 2.4 2.7 2.8 2.0 1.3 1.4 1.3 0.9 0.7 1.5 1.2 1.1 1.1 0.9
0.1 0.0 0.0 0.0 0.0 0.0 0.0 0.0 0.0 0.0 0.0 0.0 0.0 0.0 0.0 0.0 0.0 0.0 0.0 0.0 0.0 0.8 1.0 1.5 1.9 2.0 2.8 2.9 2.8 3.5 3.5 3.6 3.1 2.5 2.0 2.4 4.3 6.0 5.6 4.8 5.5 5.6 3.7 3.7 2.6 2.5 2.1 2.6 2.5 2.6 3.1 3.2 3.0 2.9
0.0 0.0 0.0 0.0 0.0 0.0 0.0 0.0 0.0 0.0 0.0 0.0 0.0 0.0 0.0 0.0 0.0 0.0 0.0 0.0 0.0 1.4 1.8 2.4 2.3 2.4 3.5 3.4 3.5 3.3 4.1 4.1 3.8 2.0 1.8 2.2 2.8 4.1 5.8 5.7 5.9 6.3 5.9 5.3 6.2 6.8 4.8 5.8 6.2 6.3 5.6 5.5 5.3 4.7
0.0 0.0 0.0 0.0 0.0 0.0 0.0 0.0 0.0 0.0 0.0 0.0 0.0 0.0 0.0 0.0 0.0 0.0 0.3 0.6 1.4 2.0 2.7 3.4 3.8 4.4 4.6 5.0 4.9 4.4 4.5 5.2 5.3 5.5 4.4 4.4 4.5 4.7 5.5 5.8 5.4 5.8 5.9 5.7 5.1 4.8 4.9 4.6 4.1 4.3 4.2 4.2 3.9 3.5
0.0 0.0 0.0 0.0 0.0 0.1 0.0 0.0 0.0 0.0 0.0 0.0 0.0 0.0 0.0 0.0 0.0 0.0 0.5 0.8 1.8 2.3 2.7 3.4 3.9 5.0 5.6 5.4 5.4 5.3 3.9 4.8 4.7 5.9 5.0 4.3 4.2 3.3 4.3 4.8 5.5 5.5 6.1 6.2 5.6 6.0 6.0 6.1 6.2 5.7 5.7 5.6 5.3 4.7
1.0 0.5 0.4 0.3 0.0 0.0 0.0 0.0 0.0 0.0 0.0 0.0 0.0 0.0 0.0 0.1 0.0 0.4 0.6 1.0 2.0 2.5 2.7 4.1 4.7 4.7 4.5 4.4 4.9 5.2 5.2 5.1 5.8 5.5 5.2 4.8 4.3 4.3 4.8 5.3 5.6 6.3 6.4 6.5 7.0 7.4 7.8 7.2 6.9 6.6 6.0 5.7 5.3 5.0

GFSWCAN_prec_kuchsnow_039.txt.gz
Snowfall_Accumulation
0.0 0.0 0.0 0.0 0.0 0.0 0.0 0.0 0.0 0.0 0.0 0.0 0.0 0.0 0.0 0.0 0.0 0.0 0.0 0.0 0.0 0.0 0.0 0.0 0.0 0.0 0.0 0.0 0.0 0.0 0.0 0.0 0.0 0.0 0.0 0.0 0.0 0.0 0.0 0.0 0.0 0.0 0.0 0.2 0.3 0.7 0.0 0.0 0.0 0.0 0.0 0.0 0.0 0.0
0.0 0.0 0.0 0.0 0.0 0.0 0.0 0.0 0.0 0.0 0.0 0.0 0.0 0.0 0.0 0.0 0.0 0.0 0.0 0.0 0.0 0.0 0.0 0.0 0.0 0.0 0.0 0.0 0.0 0.0 0.0 0.0 0.0 0.0 0.0 0.0 0.0 0.0 0.0 0.0 0.0 0.0 0.0 0.0 0.0 0.0 0.0 0.0 0.0 0.0 0.0 0.0 0.0 0.0
0.0 0.0 0.0 0.0 0.0 0.0 0.0 0.0 0.0 0.0 0.0 0.0 0.0 0.0 0.0 0.0 0.0 0.0 0.0 0.0 0.0 0.2 0.0 0.0 0.0 0.0 0.0 0.0 0.0 0.0 0.0 0.0 0.0 0.0 0.0 0.0 0.0 0.0 0.0 0.0 0.0 0.0 0.0 0.0 0.0 0.0 0.0 0.0 0.0 0.0 0.0 0.0 0.0 0.0
0.0 0.0 0.0 0.0 0.0 0.0 0.0 0.0 0.0 0.0 0.0 0.0 0.0 0.0 0.0 0.0 0.0 0.0 0.0 0.0 0.0 0.2 1.5 0.0 0.0 0.0 0.0 0.0 0.0 0.0 0.0 0.0 0.0 0.4 0.5 0.0 0.0 0.0 0.0 0.0 0.0 0.0 0.0 0.0 0.0 0.0 0.0 0.0 0.0 0.0 0.0 0.0 0.0 0.0
0.0 0.0 0.0 0.0 0.0 0.0 0.0 0.0 0.0 0.0 0.0 0.0 0.0 0.0 0.0 0.0 0.0 0.0 0.0 0.0 0.0 0.3 2.0 0.7 0.0 0.0 0.0 0.0 0.0 0.0 0.0 0.0 0.2 0.7 1.3 0.7 0.0 0.0 0.0 0.0 0.0 0.0 0.0 0.0 0.0 0.0 0.0 0.0 0.0 0.0 0.0 0.0 0.0 0.0
0.0 0.0 0.0 0.0 0.0 0.0 0.0 0.0 0.0 0.0 0.0 0.0 0.0 0.0 0.0 0.0 0.0 0.0 0.0 0.0 0.0 0.0 2.5 3.1 0.0 0.0 0.0 0.0 0.0 0.0 0.0 0.0 0.8 0.3 1.6 0.0 0.0 0.0 0.0 0.0 0.0 0.0 0.0 0.0 0.0 0.0 0.0 0.0 0.0 0.0 0.0 0.0 0.0 0.0
0.0 0.0 0.0 0.0 0.0 0.0 0.0 0.0 0.0 0.0 0.0 0.0 0.0 0.0 0.0 0.0 0.0 0.1 0.1 0.0 0.0 0.0 2.6 7.8 4.1 0.1 0.0 0.0 0.0 0.0 0.0 0.0 1.2 1.1 0.0 0.8 0.2 1.0 0.0 0.0 0.0 0.0 0.0 0.0 0.0 0.0 0.0 0.0 0.0 0.0 0.0 0.0 0.0 0.0
0.0 0.0 0.0 0.0 0.0 0.0 0.0 0.0 0.0 0.0 0.0 0.0 0.0 0.0 0.0 0.0 0.0 0.0 0.0 0.0 0.0 1.5 4.2 11.3 8.8 4.6 0.0 0.0 0.1 0.0 0.0 0.0 1.9 0.6 0.0 0.1 0.0 0.7 0.3 0.0 0.0 0.0 0.0 0.0 0.0 0.0 0.0 0.0 0.0 0.0 0.0 0.0 0.0 0.0
0.0 0.0 0.0 0.0 0.0 0.0 0.0 0.0 0.0 0.0 0.0 0.0 0.0 0.0 0.0 0.0 0.0 0.0 0.0 0.0 0.0 0.1 7.0 6.2 9.9 6.1 0.2 0.1 0.0 0.0 0.0 1.6 0.2 0.8 0.0 0.0 0.4 1.8 0.0 0.0 0.0 0.0 0.0 0.0 0.0 0.0 0.0 0.0 0.0 0.0 0.0 0.0 0.0 0.0
0.0 0.0 0.0 0.0 0.0 0.0 0.0 0.0 0.0 0.0 0.0 0.0 0.0 0.0 0.2 0.0 0.0 0.0 0.0 1.3 2.4 2.2 2.9 6.4 2.5 2.7 1.1 1.8 0.3 0.5 0.1 1.6 4.5 0.0 0.0 0.5 0.0 0.0 0.0 0.0 0.0 0.0 0.0 0.0 0.0 0.0 0.0 0.0 0.0 0.0 0.0 0.0 0.0 0.0
0.0 0.0 0.0 0.0 0.0 0.0 0.0 0.0 0.0 0.0 0.0 0.0 0.0 0.3 0.0 0.0 0.0 0.0 4.1 3.7 1.5 2.2 2.2 2.4 2.2 2.2 0.0 2.6 0.7 0.3 2.0 1.3 4.9 1.3 0.5 0.4 0.1 0.0 0.0 0.0 0.0 0.0 0.0 0.0 0.0 0.0 0.0 0.0 0.0 0.0 0.0 0.0 0.0 0.0
0.0 0.0 0.0 0.0 0.0 0.0 0.0 0.0 0.0 0.0 0.0 0.0 0.0 0.0 0.0 1.7 4.7 7.4 6.8 1.0 0.8 1.2 0.6 0.9 0.5 0.2 0.4 0.0 0.6 0.3 1.1 0.6 0.9 0.0 0.6 0.3 0.0 0.0 0.0 0.0 0.0 0.0 0.0 0.0 0.0 0.0 0.0 0.0 0.0 0.0 0.0 0.0 0.0 0.0
0.0 0.0 0.0 0.0 0.0 0.0 0.0 0.0 0.0 0.0 0.0 0.0 0.1 1.3 2.7 4.7 8.0 5.5 4.9 1.5 0.5 0.3 0.4 0.6 0.9 0.1 0.0 0.0 0.5 0.4 0.3 0.2 0.0 0.3 0.0 0.0 0.0 0.0 0.0 0.0 0.0 0.0 0.0 0.0 0.0 0.0 0.0 0.0 0.0 0.0 0.0 0.0 0.0 0.0
0.0 0.0 0.0 0.0 0.0 0.0 0.0 0.0 0.0 0.0 0.0 0.1 0.8 1.8 3.0 3.5 3.3 2.2 1.3 1.0 0.0 0.2 0.0 0.0 0.6 0.9 0.1 0.9 0.3 0.8 0.2 0.2 0.4 0.2 0.0 0.0 0.0 0.0 0.0 0.0 0.0 0.0 0.0 0.0 0.0 0.0 0.0 0.0 0.0 0.0 0.0 0.0 0.0 0.0
0.0 0.0 0.0 0.0 0.0 0.0 0.0 0.0 0.0 0.0 0.0 0.0 0.9 1.6 1.4 1.3 0.6 0.3 0.1 0.4 0.0 0.0 0.0 0.0 0.0 0.3 0.9 1.4 0.4 0.2 0.2 0.1 0.1 0.2 0.0 0.0 0.0 0.0 0.0 0.0 0.0 0.0 0.0 0.0 0.0 0.0 0.0 0.0 0.0 0.0 0.0 0.0 0.0 0.2
0.0 0.0 0.0 0.0 0.0 0.0 0.0 0.0 0.0 0.0 0.0 0.2 0.7 1.4 0.6 0.5 0.3 0.1 0.0 0.1 0.0 0.0 0.1 0.2 0.4 0.9 0.6 1.1 0.6 0.2 0.1 0.0 0.0 0.0 0.0 0.0 0.0 0.0 0.0 0.0 0.0 0.0 0.0 0.0 0.0 0.0 0.0 0.0 0.0 0.0 0.0 0.0 0.0 0.6
0.0 0.0 0.0 0.0 0.0 0.0 0.0 0.0 0.0 0.0 0.1 0.0 0.2 0.4 0.6 0.3 0.3 0.2 0.0 0.0 0.0 0.2 1.0 1.5 2.2 0.5 0.4 0.8 0.1 0.0 0.1 0.0 0.0 0.0 0.0 0.0 0.0 0.0 0.0 0.0 0.0 0.0 0.0 0.0 0.0 0.0 0.0 0.0 0.0 0.0 0.0 0.0 0.0 0.0
0.0 0.0 0.0 0.0 0.0 0.0 0.0 0.0 0.0 0.0 0.0 0.0 0.0 0.0 0.0 0.0 0.2 0.2 0.0 0.0 0.0 0.4 1.3 4.4 2.4 1.6 0.3 0.2 0.0 0.1 0.0 0.0 0.1 0.0 0.0 0.0 0.0 0.0 0.0 0.0 0.0 0.0 0.0 0.0 0.0 0.0 0.0 0.0 0.0 0.0 0.0 0.0 0.0 0.0
0.0 0.0 0.0 0.0 0.0 0.0 0.0 0.0 0.0 0.0 0.0 0.0 0.0 0.0 0.0 0.0 0.0 0.0 0.0 0.0 0.0 0.0 0.3 2.5 2.4 0.4 0.0 0.0 0.0 0.0 0.0 0.0 0.0 0.0 0.0 0.0 0.0 0.0 0.0 0.0 0.0 0.0 0.0 0.0 0.0 0.0 0.0 0.0 0.0 0.0 0.0 0.0 0.0 0.0
0.0 0.0 0.0 0.0 0.0 0.0 0.0 0.0 0.0 0.0 0.0 0.0 0.0 0.0 0.0 0.0 0.0 0.0 0.0 0.1 0.3 1.6 1.8 1.9 0.0 0.2 0.1 0.3 0.3 0.1 0.0 0.0 0.0 0.0 0.0 0.0 0.0 0.0 0.0 0.0 0.0 0.0 0.0 0.0 0.0 0.0 0.0 0.0 0.0 0.0 0.0 0.0 0.0 0.0
0.0 0.0 0.0 0.0 0.3 0.1 0.0 0.0 0.0 0.0 0.0 0.0 0.0 0.0 0.0 0.0 0.0 0.0 0.0 1.0 2.0 2.5 1.9 1.2 0.2 0.1 0.0 0.5 0.2 0.0 0.0 0.0 0.0 0.0 0.0 0.0 0.0 0.0 0.0 0.0 0.0 0.0 0.0 0.0 0.0 0.0 0.0 0.0 0.0 0.0 0.0 0.0 0.0 0.0
0.4 0.0 1.7 1.5 1.6 0.4 0.2 0.0 0.0 0.0 0.0 0.0 0.0 0.0 0.0 0.0 0.0 0.0 0.1 1.7 3.4 2.0 1.5 1.1 1.0 0.6 0.2 0.0 0.8 0.9 0.4 0.0 0.0 0.0 0.0 0.0 0.0 0.0 0.0 0.0 0.0 0.0 0.0 0.0 0.0 0.0 0.0 0.0 0.0 0.0 0.0 0.0 0.0 0.0
0.3 1.3 2.8 2.3 1.7 1.2 0.1 0.1 0.1 0.0 0.0 0.0 0.0 0.0 0.0 0.0 0.0 0.0 1.1 1.5 1.6 1.2 1.0 0.8 1.0 2.2 2.3 1.8 1.5 1.1 0.6 0.1 0.0 0.2 0.1 0.0 0.0 0.0 0.0 0.0 0.0 0.0 0.0 0.0 0.0 0.0 0.0 0.0 0.0 0.0 0.0 0.0 0.0 0.0
0.0 2.6 3.3 2.5 1.7 0.8 0.4 0.1 0.2 0.0 0.0 0.0 0.0 0.0 0.0 0.0 0.0 0.0 0.8 0.6 0.4 0.4 1.3 1.6 1.3 1.1 0.6 1.5 1.8 2.2 2.3 1.4 0.4 0.0 0.7 0.3 0.1 0.0 0.0 0.0 0.0 0.0 0.0 0.0 0.0 0.0 0.0 0.0 0.0 0.0 0.0 0.0 0.0 0.0
5.3 4.8 3.0 2.4 1.0 0.7 0.2 0.1 0.1 0.0 0.0 0.0 0.2 0.0 0.0 0.0 0.2 0.2 0.0 0.0 0.1 0.2 0.6 1.4 1.5 1.4 1.4 1.0 1.4 1.3 1.2 1.5 2.5 2.7 0.1 1.5 0.8 0.2 0.0 0.0 0.3 0.0 0.0 0.2 0.1 0.0 0.0 0.0 0.0 0.0 0.0 0.0 0.0 0.0
6.0 2.2 0.8 0.0 0.0 0.0 0.0 0.0 0.0 0.0 0.0 0.0 0.2 0.0 0.0 0.1 0.2 0.0 0.0 0.0 0.1 0.3 0.4 0.6 1.2 1.2 0.9 0.8 1.0 1.8 1.7 1.5 1.3 2.4 1.4 2.0 1.6 2.1 2.0 0.1 1.3 0.7 0.1 0.0 0.5 0.5 0.3 0.1 0.1 0.0 0.0 0.0 0.2 0.1
3.0 1.2 0.0 0.0 0.1 0.1 0.0 0.0 0.0 0.0 0.0 0.3 0.0 0.0 0.0 0.0 0.1 0.0 0.0 0.0 0.0 0.4 0.7 1.1 2.2 1.9 1.3 1.4 1.3 1.8 2.0 2.2 2.0 1.5 2.0 4.3 4.0 2.5 1.2 1.9 1.7 1.2 0.8 0.3 1.0 0.6 0.6 0.6 0.4 0.6 0.5 0.6 0.5 0.4
0.4 0.0 0.0 0.0 0.0 0.0 0.0 0.2 0.3 0.2 0.0 0.0 0.0 0.0 0.0 0.0 0.0 0.0 0.0 0.0 0.0 0.0 0.8 1.3 1.8 2.4 2.2 1.9 1.9 2.6 2.8 3.1 3.4 3.2 4.5 5.2 5.4 5.0 3.9 3.1 2.4 2.7 2.8 2.0 1.3 1.4 1.3 0.9 0.7 1.5 1.2 1.1 1.1 0.9
0.1 0.0 0.0 0.0 0.0 0.0 0.0 0.0 0.0 0.0 0.0 0.0 0.0 0.0 0.0 0.0 0.0 0.0 0.0 0.0 0.0 0.8 1.0 1.5 1.9 2.0 2.8 2.9 2.8 3.5 3.5 3.6 3.1 2.5 2.0 2.4 4.3 6.0 5.6 4.8 5.5 5.6 3.7 3.7 2.6 2.5 2.1 2.6 2.5 2.6 3.1 3.2 3.0 2.9
0.0 0.0 0.0 0.0 0.0 0.0 0.0 0.0 0.0 0.0 0.0 0.0 0.0 0.0 0.0 0.0 0.0 0.0 0.0 0.0 0.0 1.4 1.8 2.4 2.3 2.4 3.5 3.4 3.5 3.3 4.1 4.1 3.8 2.0 1.8 2.2 2.8 4.1 5.8 5.7 5.9 6.3 5.9 5.3 6.2 6.8 4.8 5.8 6.2 6.3 5.6 5.5 5.3 4.7
0.0 0.0 0.0 0.0 0.0 0.0 0.0 0.0 0.0 0.0 0.0 0.0 0.0 0.0 0.0 0.0 0.0 0.0 0.3 0.6 1.4 2.0 2.7 3.4 3.8 4.4 4.6 5.0 4.9 4.4 4.5 5.2 5.3 5.5 4.4 4.4 4.5 4.7 5.5 5.8 5.4 5.8 5.9 5.7 5.1 4.8 4.9 4.6 4.1 4.3 4.2 4.2 3.9 3.5
0.0 0.0 0.0 0.0 0.0 0.1 0.0 0.0 0.0 0.0 0.0 0.0 0.0 0.0 0.0 0.0 0.0 0.0 0.5 0.8 1.8 2.3 2.7 3.4 3.9 5.0 5.6 5.4 5.4 5.3 3.9 4.8 4.7 5.9 5.0 4.3 4.2 3.3 4.3 4.8 5.5 5.5 6.1 6.2 5.6 6.0 6.0 6.1 6.2 5.7 5.7 5.6 5.3 4.7
1.0 0.5 0.4 0.3 0.0 0.0 0.0 0.0 0.0 0.0 0.0 0.0 0.0 0.0 0.0 0.1 0.0 0.4 0.6 1.0 2.0 2.5 2.7 4.1 4.7 4.7 4.5 4.4 4.9 5.2 5.2 5.1 5.8 5.5 5.2 4.8 4.3 4.3 4.8 5.3 5.6 6.3 6.4 6.5 7.0 7.5 7.8 7.2 6.9 6.6 6.0 5.7 5.3 5.0

GFSWCAN_prec_kuchsnow_042.txt.gz
Snowfall_Accumulation
0.0 0.0 0.0 0.0 0.0 0.0 0.0 0.0 0.0 0.0 0.0 0.0 0.0 0.0 0.0 0.0 0.0 0.0 0.0 0.0 0.0 0.0 0.0 0.0 0.0 0.0 0.0 0.0 0.0 0.0 0.0 0.0 0.0 0.1 0.0 0.0 0.0 0.0 0.0 0.0 0.0 0.0 0.0 0.2 0.3 0.7 0.0 0.0 0.0 0.0 0.0 0.0 0.0 0.0
0.0 0.0 0.0 0.0 0.0 0.0 0.0 0.0 0.0 0.0 0.0 0.0 0.0 0.0 0.0 0.0 0.0 0.0 0.0 0.0 0.0 0.0 0.0 0.0 0.0 0.0 0.0 0.0 0.0 0.0 0.0 0.0 0.0 0.0 0.0 0.0 0.0 0.0 0.0 0.0 0.0 0.0 0.0 0.0 0.0 0.0 0.0 0.0 0.0 0.0 0.0 0.0 0.0 0.0
0.0 0.0 0.0 0.0 0.0 0.0 0.0 0.0 0.0 0.0 0.0 0.0 0.0 0.0 0.0 0.0 0.0 0.0 0.0 0.0 0.0 0.2 0.0 0.0 0.0 0.0 0.0 0.0 0.0 0.0 0.0 0.0 0.0 0.0 0.1 0.0 0.0 0.0 0.0 0.0 0.0 0.0 0.0 0.0 0.0 0.0 0.0 0.0 0.0 0.0 0.0 0.0 0.0 0.0
0.0 0.0 0.0 0.0 0.0 0.0 0.0 0.0 0.0 0.0 0.0 0.0 0.0 0.0 0.0 0.0 0.0 0.0 0.0 0.0 0.0 0.2 1.5 0.0 0.0 0.0 0.0 0.0 0.0 0.0 0.0 0.0 0.0 0.4 0.5 0.2 0.1 0.0 0.0 0.0 0.0 0.0 0.0 0.0 0.0 0.0 0.0 0.0 0.0 0.0 0.0 0.0 0.0 0.0
0.0 0.0 0.0 0.0 0.0 0.0 0.0 0.0 0.0 0.0 0.0 0.0 0.0 0.0 0.0 0.0 0.0 0.0 0.0 0.0 0.0 0.3 2.1 0.7 0.0 0.0 0.0 0.0 0.0 0.0 0.0 0.0 0.2 0.7 1.3 0.7 0.0 0.0 0.0 0.0 0.0 0.0 0.0 0.0 0.0 0.0 0.0 0.0 0.0 0.0 0.0 0.0 0.0 0.0
0.0 0.0 0.0 0.0 0.0 0.0 0.0 0.0 0.0 0.0 0.0 0.0 0.0 0.0 0.0 0.0 0.0 0.0 0.0 0.0 0.0 0.0 2.6 3.1 0.0 0.0 0.0 0.0 0.0 0.0 0.0 0.0 0.8 0.3 1.6 0.0 0.0 0.0 0.9 0.1 0.0 0.0 0.0 0.0 0.0 0.0 0.0 0.0 0.0 0.0 0.0 0.0 0.0 0.0
0.0 0.0 0.0 0.0 0.0 0.0 0.0 0.0 0.0 0.0 0.0 0.0 0.0 0.0 0.0 0.0 0.0 0.1 0.1 0.0 0.0 0.0 2.6 7.8 4.1 0.1 0.0 0.0 0.0 0.0 0.0 0.0 1.2 1.1 0.0 0.8 0.2 1.0 0.9 0.0 0.0 0.0 0.0 0.0 0.0 0.0 0.0 0.0 0.0 0.0 0.0 0.0 0.0 0.0
0.0 0.0 0.0 0.0 0.0 0.0 0.0 0.0 0.0 0.0 0.0 0.0 0.0 0.0 0.0 0.0 0.0 0.0 0.0 0.0 0.0 1.5 4.2 11.3 8.8 4.6 0.0 0.0 0.1 0.0 0.0 0.0 1.9 0.7 0.0 0.1 0.0 0.7 1.2 0.0 0.0 0.0 0.0 0.0 0.0 0.0 0.0 0.0 0.0 0.0 0.0 0.0 0.0 0.0
0.0 0.0 0.0 0.0 0.0 0.0 0.0 0.0 0.0 0.0 0.0 0.0 0.0 0.0 0.0 0.0 0.0 0.0 0.0 0.0 0.0 0.1 7.2 6.3 10.1 6.4 0.2 0.1 0.0 0.0 0.0 1.6 0.2 0.9 0.0 0.0 0.4 2.0 0.0 0.0 0.0 0.0 0.0 0.0 0.0 0.0 0.0 0.0 0.0 0.0 0.0 0.0 0.0 0.0
0.0 0.0 0.0 0.0 0.0 0.0 0.0 0.0 0.0 0.0 0.0 0.0 0.0 0.0 0.2 0.0 0.0 0.0 0.0 1.4 2.7 2.4 3.0 6.6 2.6 2.7 1.1 2.0 0.5 0.5 0.1 1.9 4.8 0.0 0.0 0.5 0.0 0.0 0.0 0.0 0.0 0.0 0.0 0.0 0.0 0.0 0.0 0.0 0.0 0.0 0.0 0.0 0.0 0.0
0.0 0.0 0.0 0.0 0.0 0.0 0.0 0.0 0.0 0.0 0.0 0.0 0.0 0.3 0.0 0.0 0.0 0.0 4.3 4.0 1.8 2.6 2.4 2.4 2.2 2.3 0.0 3.0 0.9 0.3 2.2 1.3 6.6 1.7 0.5 0.8 0.1 0.0 0.0 0.0 0.0 0.0 0.0 0.0 0.0 0.0 0.0 0.0 0.0 0.0 0.0 0.0 0.0 0.0
0.0 0.0 0.0 0.0 0.0 0.0 0.0 0.0 0.0 0.0 0.0 0.0 0.0 0.0 0.0 1.7 4.7 7.4 6.8 1.0 1.1 1.7 0.6 0.9 0.5 0.2 0.5 0.0 1.2 0.6 1.7 1.2 2.1 0.0 1.2 1.2 0.3 0.1 0.0 0.0 0.0 0.0 0.0 0.0 0.0 0.0 0.0 0.0 0.0 0.0 0.0 0.0 0.0 0.0
0.0 0.0 0.0 0.0 0.0 0.0 0.0 0.0 0.0 0.0 0.0 0.0 0.1 1.3 2.7 4.7 8.0 5.5 4.9 1.5 0.5 0.3 0.4 0.6 0.9 0.1 0.0 0.0 1.0 1.1 1.0 0.4 0.0 0.4 0.0 0.0 0.0 0.0 0.0 0.0 0.0 0.0 0.0 0.0 0.0 0.0 0.0 0.0 0.0 0.0 0.0 0.0 0.0 0.0
0.0 0.0 0.0 0.0 0.0 0.0 0.0 0.0 0.0 0.0 0.0 0.1 0.8 1.8 3.0 3.5 3.3 2.2 1.3 1.0 0.0 0.2 0.0 0.0 0.6 0.9 0.1 1.1 0.7 1.3 0.3 0.2 0.6 0.5 0.3 0.0 0.0 0.0 0.0 0.0 0.0 0.0 0.0 0.0 0.0 0.0 0.0 0.0 0.0 0.0 0.0 0.0 0.0 0.0
0.0 0.0 0.0 0.0 0.0 0.0 0.0 0.0 0.0 0.0 0.0 0.0 0.9 1.6 1.4 1.3 0.6 0.3 0.1 0.4 0.0 0.0 0.0 0.0 0.1 0.3 1.0 1.6 0.8 0.5 0.3 0.3 0.2 0.6 0.2 0.0 0.0 0.0 0.0 0.0 0.0 0.0 0.0 0.0 0.0 0.0 0.0 0.0 0.0 0.0 0.0 0.0 0.0 0.2
0.0 0.0 0.0 0.0 0.0 0.0 0.0 0.0 0.0 0.0 0.0 0.2 0.7 1.4 0.6 0.5 0.3 0.1 0.0 0.1 0.0 0.0 0.1 0.2 0.5 1.0 0.8 1.5 1.2 0.7 0.7 0.7 0.4 0.2 0.0 0.1 0.1 0.0 0.0 0.0 0.0 0.0 0.0 0.0 0.0 0.0 0.0 0.0 0.0 0.0 0.0 0.0 0.0 0.6
0.0 0.0 0.0 0.0 0.0 0.0 0.0 0.0 0.0 0.0 0.1 0.0 0.2 0.4 0.6 0.3 0.3 0.2 0.0 0.0 0.0 0.2 1.0 1.5 2.2 0.7 0.4 1.2 0.7 0.4 1.4 1.0 0.5 0.0 0.1 0.0 0.0 0.0 0.0 0.0 0.0 0.0 0.0 0.0 0.0 0.0 0.0 0.0 0.0 0.0 0.0 0.0 0.0 0.0
0.0 0.0 0.0 0.0 0.0 0.0 0.0 0.0 0.0 0.0 0.0 0.0 0.0 0.0 0.0 0.0 0.2 0.2 0.0 0.0 0.0 0.4 1.3 4.4 2.4 1.6 0.3 0.2 0.0 0.1 0.0 0.0 0.1 0.0 0.1 0.0 0.0 0.0 0.0 0.0 0.0 0.0 0.1 0.1 0.0 0.0 0.0 0.0 0.0 0.0 0.0 0.0 0.0 0.0
0.0 0.0 0.0 0.0 0.0 0.0 0.0 0.0 0.0 0.0 0.0 0.0 0.0 0.0 0.0 0.0 0.0 0.0 0.0 0.0 0.0 0.0 0.3 2.5 2.4 0.4 0.0 0.0 0.0 0.0 0.0 0.0 0.0 0.0 0.0 0.0 0.0 0.0 0.0 0.0 0.0 0.0 0.0 0.0 0.0 0.0 0.0 0.0 0.0 0.0 0.0 0.0 0.0 0.0
0.0 0.0 0.0 0.0 0.0 0.0 0.0 0.0 0.0 0.0 0.0 0.0 0.0 0.0 0.0 0.0 0.0 0.0 0.0 0.1 0.3 1.6 1.8 1.9 0.0 0.2 0.1 0.3 0.3 0.1 0.0 0.0 0.0 0.0 0.0 0.0 0.0 0.0 0.0 0.0 0.1 0.0 0.0 0.0 0.0 0.0 0.0 0.0 0.0 0.0 0.0 0.0 0.0 0.0
0.0 0.0 0.0 0.0 0.3 0.1 0.0 0.0 0.0 0.0 0.0 0.0 0.0 0.0 0.0 0.0 0.0 0.0 0.0 1.0 2.0 2.5 1.9 1.2 0.2 0.1 0.0 0.5 0.2 0.0 0.0 0.0 0.0 0.0 0.0 0.0 0.0 0.0 0.0 0.0 0.0 0.0 0.0 0.0 0.0 0.0 0.0 0.0 0.0 0.0 0.0 0.0 0.0 0.0
0.4 0.0 1.7 1.5 1.6 0.4 0.2 0.0 0.0 0.0 0.0 0.0 0.0 0.0 0.0 0.0 0.0 0.0 0.1 1.7 3.4 2.0 1.5 1.1 1.0 0.6 0.2 0.0 0.8 0.9 0.4 0.0 0.0 0.0 0.0 0.0 0.0 0.0 0.0 0.0 0.0 0.0 0.0 0.0 0.0 0.0 0.0 0.0 0.0 0.0 0.0 0.0 0.0 0.0
0.3 1.3 2.8 2.3 1.7 1.2 0.1 0.1 0.1 0.0 0.0 0.0 0.0 0.0 0.0 0.0 0.0 0.0 1.1 1.5 1.6 1.2 1.0 0.8 1.0 2.2 2.3 1.8 1.5 1.1 0.6 0.1 0.0 0.2 0.1 0.0 0.0 0.0 0.0 0.0 0.0 0.0 0.0 0.0 0.0 0.0 0.0 0.0 0.0 0.0 0.0 0.0 0.0 0.0
0.0 2.6 3.3 2.5 1.7 0.8 0.4 0.1 0.2 0.0 0.0 0.0 0.0 0.0 0.0 0.0 0.0 0.0 0.8 0.6 0.4 0.4 1.3 1.6 1.3 1.1 0.6 1.5 1.8 2.2 2.3 1.4 0.4 0.0 0.7 0.3 0.1 0.0 0.0 0.0 0.0 0.0 0.0 0.0 0.0 0.0 0.0 0.0 0.0 0.0 0.0 0.0 0.0 0.0
5.3 5.0 3.3 3.0 1.1 0.7 0.2 0.1 0.1 0.0 0.0 0.0 0.2 0.0 0.0 0.0 0.2 0.2 0.0 0.0 0.1 0.2 0.6 1.4 1.5 1.4 1.4 1.0 1.4 1.3 1.2 1.5 2.5 2.7 0.1 1.5 0.8 0.2 0.0 0.0 0.3 0.0 0.0 0.2 0.1 0.0 0.0 0.0 0.0 0.0 0.0 0.0 0.0 0.0
6.7 2.3 1.1 0.0 0.0 0.1 0.0 0.0 0.0 0.0 0.0 0.0 0.2 0.0 0.0 0.1 0.2 0.0 0.0 0.0 0.1 0.3 0.4 0.6 1.2 1.2 0.9 0.8 1.0 1.8 1.7 1.5 1.3 2.4 1.4 2.0 1.6 2.1 2.0 0.1 1.3 0.7 0.1 0.0 0.5 0.5 0.3 0.1 0.1 0.0 0.0 0.0 0.2 0.1
3.1 1.2 0.0 0.0 0.1 0.1 0.0 0.0 0.0 0.0 0.0 0.3 0.0 0.0 0.0 0.3 0.1 0.0 0.0 0.0 0.0 0.4 0.7 1.1 2.2 1.9 1.3 1.4 1.3 1.8 2.0 2.2 2.0 1.5 2.0 4.3 4.0 2.5 1.2 1.9 1.7 1.2 0.8 0.3 1.0 0.6 0.6 0.6 0.4 0.6 0.5 0.6 0.5 0.4
0.4 0.0 0.0 0.0 0.0 0.0 0.0 0.2 0.3 0.2 0.0 0.0 0.4 0.3 0.2 0.0 0.0 0.0 0.0 0.0 0.0 0.0 0.8 1.3 1.8 2.4 2.2 1.9 1.9 2.6 2.8 3.1 3.4 3.2 4.5 5.2 5.4 5.0 3.9 3.1 2.4 2.7 2.8 2.0 1.3 1.4 1.3 0.9 0.7 1.5 1.2 1.1 1.1 0.9
0.1 0.0 0.0 0.0 0.0 0.0 0.0 0.0 0.0 0.0 0.0 0.0 0.0 0.0 0.0 0.0 0.0 0.0 0.0 0.0 0.0 0.8 1.0 1.5 1.9 2.0 2.8 2.9 2.8 3.5 3.5 3.6 3.1 2.5 2.0 2.4 4.3 6.0 5.6 4.8 5.5 5.6 3.7 3.7 2.6 2.5 2.1 2.6 2.5 2.6 3.1 3.2 3.0 2.9
0.1 0.0 0.0 0.0 0.0 0.0 0.0 0.0 0.0 0.0 0.0 0.0 0.0 0.0 0.0 0.0 0.0 0.0 0.0 0.0 0.0 1.4 1.8 2.4 2.3 2.4 3.5 3.4 3.5 3.3 4.1 4.1 3.8 2.0 1.8 2.2 2.8 4.1 5.8 5.7 5.9 6.3 5.9 5.3 6.2 6.8 4.8 5.8 6.2 6.3 5.6 5.5 5.3 4.7
0.0 0.0 0.0 0.0 0.0 0.0 0.0 0.0 0.0 0.0 0.0 0.0 0.0 0.0 0.0 0.0 0.0 0.0 0.3 0.6 1.4 2.0 2.7 3.4 3.8 4.4 4.6 5.0 4.9 4.4 4.5 5.2 5.3 5.5 4.4 4.4 4.5 4.7 5.5 5.8 5.4 5.8 5.9 5.7 5.1 4.8 4.9 4.6 4.1 4.3 4.2 4.2 3.9 3.5
0.0 0.0 0.0 0.0 0.0 0.1 0.0 0.0 0.0 0.0 0.0 0.0 0.0 0.0 0.0 0.0 0.0 0.0 0.5 0.8 1.8 2.3 2.7 3.4 3.9 5.0 5.6 5.4 5.4 5.3 3.9 4.8 4.7 5.9 5.0 4.3 4.2 3.3 4.3 4.8 5.5 5.5 6.1 6.2 5.6 6.0 6.0 6.1 6.2 5.7 5.7 5.6 5.3 4.7
1.0 0.5 0.4 0.3 0.0 0.0 0.0 0.0 0.0 0.0 0.0 0.0 0.0 0.0 0.0 0.1 0.0 0.4 0.6 1.0 2.0 2.5 2.7 4.1 4.7 4.7 4.5 4.4 4.9 5.2 5.2 5.1 5.8 5.5 5.2 4.8 4.3 4.3 4.8 5.3 5.6 6.3 6.4 6.5 7.0 7.5 7.8 7.2 6.9 6.6 6.1 5.8 5.3 5.0

GFSWCAN_prec_kuchsnow_045.txt.gz
Snowfall_Accumulation
0.0 0.0 0.0 0.0 0.0 0.0 0.0 0.0 0.0 0.0 0.0 0.0 0.0 0.0 0.0 0.0 0.0 0.0 0.0 0.0 0.0 0.0 0.0 0.0 0.0 0.0 0.0 0.0 0.0 0.0 0.0 0.0 0.0 0.1 0.0 0.0 0.0 0.0 0.0 0.0 0.0 0.0 0.0 0.2 0.3 0.7 0.0 0.0 0.0 0.0 0.0 0.0 0.0 0.0
0.0 0.0 0.0 0.0 0.0 0.0 0.0 0.0 0.0 0.0 0.0 0.0 0.0 0.0 0.0 0.0 0.0 0.0 0.0 0.0 0.0 0.0 0.0 0.0 0.0 0.0 0.0 0.0 0.0 0.0 0.0 0.0 0.0 0.0 0.0 0.0 0.0 0.0 0.0 0.0 0.0 0.0 0.0 0.0 0.0 0.0 0.0 0.0 0.0 0.0 0.0 0.0 0.0 0.0
0.0 0.0 0.0 0.0 0.0 0.0 0.0 0.0 0.0 0.0 0.0 0.0 0.0 0.0 0.0 0.0 0.0 0.0 0.0 0.0 0.0 0.2 0.0 0.0 0.0 0.0 0.0 0.0 0.0 0.0 0.0 0.0 0.0 0.0 0.1 0.0 0.0 0.0 0.0 0.0 0.0 0.0 0.0 0.0 0.0 0.0 0.0 0.0 0.0 0.0 0.0 0.0 0.0 0.0
0.0 0.0 0.0 0.0 0.0 0.0 0.0 0.0 0.0 0.0 0.0 0.0 0.0 0.0 0.0 0.0 0.0 0.0 0.0 0.0 0.0 0.2 1.5 0.0 0.0 0.0 0.0 0.0 0.0 0.0 0.0 0.0 0.0 0.4 0.5 0.2 0.2 0.0 0.0 0.0 0.0 0.0 0.0 0.0 0.0 0.0 0.0 0.0 0.0 0.0 0.0 0.0 0.0 0.0
0.0 0.0 0.0 0.0 0.0 0.0 0.0 0.0 0.0 0.0 0.0 0.0 0.0 0.0 0.0 0.0 0.0 0.0 0.0 0.0 0.0 0.3 2.2 0.7 0.0 0.0 0.0 0.0 0.0 0.0 0.0 0.0 0.2 0.7 1.3 0.7 0.0 0.0 0.0 0.0 0.0 0.0 0.0 0.0 0.0 0.0 0.0 0.0 0.0 0.0 0.0 0.0 0.0 0.0
0.0 0.0 0.0 0.0 0.0 0.0 0.0 0.0 0.0 0.0 0.0 0.0 0.0 0.0 0.0 0.0 0.0 0.0 0.0 0.0 0.0 0.0 2.6 3.1 0.0 0.0 0.0 0.0 0.0 0.0 0.0 0.0 0.8 0.3 1.6 0.0 0.0 0.0 0.9 0.1 0.0 0.0 0.0 0.0 0.0 0.0 0.0 0.0 0.0 0.0 0.0 0.0 0.0 0.0
0.0 0.0 0.0 0.0 0.0 0.0 0.0 0.0 0.0 0.0 0.0 0.0 0.0 0.0 0.0 0.0 0.0 0.1 0.1 0.0 0.0 0.0 2.6 7.8 4.1 0.1 0.0 0.0 0.0 0.0 0.0 0.0 1.2 1.1 0.0 0.8 0.2 1.1 1.0 0.0 0.0 0.0 0.0 0.0 0.0 0.0 0.0 0.0 0.0 0.0 0.0 0.0 0.0 0.0
0.0 0.0 0.0 0.0 0.0 0.0 0.0 0.0 0.0 0.0 0.0 0.0 0.0 0.0 0.0 0.0 0.0 0.0 0.0 0.0 0.0 1.5 4.2 11.3 8.8 4.6 0.0 0.0 0.1 0.0 0.0 0.0 1.9 0.7 0.0 0.1 0.0 0.7 1.2 0.0 0.0 0.0 0.0 0.0 0.0 0.0 0.0 0.0 0.0 0.0 0.0 0.0 0.0 0.0
0.0 0.0 0.0 0.0 0.0 0.0 0.0 0.0 0.0 0.0 0.0 0.0 0.0 0.0 0.0 0.0 0.0 0.0 0.0 0.0 0.0 0.1 7.2 6.3 10.1 6.4 0.2 0.1 0.0 0.0 0.0 1.6 0.2 0.9 0.0 0.0 0.4 2.0 0.0 0.0 0.0 0.0 0.0 0.0 0.0 0.0 0.0 0.0 0.0 0.0 0.0 0.0 0.0 0.0
0.0 0.0 0.0 0.0 0.0 0.0 0.0 0.0 0.0 0.0 0.0 0.0 0.0 0.0 0.2 0.0 0.0 0.0 0.0 1.4 2.7 2.4 3.0 6.6 2.6 2.8 1.1 2.0 0.6 0.6 0.1 1.9 4.8 0.0 0.0 0.5 0.0 0.0 0.0 0.0 0.0 0.0 0.0 0.0 0.0 0.0 0.0 0.0 0.0 0.0 0.0 0.0 0.0 0.0
0.0 0.0 0.0 0.0 0.0 0.0 0.0 0.0 0.0 0.0 0.0 0.0 0.0 0.3 0.0 0.0 0.0 0.0 4.3 4.0 1.8 2.6 2.4 2.4 2.2 2.3 0.0 3.2 1.2 0.3 2.2 1.5 6.8 1.7 0.5 0.8 1.2 0.2 0.0 0.0 0.0 0.0 0.0 0.0 0.0 0.0 0.0 0.0 0.0 0.0 0.0 0.0 0.0 0.0
0.0 0.0 0.0 0.0 0.0 0.0 0.0 0.0 0.0 0.0 0.0 0.0 0.0 0.0 0.0 1.7 4.7 7.4 6.8 1.0 1.1 1.7 0.6 0.9 0.5 0.2 0.5 0.0 1.4 0.8 2.1 1.5 2.1 0.4 1.6 1.9 1.1 0.9 0.6 0.0 0.0 0.0 0.0 0.0 0.0 0.0 0.0 0.0 0.0 0.0 0.0 0.0 0.0 0.0
0.0 0.0 0.0 0.0 0.0 0.0 0.0 0.0 0.0 0.0 0.0 0.0 0.1 1.3 2.7 4.7 8.0 5.5 4.9 1.5 0.5 0.3 0.4 0.6 0.9 0.1 0.0 0.1 1.2 1.6 1.6 0.6 0.0 0.9 0.4 0.3 0.0 0.0 0.0 0.4 0.3 0.1 0.0 0.0 0.0 0.0 0.0 0.0 0.0 0.0 0.0 0.0 0.0 0.0
0.0 0.0 0.0 0.0 0.0 0.0 0.0 0.0 0.0 0.0 0.0 0.1 0.8 1.8 3.0 3.5 3.3 2.2 1.3 1.0 0.0 0.2 0.0 0.0 0.6 0.9 0.1 1.2 1.0 1.9 0.3 0.4 0.9 1.2 1.2 0.3 0.2 0.0 0.0 0.0 0.0 0.0 0.1 0.1 0.1 0.0 0.0 0.0 0.0 0.0 0.0 0.0 0.0 0.0
0.0 0.0 0.0 0.0 0.0 0.0 0.0 0.0 0.0 0.0 0.0 0.0 0.9 1.6 1.4 1.3 0.6 0.3 0.1 0.4 0.0 0.0 0.0 0.0 0.1 0.3 1.0 1.8 1.1 1.1 0.7 1.1 1.4 2.3 1.0 0.4 0.4 0.2 0.0 0.0 0.0 0.0 0.0 0.0 0.0 0.1 0.0 0.0 0.0 0.0 0.0 0.0 0.0 0.2
0.0 0.0 0.0 0.0 0.0 0.0 0.0 0.0 0.0 0.0 0.0 0.2 0.7 1.4 0.6 0.5 0.3 0.1 0.0 0.1 0.0 0.0 0.1 0.2 0.5 1.0 0.8 2.1 1.2 2.0 2.9 3.8 2.2 1.0 0.5 0.3 0.6 0.0 0.2 0.0 0.0 0.0 0.0 0.0 0.0 0.0 0.0 0.0 0.0 0.0 0.0 0.0 0.0 0.6
0.0 0.0 0.0 0.0 0.0 0.0 0.0 0.0 0.0 0.0 0.1 0.0 0.2 0.4 0.6 0.3 0.3 0.2 0.0 0.0 0.0 0.2 1.0 1.5 2.2 0.7 0.4 1.2 0.7 0.4 1.4 1.0 0.6 0.0 0.1 0.0 0.1 0.0 0.0 0.0 0.0 0.0 0.0 0.0 0.0 0.0 0.0 0.2 0.1 0.0 0.0 0.0 0.0 0.0
0.0 0.0 0.0 0.0 0.0 0.0 0.0 0.0 0.0 0.0 0.0 0.0 0.0 0.0 0.0 0.0 0.2 0.2 0.0 0.0 0.0 0.4 1.3 4.4 2.4 1.6 0.3 0.2 0.0 0.1 0.0 0.0 0.1 0.0 0.1 0.0 0.0 0.0 0.0 0.0 0.0 0.1 0.7 1.1 0.9 0.8 0.6 0.2 0.0 0.0 0.0 0.0 0.0 0.0
0.0 0.0 0.0 0.0 0.0 0.0 0.0 0.0 0.0 0.0 0.0 0.0 0.0 0.0 0.0 0.0 0.0 0.0 0.0 0.0 0.0 0.0 0.3 2.5 2.4 0.4 0.0 0.0 0.0 0.0 0.0 0.0 0.0 0.0 0.0 0.0 0.0 0.0 0.0 0.3 0.3 0.4 0.8 0.6 0.0 0.0 0.0 0.0 0.0 0.0 0.0 0.0 0.0 0.0
0.0 0.0 0.0 0.0 0.0 0.0 0.0 0.0 0.0 0.0 0.0 0.0 0.0 0.0 0.0 0.0 0.0 0.0 0.0 0.1 0.3 1.6 1.8 1.9 0.0 0.2 0.1 0.3 0.3 0.1 0.0 0.0 0.0 0.0 0.0 0.0 0.0 0.0 0.0 0.0 0.1 0.3 0.2 0.0 0.0 0.0 0.0 0.0 0.0 0.0 0.0 0.0 0.0 0.0
0.0 0.0 0.0 0.0 0.3 0.1 0.0 0.0 0.0 0.0 0.0 0.0 0.0 0.0 0.0 0.0 0.0 0.0 0.0 1.0 2.0 2.5 1.9 1.2 0.2 0.1 0.0 0.5 0.2 0.0 0.0 0.0 0.0 0.0 0.0 0.0 0.0 0.0 0.0 0.0 0.0 0.0 0.0 0.0 0.0 0.0 0.0 0.0 0.0 0.0 0.0 0.0 0.0 0.0
0.4 0.0 1.7 1.5 1.6 0.4 0.2 0.0 0.0 0.0 0.0 0.0 0.0 0.0 0.0 0.0 0.0 0.0 0.1 1.7 3.4 2.0 1.5 1.1 1.0 0.6 0.2 0.0 0.8 0.9 0.4 0.0 0.0 0.0 0.0 0.0 0.0 0.0 0.0 0.0 0.0 0.0 0.0 0.0 0.0 0.0 0.0 0.0 0.0 0.0 0.0 0.0 0.0 0.0
0.3 1.3 2.8 2.3 1.7 1.2 0.1 0.1 0.1 0.0 0.0 0.0 0.0 0.0 0.0 0.0 0.0 0.0 1.1 1.5 1.6 1.2 1.0 0.8 1.0 2.2 2.3 1.8 1.5 1.1 0.6 0.1 0.0 0.2 0.1 0.0 0.0 0.0 0.0 0.0 0.0 0.0 0.0 0.0 0.0 0.0 0.0 0.0 0.0 0.0 0.0 0.0 0.0 0.0
0.0 2.6 3.3 2.5 1.7 0.8 0.4 0.1 0.2 0.0 0.0 0.0 0.0 0.0 0.0 0.0 0.0 0.0 0.8 0.6 0.4 0.4 1.3 1.6 1.3 1.1 0.6 1.5 1.8 2.2 2.3 1.4 0.4 0.0 0.7 0.3 0.1 0.0 0.0 0.0 0.0 0.0 0.0 0.0 0.0 0.0 0.0 0.0 0.0 0.0 0.0 0.0 0.0 0.0
5.3 5.0 3.3 3.4 1.4 0.7 0.2 0.1 0.1 0.0 0.0 0.0 0.2 0.0 0.0 0.0 0.2 0.2 0.0 0.0 0.1 0.2 0.6 1.4 1.5 1.4 1.4 1.0 1.4 1.3 1.2 1.5 2.5 2.7 0.1 1.5 0.8 0.2 0.0 0.0 0.3 0.0 0.0 0.2 0.1 0.0 0.0 0.0 0.0 0.0 0.0 0.0 0.0 0.0
6.7 2.3 1.1 0.1 0.0 0.1 0.0 0.0 0.0 0.0 0.0 0.0 0.2 0.0 0.0 0.1 0.2 0.0 0.0 0.0 0.1 0.3 0.4 0.6 1.2 1.2 0.9 0.8 1.0 1.8 1.7 1.5 1.3 2.4 1.4 2.0 1.6 2.1 2.0 0.1 1.3 0.7 0.1 0.0 0.5 0.5 0.3 0.1 0.1 0.0 0.0 0.0 0.2 0.1
3.6 1.2 0.0 0.0 0.1 0.1 0.0 0.0 0.0 0.0 0.0 0.3 0.0 0.0 0.0 0.3 0.1 0.0 0.0 0.0 0.0 0.4 0.7 1.1 2.2 1.9 1.3 1.4 1.3 1.8 2.0 2.2 2.0 1.5 2.0 4.3 4.0 2.5 1.2 1.9 1.7 1.2 0.8 0.3 1.0 0.6 0.6 0.6 0.4 0.6 0.5 0.6 0.5 0.4
0.4 0.0 0.0 0.0 0.0 0.0 0.0 0.2 0.3 0.2 0.0 0.0 0.4 0.3 0.2 0.0 0.0 0.0 0.0 0.0 0.0 0.0 0.8 1.3 1.8 2.4 2.2 1.9 1.9 2.6 2.8 3.1 3.4 3.2 4.5 5.2 5.4 5.0 3.9 3.1 2.4 2.7 2.8 2.0 1.3 1.4 1.3 0.9 0.7 1.5 1.2 1.1 1.1 0.9
0.1 0.0 0.0 0.0 0.0 0.0 0.0 0.0 0.0 0.0 0.0 0.0 0.0 0.0 0.0 0.0 0.0 0.0 0.0 0.0 0.0 0.8 1.0 1.5 1.9 2.0 2.8 2.9 2.8 3.5 3.5 3.6 3.1 2.5 2.0 2.4 4.3 6.0 5.6 4.8 5.5 5.6 3.7 3.7 2.6 2.5 2.1 2.6 2.5 2.6 3.1 3.2 3.0 2.9
0.1 0.0 0.0 0.0 0.0 0.0 0.0 0.0 0.0 0.0 0.0 0.0 0.0 0.0 0.0 0.0 0.0 0.0 0.0 0.0 0.0 1.4 1.8 2.4 2.3 2.4 3.5 3.4 3.5 3.3 4.1 4.1 3.8 2.0 1.8 2.2 2.8 4.1 5.8 5.7 5.9 6.3 5.9 5.3 6.2 6.8 4.8 5.8 6.2 6.3 5.6 5.5 5.3 4.7
0.0 0.0 0.0 0.0 0.0 0.0 0.0 0.0 0.0 0.0 0.0 0.0 0.0 0.0 0.0 0.0 0.0 0.0 0.3 0.6 1.4 2.0 2.7 3.4 3.8 4.4 4.6 5.0 4.9 4.4 4.5 5.2 5.3 5.5 4.4 4.4 4.5 4.7 5.5 5.8 5.4 5.8 5.9 5.7 5.1 4.8 4.9 4.6 4.1 4.3 4.2 4.2 3.9 3.5
0.0 0.0 0.0 0.0 0.0 0.1 0.0 0.0 0.0 0.0 0.0 0.0 0.0 0.0 0.0 0.0 0.0 0.0 0.5 0.8 1.8 2.3 2.7 3.4 3.9 5.0 5.6 5.4 5.4 5.3 3.9 4.8 4.7 5.9 5.0 4.3 4.2 3.3 4.3 4.8 5.5 5.5 6.1 6.2 5.6 6.0 6.0 6.1 6.2 5.7 5.7 5.6 5.3 4.7
1.1 0.5 0.4 0.3 0.0 0.0 0.0 0.0 0.0 0.0 0.0 0.0 0.0 0.0 0.0 0.1 0.0 0.4 0.6 1.0 2.0 2.5 2.7 4.1 4.7 4.7 4.5 4.4 4.9 5.2 5.2 5.1 5.8 5.5 5.2 4.8 4.3 4.3 4.8 5.3 5.6 6.3 6.4 6.5 7.0 7.5 7.8 7.2 6.9 6.6 6.1 5.8 5.3 5.0

GFSWCAN_prec_kuchsnow_048.txt.gz
Snowfall_Accumulation
0.0 0.0 0.0 0.0 0.0 0.0 0.0 0.0 0.0 0.0 0.0 0.0 0.0 0.0 0.0 0.0 0.0 0.0 0.0 0.0 0.0 0.0 0.0 0.0 0.0 0.0 0.0 0.0 0.0 0.0 0.0 0.0 0.0 0.1 0.0 0.0 0.0 0.0 0.0 0.0 0.0 0.0 0.0 0.2 0.3 0.7 0.0 0.0 0.0 0.0 0.0 0.0 0.0 0.0
0.0 0.0 0.0 0.0 0.0 0.0 0.0 0.0 0.0 0.0 0.0 0.0 0.0 0.0 0.0 0.0 0.0 0.0 0.0 0.0 0.0 0.0 0.0 0.0 0.0 0.0 0.0 0.0 0.0 0.0 0.0 0.0 0.0 0.0 0.0 0.0 0.0 0.0 0.0 0.0 0.0 0.0 0.0 0.0 0.0 0.0 0.0 0.0 0.0 0.0 0.0 0.0 0.0 0.0
0.0 0.0 0.0 0.0 0.0 0.0 0.0 0.0 0.0 0.0 0.0 0.0 0.0 0.0 0.0 0.0 0.0 0.0 0.0 0.0 0.0 0.2 0.0 0.0 0.0 0.0 0.0 0.0 0.0 0.0 0.0 0.0 0.0 0.0 0.1 0.0 0.0 0.0 0.0 0.0 0.0 0.0 0.0 0.0 0.0 0.0 0.0 0.0 0.0 0.0 0.0 0.0 0.0 0.0
0.0 0.0 0.0 0.0 0.0 0.0 0.0 0.0 0.0 0.0 0.0 0.0 0.0 0.0 0.0 0.0 0.0 0.0 0.0 0.0 0.0 0.2 1.5 0.0 0.0 0.0 0.0 0.0 0.0 0.0 0.0 0.0 0.0 0.4 0.5 0.2 0.2 0.0 0.0 0.0 0.0 0.0 0.0 0.0 0.0 0.0 0.0 0.0 0.0 0.0 0.0 0.0 0.0 0.0
0.0 0.0 0.0 0.0 0.0 0.0 0.0 0.0 0.0 0.0 0.0 0.0 0.0 0.0 0.0 0.0 0.0 0.0 0.0 0.0 0.0 0.3 2.2 0.7 0.0 0.0 0.0 0.0 0.0 0.0 0.0 0.0 0.2 0.7 1.3 0.7 0.0 0.0 0.0 0.0 0.0 0.0 0.0 0.0 0.0 0.0 0.0 0.0 0.0 0.0 0.0 0.0 0.0 0.0
0.0 0.0 0.0 0.0 0.0 0.0 0.0 0.0 0.0 0.0 0.0 0.0 0.0 0.0 0.0 0.0 0.0 0.0 0.0 0.0 0.0 0.0 2.6 3.1 0.0 0.0 0.0 0.0 0.0 0.0 0.0 0.0 0.8 0.3 1.6 0.0 0.0 0.0 0.9 0.1 0.0 0.0 0.0 0.0 0.0 0.0 0.0 0.0 0.0 0.0 0.0 0.0 0.0 0.0
0.0 0.0 0.0 0.0 0.0 0.0 0.0 0.0 0.0 0.0 0.0 0.0 0.0 0.0 0.0 0.0 0.0 0.1 0.1 0.0 0.0 0.0 2.6 7.8 4.1 0.1 0.0 0.0 0.0 0.0 0.0 0.0 1.2 1.1 0.0 0.8 0.2 1.1 1.0 0.0 0.0 0.0 0.0 0.0 0.0 0.0 0.0 0.0 0.0 0.0 0.0 0.0 0.0 0.0
0.0 0.0 0.0 0.0 0.0 0.0 0.0 0.0 0.0 0.0 0.0 0.0 0.0 0.0 0.0 0.0 0.0 0.0 0.0 0.0 0.0 1.5 4.2 11.3 8.8 4.6 0.0 0.0 0.1 0.0 0.0 0.0 1.9 0.7 0.0 0.1 0.0 0.7 1.2 0.0 0.0 0.0 0.0 0.0 0.0 0.0 0.0 0.0 0.0 0.0 0.0 0.0 0.0 0.0
0.0 0.0 0.0 0.0 0.0 0.0 0.0 0.0 0.0 0.0 0.0 0.0 0.0 0.0 0.0 0.0 0.0 0.0 0.0 0.0 0.0 0.1 7.2 6.3 10.1 6.4 0.2 0.1 0.0 0.1 0.0 1.6 0.2 0.9 0.0 0.0 0.4 2.0 0.0 0.0 0.0 0.0 0.0 0.0 0.0 0.0 0.0 0.0 0.0 0.0 0.0 0.0 0.0 0.0
0.0 0.0 0.0 0.0 0.0 0.0 0.0 0.0 0.0 0.0 0.0 0.0 0.0 0.0 0.2 0.0 0.0 0.0 0.0 1.4 2.7 2.4 3.0 6.6 2.6 2.8 1.1 2.0 0.6 0.7 0.1 1.9 4.8 0.0 0.0 0.5 0.0 0.0 0.0 0.0 0.0 0.0 0.0 0.0 1.7 0.5 0.0 0.0 0.0 0.0 0.0 0.0 0.0 0.0
0.0 0.0 0.0 0.0 0.0 0.0 0.0 0.0 0.0 0.0 0.0 0.0 0.0 0.3 0.0 0.0 0.0 0.0 4.3 4.0 1.8 2.6 2.4 2.4 2.2 2.3 0.0 3.2 1.2 0.3 2.2 1.5 6.8 1.7 0.5 0.8 1.8 0.4 0.0 0.0 0.0 0.0 0.0 0.0 0.0 0.1 0.0 0.0 0.0 0.0 0.0 0.0 0.0 0.0
0.0 0.0 0.0 0.0 0.0 0.0 0.0 0.0 0.0 0.0 0.0 0.0 0.0 0.0 0.0 1.7 4.7 7.4 6.8 1.0 1.1 1.7 0.6 0.9 0.5 0.2 0.5 0.0 1.5 0.8 2.3 1.8 2.1 0.7 1.9 2.6 1.5 0.9 1.2 0.4 0.0 0.0 0.0 0.0 0.0 0.0 0.0 0.0 0.0 0.0 0.0 0.0 0.0 0.0
0.0 0.0 0.0 0.0 0.0 0.0 0.0 0.0 0.0 0.0 0.0 0.0 0.1 1.3 2.7 4.7 8.0 5.5 4.9 1.5 0.5 0.3 0.4 0.6 0.9 0.1 0.0 0.1 1.3 1.8 2.0 0.7 0.3 1.6 1.6 1.3 0.3 0.0 0.3 1.1 1.0 0.5 0.0 0.4 0.8 0.0 0.0 0.0 0.0 0.0 0.0 0.0 0.0 0.0
0.0 0.0 0.0 0.0 0.0 0.0 0.0 0.0 0.0 0.0 0.0 0.1 0.8 1.8 3.0 3.5 3.3 2.2 1.3 1.0 0.0 0.2 0.0 0.0 0.6 0.9 0.1 1.2 1.0 2.2 0.3 0.6 2.2 3.1 2.5 0.3 0.4 0.3 0.1 0.2 0.4 0.5 0.4 0.8 2.0 1.4 0.4 0.0 0.0 0.0 0.0 0.0 0.0 0.0
0.0 0.0 0.0 0.0 0.0 0.0 0.0 0.0 0.0 0.0 0.0 0.0 0.9 1.6 1.4 1.3 0.6 0.3 0.1 0.4 0.0 0.0 0.0 0.0 0.1 0.3 1.0 1.8 1.1 1.6 2.0 4.4 3.3 3.1 1.0 0.4 0.4 0.6 0.4 0.2 0.2 0.4 0.5 0.6 0.7 1.2 1.2 0.0 0.0 0.0 0.0 0.0 0.0 0.2
0.0 0.0 0.0 0.0 0.0 0.0 0.0 0.0 0.0 0.0 0.0 0.2 0.7 1.4 0.6 0.5 0.3 0.1 0.0 0.1 0.0 0.0 0.1 0.2 0.5 1.0 0.8 2.2 1.2 2.0 2.9 3.8 2.2 1.0 0.5 0.3 0.6 0.0 0.2 0.2 0.0 0.0 0.0 0.1 0.3 0.5 0.4 0.1 0.1 0.0 0.0 0.0 0.0 0.6
0.0 0.0 0.0 0.0 0.0 0.0 0.0 0.0 0.0 0.0 0.1 0.0 0.2 0.4 0.6 0.3 0.3 0.2 0.0 0.0 0.0 0.2 1.0 1.5 2.2 0.7 0.4 1.2 0.7 0.4 1.4 1.0 0.6 0.0 0.1 0.0 0.1 0.0 0.0 0.0 0.0 0.0 0.0 0.0 0.5 0.5 0.6 0.7 0.2 0.0 0.0 0.0 0.0 0.0
0.0 0.0 0.0 0.0 0.0 0.0 0.0 0.0 0.0 0.0 0.0 0.0 0.0 0.0 0.0 0.0 0.2 0.2 0.0 0.0 0.0 0.4 1.3 4.4 2.4 1.6 0.3 0.2 0.0 0.1 0.0 0.0 0.1 0.0 0.1 0.0 0.0 0.0 0.0 0.0 0.0 0.1 0.7 1.7 1.5 1.4 0.6 1.1 0.6 0.3 0.0 0.0 0.0 0.0
0.0 0.0 0.0 0.0 0.0 0.0 0.0 0.0 0.0 0.0 0.0 0.0 0.0 0.0 0.0 0.0 0.0 0.0 0.0 0.0 0.0 0.0 0.3 2.5 2.4 0.4 0.0 0.0 0.0 0.0 0.0 0.0 0.0 0.0 0.0 0.0 0.0 0.0 0.0 0.3 0.3 0.7 1.8 1.3 0.1 0.0 0.0 0.0 0.4 0.2 0.0 0.0 0.0 0.0
0.0 0.0 0.0 0.0 0.0 0.0 0.0 0.0 0.0 0.0 0.0 0.0 0.0 0.0 0.0 0.0 0.0 0.0 0.0 0.1 0.3 1.6 1.8 1.9 0.0 0.2 0.1 0.3 0.3 0.1 0.0 0.0 0.0 0.0 0.0 0.0 0.0 0.0 0.0 0.0 0.1 0.3 0.7 0.6 0.5 0.2 0.1 0.0 0.0 0.0 0.0 0.0 0.0 0.0
0.0 0.0 0.0 0.0 0.3 0.1 0.0 0.0 0.0 0.0 0.0 0.0 0.0 0.0 0.0 0.0 0.0 0.0 0.0 1.0 2.0 2.5 1.9 1.2 0.2 0.1 0.0 0.5 0.2 0.0 0.0 0.0 0.0 0.0 0.0 0.0 0.0 0.0 0.0 0.0 0.0 0.0 0.0 0.3 0.2 0.1 0.0 0.0 0.0 0.0 0.0 0.0 0.0 0.0
0.4 0.0 1.7 1.5 1.6 0.4 0.2 0.0 0.0 0.0 0.0 0.0 0.0 0.0 0.0 0.0 0.0 0.0 0.1 1.7 3.4 2.0 1.5 1.1 1.0 0.6 0.2 0.0 0.8 0.9 0.4 0.0 0.0 0.0 0.0 0.0 0.0 0.0 0.0 0.0 0.0 0.0 0.0 0.0 0.0 0.0 0.0 0.0 0.0 0.0 0.0 0.0 0.0 0.0
0.3 1.3 2.8 2.3 1.7 1.2 0.1 0.1 0.1 0.0 0.0 0.0 0.0 0.0 0.0 0.0 0.0 0.0 1.1 1.5 1.6 1.2 1.0 0.8 1.0 2.2 2.3 1.8 1.5 1.1 0.6 0.1 0.0 0.2 0.1 0.0 0.0 0.0 0.0 0.0 0.0 0.0 0.0 0.0 0.0 0.0 0.0 0.0 0.0 0.0 0.0 0.0 0.0 0.0
0.0 2.6 3.3 2.5 1.7 0.8 0.4 0.1 0.2 0.0 0.0 0.0 0.0 0.0 0.0 0.0 0.0 0.0 0.8 0.6 0.4 0.4 1.3 1.6 1.3 1.1 0.6 1.5 1.8 2.2 2.3 1.4 0.4 0.0 0.7 0.3 0.1 0.0 0.0 0.0 0.0 0.0 0.0 0.0 0.0 0.0 0.0 0.0 0.0 0.0 0.0 0.0 0.0 0.0
5.3 5.0 3.3 3.4 1.4 0.7 0.2 0.1 0.1 0.0 0.0 0.0 0.2 0.0 0.0 0.0 0.2 0.2 0.0 0.0 0.1 0.2 0.6 1.4 1.5 1.4 1.4 1.0 1.4 1.3 1.2 1.5 2.5 2.7 0.1 1.5 0.8 0.2 0.0 0.0 0.3 0.0 0.0 0.2 0.1 0.0 0.0 0.0 0.0 0.0 0.0 0.0 0.0 0.0
6.7 2.3 1.1 0.1 0.0 0.1 0.0 0.0 0.0 0.0 0.0 0.0 0.2 0.0 0.0 0.1 0.2 0.0 0.0 0.0 0.1 0.3 0.4 0.6 1.2 1.2 0.9 0.8 1.0 1.8 1.7 1.5 1.3 2.4 1.4 2.0 1.6 2.1 2.0 0.1 1.3 0.7 0.1 0.0 0.5 0.5 0.3 0.1 0.1 0.0 0.0 0.0 0.2 0.1
3.6 1.2 0.0 0.0 0.1 0.1 0.0 0.0 0.0 0.0 0.0 0.3 0.0 0.0 0.0 0.3 0.1 0.0 0.0 0.0 0.0 0.4 0.7 1.1 2.2 1.9 1.3 1.4 1.3 1.8 2.0 2.2 2.0 1.5 2.0 4.3 4.0 2.5 1.2 1.9 1.7 1.2 0.8 0.3 1.0 0.6 0.6 0.6 0.4 0.6 0.5 0.6 0.5 0.4
0.4 0.0 0.0 0.0 0.0 0.0 0.0 0.2 0.3 0.2 0.0 0.0 0.4 0.3 0.2 0.0 0.0 0.0 0.0 0.0 0.0 0.0 0.8 1.3 1.8 2.4 2.2 1.9 1.9 2.6 2.8 3.1 3.4 3.2 4.5 5.2 5.4 5.0 3.9 3.1 2.4 2.7 2.8 2.0 1.3 1.4 1.3 0.9 0.7 1.5 1.2 1.1 1.1 0.9
0.1 0.0 0.0 0.0 0.0 0.0 0.0 0.0 0.0 0.0 0.0 0.0 0.0 0.0 0.0 0.0 0.0 0.0 0.0 0.0 0.0 0.8 1.0 1.5 1.9 2.0 2.8 2.9 2.8 3.5 3.5 3.6 3.1 2.5 2.0 2.4 4.3 6.0 5.6 4.8 5.5 5.6 3.7 3.7 2.6 2.5 2.1 2.6 2.5 2.6 3.1 3.2 3.0 2.9
0.1 0.0 0.0 0.0 0.0 0.0 0.0 0.0 0.0 0.0 0.0 0.0 0.0 0.0 0.0 0.0 0.0 0.0 0.0 0.0 0.0 1.4 1.8 2.4 2.3 2.4 3.5 3.4 3.5 3.3 4.1 4.1 3.8 2.0 1.8 2.2 2.8 4.1 5.8 5.7 5.9 6.3 5.9 5.3 6.2 6.8 4.8 5.8 6.2 6.3 5.6 5.5 5.3 4.7
0.0 0.0 0.0 0.0 0.0 0.0 0.0 0.0 0.0 0.0 0.0 0.0 0.0 0.0 0.0 0.0 0.0 0.0 0.3 0.6 1.4 2.0 2.7 3.4 3.8 4.4 4.6 5.0 4.9 4.4 4.5 5.2 5.3 5.5 4.4 4.4 4.5 4.7 5.5 5.8 5.4 5.8 5.9 5.7 5.1 4.8 4.9 4.6 4.1 4.3 4.2 4.2 3.9 3.5
0.0 0.0 0.0 0.0 0.0 0.1 0.0 0.0 0.0 0.0 0.0 0.0 0.0 0.0 0.0 0.0 0.0 0.0 0.5 0.8 1.8 2.3 2.7 3.4 3.9 5.0 5.6 5.4 5.4 5.3 3.9 4.8 4.7 5.9 5.0 4.3 4.2 3.3 4.3 4.8 5.5 5.5 6.1 6.2 5.6 6.0 6.0 6.1 6.2 5.7 5.7 5.6 5.3 4.7
1.1 0.6 0.4 0.3 0.0 0.0 0.0 0.0 0.0 0.0 0.0 0.0 0.0 0.0 0.0 0.1 0.0 0.4 0.6 1.0 2.0 2.5 2.7 4.1 4.7 4.7 4.5 4.4 4.9 5.2 5.2 5.1 5.8 5.5 5.2 4.8 4.3 4.3 4.8 5.3 5.6 6.3 6.4 6.5 7.0 7.5 7.8 7.2 6.9 6.6 6.1 5.8 5.3 5.0

GFSWCAN_prec_kuchsnow_051.txt.gz
Snowfall_Accumulation
0.0 0.0 0.0 0.0 0.0 0.0 0.0 0.0 0.0 0.0 0.0 0.0 0.0 0.0 0.0 0.0 0.0 0.0 0.0 0.0 0.0 0.0 0.0 0.0 0.0 0.0 0.0 0.0 0.0 0.0 0.0 0.0 0.0 0.1 0.0 0.0 0.0 0.0 0.0 0.0 0.0 0.0 0.0 0.2 0.3 0.8 0.0 0.0 0.0 0.0 0.0 0.0 0.0 0.0
0.0 0.0 0.0 0.0 0.0 0.0 0.0 0.0 0.0 0.0 0.0 0.0 0.0 0.0 0.0 0.0 0.0 0.0 0.0 0.0 0.0 0.0 0.0 0.0 0.0 0.0 0.0 0.0 0.0 0.0 0.0 0.0 0.0 0.0 0.1 0.0 0.0 0.0 0.0 0.0 0.0 0.0 0.0 0.0 0.0 0.0 0.0 0.0 0.0 0.0 0.0 0.0 0.0 0.0
0.0 0.0 0.0 0.0 0.0 0.0 0.0 0.0 0.0 0.0 0.0 0.0 0.0 0.0 0.0 0.0 0.0 0.0 0.0 0.0 0.0 0.2 0.0 0.0 0.0 0.0 0.0 0.0 0.0 0.0 0.0 0.0 0.0 0.0 0.1 0.0 0.0 0.0 0.0 0.0 0.0 0.0 0.0 0.0 0.0 0.0 0.0 0.0 0.0 0.0 0.0 0.0 0.0 0.0
0.0 0.0 0.0 0.0 0.0 0.0 0.0 0.0 0.0 0.0 0.0 0.0 0.0 0.0 0.0 0.0 0.0 0.0 0.0 0.0 0.0 0.2 1.5 0.0 0.0 0.0 0.0 0.0 0.0 0.0 0.0 0.0 0.0 0.4 0.5 0.2 0.2 0.0 0.0 0.0 0.0 0.0 0.0 0.0 0.0 0.0 0.0 0.0 0.0 0.0 0.0 0.0 0.0 0.0
0.0 0.0 0.0 0.0 0.0 0.0 0.0 0.0 0.0 0.0 0.0 0.0 0.0 0.0 0.0 0.0 0.0 0.0 0.0 0.0 0.0 0.3 2.2 0.7 0.0 0.0 0.0 0.0 0.0 0.0 0.0 0.0 0.2 0.7 1.3 0.7 0.0 0.0 0.0 0.0 0.0 0.0 0.0 0.0 0.0 0.0 0.0 0.0 0.0 0.0 0.0 0.0 0.0 0.0
0.0 0.0 0.0 0.0 0.0 0.0 0.0 0.0 0.0 0.0 0.0 0.0 0.0 0.0 0.0 0.0 0.0 0.0 0.0 0.0 0.0 0.0 2.6 3.1 0.0 0.0 0.0 0.0 0.0 0.0 0.0 0.0 0.8 0.3 1.6 0.0 0.0 0.0 0.9 0.1 0.0 0.0 0.0 0.0 0.0 0.0 0.0 0.0 0.0 0.0 0.0 0.0 0.0 0.0
0.0 0.0 0.0 0.0 0.0 0.0 0.0 0.0 0.0 0.0 0.0 0.0 0.0 0.0 0.0 0.0 0.0 0.1 0.1 0.0 0.0 0.0 2.6 7.8 4.1 0.1 0.0 0.0 0.0 0.0 0.0 0.0 1.2 1.1 0.0 0.8 0.2 1.1 1.0 0.0 0.0 0.0 0.0 0.0 0.0 0.0 0.0 0.0 0.0 0.0 0.0 0.0 0.0 0.0
0.0 0.0 0.0 0.0 0.0 0.0 0.0 0.0 0.0 0.0 0.0 0.0 0.0 0.0 0.0 0.0 0.0 0.0 0.0 0.0 0.0 1.5 4.2 11.3 8.8 4.6 0.0 0.0 0.1 0.0 0.0 0.0 1.9 0.7 0.0 0.1 0.0 0.7 1.2 0.0 0.0 0.0 0.0 0.0 0.0 0.0 0.0 0.0 0.0 0.0 0.0 0.0 0.0 0.0
0.0 0.0 0.0 0.0 0.0 0.0 0.0 0.0 0.0 0.0 0.0 0.0 0.0 0.0 0.0 0.0 0.0 0.0 0.0 0.0 0.0 0.1 7.2 6.3 10.1 6.4 0.2 0.1 0.1 0.1 0.0 1.6 0.2 0.9 0.0 0.0 0.4 2.0 0.0 0.0 0.0 0.0 0.0 0.0 0.0 0.0 0.0 0.0 0.0 0.0 0.0 0.0 0.0 0.0
0.0 0.0 0.0 0.0 0.0 0.0 0.0 0.0 0.0 0.0 0.0 0.0 0.0 0.0 0.2 0.0 0.0 0.0 0.0 1.4 2.7 2.4 3.0 6.6 2.6 2.8 1.1 2.0 0.7 0.8 0.1 1.9 4.8 0.0 0.0 0.5 0.0 0.0 0.0 0.2 0.1 0.0 0.0 0.0 2.7 1.7 0.5 1.1 0.0 0.0 0.0 0.0 0.0 0.0
0.0 0.0 0.0 0.0 0.0 0.0 0.0 0.0 0.0 0.0 0.0 0.0 0.0 0.3 0.0 0.0 0.0 0.0 4.3 4.0 1.8 2.6 2.4 2.4 2.2 2.3 0.0 3.2 1.2 0.3 2.3 1.6 6.9 1.7 0.5 0.8 2.3 0.6 0.0 0.2 0.0 0.0 0.1 0.0 0.0 0.1 0.4 0.4 0.6 0.0 0.0 0.0 0.0 0.0
0.0 0.0 0.0 0.0 0.0 0.0 0.0 0.0 0.0 0.0 0.0 0.0 0.0 0.0 0.0 1.7 4.7 7.4 6.8 1.0 1.1 1.7 0.6 0.9 0.5 0.2 0.5 0.0 1.7 0.8 2.5 2.0 2.2 0.7 2.4 3.4 1.5 0.9 1.2 0.4 0.2 0.1 0.0 0.0 0.0 0.8 0.5 0.1 0.0 0.0 0.0 0.0 0.0 0.0
0.0 0.0 0.0 0.0 0.0 0.0 0.0 0.0 0.0 0.0 0.0 0.0 0.1 1.3 2.7 4.7 8.0 5.5 4.9 1.5 0.5 0.3 0.4 0.6 0.9 0.1 0.0 0.1 1.3 2.0 2.2 1.0 1.0 3.6 3.6 1.3 0.3 0.0 0.3 1.1 1.0 0.7 0.1 0.5 0.9 0.0 0.3 0.1 0.0 0.0 0.0 0.0 0.0 0.0
0.0 0.0 0.0 0.0 0.0 0.0 0.0 0.0 0.0 0.0 0.0 0.1 0.8 1.8 3.0 3.5 3.3 2.2 1.3 1.0 0.0 0.2 0.0 0.0 0.6 0.9 0.1 1.2 1.0 2.4 0.3 1.5 5.1 3.1 2.5 0.3 0.4 0.3 0.1 0.2 0.4 0.5 0.7 1.0 2.8 2.8 1.4 0.6 0.1 0.0 0.0 0.0 0.0 0.0
0.0 0.0 0.0 0.0 0.0 0.0 0.0 0.0 0.0 0.0 0.0 0.0 0.9 1.6 1.4 1.3 0.6 0.3 0.1 0.4 0.0 0.0 0.0 0.0 0.1 0.3 1.0 1.8 1.1 1.6 2.0 4.4 3.3 3.1 1.0 0.4 0.4 0.6 0.4 0.2 0.2 0.4 0.5 1.2 1.2 2.1 2.8 1.4 0.2 0.0 0.0 0.0 0.0 0.2
0.0 0.0 0.0 0.0 0.0 0.0 0.0 0.0 0.0 0.0 0.0 0.2 0.7 1.4 0.6 0.5 0.3 0.1 0.0 0.1 0.0 0.0 0.1 0.2 0.5 1.0 0.8 2.2 1.2 2.0 3.0 3.8 2.2 1.0 0.5 0.3 0.6 0.0 0.2 0.2 0.0 0.0 0.0 0.1 1.0 1.4 1.8 1.5 0.7 0.4 0.2 0.0 0.0 0.6
0.0 0.0 0.0 0.0 0.0 0.0 0.0 0.0 0.0 0.0 0.1 0.0 0.2 0.4 0.6 0.3 0.3 0.2 0.0 0.0 0.0 0.2 1.0 1.5 2.2 0.7 0.4 1.2 0.7 0.4 1.4 1.0 0.6 0.0 0.1 0.0 0.1 0.0 0.0 0.0 0.0 0.0 0.0 0.0 0.5 0.9 1.3 1.8 1.3 0.7 0.4 0.1 0.0 0.0
0.0 0.0 0.0 0.0 0.0 0.0 0.0 0.0 0.0 0.0 0.0 0.0 0.0 0.0 0.0 0.0 0.2 0.2 0.0 0.0 0.0 0.4 1.3 4.4 2.4 1.6 0.3 0.2 0.0 0.1 0.0 0.0 0.1 0.0 0.1 0.0 0.0 0.0 0.0 0.0 0.0 0.1 0.7 1.7 1.5 1.6 0.8 1.1 0.8 0.5 0.2 0.0 0.0 0.0
0.0 0.0 0.0 0.0 0.0 0.0 0.0 0.0 0.0 0.0 0.0 0.0 0.0 0.0 0.0 0.0 0.0 0.0 0.0 0.0 0.0 0.0 0.3 2.5 2.4 0.4 0.0 0.0 0.0 0.0 0.0 0.0 0.0 0.0 0.0 0.0 0.0 0.0 0.0 0.3 0.3 0.7 1.8 1.6 0.4 0.4 0.1 0.0 0.4 0.2 0.3 0.1 0.0 0.0
0.0 0.0 0.0 0.0 0.0 0.0 0.0 0.0 0.0 0.0 0.0 0.0 0.0 0.0 0.0 0.0 0.0 0.0 0.0 0.1 0.3 1.6 1.8 1.9 0.0 0.2 0.1 0.3 0.3 0.1 0.0 0.0 0.0 0.0 0.0 0.0 0.0 0.0 0.0 0.0 0.1 0.3 0.7 0.6 0.5 0.7 0.5 0.2 0.0 0.0 0.0 0.0 0.0 0.0
0.0 0.0 0.0 0.0 0.3 0.1 0.0 0.0 0.0 0.0 0.0 0.0 0.0 0.0 0.0 0.0 0.0 0.0 0.0 1.0 2.0 2.5 1.9 1.2 0.2 0.1 0.0 0.5 0.2 0.0 0.0 0.0 0.0 0.0 0.0 0.0 0.0 0.0 0.0 0.0 0.0 0.0 0.0 0.3 0.2 0.1 0.5 0.3 0.1 0.0 0.0 0.0 0.0 0.0
0.4 0.0 1.7 1.5 1.6 0.4 0.2 0.0 0.0 0.0 0.0 0.0 0.0 0.0 0.0 0.0 0.0 0.0 0.1 1.7 3.4 2.0 1.5 1.1 1.0 0.6 0.2 0.0 0.8 0.9 0.4 0.0 0.0 0.0 0.0 0.0 0.0 0.0 0.0 0.0 0.0 0.0 0.0 0.0 0.0 0.0 0.0 0.1 0.1 0.0 0.0 0.0 0.0 0.0
0.3 1.3 2.8 2.3 1.7 1.2 0.1 0.1 0.1 0.0 0.0 0.0 0.0 0.0 0.0 0.0 0.0 0.1 1.1 1.5 1.6 1.2 1.0 0.8 1.0 2.2 2.3 1.8 1.5 1.1 0.6 0.1 0.0 0.2 0.1 0.0 0.0 0.0 0.0 0.0 0.0 0.0 0.0 0.0 0.0 0.0 0.0 0.0 0.0 0.0 0.0 0.0 0.0 0.0
0.0 2.6 3.3 2.5 1.7 0.8 0.4 0.1 0.2 0.0 0.0 0.0 0.0 0.0 0.0 0.0 0.1 0.0 0.8 0.6 0.4 0.4 1.3 1.6 1.3 1.1 0.6 1.5 1.8 2.2 2.3 1.4 0.4 0.0 0.7 0.3 0.1 0.0 0.0 0.0 0.0 0.0 0.0 0.0 0.0 0.0 0.0 0.0 0.0 0.0 0.0 0.0 0.0 0.0
5.3 5.0 3.3 3.4 1.4 0.7 0.2 0.1 0.1 0.0 0.0 0.0 0.2 0.0 0.0 0.0 0.2 0.2 0.0 0.0 0.1 0.2 0.6 1.4 1.5 1.4 1.4 1.0 1.4 1.3 1.2 1.5 2.5 2.7 0.1 1.5 0.8 0.2 0.0 0.0 0.3 0.0 0.0 0.2 0.1 0.0 0.0 0.0 0.0 0.0 0.0 0.0 0.0 0.0
6.7 2.3 1.1 0.1 0.0 0.1 0.0 0.0 0.0 0.0 0.0 0.0 0.2 0.0 0.0 0.1 0.2 0.0 0.0 0.0 0.1 0.3 0.4 0.6 1.2 1.2 0.9 0.8 1.0 1.8 1.7 1.5 1.3 2.4 1.4 2.0 1.6 2.1 2.0 0.1 1.3 0.7 0.1 0.0 0.5 0.5 0.3 0.1 0.1 0.0 0.0 0.0 0.2 0.1
3.6 1.2 0.0 0.0 0.1 0.1 0.0 0.0 0.0 0.0 0.0 0.3 0.0 0.0 0.0 0.3 0.1 0.0 0.0 0.0 0.0 0.4 0.7 1.1 2.2 1.9 1.3 1.4 1.3 1.8 2.0 2.2 2.0 1.5 2.0 4.3 4.0 2.5 1.2 1.9 1.7 1.2 0.8 0.3 1.0 0.6 0.6 0.6 0.4 0.6 0.5 0.6 0.5 0.4
0.4 0.0 0.0 0.0 0.0 0.0 0.0 0.2 0.3 0.2 0.0 0.0 0.4 0.3 0.2 0.0 0.0 0.0 0.0 0.0 0.0 0.0 0.8 1.3 1.8 2.4 2.2 1.9 1.9 2.6 2.8 3.1 3.4 3.2 4.5 5.2 5.4 5.0 3.9 3.1 2.4 2.7 2.8 2.0 1.3 1.4 1.3 0.9 0.7 1.5 1.2 1.1 1.1 0.9
0.1 0.0 0.0 0.0 0.0 0.0 0.0 0.0 0.0 0.0 0.0 0.0 0.0 0.0 0.0 0.0 0.0 0.0 0.0 0.0 0.0 0.8 1.0 1.5 1.9 2.0 2.8 2.9 2.8 3.5 3.5 3.6 3.1 2.5 2.0 2.4 4.3 6.0 5.6 4.8 5.5 5.6 3.7 3.7 2.6 2.5 2.1 2.6 2.5 2.6 3.1 3.2 3.0 2.9
0.1 0.0 0.0 0.0 0.0 0.0 0.0 0.0 0.0 0.0 0.0 0.0 0.0 0.0 0.0 0.0 0.0 0.0 0.0 0.0 0.0 1.4 1.8 2.4 2.3 2.4 3.5 3.4 3.5 3.3 4.1 4.1 3.8 2.0 1.8 2.2 2.8 4.1 5.8 5.7 5.9 6.3 5.9 5.3 6.2 6.8 4.8 5.8 6.2 6.3 5.6 5.5 5.3 4.7
0.0 0.0 0.0 0.0 0.0 0.0 0.0 0.0 0.0 0.0 0.0 0.0 0.0 0.0 0.0 0.0 0.0 0.0 0.3 0.6 1.4 2.0 2.7 3.4 3.8 4.4 4.6 5.0 4.9 4.4 4.5 5.2 5.3 5.5 4.4 4.4 4.5 4.7 5.5 5.8 5.4 5.8 5.9 5.7 5.1 4.8 4.9 4.6 4.1 4.3 4.2 4.2 3.9 3.5
0.0 0.0 0.0 0.0 0.0 0.1 0.0 0.0 0.0 0.0 0.0 0.0 0.0 0.0 0.0 0.0 0.0 0.0 0.5 0.8 1.8 2.3 2.7 3.4 3.9 5.0 5.6 5.4 5.4 5.3 3.9 4.8 4.7 5.9 5.0 4.3 4.2 3.3 4.3 4.8 5.5 5.5 6.1 6.2 5.6 6.0 6.0 6.1 6.2 5.7 5.7 5.6 5.3 4.7
1.1 0.6 0.4 0.3 0.0 0.0 0.0 0.0 0.0 0.0 0.0 0.0 0.0 0.0 0.0 0.1 0.0 0.4 0.6 1.0 2.0 2.5 2.7 4.1 4.7 4.7 4.5 4.4 4.9 5.2 5.2 5.1 5.8 5.5 5.2 4.8 4.3 4.3 4.8 5.3 5.6 6.3 6.4 6.5 7.0 7.5 7.8 7.2 6.9 6.6 6.1 5.8 5.3 5.0

GFSWCAN_prec_kuchsnow_054.txt.gz
Snowfall_Accumulation
0.0 0.0 0.0 0.0 0.0 0.0 0.0 0.0 0.0 0.0 0.0 0.0 0.0 0.0 0.0 0.0 0.0 0.0 0.0 0.0 0.0 0.0 0.0 0.0 0.0 0.0 0.0 0.0 0.0 0.0 0.0 0.0 0.0 0.1 0.0 0.0 0.0 0.0 0.0 0.0 0.0 0.0 0.0 0.2 0.3 0.8 0.0 0.0 0.0 0.0 0.0 0.0 0.0 0.0
0.0 0.0 0.0 0.0 0.0 0.0 0.0 0.0 0.0 0.0 0.0 0.0 0.0 0.0 0.0 0.0 0.0 0.0 0.0 0.0 0.0 0.0 0.0 0.0 0.0 0.0 0.0 0.0 0.0 0.0 0.0 0.0 0.0 0.0 0.1 0.0 0.0 0.0 0.0 0.0 0.0 0.0 0.0 0.0 0.0 0.0 0.0 0.0 0.0 0.0 0.0 0.0 0.0 0.0
0.0 0.0 0.0 0.0 0.0 0.0 0.0 0.0 0.0 0.0 0.0 0.0 0.0 0.0 0.0 0.0 0.0 0.0 0.0 0.0 0.0 0.2 0.0 0.0 0.0 0.0 0.0 0.0 0.0 0.0 0.0 0.0 0.0 0.0 0.1 0.0 0.0 0.0 0.0 0.0 0.0 0.0 0.0 0.0 0.0 0.0 0.0 0.0 0.0 0.0 0.0 0.0 0.0 0.0
0.0 0.0 0.0 0.0 0.0 0.0 0.0 0.0 0.0 0.0 0.0 0.0 0.0 0.0 0.0 0.0 0.0 0.0 0.0 0.0 0.0 0.2 1.5 0.0 0.0 0.0 0.0 0.0 0.0 0.0 0.0 0.0 0.0 0.4 0.5 0.2 0.2 0.0 0.0 0.0 0.0 0.0 0.0 0.0 0.0 0.0 0.0 0.0 0.0 0.0 0.0 0.0 0.0 0.0
0.0 0.0 0.0 0.0 0.0 0.0 0.0 0.0 0.0 0.0 0.0 0.0 0.0 0.0 0.0 0.0 0.0 0.0 0.0 0.0 0.0 0.3 2.2 0.7 0.0 0.0 0.0 0.0 0.0 0.0 0.0 0.0 0.2 0.7 1.3 0.7 0.0 0.0 0.0 0.0 0.0 0.0 0.0 0.0 0.0 0.0 0.0 0.0 0.0 0.0 0.0 0.0 0.0 0.0
0.0 0.0 0.0 0.0 0.0 0.0 0.0 0.0 0.0 0.0 0.0 0.0 0.0 0.0 0.0 0.0 0.0 0.0 0.0 0.0 0.0 0.0 2.6 3.1 0.0 0.0 0.0 0.0 0.0 0.0 0.0 0.0 0.8 0.3 1.6 0.0 0.0 0.0 0.9 0.1 0.0 0.0 0.0 0.0 0.0 0.0 0.0 0.0 0.0 0.0 0.0 0.0 0.0 0.0
0.0 0.0 0.0 0.0 0.0 0.0 0.0 0.0 0.0 0.0 0.0 0.0 0.0 0.0 0.0 0.0 0.0 0.1 0.1 0.0 0.0 0.0 2.6 7.8 4.1 0.1 0.0 0.0 0.0 0.0 0.0 0.0 1.2 1.1 0.0 0.8 0.2 1.1 1.0 0.0 0.0 0.0 0.0 0.0 0.0 0.0 0.0 0.0 0.0 0.0 0.0 0.0 0.0 0.0
0.0 0.0 0.0 0.0 0.0 0.0 0.0 0.0 0.0 0.0 0.0 0.0 0.0 0.0 0.0 0.0 0.0 0.0 0.0 0.0 0.0 1.5 4.2 11.3 8.8 4.6 0.0 0.0 0.1 0.0 0.0 0.0 1.9 0.7 0.0 0.1 0.0 0.7 1.2 0.0 0.0 0.0 0.0 0.0 0.0 0.0 0.0 0.0 0.0 0.0 0.0 0.0 0.0 0.0
0.0 0.0 0.0 0.0 0.0 0.0 0.0 0.0 0.0 0.0 0.0 0.0 0.0 0.0 0.0 0.0 0.0 0.0 0.0 0.0 0.0 0.1 7.2 6.3 10.1 6.4 0.2 0.1 0.1 0.1 0.0 1.6 0.2 0.9 0.0 0.0 0.4 2.0 0.0 0.0 0.1 0.0 0.0 0.0 0.0 0.0 0.0 0.0 0.0 0.0 0.0 0.0 0.0 0.0
0.0 0.0 0.0 0.0 0.0 0.0 0.0 0.0 0.0 0.0 0.0 0.0 0.0 0.0 0.2 0.0 0.0 0.0 0.0 1.4 2.7 2.4 3.0 6.6 2.6 2.8 1.1 2.0 0.7 0.8 0.1 1.9 4.8 0.0 0.0 0.6 0.1 0.0 0.0 0.2 0.1 0.0 0.0 0.0 2.9 1.7 0.5 1.1 0.2 0.1 0.0 0.0 0.0 0.0
0.0 0.0 0.0 0.0 0.0 0.0 0.0 0.0 0.0 0.0 0.0 0.0 0.0 0.3 0.0 0.0 0.0 0.0 4.3 4.0 1.8 2.6 2.4 2.4 2.2 2.3 0.0 3.2 1.2 0.3 2.5 1.7 6.9 1.9 0.9 1.5 2.6 0.6 0.0 0.2 0.0 0.0 0.1 0.0 0.0 0.1 0.9 1.3 2.0 0.5 0.0 1.0 0.0 0.0
0.0 0.0 0.0 0.0 0.0 0.0 0.0 0.0 0.0 0.0 0.0 0.0 0.0 0.0 0.0 1.7 4.7 7.4 6.8 1.0 1.1 1.7 0.6 0.9 0.5 0.2 0.5 0.0 1.7 0.9 2.5 2.2 2.8 1.4 3.7 3.4 1.5 0.9 1.2 0.4 0.2 0.1 0.0 0.1 0.1 1.1 0.5 0.5 0.8 0.8 1.1 1.0 0.5 0.2
0.0 0.0 0.0 0.0 0.0 0.0 0.0 0.0 0.0 0.0 0.0 0.0 0.1 1.3 2.7 4.7 8.0 5.5 4.9 1.5 0.5 0.3 0.4 0.6 0.9 0.1 0.0 0.1 1.3 2.0 2.2 1.0 2.0 4.8 3.6 1.3 0.3 0.0 0.3 1.1 1.0 0.7 0.1 0.5 0.9 0.0 0.3 0.3 0.3 0.3 0.2 0.1 0.0 0.0
0.0 0.0 0.0 0.0 0.0 0.0 0.0 0.0 0.0 0.0 0.0 0.1 0.8 1.8 3.0 3.5 3.3 2.2 1.3 1.0 0.0 0.2 0.0 0.0 0.6 0.9 0.1 1.2 1.0 2.4 0.3 1.7 5.9 3.1 2.5 0.3 0.4 0.3 0.1 0.2 0.4 0.5 0.7 1.0 2.8 2.8 1.4 0.8 0.3 0.1 0.0 0.0 0.0 0.0
0.0 0.0 0.0 0.0 0.0 0.0 0.0 0.0 0.0 0.0 0.0 0.0 0.9 1.6 1.4 1.3 0.6 0.3 0.1 0.4 0.0 0.0 0.0 0.0 0.1 0.3 1.0 1.8 1.1 1.6 2.0 4.4 3.3 3.1 1.0 0.4 0.4 0.6 0.4 0.2 0.2 0.4 0.5 1.2 1.2 2.1 3.2 1.9 0.7 0.0 0.0 0.0 0.3 0.3
0.0 0.0 0.0 0.0 0.0 0.0 0.0 0.0 0.0 0.0 0.0 0.2 0.7 1.4 0.6 0.5 0.3 0.1 0.0 0.1 0.0 0.0 0.1 0.2 0.5 1.0 0.8 2.2 1.2 2.0 3.0 3.8 2.2 1.0 0.5 0.3 0.6 0.0 0.2 0.2 0.0 0.0 0.0 0.1 1.0 1.4 2.0 1.9 1.3 0.7 0.2 0.0 0.1 0.6
0.0 0.0 0.0 0.0 0.0 0.0 0.0 0.0 0.0 0.0 0.1 0.0 0.2 0.4 0.6 0.3 0.3 0.2 0.0 0.0 0.0 0.2 1.0 1.5 2.2 0.7 0.4 1.2 0.7 0.4 1.4 1.0 0.6 0.0 0.1 0.0 0.1 0.0 0.0 0.0 0.0 0.0 0.0 0.0 0.5 0.9 1.6 2.2 2.1 1.4 1.1 0.8 0.6 0.2
0.0 0.0 0.0 0.0 0.0 0.0 0.0 0.0 0.0 0.0 0.0 0.0 0.0 0.0 0.0 0.0 0.2 0.2 0.0 0.0 0.0 0.4 1.3 4.4 2.4 1.6 0.3 0.2 0.0 0.1 0.0 0.0 0.1 0.0 0.1 0.0 0.0 0.0 0.0 0.0 0.0 0.1 0.7 1.7 1.5 1.6 1.1 1.7 1.2 0.8 0.4 0.2 0.0 0.2
0.0 0.0 0.0 0.0 0.0 0.0 0.0 0.0 0.0 0.0 0.0 0.0 0.0 0.0 0.0 0.0 0.0 0.0 0.0 0.0 0.0 0.0 0.3 2.5 2.4 0.4 0.0 0.0 0.0 0.0 0.0 0.0 0.0 0.0 0.0 0.0 0.0 0.0 0.0 0.3 0.3 0.7 1.8 1.6 0.4 0.4 0.4 0.3 0.7 0.4 0.5 0.3 0.1 0.0
0.0 0.0 0.0 0.0 0.0 0.0 0.0 0.0 0.0 0.0 0.0 0.0 0.0 0.0 0.0 0.0 0.0 0.0 0.0 0.1 0.3 1.6 1.8 1.9 0.0 0.2 0.1 0.3 0.3 0.1 0.0 0.0 0.0 0.0 0.0 0.0 0.0 0.0 0.0 0.0 0.1 0.3 0.7 0.6 0.5 0.7 0.5 0.7 0.5 0.2 0.0 0.0 0.1 0.1
0.0 0.0 0.0 0.0 0.3 0.1 0.0 0.0 0.0 0.0 0.0 0.0 0.0 0.0 0.0 0.0 0.0 0.0 0.0 1.0 2.0 2.5 1.9 1.2 0.2 0.1 0.0 0.5 0.2 0.0 0.0 0.0 0.0 0.0 0.0 0.0 0.0 0.0 0.0 0.0 0.0 0.0 0.0 0.3 0.2 0.1 0.5 0.3 0.7 0.5 0.2 0.1 0.1 0.0
0.4 0.0 1.7 1.5 1.6 0.4 0.2 0.0 0.0 0.0 0.0 0.0 0.0 0.0 0.0 0.0 0.0 0.0 0.1 1.7 3.4 2.0 1.5 1.1 1.0 0.6 0.2 0.0 0.8 0.9 0.4 0.0 0.0 0.0 0.0 0.0 0.0 0.0 0.0 0.0 0.0 0.0 0.0 0.0 0.0 0.0 0.0 0.1 0.1 0.4 0.4 0.3 0.0 0.0
0.3 1.3 2.8 2.3 1.7 1.2 0.1 0.1 0.1 0.0 0.0 0.0 0.0 0.0 0.0 0.0 0.0 0.1 1.1 1.5 1.6 1.2 1.0 0.8 1.0 2.2 2.3 1.8 1.5 1.1 0.6 0.1 0.0 0.2 0.1 0.0 0.0 0.0 0.0 0.0 0.0 0.0 0.0 0.0 0.0 0.0 0.0 0.0 0.0 0.0 0.0 0.0 0.0 0.0
0.0 2.6 3.3 2.5 1.7 0.8 0.4 0.1 0.2 0.0 0.0 0.0 0.0 0.0 0.0 0.0 0.1 0.0 0.8 0.6 0.4 0.4 1.3 1.6 1.3 1.1 0.6 1.5 1.8 2.2 2.3 1.4 0.4 0.0 0.7 0.3 0.1 0.0 0.0 0.0 0.0 0.0 0.0 0.0 0.0 0.0 0.0 0.0 0.0 0.0 0.0 0.0 0.0 0.0
5.3 5.0 3.3 3.4 1.4 0.7 0.2 0.1 0.1 0.0 0.0 0.0 0.2 0.0 0.0 0.0 0.2 0.2 0.0 0.0 0.1 0.2 0.6 1.4 1.5 1.4 1.4 1.0 1.4 1.3 1.2 1.5 2.5 2.7 0.1 1.5 0.8 0.2 0.0 0.0 0.3 0.0 0.0 0.2 0.1 0.0 0.0 0.0 0.0 0.0 0.0 0.0 0.0 0.0
6.7 2.3 1.1 0.1 0.0 0.1 0.0 0.0 0.0 0.0 0.0 0.0 0.2 0.0 0.0 0.1 0.2 0.0 0.0 0.0 0.1 0.3 0.4 0.6 1.2 1.2 0.9 0.8 1.0 1.8 1.7 1.5 1.3 2.4 1.4 2.0 1.6 2.1 2.0 0.1 1.3 0.7 0.1 0.0 0.5 0.5 0.3 0.1 0.1 0.0 0.0 0.0 0.2 0.1
3.6 1.2 0.0 0.0 0.1 0.1 0.0 0.0 0.0 0.0 0.0 0.3 0.0 0.0 0.0 0.3 0.1 0.0 0.0 0.0 0.0 0.4 0.7 1.1 2.2 1.9 1.3 1.4 1.3 1.8 2.0 2.2 2.0 1.5 2.0 4.3 4.0 2.5 1.2 1.9 1.7 1.2 0.8 0.3 1.0 0.6 0.6 0.6 0.4 0.6 0.5 0.6 0.5 0.4
0.4 0.0 0.0 0.0 0.0 0.0 0.0 0.2 0.3 0.2 0.0 0.0 0.4 0.3 0.2 0.0 0.0 0.0 0.0 0.0 0.0 0.0 0.8 1.3 1.8 2.4 2.2 1.9 1.9 2.6 2.8 3.1 3.4 3.2 4.5 5.2 5.4 5.0 3.9 3.1 2.4 2.7 2.8 2.0 1.3 1.4 1.3 0.9 0.7 1.5 1.2 1.1 1.1 0.9
0.1 0.0 0.0 0.0 0.0 0.0 0.0 0.0 0.0 0.0 0.0 0.0 0.0 0.0 0.0 0.0 0.0 0.0 0.0 0.0 0.0 0.8 1.0 1.5 1.9 2.0 2.8 2.9 2.8 3.5 3.5 3.6 3.1 2.5 2.0 2.4 4.3 6.0 5.6 4.8 5.5 5.6 3.7 3.7 2.6 2.5 2.1 2.6 2.5 2.6 3.1 3.2 3.0 2.9
0.1 0.0 0.0 0.0 0.0 0.0 0.0 0.0 0.0 0.0 0.0 0.0 0.0 0.0 0.0 0.0 0.0 0.0 0.0 0.0 0.0 1.4 1.8 2.4 2.3 2.4 3.5 3.4 3.5 3.3 4.1 4.1 3.8 2.0 1.8 2.2 2.8 4.1 5.8 5.7 5.9 6.3 5.9 5.3 6.2 6.8 4.8 5.8 6.2 6.3 5.6 5.5 5.3 4.7
0.0 0.0 0.0 0.0 0.0 0.0 0.0 0.0 0.0 0.0 0.0 0.0 0.0 0.0 0.0 0.0 0.0 0.0 0.3 0.6 1.4 2.0 2.7 3.4 3.8 4.4 4.6 5.0 4.9 4.4 4.5 5.2 5.3 5.5 4.4 4.4 4.5 4.7 5.5 5.8 5.4 5.8 5.9 5.7 5.1 4.8 4.9 4.6 4.1 4.3 4.2 4.2 3.9 3.5
0.0 0.0 0.0 0.0 0.0 0.1 0.0 0.0 0.0 0.0 0.0 0.0 0.0 0.0 0.0 0.0 0.0 0.0 0.5 0.8 1.8 2.3 2.7 3.4 3.9 5.0 5.6 5.4 5.4 5.3 4.0 4.8 4.8 6.0 5.1 4.4 4.2 3.3 4.3 4.8 5.5 5.5 6.1 6.2 5.6 6.0 6.0 6.1 6.2 5.7 5.7 5.6 5.3 4.7
1.1 0.6 0.4 0.3 0.0 0.0 0.0 0.0 0.0 0.0 0.0 0.0 0.0 0.0 0.0 0.1 0.0 0.4 0.6 1.0 2.0 2.5 2.7 4.1 4.7 4.7 4.5 4.4 4.9 5.2 5.2 5.1 6.0 5.6 5.3 5.0 4.4 4.4 4.8 5.3 5.6 6.3 6.4 6.5 7.0 7.5 7.8 7.2 6.9 6.6 6.1 5.8 5.3 5.0

GFSWCAN_prec_kuchsnow_057.txt.gz
Snowfall_Accumulation
0.0 0.0 0.0 0.0 0.0 0.0 0.0 0.0 0.0 0.0 0.0 0.0 0.0 0.0 0.0 0.0 0.0 0.0 0.0 0.0 0.0 0.0 0.0 0.0 0.0 0.0 0.0 0.0 0.0 0.0 0.0 0.0 0.0 0.1 0.0 0.1 0.0 0.0 0.0 0.0 0.0 0.0 0.0 0.2 0.3 0.8 0.0 0.0 0.0 0.0 0.0 0.0 0.0 0.0
0.0 0.0 0.0 0.0 0.0 0.0 0.0 0.0 0.0 0.0 0.0 0.0 0.0 0.0 0.0 0.0 0.0 0.0 0.0 0.0 0.0 0.0 0.0 0.0 0.0 0.0 0.0 0.0 0.0 0.0 0.0 0.0 0.0 0.1 0.1 0.0 0.0 0.0 0.0 0.0 0.0 0.0 0.0 0.0 0.0 0.0 0.0 0.0 0.0 0.0 0.0 0.0 0.0 0.0
0.0 0.0 0.0 0.0 0.0 0.0 0.0 0.0 0.0 0.0 0.0 0.0 0.0 0.0 0.0 0.0 0.0 0.0 0.0 0.0 0.0 0.2 0.0 0.0 0.0 0.0 0.0 0.0 0.0 0.0 0.0 0.0 0.0 0.0 0.1 0.1 0.0 0.0 0.0 0.0 0.0 0.0 0.0 0.0 0.0 0.0 0.0 0.0 0.0 0.0 0.0 0.0 0.0 0.0
0.0 0.0 0.0 0.0 0.0 0.0 0.0 0.0 0.0 0.0 0.0 0.0 0.0 0.0 0.0 0.0 0.0 0.0 0.0 0.0 0.0 0.2 1.5 0.0 0.0 0.0 0.0 0.0 0.0 0.0 0.0 0.0 0.0 0.4 0.5 0.2 0.2 0.0 0.0 0.0 0.0 0.0 0.0 0.0 0.0 0.0 0.0 0.0 0.0 0.0 0.0 0.0 0.0 0.0
0.0 0.0 0.0 0.0 0.0 0.0 0.0 0.0 0.0 0.0 0.0 0.0 0.0 0.0 0.0 0.0 0.0 0.0 0.0 0.0 0.0 0.3 2.2 0.7 0.0 0.0 0.0 0.0 0.0 0.0 0.0 0.0 0.2 0.7 1.3 0.7 0.0 0.0 0.0 0.0 0.0 0.0 0.0 0.0 0.0 0.0 0.0 0.0 0.0 0.0 0.0 0.0 0.0 0.0
0.0 0.0 0.0 0.0 0.0 0.0 0.0 0.0 0.0 0.0 0.0 0.0 0.0 0.0 0.0 0.0 0.0 0.0 0.0 0.0 0.0 0.0 2.6 3.1 0.0 0.0 0.0 0.0 0.0 0.0 0.0 0.0 0.8 0.3 1.6 0.0 0.0 0.0 0.9 0.1 0.0 0.0 0.0 0.0 0.0 0.0 0.0 0.0 0.0 0.0 0.0 0.0 0.0 0.0
0.0 0.0 0.0 0.0 0.0 0.0 0.0 0.0 0.0 0.0 0.0 0.0 0.0 0.0 0.0 0.0 0.0 0.1 0.1 0.0 0.0 0.0 2.6 7.8 4.1 0.1 0.0 0.0 0.0 0.0 0.0 0.0 1.2 1.1 0.0 0.8 0.2 1.1 1.0 0.0 0.0 0.0 0.0 0.0 0.0 0.0 0.0 0.0 0.0 0.0 0.0 0.0 0.0 0.0
0.0 0.0 0.0 0.0 0.0 0.0 0.0 0.0 0.0 0.0 0.0 0.0 0.0 0.0 0.0 0.0 0.0 0.0 0.0 0.0 0.0 1.5 4.2 11.3 8.8 4.6 0.0 0.0 0.1 0.0 0.0 0.0 1.9 0.7 0.0 0.1 0.0 0.7 1.2 0.0 0.0 0.0 0.0 0.0 0.0 0.0 0.0 0.0 0.0 0.0 0.0 0.0 0.0 0.0
0.0 0.0 0.0 0.0 0.0 0.0 0.0 0.0 0.0 0.0 0.0 0.0 0.0 0.0 0.0 0.0 0.0 0.0 0.0 0.0 0.0 0.1 7.2 6.3 10.1 6.4 0.2 0.1 0.1 0.1 0.0 1.6 0.2 0.9 0.0 0.0 0.4 2.0 0.0 0.0 0.1 0.0 0.0 0.0 0.0 0.0 0.0 0.0 0.0 0.0 0.0 0.0 0.0 0.0
0.0 0.0 0.0 0.0 0.0 0.0 0.0 0.0 0.0 0.0 0.0 0.0 0.0 0.0 0.2 0.0 0.0 0.0 0.0 1.4 2.7 2.4 3.0 6.6 2.6 2.8 1.1 2.0 0.7 0.8 0.1 1.9 4.8 0.0 0.0 0.6 0.1 0.0 0.0 0.2 0.1 0.0 0.0 0.0 2.9 1.7 0.5 1.1 0.2 0.1 0.0 0.0 0.0 0.0
0.0 0.0 0.0 0.0 0.0 0.0 0.0 0.0 0.0 0.0 0.0 0.0 0.0 0.3 0.0 0.0 0.0 0.0 4.3 4.0 1.8 2.6 2.4 2.4 2.2 2.3 0.0 3.2 1.2 0.3 2.5 1.7 6.9 1.9 0.9 1.5 2.6 0.6 0.0 0.2 0.0 0.0 0.1 0.0 0.0 0.1 0.9 1.5 2.0 1.0 0.4 1.5 0.9 1.5
0.0 0.0 0.0 0.0 0.0 0.0 0.0 0.0 0.0 0.0 0.0 0.0 0.0 0.0 0.0 1.7 4.7 7.4 6.8 1.0 1.1 1.7 0.6 0.9 0.5 0.2 0.5 0.0 1.7 0.9 2.5 2.3 2.8 1.4 3.9 3.4 1.5 0.9 1.2 0.4 0.2 0.1 0.0 0.1 0.1 1.1 0.5 0.5 0.8 0.8 1.9 2.4 2.2 2.2
0.0 0.0 0.0 0.0 0.0 0.0 0.0 0.0 0.0 0.0 0.0 0.0 0.1 1.3 2.7 4.7 8.0 5.5 4.9 1.5 0.5 0.3 0.4 0.6 0.9 0.1 0.0 0.1 1.3 2.0 2.2 1.0 2.1 4.9 3.6 1.3 0.3 0.0 0.3 1.1 1.0 0.7 0.1 0.5 0.9 0.0 0.3 0.3 0.3 0.3 0.2 0.1 0.0 0.0
0.0 0.0 0.0 0.0 0.0 0.0 0.0 0.0 0.0 0.0 0.0 0.1 0.8 1.8 3.0 3.5 3.3 2.2 1.3 1.0 0.0 0.2 0.0 0.0 0.6 0.9 0.1 1.2 1.0 2.4 0.3 1.8 6.1 3.1 2.5 0.3 0.4 0.3 0.1 0.2 0.4 0.5 0.7 1.0 2.8 2.8 1.4 0.8 0.3 0.1 0.0 0.1 0.0 0.0
0.0 0.0 0.0 0.0 0.0 0.0 0.0 0.0 0.0 0.0 0.0 0.0 0.9 1.6 1.4 1.3 0.6 0.3 0.1 0.4 0.0 0.0 0.0 0.0 0.1 0.3 1.0 1.8 1.1 1.6 2.0 4.4 3.3 3.1 1.0 0.4 0.4 0.6 0.4 0.2 0.2 0.4 0.5 1.2 1.2 2.1 3.2 1.9 0.7 0.0 0.0 0.0 0.3 0.3
0.0 0.0 0.0 0.0 0.0 0.0 0.0 0.0 0.0 0.0 0.0 0.2 0.7 1.4 0.6 0.5 0.3 0.1 0.0 0.1 0.0 0.0 0.1 0.2 0.5 1.0 0.8 2.2 1.2 2.0 3.0 3.8 2.2 1.0 0.5 0.3 0.6 0.0 0.2 0.2 0.0 0.0 0.0 0.1 1.0 1.4 2.0 1.9 1.3 0.7 0.5 0.1 0.1 0.8
0.0 0.0 0.0 0.0 0.0 0.0 0.0 0.0 0.0 0.0 0.1 0.0 0.2 0.4 0.6 0.3 0.3 0.2 0.0 0.0 0.0 0.2 1.0 1.5 2.2 0.7 0.4 1.2 0.7 0.4 1.4 1.0 0.6 0.0 0.1 0.0 0.1 0.0 0.0 0.0 0.0 0.0 0.0 0.0 0.5 0.9 1.6 2.2 2.4 1.4 1.8 1.5 1.0 0.6
0.0 0.0 0.0 0.0 0.0 0.0 0.0 0.0 0.0 0.0 0.0 0.0 0.0 0.0 0.0 0.0 0.2 0.2 0.0 0.0 0.0 0.4 1.3 4.4 2.4 1.6 0.3 0.2 0.0 0.1 0.0 0.0 0.1 0.0 0.1 0.0 0.0 0.0 0.0 0.0 0.0 0.1 0.7 1.7 1.5 1.6 1.1 1.7 1.6 1.3 1.0 0.8 0.5 0.7
0.0 0.0 0.0 0.0 0.0 0.0 0.0 0.0 0.0 0.0 0.0 0.0 0.0 0.0 0.0 0.0 0.0 0.0 0.0 0.0 0.0 0.0 0.3 2.5 2.4 0.4 0.0 0.0 0.0 0.0 0.0 0.0 0.0 0.0 0.0 0.0 0.0 0.0 0.0 0.3 0.3 0.7 1.8 1.6 0.4 0.4 0.4 0.3 0.7 0.4 1.0 0.7 0.4 0.2
0.0 0.0 0.0 0.0 0.0 0.0 0.0 0.0 0.0 0.0 0.0 0.0 0.0 0.0 0.0 0.0 0.0 0.0 0.0 0.1 0.3 1.6 1.8 1.9 0.0 0.2 0.1 0.3 0.3 0.1 0.0 0.0 0.0 0.0 0.0 0.0 0.0 0.0 0.0 0.0 0.1 0.3 0.7 0.6 0.5 0.7 0.5 0.7 0.5 0.2 0.6 0.5 0.3 0.3
0.0 0.0 0.0 0.0 0.3 0.1 0.0 0.0 0.0 0.0 0.0 0.0 0.0 0.0 0.0 0.0 0.0 0.0 0.0 1.0 2.0 2.5 1.9 1.2 0.2 0.1 0.0 0.5 0.2 0.0 0.0 0.0 0.0 0.0 0.0 0.0 0.0 0.0 0.0 0.0 0.0 0.0 0.0 0.3 0.2 0.1 0.5 0.3 0.7 0.5 0.2 0.8 0.7 0.3
0.4 0.0 1.7 1.5 1.6 0.4 0.2 0.0 0.0 0.0 0.0 0.0 0.0 0.0 0.0 0.0 0.0 0.0 0.1 1.7 3.4 2.0 1.5 1.1 1.0 0.6 0.2 0.0 0.8 0.9 0.4 0.0 0.0 0.0 0.0 0.0 0.0 0.0 0.0 0.0 0.0 0.0 0.0 0.0 0.0 0.0 0.0 0.1 0.1 0.4 0.4 1.0 0.8 0.4
0.3 1.3 2.8 2.3 1.7 1.2 0.1 0.1 0.1 0.0 0.0 0.0 0.0 0.0 0.0 0.0 0.0 0.1 1.1 1.5 1.6 1.2 1.0 0.8 1.0 2.2 2.3 1.8 1.5 1.1 0.6 0.1 0.0 0.2 0.1 0.0 0.0 0.0 0.0 0.0 0.0 0.0 0.0 0.0 0.0 0.0 0.0 0.0 0.0 0.0 0.0 0.0 0.7 0.7
0.0 2.6 3.3 2.5 1.7 0.8 0.4 0.1 0.2 0.0 0.0 0.0 0.0 0.0 0.0 0.0 0.1 0.0 0.8 0.6 0.4 0.4 1.3 1.6 1.3 1.1 0.6 1.5 1.8 2.2 2.3 1.4 0.4 0.0 0.7 0.3 0.1 0.0 0.0 0.0 0.0 0.0 0.0 0.0 0.0 0.0 0.0 0.0 0.0 0.0 0.0 0.0 0.0 0.0
5.3 5.0 3.3 3.4 1.4 0.7 0.2 0.1 0.1 0.0 0.0 0.0 0.2 0.0 0.0 0.0 0.2 0.2 0.0 0.0 0.1 0.2 0.6 1.4 1.5 1.4 1.4 1.0 1.4 1.3 1.2 1.5 2.5 2.7 0.1 1.5 0.8 0.2 0.0 0.0 0.3 0.0 0.0 0.2 0.1 0.0 0.0 0.0 0.0 0.0 0.0 0.0 0.0 0.0
6.7 2.3 1.1 0.1 0.0 0.1 0.0 0.0 0.0 0.0 0.0 0.0 0.2 0.0 0.0 0.1 0.2 0.0 0.0 0.0 0.1 0.3 0.4 0.6 1.2 1.2 0.9 0.8 1.0 1.8 1.7 1.5 1.3 2.4 1.4 2.0 1.6 2.1 2.0 0.1 1.3 0.7 0.1 0.0 0.5 0.5 0.3 0.1 0.1 0.0 0.0 0.0 0.2 0.1
3.6 1.2 0.0 0.0 0.1 0.1 0.0 0.0 0.0 0.0 0.0 0.3 0.0 0.0 0.0 0.3 0.1 0.0 0.0 0.0 0.0 0.4 0.7 1.1 2.2 1.9 1.3 1.4 1.3 1.8 2.0 2.2 2.0 1.5 2.0 4.3 4.0 2.5 1.2 1.9 1.7 1.2 0.8 0.3 1.0 0.6 0.6 0.6 0.4 0.6 0.5 0.6 0.5 0.4
0.4 0.0 0.0 0.0 0.0 0.0 0.0 0.2 0.3 0.2 0.0 0.0 0.4 0.3 0.2 0.0 0.0 0.0 0.0 0.0 0.0 0.0 0.8 1.3 1.8 2.4 2.2 1.9 1.9 2.6 2.8 3.1 3.4 3.2 4.5 5.2 5.4 5.0 3.9 3.1 2.4 2.7 2.8 2.0 1.3 1.4 1.3 0.9 0.7 1.5 1.2 1.1 1.1 0.9
0.1 0.0 0.0 0.0 0.0 0.0 0.0 0.0 0.0 0.0 0.0 0.0 0.0 0.0 0.0 0.0 0.0 0.0 0.0 0.0 0.0 0.8 1.0 1.5 1.9 2.0 2.8 2.9 2.8 3.5 3.5 3.6 3.1 2.5 2.0 2.4 4.3 6.0 5.6 4.8 5.5 5.6 3.7 3.7 2.6 2.5 2.1 2.6 2.5 2.6 3.1 3.2 3.0 2.9
0.1 0.0 0.0 0.0 0.0 0.0 0.0 0.0 0.0 0.0 0.0 0.0 0.0 0.0 0.0 0.0 0.0 0.0 0.0 0.0 0.0 1.4 1.8 2.4 2.3 2.4 3.5 3.4 3.5 3.3 4.1 4.1 3.8 2.2 2.0 2.2 2.8 4.1 5.8 5.7 5.9 6.3 5.9 5.3 6.2 6.8 4.8 5.8 6.2 6.3 5.6 5.5 5.3 4.7
0.0 0.0 0.0 0.0 0.0 0.0 0.0 0.0 0.0 0.0 0.0 0.0 0.0 0.0 0.0 0.0 0.0 0.0 0.3 0.6 1.4 2.0 2.7 3.4 3.8 4.4 4.6 5.0 4.9 4.4 4.5 5.2 5.3 5.5 4.4 4.4 4.7 4.8 5.5 5.8 5.4 5.8 5.9 5.7 5.1 4.8 4.9 4.6 4.1 4.3 4.2 4.2 3.9 3.5
0.0 0.0 0.0 0.0 0.0 0.1 0.0 0.0 0.0 0.0 0.0 0.0 0.0 0.0 0.0 0.0 0.0 0.0 0.5 0.8 1.8 2.3 2.7 3.4 3.9 5.0 5.6 5.4 5.4 5.3 4.1 4.8 4.8 6.0 5.1 4.4 4.5 3.5 4.4 4.8 5.5 5.5 6.1 6.2 5.6 6.0 6.0 6.1 6.2 5.7 5.7 5.7 5.3 4.8
1.1 0.6 0.4 0.3 0.0 0.0 0.0 0.0 0.0 0.0 0.0 0.0 0.0 0.0 0.0 0.1 0.0 0.4 0.6 1.0 2.0 2.5 2.7 4.1 4.7 4.7 4.5 4.4 4.9 5.2 5.2 5.1 6.0 5.6 5.5 5.4 4.8 4.7 4.8 5.3 5.6 6.3 6.4 6.5 7.0 7.5 7.8 7.2 6.9 6.6 6.1 5.8 5.3 5.0

GFSWCAN_prec_kuchsnow_060.txt.gz
Snowfall_Accumulation
0.0 0.0 0.0 0.0 0.0 0.0 0.0 0.0 0.0 0.0 0.0 0.0 0.0 0.0 0.0 0.0 0.0 0.0 0.0 0.0 0.0 0.0 0.0 0.0 0.0 0.0 0.0 0.0 0.0 0.0 0.0 0.0 0.0 0.1 0.0 0.1 0.0 0.0 0.0 0.0 0.0 0.0 0.1 0.2 0.3 0.8 0.0 0.0 0.0 0.0 0.0 0.0 0.0 0.0
0.0 0.0 0.0 0.0 0.0 0.0 0.0 0.0 0.0 0.0 0.0 0.0 0.0 0.0 0.0 0.0 0.0 0.0 0.0 0.0 0.0 0.0 0.0 0.0 0.0 0.0 0.0 0.0 0.0 0.0 0.0 0.0 0.0 0.2 0.1 0.0 0.0 0.0 0.0 0.0 0.0 0.0 0.0 0.0 0.0 0.0 0.0 0.0 0.0 0.0 0.0 0.0 0.0 0.0
0.0 0.0 0.0 0.0 0.0 0.0 0.0 0.0 0.0 0.0 0.0 0.0 0.0 0.0 0.0 0.0 0.0 0.0 0.0 0.0 0.0 0.2 0.0 0.0 0.0 0.0 0.0 0.0 0.0 0.0 0.0 0.0 0.0 0.0 0.1 0.1 0.0 0.0 0.0 0.0 0.0 0.0 0.0 0.0 0.0 0.0 0.0 0.0 0.0 0.0 0.0 0.0 0.0 0.0
0.0 0.0 0.0 0.0 0.0 0.0 0.0 0.0 0.0 0.0 0.0 0.0 0.0 0.0 0.0 0.0 0.0 0.0 0.0 0.0 0.0 0.2 1.5 0.0 0.0 0.0 0.0 0.0 0.0 0.0 0.0 0.0 0.0 0.4 0.5 0.2 0.2 0.0 0.0 0.0 0.0 0.0 0.0 0.0 0.0 0.0 0.0 0.0 0.0 0.0 0.0 0.0 0.0 0.0
0.0 0.0 0.0 0.0 0.0 0.0 0.0 0.0 0.0 0.0 0.0 0.0 0.0 0.0 0.0 0.0 0.0 0.0 0.0 0.0 0.0 0.3 2.2 0.7 0.0 0.0 0.0 0.0 0.0 0.0 0.0 0.0 0.2 0.7 1.3 0.7 0.0 0.0 0.0 0.0 0.0 0.0 0.0 0.0 0.0 0.0 0.0 0.0 0.0 0.0 0.0 0.0 0.0 0.0
0.0 0.0 0.0 0.0 0.0 0.0 0.0 0.0 0.0 0.0 0.0 0.0 0.0 0.0 0.0 0.0 0.0 0.0 0.0 0.0 0.0 0.0 2.6 3.1 0.0 0.0 0.0 0.0 0.0 0.0 0.0 0.0 0.8 0.3 1.6 0.0 0.0 0.0 0.9 0.1 0.0 0.0 0.0 0.0 0.0 0.0 0.0 0.0 0.0 0.0 0.0 0.0 0.0 0.0
0.0 0.0 0.0 0.0 0.0 0.0 0.0 0.0 0.0 0.0 0.0 0.0 0.0 0.0 0.0 0.0 0.0 0.1 0.1 0.0 0.0 0.0 2.6 7.8 4.1 0.1 0.0 0.0 0.0 0.0 0.0 0.0 1.2 1.1 0.0 0.8 0.2 1.1 1.0 0.0 0.0 0.0 0.0 0.0 0.0 0.0 0.0 0.0 0.0 0.0 0.0 0.0 0.0 0.0
0.0 0.0 0.0 0.0 0.0 0.0 0.0 0.0 0.0 0.0 0.0 0.0 0.0 0.0 0.0 0.0 0.0 0.0 0.0 0.0 0.0 1.5 4.2 11.3 8.8 4.6 0.0 0.0 0.1 0.0 0.0 0.0 1.9 0.7 0.0 0.1 0.0 0.7 1.2 0.0 0.0 0.0 0.0 0.0 0.0 0.0 0.0 0.0 0.0 0.0 0.0 0.0 0.0 0.0
0.0 0.0 0.0 0.0 0.0 0.0 0.0 0.0 0.0 0.0 0.0 0.0 0.0 0.0 0.0 0.0 0.0 0.0 0.0 0.0 0.0 0.1 7.2 6.3 10.1 6.4 0.2 0.1 0.1 0.1 0.0 1.6 0.2 0.9 0.0 0.0 0.4 2.0 0.0 0.0 0.1 0.0 0.0 0.0 0.0 0.0 0.0 0.0 0.0 0.0 0.0 0.0 0.0 0.0
0.0 0.0 0.0 0.0 0.0 0.0 0.0 0.0 0.0 0.0 0.0 0.0 0.0 0.0 0.2 0.0 0.0 0.0 0.0 1.4 2.7 2.4 3.0 6.6 2.6 2.8 1.1 2.0 0.7 0.8 0.1 1.9 4.8 0.0 0.0 0.6 0.1 0.0 0.0 0.2 0.1 0.0 0.0 0.0 2.9 1.7 0.5 1.1 0.2 0.1 0.0 0.0 0.0 0.0
0.0 0.0 0.0 0.0 0.0 0.0 0.0 0.0 0.0 0.0 0.0 0.0 0.0 0.3 0.0 0.0 0.0 0.0 4.3 4.0 1.8 2.6 2.4 2.4 2.2 2.3 0.0 3.2 1.2 0.3 2.5 1.7 6.9 1.9 0.9 1.5 2.6 0.6 0.0 0.2 0.0 0.0 0.1 0.0 0.0 0.1 0.9 1.5 2.0 1.0 0.4 1.5 0.9 1.5
0.0 0.0 0.0 0.0 0.0 0.0 0.0 0.0 0.0 0.0 0.0 0.0 0.0 0.0 0.0 1.7 4.7 7.4 6.8 1.0 1.1 1.7 0.6 0.9 0.5 0.2 0.5 0.0 1.7 0.9 2.5 2.3 2.8 1.4 3.9 3.4 1.5 0.9 1.2 0.4 0.2 0.1 0.0 0.1 0.1 1.1 0.5 0.5 0.8 0.8 1.9 2.4 2.2 2.2
0.0 0.0 0.0 0.0 0.0 0.0 0.0 0.0 0.0 0.0 0.0 0.0 0.1 1.3 2.7 4.7 8.0 5.5 4.9 1.5 0.5 0.3 0.4 0.6 0.9 0.1 0.0 0.1 1.3 2.0 2.2 1.0 2.1 4.9 3.6 1.3 0.3 0.0 0.3 1.1 1.0 0.7 0.1 0.5 0.9 0.0 0.3 0.3 0.3 0.3 0.2 0.1 0.0 0.0
0.0 0.0 0.0 0.0 0.0 0.0 0.0 0.0 0.0 0.0 0.0 0.1 0.8 1.8 3.0 3.5 3.3 2.2 1.3 1.0 0.0 0.2 0.0 0.0 0.6 0.9 0.1 1.2 1.0 2.4 0.3 1.8 6.2 3.2 2.5 0.3 0.4 0.3 0.1 0.2 0.4 0.5 0.7 1.0 2.8 2.8 1.4 0.8 0.3 0.1 0.0 0.1 0.0 0.0
0.0 0.0 0.0 0.0 0.0 0.0 0.0 0.0 0.0 0.0 0.0 0.0 0.9 1.6 1.4 1.3 0.6 0.3 0.1 0.4 0.0 0.0 0.0 0.0 0.1 0.3 1.0 1.8 1.1 1.6 2.0 4.4 3.3 3.1 1.0 0.4 0.4 0.6 0.4 0.2 0.2 0.4 0.5 1.2 1.2 2.1 3.2 1.9 0.7 0.0 0.0 0.0 0.3 0.3
0.0 0.0 0.0 0.0 0.0 0.0 0.0 0.0 0.0 0.0 0.0 0.2 0.7 1.4 0.6 0.5 0.3 0.1 0.0 0.1 0.0 0.0 0.1 0.2 0.5 1.0 0.8 2.2 1.2 2.0 3.0 3.8 2.2 1.0 0.5 0.3 0.6 0.0 0.2 0.2 0.0 0.0 0.0 0.1 1.0 1.4 2.0 1.9 1.3 0.7 0.5 0.1 0.2 0.8
0.0 0.0 0.0 0.0 0.0 0.0 0.0 0.0 0.0 0.0 0.1 0.0 0.2 0.4 0.6 0.3 0.3 0.2 0.0 0.0 0.0 0.2 1.0 1.5 2.2 0.7 0.4 1.2 0.7 0.4 1.4 1.0 0.6 0.0 0.1 0.0 0.1 0.0 0.0 0.0 0.0 0.0 0.0 0.0 0.5 0.9 1.6 2.2 2.4 1.4 1.8 1.5 1.2 0.8
0.0 0.0 0.0 0.0 0.0 0.0 0.0 0.0 0.0 0.0 0.0 0.0 0.0 0.0 0.0 0.0 0.2 0.2 0.0 0.0 0.0 0.4 1.3 4.4 2.4 1.6 0.3 0.2 0.0 0.1 0.0 0.0 0.1 0.0 0.1 0.0 0.0 0.0 0.0 0.0 0.0 0.1 0.7 1.7 1.5 1.6 1.1 1.7 1.6 1.3 1.0 0.8 0.8 0.9
0.0 0.0 0.0 0.0 0.0 0.0 0.0 0.0 0.0 0.0 0.0 0.0 0.0 0.0 0.0 0.0 0.0 0.0 0.0 0.0 0.0 0.0 0.3 2.5 2.4 0.4 0.0 0.0 0.0 0.0 0.0 0.0 0.0 0.0 0.0 0.0 0.0 0.0 0.0 0.3 0.3 0.7 1.8 1.6 0.4 0.4 0.4 0.3 0.7 0.4 1.0 0.7 0.8 0.6
0.0 0.0 0.0 0.0 0.0 0.0 0.0 0.0 0.0 0.0 0.0 0.0 0.0 0.0 0.0 0.0 0.0 0.0 0.0 0.1 0.3 1.6 1.8 1.9 0.0 0.2 0.1 0.3 0.3 0.1 0.0 0.0 0.0 0.0 0.0 0.0 0.0 0.0 0.0 0.0 0.1 0.3 0.7 0.6 0.5 0.7 0.5 0.7 0.5 0.2 0.6 0.5 0.9 1.0
0.0 0.0 0.0 0.0 0.3 0.1 0.0 0.0 0.0 0.0 0.0 0.0 0.0 0.0 0.0 0.0 0.0 0.0 0.0 1.0 2.0 2.5 1.9 1.2 0.2 0.1 0.0 0.5 0.2 0.0 0.0 0.0 0.0 0.0 0.0 0.0 0.0 0.0 0.0 0.0 0.0 0.0 0.0 0.3 0.2 0.1 0.5 0.3 0.7 0.5 0.2 0.8 0.7 0.9
0.4 0.0 1.7 1.5 1.6 0.4 0.2 0.0 0.0 0.0 0.0 0.0 0.0 0.0 0.0 0.0 0.0 0.0 0.1 1.7 3.4 2.0 1.5 1.1 1.0 0.6 0.2 0.0 0.8 0.9 0.4 0.0 0.0 0.0 0.0 0.0 0.0 0.0 0.0 0.0 0.0 0.0 0.0 0.0 0.0 0.0 0.0 0.1 0.1 0.4 0.4 1.0 0.8 0.4
0.3 1.3 2.9 2.3 1.7 1.2 0.2 0.1 0.1 0.0 0.0 0.0 0.0 0.0 0.0 0.0 0.0 0.1 1.1 1.5 1.6 1.2 1.0 0.8 1.0 2.2 2.3 1.8 1.5 1.1 0.6 0.1 0.0 0.2 0.1 0.0 0.0 0.0 0.0 0.0 0.0 0.0 0.0 0.0 0.0 0.0 0.0 0.0 0.0 0.0 0.0 0.0 0.7 0.7
0.0 2.6 3.3 2.5 1.7 0.8 0.4 0.1 0.2 0.0 0.0 0.0 0.0 0.0 0.0 0.0 0.1 0.0 0.8 0.6 0.4 0.4 1.3 1.6 1.3 1.1 0.6 1.5 1.8 2.2 2.3 1.4 0.4 0.0 0.7 0.3 0.1 0.0 0.0 0.0 0.0 0.0 0.0 0.0 0.0 0.0 0.0 0.0 0.0 0.0 0.0 0.0 0.0 0.0
5.3 5.0 3.4 3.5 1.4 0.7 0.2 0.1 0.1 0.0 0.0 0.0 0.2 0.0 0.0 0.0 0.2 0.2 0.0 0.0 0.1 0.2 0.6 1.4 1.5 1.4 1.4 1.0 1.4 1.3 1.2 1.5 2.5 2.7 0.1 1.5 0.8 0.2 0.0 0.0 0.3 0.0 0.0 0.2 0.1 0.0 0.0 0.0 0.0 0.0 0.0 0.0 0.0 0.0
6.7 2.3 1.1 0.1 0.0 0.1 0.0 0.0 0.0 0.0 0.0 0.0 0.2 0.0 0.0 0.1 0.2 0.0 0.0 0.0 0.1 0.3 0.4 0.6 1.2 1.2 0.9 0.8 1.0 1.8 1.7 1.5 1.3 2.4 1.4 2.0 1.6 2.1 2.0 0.1 1.3 0.7 0.1 0.0 0.5 0.5 0.3 0.1 0.1 0.0 0.0 0.0 0.2 0.1
3.6 1.2 0.0 0.0 0.1 0.1 0.0 0.0 0.0 0.0 0.0 0.3 0.0 0.0 0.0 0.3 0.1 0.0 0.0 0.0 0.0 0.4 0.7 1.1 2.2 1.9 1.3 1.4 1.3 1.8 2.0 2.2 2.0 1.5 2.0 4.3 4.0 2.5 1.2 1.9 1.7 1.2 0.8 0.3 1.0 0.6 0.6 0.6 0.4 0.6 0.5 0.6 0.5 0.4
0.4 0.0 0.0 0.0 0.0 0.0 0.0 0.2 0.3 0.2 0.0 0.0 0.4 0.3 0.2 0.0 0.0 0.0 0.0 0.0 0.0 0.0 0.8 1.3 1.8 2.4 2.2 1.9 1.9 2.6 2.8 3.1 3.4 3.2 4.5 5.2 5.4 5.0 3.9 3.1 2.4 2.7 2.8 2.0 1.3 1.4 1.3 0.9 0.7 1.5 1.2 1.1 1.1 0.9
0.1 0.0 0.0 0.0 0.0 0.0 0.0 0.0 0.0 0.0 0.0 0.0 0.0 0.0 0.0 0.0 0.0 0.0 0.0 0.0 0.0 0.8 1.0 1.5 1.9 2.0 2.8 2.9 2.8 3.5 3.5 3.6 3.1 2.5 2.0 2.4 4.3 6.0 5.6 4.8 5.5 5.6 3.7 3.7 2.6 2.5 2.1 2.6 2.5 2.6 3.1 3.2 3.0 2.9
0.1 0.0 0.0 0.0 0.0 0.0 0.0 0.0 0.0 0.0 0.0 0.0 0.0 0.0 0.0 0.0 0.0 0.0 0.0 0.0 0.0 1.4 1.8 2.4 2.3 2.4 3.5 3.4 3.5 3.3 4.1 4.1 3.8 2.2 2.1 2.2 2.8 4.1 5.8 5.7 5.9 6.4 5.9 5.3 6.2 6.8 4.8 5.8 6.2 6.3 5.6 5.5 5.3 4.7
0.0 0.0 0.0 0.0 0.0 0.0 0.0 0.0 0.0 0.0 0.0 0.0 0.0 0.0 0.0 0.0 0.0 0.0 0.3 0.6 1.4 2.0 2.7 3.4 3.8 4.4 4.6 5.0 4.9 4.4 4.5 5.2 5.3 5.5 4.4 4.5 4.7 4.8 5.5 6.0 5.5 5.9 5.9 5.7 5.1 4.8 4.9 4.6 4.1 4.3 4.2 4.2 3.9 3.5
0.0 0.0 0.0 0.0 0.0 0.1 0.0 0.0 0.0 0.0 0.0 0.0 0.0 0.0 0.0 0.0 0.0 0.0 0.5 0.8 1.8 2.3 2.7 3.4 3.9 5.0 5.6 5.4 5.4 5.3 4.2 4.8 4.8 6.0 5.1 4.4 4.5 3.9 4.6 4.8 5.8 5.7 6.2 6.3 5.7 6.1 6.0 6.1 6.2 5.7 5.7 5.7 5.3 4.8
1.1 0.6 0.4 0.3 0.0 0.0 0.0 0.0 0.0 0.0 0.0 0.0 0.0 0.0 0.0 0.1 0.0 0.4 0.6 1.0 2.0 2.5 2.7 4.1 4.7 4.7 4.5 4.4 4.9 5.2 5.2 5.1 6.0 5.7 5.6 5.5 5.2 5.2 4.8 5.3 5.6 6.4 6.4 6.6 7.0 7.5 7.8 7.2 6.9 6.6 6.1 5.8 5.3 5.0

GFSWCAN_prec_kuchsnow_063.txt.gz
Snowfall_Accumulation
0.0 0.0 0.0 0.0 0.0 0.0 0.0 0.0 0.0 0.0 0.0 0.0 0.0 0.0 0.0 0.0 0.0 0.0 0.0 0.0 0.0 0.0 0.0 0.0 0.0 0.0 0.0 0.0 0.0 0.0 0.0 0.0 0.0 0.1 0.0 0.1 0.0 0.0 0.0 0.0 0.0 0.0 0.1 0.2 0.3 0.8 0.0 0.0 0.0 0.0 0.0 0.0 0.0 0.0
0.0 0.0 0.0 0.0 0.0 0.0 0.0 0.0 0.0 0.0 0.0 0.0 0.0 0.0 0.0 0.0 0.0 0.0 0.0 0.0 0.0 0.0 0.0 0.0 0.0 0.0 0.0 0.0 0.0 0.0 0.0 0.0 0.0 0.2 0.1 0.0 0.0 0.0 0.0 0.0 0.0 0.0 0.0 0.0 0.0 0.0 0.0 0.0 0.0 0.0 0.0 0.0 0.0 0.0
0.0 0.0 0.0 0.0 0.0 0.0 0.0 0.0 0.0 0.0 0.0 0.0 0.0 0.0 0.0 0.0 0.0 0.0 0.0 0.0 0.0 0.2 0.0 0.0 0.0 0.0 0.0 0.0 0.0 0.0 0.0 0.0 0.0 0.0 0.1 0.1 0.0 0.0 0.0 0.0 0.0 0.0 0.0 0.0 0.0 0.0 0.0 0.0 0.0 0.0 0.0 0.0 0.0 0.0
0.0 0.0 0.0 0.0 0.0 0.0 0.0 0.0 0.0 0.0 0.0 0.0 0.0 0.0 0.0 0.0 0.0 0.0 0.0 0.0 0.0 0.2 1.5 0.0 0.0 0.0 0.0 0.0 0.0 0.0 0.0 0.0 0.0 0.4 0.5 0.2 0.2 0.0 0.0 0.0 0.0 0.0 0.0 0.0 0.0 0.0 0.0 0.0 0.0 0.0 0.0 0.0 0.0 0.0
0.0 0.0 0.0 0.0 0.0 0.0 0.0 0.0 0.0 0.0 0.0 0.0 0.0 0.0 0.0 0.0 0.0 0.0 0.0 0.0 0.0 0.3 2.2 0.7 0.0 0.0 0.0 0.0 0.0 0.0 0.0 0.0 0.2 0.7 1.3 0.7 0.0 0.0 0.0 0.0 0.0 0.0 0.0 0.0 0.0 0.0 0.0 0.0 0.0 0.0 0.0 0.0 0.0 0.0
0.0 0.0 0.0 0.0 0.0 0.0 0.0 0.0 0.0 0.0 0.0 0.0 0.0 0.0 0.0 0.0 0.0 0.0 0.0 0.0 0.0 0.0 2.6 3.1 0.0 0.0 0.0 0.0 0.0 0.0 0.0 0.0 0.8 0.3 1.6 0.0 0.0 0.0 0.9 0.1 0.0 0.0 0.0 0.0 0.0 0.0 0.0 0.0 0.0 0.0 0.0 0.0 0.0 0.0
0.0 0.0 0.0 0.0 0.0 0.0 0.0 0.0 0.0 0.0 0.0 0.0 0.0 0.0 0.0 0.0 0.0 0.1 0.1 0.0 0.0 0.0 2.6 7.8 4.1 0.1 0.0 0.0 0.0 0.0 0.0 0.0 1.2 1.1 0.0 0.8 0.2 1.1 1.0 0.0 0.0 0.0 0.0 0.0 0.0 0.0 0.0 0.0 0.0 0.0 0.0 0.0 0.0 0.0
0.0 0.0 0.0 0.0 0.0 0.0 0.0 0.0 0.0 0.0 0.0 0.0 0.0 0.0 0.0 0.0 0.0 0.0 0.0 0.0 0.0 1.5 4.2 11.3 8.8 4.6 0.0 0.0 0.1 0.0 0.0 0.0 1.9 0.7 0.0 0.1 0.0 0.7 1.2 0.0 0.0 0.0 0.0 0.0 0.0 0.0 0.0 0.0 0.0 0.0 0.0 0.0 0.0 0.0
0.0 0.0 0.0 0.0 0.0 0.0 0.0 0.0 0.0 0.0 0.0 0.0 0.0 0.0 0.0 0.0 0.0 0.0 0.0 0.0 0.0 0.1 7.2 6.3 10.1 6.4 0.2 0.1 0.1 0.1 0.0 1.6 0.2 0.9 0.0 0.0 0.4 2.0 0.0 0.0 0.1 0.0 0.0 0.0 0.0 0.0 0.0 0.0 0.0 0.0 0.0 0.0 0.0 0.0
0.0 0.0 0.0 0.0 0.0 0.0 0.0 0.0 0.0 0.0 0.0 0.0 0.0 0.0 0.2 0.0 0.0 0.0 0.0 1.4 2.7 2.4 3.0 6.6 2.6 2.8 1.1 2.0 0.7 0.8 0.1 1.9 4.8 0.0 0.0 0.6 0.1 0.0 0.0 0.2 0.1 0.0 0.0 0.0 2.9 1.7 0.5 1.1 0.2 0.1 0.0 0.0 0.0 0.0
0.0 0.0 0.0 0.0 0.0 0.0 0.0 0.0 0.0 0.0 0.0 0.0 0.0 0.3 0.0 0.0 0.0 0.0 4.3 4.0 1.8 2.6 2.4 2.4 2.2 2.3 0.0 3.2 1.2 0.3 2.5 1.7 6.9 1.9 0.9 1.5 2.6 0.6 0.0 0.2 0.0 0.0 0.1 0.0 0.0 0.1 0.9 1.5 2.0 1.0 0.4 1.5 0.9 1.5
0.0 0.0 0.0 0.0 0.0 0.0 0.0 0.0 0.0 0.0 0.0 0.0 0.0 0.0 0.0 1.7 4.7 7.4 6.8 1.0 1.1 1.7 0.6 0.9 0.5 0.2 0.5 0.0 1.7 1.0 2.5 2.3 2.8 1.4 3.9 3.4 1.5 0.9 1.2 0.4 0.2 0.1 0.0 0.1 0.1 1.1 0.5 0.5 0.8 0.8 1.9 2.4 2.2 2.2
0.0 0.0 0.0 0.0 0.0 0.0 0.0 0.0 0.0 0.0 0.0 0.0 0.1 1.3 2.7 4.7 8.0 5.5 4.9 1.5 0.5 0.3 0.4 0.6 0.9 0.1 0.0 0.1 1.3 2.0 2.2 1.0 2.1 4.9 3.6 1.3 0.3 0.0 0.3 1.1 1.0 0.7 0.1 0.5 0.9 0.0 0.3 0.3 0.3 0.3 0.2 0.1 0.0 0.0
0.0 0.0 0.0 0.0 0.0 0.0 0.0 0.0 0.0 0.0 0.0 0.1 0.8 1.8 3.0 3.5 3.3 2.2 1.3 1.0 0.0 0.2 0.0 0.0 0.6 0.9 0.1 1.2 1.0 2.4 0.3 1.8 6.2 3.2 2.5 0.3 0.4 0.3 0.1 0.2 0.4 0.5 0.7 1.0 2.8 2.8 1.4 0.8 0.3 0.1 0.0 0.1 0.0 0.0
0.0 0.0 0.0 0.0 0.0 0.0 0.0 0.0 0.0 0.0 0.0 0.0 0.9 1.6 1.4 1.3 0.6 0.3 0.1 0.4 0.0 0.0 0.0 0.0 0.1 0.3 1.0 1.8 1.1 1.6 2.0 4.4 3.3 3.1 1.0 0.4 0.4 0.6 0.4 0.2 0.2 0.4 0.5 1.2 1.2 2.1 3.2 1.9 0.7 0.0 0.0 0.0 0.3 0.3
0.0 0.0 0.0 0.0 0.0 0.0 0.0 0.0 0.0 0.0 0.0 0.2 0.7 1.4 0.6 0.5 0.3 0.1 0.0 0.1 0.0 0.0 0.1 0.2 0.5 1.0 0.8 2.2 1.2 2.0 3.0 3.8 2.2 1.0 0.5 0.3 0.6 0.0 0.2 0.2 0.0 0.0 0.0 0.1 1.0 1.4 2.0 1.9 1.3 0.7 0.5 0.1 0.2 0.9
0.0 0.0 0.0 0.0 0.0 0.0 0.0 0.0 0.0 0.0 0.1 0.0 0.2 0.4 0.6 0.3 0.3 0.2 0.0 0.0 0.0 0.2 1.0 1.5 2.2 0.7 0.4 1.2 0.7 0.4 1.4 1.0 0.6 0.0 0.1 0.0 0.1 0.0 0.0 0.0 0.0 0.0 0.0 0.0 0.5 0.9 1.6 2.2 2.4 1.4 1.8 1.5 1.2 0.8
0.0 0.0 0.0 0.0 0.0 0.0 0.0 0.0 0.0 0.0 0.0 0.0 0.0 0.0 0.0 0.0 0.2 0.2 0.0 0.0 0.0 0.4 1.3 4.4 2.4 1.6 0.3 0.2 0.0 0.1 0.0 0.0 0.1 0.0 0.1 0.0 0.0 0.0 0.0 0.0 0.0 0.1 0.7 1.7 1.5 1.6 1.1 1.7 1.6 1.3 1.0 0.8 0.8 1.0
0.0 0.0 0.0 0.0 0.0 0.0 0.0 0.0 0.0 0.0 0.0 0.0 0.0 0.0 0.0 0.0 0.0 0.0 0.0 0.0 0.0 0.0 0.3 2.5 2.4 0.4 0.0 0.0 0.0 0.0 0.0 0.0 0.0 0.0 0.0 0.0 0.0 0.0 0.0 0.3 0.3 0.7 1.8 1.6 0.4 0.4 0.4 0.3 0.7 0.4 1.0 0.7 0.8 0.8
0.0 0.0 0.0 0.0 0.0 0.0 0.0 0.0 0.0 0.0 0.0 0.0 0.0 0.0 0.0 0.0 0.0 0.0 0.0 0.1 0.3 1.6 1.8 1.9 0.0 0.2 0.1 0.3 0.3 0.1 0.0 0.0 0.0 0.0 0.0 0.0 0.0 0.0 0.0 0.0 0.1 0.3 0.7 0.6 0.5 0.7 0.5 0.7 0.5 0.2 0.6 0.5 0.9 1.0
0.0 0.0 0.0 0.0 0.3 0.1 0.0 0.0 0.0 0.0 0.0 0.0 0.0 0.0 0.0 0.0 0.0 0.0 0.0 1.0 2.0 2.5 1.9 1.2 0.2 0.1 0.0 0.5 0.2 0.0 0.0 0.0 0.0 0.0 0.0 0.0 0.0 0.0 0.0 0.0 0.0 0.0 0.0 0.3 0.2 0.1 0.5 0.3 0.7 0.5 0.2 0.8 0.7 0.9
0.4 0.0 1.7 1.5 1.6 0.4 0.2 0.0 0.0 0.0 0.0 0.0 0.0 0.0 0.0 0.0 0.0 0.0 0.1 1.7 3.4 2.0 1.5 1.1 1.0 0.6 0.2 0.0 0.8 0.9 0.4 0.0 0.0 0.0 0.0 0.0 0.0 0.0 0.0 0.0 0.0 0.0 0.0 0.0 0.0 0.0 0.0 0.1 0.1 0.4 0.4 1.0 0.8 0.4
0.3 1.3 2.9 2.3 1.7 1.3 0.3 0.1 0.1 0.0 0.0 0.0 0.0 0.0 0.0 0.0 0.0 0.1 1.1 1.5 1.6 1.2 1.0 0.8 1.0 2.2 2.3 1.8 1.5 1.1 0.6 0.1 0.0 0.2 0.1 0.0 0.0 0.0 0.0 0.0 0.0 0.0 0.0 0.0 0.0 0.0 0.0 0.0 0.0 0.0 0.0 0.0 0.7 0.7
0.0 2.6 3.4 2.6 1.8 0.8 0.4 0.1 0.2 0.0 0.0 0.0 0.0 0.0 0.0 0.0 0.1 0.0 0.8 0.6 0.4 0.4 1.3 1.6 1.3 1.1 0.6 1.5 1.8 2.2 2.3 1.4 0.4 0.0 0.7 0.3 0.1 0.0 0.0 0.0 0.0 0.0 0.0 0.0 0.0 0.0 0.0 0.0 0.0 0.0 0.0 0.0 0.0 0.0
5.3 5.1 3.4 3.6 1.4 0.7 0.2 0.2 0.1 0.0 0.0 0.0 0.2 0.0 0.0 0.0 0.2 0.2 0.0 0.0 0.1 0.2 0.6 1.4 1.5 1.4 1.4 1.0 1.4 1.3 1.2 1.5 2.5 2.7 0.1 1.5 0.8 0.2 0.0 0.0 0.3 0.0 0.0 0.2 0.1 0.0 0.0 0.0 0.0 0.0 0.0 0.0 0.0 0.0
6.8 2.4 1.1 0.1 0.0 0.1 0.0 0.0 0.0 0.0 0.0 0.0 0.2 0.0 0.0 0.1 0.2 0.0 0.0 0.0 0.1 0.3 0.4 0.6 1.2 1.2 0.9 0.8 1.0 1.8 1.7 1.5 1.3 2.4 1.4 2.0 1.6 2.1 2.0 0.1 1.3 0.7 0.1 0.0 0.5 0.5 0.3 0.1 0.1 0.0 0.0 0.0 0.2 0.1
3.6 1.2 0.0 0.0 0.1 0.1 0.0 0.0 0.0 0.0 0.0 0.3 0.0 0.0 0.0 0.3 0.1 0.0 0.0 0.0 0.0 0.4 0.7 1.1 2.2 1.9 1.3 1.4 1.3 1.8 2.0 2.2 2.0 1.5 2.0 4.3 4.0 2.5 1.2 2.0 1.8 1.2 0.8 0.3 1.0 0.6 0.6 0.6 0.4 0.6 0.5 0.6 0.5 0.4
0.4 0.0 0.0 0.0 0.0 0.0 0.0 0.2 0.3 0.2 0.0 0.0 0.4 0.3 0.2 0.0 0.0 0.0 0.0 0.0 0.0 0.0 0.8 1.3 1.8 2.4 2.2 1.9 1.9 2.6 2.8 3.1 3.4 3.2 4.5 5.2 5.4 5.0 3.9 3.1 2.4 2.7 2.8 2.0 1.3 1.5 1.3 0.9 0.7 1.5 1.2 1.1 1.1 0.9
0.1 0.0 0.0 0.0 0.0 0.0 0.0 0.0 0.0 0.0 0.0 0.0 0.0 0.0 0.0 0.0 0.0 0.0 0.0 0.0 0.0 0.8 1.0 1.5 1.9 2.0 2.8 2.9 2.8 3.5 3.5 3.6 3.1 2.5 2.0 2.4 4.3 6.0 5.6 4.8 5.5 5.6 3.7 3.7 2.6 2.6 2.1 2.7 2.5 2.7 3.1 3.3 3.0 2.9
0.1 0.0 0.0 0.0 0.0 0.0 0.0 0.0 0.0 0.0 0.0 0.0 0.0 0.0 0.0 0.0 0.0 0.0 0.0 0.0 0.0 1.4 1.8 2.4 2.3 2.4 3.5 3.4 3.5 3.3 4.1 4.1 3.8 2.2 2.1 2.2 2.8 4.1 5.8 5.7 5.9 6.4 6.0 5.4 6.2 6.8 4.8 5.8 6.2 6.3 5.6 5.5 5.3 4.7
0.0 0.0 0.0 0.0 0.0 0.0 0.0 0.0 0.0 0.0 0.0 0.0 0.0 0.0 0.0 0.0 0.0 0.0 0.3 0.6 1.4 2.0 2.7 3.4 3.8 4.4 4.6 5.0 4.9 4.4 4.5 5.2 5.3 5.5 4.4 4.6 4.8 4.8 5.5 6.1 5.7 6.1 6.1 5.9 5.2 4.9 4.9 4.6 4.1 4.3 4.2 4.2 3.9 3.5
0.0 0.0 0.0 0.0 0.0 0.1 0.0 0.0 0.0 0.0 0.0 0.0 0.0 0.0 0.0 0.0 0.0 0.0 0.5 0.8 1.8 2.3 2.7 3.4 3.9 5.0 5.6 5.4 5.4 5.3 4.2 4.8 4.8 6.0 5.1 4.4 4.5 3.9 4.6 5.0 5.8 5.7 6.2 6.4 5.8 6.2 6.1 6.1 6.2 5.7 5.7 5.7 5.3 4.8
1.1 0.6 0.4 0.3 0.0 0.0 0.0 0.0 0.0 0.0 0.0 0.0 0.0 0.0 0.0 0.1 0.0 0.4 0.6 1.0 2.0 2.5 2.7 4.1 4.7 4.7 4.5 4.4 4.9 5.2 5.2 5.1 6.0 5.7 5.7 5.7 5.4 5.6 5.0 5.3 5.6 6.4 6.4 6.7 7.0 7.5 7.8 7.2 6.9 6.6 6.1 5.8 5.3 5.0

GFSWCAN_prec_kuchsnow_066.txt.gz
Snowfall_Accumulation
0.0 0.0 0.0 0.0 0.0 0.0 0.0 0.0 0.0 0.0 0.0 0.0 0.0 0.0 0.0 0.0 0.0 0.0 0.0 0.0 0.0 0.0 0.0 0.0 0.0 0.0 0.0 0.0 0.0 0.0 0.0 0.0 0.0 0.1 0.0 0.1 0.0 0.0 0.0 0.0 0.0 0.0 0.1 0.2 0.3 0.8 0.0 0.0 0.0 0.0 0.0 0.0 0.0 0.0
0.0 0.0 0.0 0.0 0.0 0.0 0.0 0.0 0.0 0.0 0.0 0.0 0.0 0.0 0.0 0.0 0.0 0.0 0.0 0.0 0.0 0.0 0.0 0.0 0.0 0.0 0.0 0.0 0.0 0.0 0.0 0.0 0.0 0.2 0.1 0.0 0.0 0.0 0.0 0.0 0.0 0.0 0.0 0.0 0.0 0.0 0.0 0.0 0.0 0.0 0.0 0.0 0.0 0.0
0.0 0.0 0.0 0.0 0.0 0.0 0.0 0.0 0.0 0.0 0.0 0.0 0.0 0.0 0.0 0.0 0.0 0.0 0.0 0.0 0.0 0.2 0.0 0.0 0.0 0.0 0.0 0.0 0.0 0.0 0.0 0.0 0.0 0.0 0.1 0.1 0.0 0.0 0.0 0.0 0.0 0.0 0.0 0.0 0.0 0.0 0.0 0.0 0.0 0.0 0.0 0.0 0.0 0.0
0.0 0.0 0.0 0.0 0.0 0.0 0.0 0.0 0.0 0.0 0.0 0.0 0.0 0.0 0.0 0.0 0.0 0.0 0.0 0.0 0.0 0.2 1.5 0.0 0.0 0.0 0.0 0.0 0.0 0.0 0.0 0.0 0.0 0.4 0.5 0.2 0.2 0.0 0.0 0.0 0.0 0.0 0.0 0.0 0.0 0.0 0.0 0.0 0.0 0.0 0.0 0.0 0.0 0.0
0.0 0.0 0.0 0.0 0.0 0.0 0.0 0.0 0.0 0.0 0.0 0.0 0.0 0.0 0.0 0.0 0.0 0.0 0.0 0.0 0.0 0.3 2.2 0.7 0.0 0.0 0.0 0.0 0.0 0.0 0.0 0.0 0.2 0.7 1.3 0.7 0.0 0.0 0.0 0.0 0.0 0.0 0.0 0.0 0.0 0.0 0.0 0.0 0.0 0.0 0.0 0.0 0.0 0.0
0.0 0.0 0.0 0.0 0.0 0.0 0.0 0.0 0.0 0.0 0.0 0.0 0.0 0.0 0.0 0.0 0.0 0.0 0.0 0.0 0.0 0.0 2.6 3.1 0.0 0.0 0.0 0.0 0.0 0.0 0.0 0.0 0.8 0.3 1.6 0.0 0.0 0.0 0.9 0.1 0.0 0.0 0.0 0.0 0.0 0.0 0.0 0.0 0.0 0.0 0.0 0.0 0.0 0.0
0.0 0.0 0.0 0.0 0.0 0.0 0.0 0.0 0.0 0.0 0.0 0.0 0.0 0.0 0.0 0.0 0.0 0.1 0.1 0.0 0.0 0.0 2.6 7.8 4.1 0.1 0.0 0.0 0.0 0.0 0.0 0.0 1.2 1.1 0.0 0.8 0.2 1.1 1.0 0.0 0.0 0.0 0.0 0.0 0.0 0.0 0.0 0.0 0.0 0.0 0.0 0.0 0.0 0.0
0.0 0.0 0.0 0.0 0.0 0.0 0.0 0.0 0.0 0.0 0.0 0.0 0.0 0.0 0.0 0.0 0.0 0.0 0.0 0.0 0.0 1.5 4.2 11.3 8.8 4.6 0.0 0.0 0.1 0.0 0.0 0.0 1.9 0.7 0.0 0.1 0.0 0.7 1.2 0.0 0.0 0.0 0.0 0.0 0.0 0.0 0.0 0.0 0.0 0.0 0.0 0.0 0.0 0.0
0.0 0.0 0.0 0.0 0.0 0.0 0.0 0.0 0.0 0.0 0.0 0.0 0.0 0.0 0.0 0.0 0.0 0.0 0.0 0.0 0.0 0.1 7.2 6.3 10.1 6.4 0.2 0.1 0.1 0.1 0.0 1.6 0.2 0.9 0.0 0.0 0.4 2.0 0.0 0.0 0.1 0.0 0.0 0.0 0.0 0.0 0.0 0.0 0.0 0.0 0.0 0.0 0.0 0.0
0.0 0.0 0.0 0.0 0.0 0.0 0.0 0.0 0.0 0.0 0.0 0.0 0.0 0.0 0.2 0.0 0.0 0.0 0.0 1.4 2.7 2.4 3.0 6.6 2.6 2.8 1.1 2.0 0.7 0.8 0.1 1.9 4.8 0.0 0.0 0.6 0.1 0.0 0.0 0.2 0.1 0.0 0.0 0.0 2.9 1.7 0.5 1.1 0.2 0.1 0.0 0.0 0.0 0.0
0.0 0.0 0.0 0.0 0.0 0.0 0.0 0.0 0.0 0.0 0.0 0.0 0.0 0.3 0.0 0.0 0.0 0.0 4.3 4.0 1.8 2.6 2.4 2.4 2.2 2.3 0.0 3.2 1.2 0.3 2.5 1.7 6.9 1.9 0.9 1.5 2.6 0.6 0.0 0.2 0.0 0.0 0.1 0.0 0.0 0.1 0.9 1.5 2.0 1.0 0.4 1.5 0.9 1.5
0.0 0.0 0.0 0.0 0.0 0.0 0.0 0.0 0.0 0.0 0.0 0.0 0.0 0.0 0.0 1.7 4.7 7.4 6.8 1.0 1.1 1.7 0.6 0.9 0.5 0.2 0.5 0.0 1.7 1.0 2.5 2.3 2.8 1.4 3.9 3.4 1.5 0.9 1.2 0.4 0.2 0.1 0.0 0.1 0.1 1.1 0.5 0.5 0.8 0.8 1.9 2.4 2.2 2.2
0.0 0.0 0.0 0.0 0.0 0.0 0.0 0.0 0.0 0.0 0.0 0.0 0.1 1.3 2.7 4.7 8.0 5.5 4.9 1.5 0.5 0.3 0.4 0.6 0.9 0.1 0.0 0.1 1.3 2.0 2.2 1.0 2.1 4.9 3.6 1.3 0.3 0.0 0.3 1.1 1.0 0.7 0.1 0.5 0.9 0.0 0.3 0.3 0.3 0.3 0.2 0.1 0.0 0.0
0.0 0.0 0.0 0.0 0.0 0.0 0.0 0.0 0.0 0.0 0.0 0.1 0.8 1.8 3.0 3.5 3.3 2.2 1.3 1.0 0.0 0.2 0.0 0.0 0.6 0.9 0.1 1.2 1.0 2.4 0.3 1.8 6.2 3.2 2.5 0.3 0.4 0.3 0.1 0.2 0.4 0.5 0.7 1.0 2.8 2.8 1.4 0.8 0.3 0.1 0.0 0.1 0.0 0.0
0.0 0.0 0.0 0.0 0.0 0.0 0.0 0.0 0.0 0.0 0.0 0.0 0.9 1.6 1.4 1.3 0.6 0.3 0.1 0.4 0.0 0.0 0.0 0.0 0.1 0.3 1.0 1.8 1.1 1.6 2.0 4.4 3.3 3.1 1.0 0.4 0.4 0.6 0.4 0.2 0.2 0.4 0.5 1.2 1.2 2.1 3.2 1.9 0.7 0.0 0.0 0.0 0.3 0.3
0.0 0.0 0.0 0.0 0.0 0.0 0.0 0.0 0.0 0.0 0.0 0.2 0.7 1.4 0.6 0.5 0.3 0.1 0.0 0.1 0.0 0.0 0.1 0.2 0.5 1.0 0.8 2.2 1.2 2.0 3.0 3.8 2.2 1.0 0.5 0.3 0.6 0.0 0.2 0.2 0.0 0.0 0.0 0.1 1.0 1.4 2.0 1.9 1.3 0.7 0.5 0.1 0.2 0.9
0.0 0.0 0.0 0.0 0.0 0.0 0.0 0.0 0.0 0.0 0.1 0.0 0.2 0.4 0.6 0.3 0.3 0.2 0.0 0.0 0.0 0.2 1.0 1.5 2.2 0.7 0.4 1.2 0.7 0.4 1.4 1.0 0.6 0.0 0.1 0.0 0.1 0.0 0.0 0.0 0.0 0.0 0.0 0.0 0.5 0.9 1.6 2.2 2.4 1.4 1.8 1.5 1.2 0.8
0.0 0.0 0.0 0.0 0.0 0.0 0.0 0.0 0.0 0.0 0.0 0.0 0.0 0.0 0.0 0.0 0.2 0.2 0.0 0.0 0.0 0.4 1.3 4.4 2.4 1.6 0.3 0.2 0.0 0.1 0.0 0.0 0.1 0.0 0.1 0.0 0.0 0.0 0.0 0.0 0.0 0.1 0.7 1.7 1.5 1.6 1.1 1.7 1.6 1.3 1.0 0.8 0.8 1.0
0.0 0.0 0.0 0.0 0.0 0.0 0.0 0.0 0.0 0.0 0.0 0.0 0.0 0.0 0.0 0.0 0.0 0.0 0.0 0.0 0.0 0.0 0.3 2.5 2.4 0.4 0.0 0.0 0.0 0.0 0.0 0.0 0.0 0.0 0.0 0.0 0.0 0.0 0.0 0.3 0.3 0.7 1.8 1.6 0.4 0.4 0.4 0.3 0.7 0.4 1.0 0.7 0.8 0.8
0.0 0.0 0.0 0.0 0.0 0.0 0.0 0.0 0.0 0.0 0.0 0.0 0.0 0.0 0.0 0.0 0.0 0.0 0.0 0.1 0.3 1.6 1.8 1.9 0.0 0.2 0.1 0.3 0.3 0.1 0.0 0.0 0.0 0.0 0.0 0.0 0.0 0.0 0.0 0.0 0.1 0.3 0.7 0.6 0.5 0.7 0.5 0.7 0.5 0.2 0.6 0.5 0.9 1.0
0.0 0.0 0.0 0.0 0.3 0.1 0.0 0.0 0.0 0.0 0.0 0.0 0.0 0.0 0.0 0.0 0.0 0.0 0.0 1.0 2.0 2.5 1.9 1.2 0.2 0.1 0.0 0.5 0.2 0.0 0.0 0.0 0.0 0.0 0.0 0.0 0.0 0.0 0.0 0.0 0.0 0.0 0.0 0.3 0.2 0.1 0.5 0.3 0.7 0.5 0.2 0.8 0.7 0.9
0.4 0.0 1.7 1.5 1.6 0.4 0.2 0.0 0.0 0.0 0.0 0.0 0.0 0.0 0.0 0.0 0.0 0.0 0.1 1.7 3.4 2.0 1.5 1.1 1.0 0.6 0.2 0.0 0.8 0.9 0.4 0.0 0.0 0.0 0.0 0.0 0.0 0.0 0.0 0.0 0.0 0.0 0.0 0.0 0.0 0.0 0.0 0.1 0.1 0.4 0.4 1.0 0.8 0.4
0.3 1.3 2.9 2.3 1.7 1.3 0.3 0.1 0.1 0.0 0.0 0.0 0.0 0.0 0.0 0.0 0.0 0.1 1.1 1.5 1.6 1.2 1.0 0.8 1.0 2.2 2.3 1.8 1.5 1.1 0.6 0.1 0.0 0.2 0.1 0.0 0.0 0.0 0.0 0.0 0.0 0.0 0.0 0.0 0.0 0.0 0.0 0.0 0.0 0.0 0.0 0.0 0.7 0.7
0.0 2.6 3.5 2.6 1.9 0.8 0.4 0.1 0.2 0.0 0.0 0.0 0.0 0.0 0.0 0.0 0.1 0.0 0.8 0.6 0.4 0.4 1.3 1.6 1.3 1.1 0.6 1.5 1.8 2.2 2.3 1.4 0.4 0.0 0.7 0.3 0.1 0.0 0.0 0.0 0.0 0.0 0.0 0.0 0.0 0.0 0.0 0.0 0.0 0.0 0.0 0.0 0.0 0.0
5.3 5.4 3.6 3.7 1.4 0.7 0.2 0.2 0.1 0.0 0.1 0.0 0.2 0.0 0.0 0.0 0.2 0.2 0.0 0.0 0.1 0.2 0.6 1.4 1.5 1.4 1.4 1.0 1.4 1.3 1.2 1.5 2.5 2.7 0.1 1.5 0.8 0.2 0.0 0.0 0.3 0.0 0.0 0.2 0.1 0.1 0.0 0.0 0.0 0.0 0.0 0.0 0.0 0.0
7.0 2.5 1.1 0.1 0.0 0.1 0.0 0.0 0.1 0.0 0.0 0.0 0.2 0.0 0.0 0.1 0.2 0.0 0.0 0.0 0.1 0.3 0.4 0.6 1.2 1.2 0.9 0.8 1.0 1.8 1.7 1.5 1.3 2.4 1.4 2.0 1.6 2.1 2.0 0.1 1.4 0.7 0.2 0.1 0.5 0.5 0.3 0.1 0.1 0.0 0.0 0.0 0.2 0.1
3.6 1.2 0.0 0.0 0.1 0.1 0.0 0.0 0.0 0.0 0.0 0.3 0.0 0.0 0.0 0.3 0.1 0.0 0.0 0.0 0.0 0.4 0.7 1.1 2.2 1.9 1.3 1.4 1.3 1.8 2.0 2.2 2.0 1.5 2.0 4.3 4.0 2.5 1.2 2.1 1.9 1.2 0.8 0.3 1.0 0.7 0.7 0.6 0.4 0.6 0.5 0.6 0.5 0.4
0.4 0.0 0.0 0.0 0.1 0.0 0.0 0.2 0.3 0.2 0.0 0.0 0.4 0.3 0.2 0.0 0.0 0.0 0.0 0.0 0.0 0.0 0.8 1.3 1.8 2.4 2.2 1.9 1.9 2.6 2.8 3.1 3.4 3.2 4.5 5.2 5.4 5.0 3.9 3.1 2.4 2.7 2.8 2.0 1.3 1.6 1.5 1.1 0.9 1.6 1.3 1.2 1.2 0.9
0.1 0.0 0.1 0.1 0.0 0.0 0.0 0.0 0.0 0.0 0.0 0.0 0.0 0.0 0.0 0.0 0.0 0.0 0.0 0.0 0.0 0.8 1.0 1.5 1.9 2.0 2.8 2.9 2.8 3.5 3.5 3.6 3.1 2.5 2.0 2.4 4.3 6.0 5.6 4.8 5.5 5.6 3.7 3.8 2.6 2.8 2.5 3.1 2.9 2.9 3.3 3.4 3.1 3.0
0.1 0.0 0.0 0.0 0.0 0.0 0.0 0.0 0.0 0.0 0.0 0.0 0.0 0.0 0.0 0.0 0.0 0.0 0.0 0.0 0.0 1.4 1.8 2.4 2.3 2.4 3.5 3.4 3.5 3.3 4.1 4.1 3.8 2.2 2.1 2.2 2.8 4.1 5.8 5.7 5.9 6.4 6.0 5.6 6.4 6.8 5.0 6.1 6.3 6.4 5.7 5.5 5.3 4.8
0.0 0.0 0.0 0.0 0.0 0.0 0.0 0.0 0.0 0.0 0.0 0.0 0.0 0.0 0.0 0.0 0.0 0.0 0.3 0.6 1.4 2.0 2.7 3.4 3.8 4.4 4.6 5.0 4.9 4.4 4.5 5.2 5.3 5.5 4.4 4.7 4.8 4.8 5.5 6.1 5.7 6.2 6.2 5.9 5.2 4.9 5.0 4.7 4.2 4.4 4.3 4.3 3.9 3.6
0.0 0.0 0.0 0.0 0.0 0.1 0.0 0.0 0.0 0.0 0.0 0.0 0.0 0.0 0.0 0.0 0.0 0.0 0.5 0.8 1.8 2.3 2.7 3.4 3.9 5.0 5.6 5.4 5.4 5.3 4.2 4.8 4.8 6.0 5.1 4.5 4.5 3.9 4.9 5.2 6.0 5.7 6.2 6.4 5.8 6.3 6.2 6.2 6.3 5.8 5.7 5.7 5.3 4.8
1.1 0.6 0.4 0.3 0.0 0.0 0.0 0.0 0.0 0.0 0.0 0.0 0.0 0.0 0.0 0.1 0.0 0.4 0.6 1.0 2.0 2.5 2.7 4.1 4.7 4.7 4.5 4.4 4.9 5.2 5.2 5.1 6.0 5.7 5.7 5.8 5.5 5.9 5.4 5.5 5.6 6.4 6.4 6.7 7.0 7.6 7.9 7.3 7.0 6.6 6.1 5.8 5.3 5.0

GFSWCAN_prec_kuchsnow_069.txt.gz
Snowfall_Accumulation
0.0 0.0 0.0 0.0 0.0 0.0 0.0 0.0 0.0 0.0 0.0 0.0 0.0 0.0 0.0 0.0 0.0 0.0 0.0 0.0 0.0 0.0 0.0 0.0 0.0 0.0 0.0 0.0 0.0 0.0 0.0 0.0 0.0 0.1 0.0 0.1 0.0 0.0 0.0 0.0 0.0 0.0 0.1 0.2 0.3 0.8 0.0 0.0 0.0 0.0 0.0 0.0 0.0 0.0
0.0 0.0 0.0 0.0 0.0 0.0 0.0 0.0 0.0 0.0 0.0 0.0 0.0 0.0 0.0 0.0 0.0 0.0 0.0 0.0 0.0 0.0 0.0 0.0 0.0 0.0 0.0 0.0 0.0 0.0 0.0 0.0 0.0 0.2 0.1 0.0 0.0 0.0 0.0 0.0 0.0 0.0 0.0 0.0 0.0 0.0 0.0 0.0 0.0 0.0 0.0 0.0 0.0 0.0
0.0 0.0 0.0 0.0 0.0 0.0 0.0 0.0 0.0 0.0 0.0 0.0 0.0 0.0 0.0 0.0 0.0 0.0 0.0 0.0 0.0 0.2 0.0 0.0 0.0 0.0 0.0 0.0 0.0 0.0 0.0 0.0 0.0 0.0 0.1 0.1 0.0 0.0 0.0 0.0 0.0 0.0 0.0 0.0 0.0 0.0 0.0 0.0 0.0 0.0 0.0 0.0 0.0 0.0
0.0 0.0 0.0 0.0 0.0 0.0 0.0 0.0 0.0 0.0 0.0 0.0 0.0 0.0 0.0 0.0 0.0 0.0 0.0 0.0 0.0 0.2 1.5 0.0 0.0 0.0 0.0 0.0 0.0 0.0 0.0 0.0 0.0 0.4 0.5 0.2 0.2 0.0 0.0 0.0 0.0 0.0 0.0 0.0 0.0 0.0 0.0 0.0 0.0 0.0 0.0 0.0 0.0 0.0
0.0 0.0 0.0 0.0 0.0 0.0 0.0 0.0 0.0 0.0 0.0 0.0 0.0 0.0 0.0 0.0 0.0 0.0 0.0 0.0 0.0 0.3 2.2 0.7 0.0 0.0 0.0 0.0 0.0 0.0 0.0 0.0 0.2 0.7 1.3 0.7 0.0 0.0 0.0 0.0 0.0 0.0 0.0 0.0 0.0 0.0 0.0 0.0 0.0 0.0 0.0 0.0 0.0 0.0
0.0 0.0 0.0 0.0 0.0 0.0 0.0 0.0 0.0 0.0 0.0 0.0 0.0 0.0 0.0 0.0 0.0 0.0 0.0 0.0 0.0 0.0 2.6 3.1 0.0 0.0 0.0 0.0 0.0 0.0 0.0 0.0 0.8 0.3 1.6 0.0 0.0 0.0 0.9 0.1 0.0 0.0 0.0 0.0 0.0 0.0 0.0 0.0 0.0 0.0 0.0 0.0 0.0 0.0
0.0 0.0 0.0 0.0 0.0 0.0 0.0 0.0 0.0 0.0 0.0 0.0 0.0 0.0 0.0 0.0 0.0 0.1 0.1 0.0 0.0 0.0 2.6 7.8 4.1 0.1 0.0 0.0 0.0 0.0 0.0 0.0 1.2 1.1 0.0 0.8 0.2 1.1 1.0 0.0 0.0 0.0 0.0 0.0 0.0 0.0 0.0 0.0 0.0 0.0 0.0 0.0 0.0 0.0
0.0 0.0 0.0 0.0 0.0 0.0 0.0 0.0 0.0 0.0 0.0 0.0 0.0 0.0 0.0 0.0 0.0 0.0 0.0 0.0 0.0 1.5 4.2 11.3 8.8 4.6 0.0 0.0 0.1 0.0 0.0 0.0 1.9 0.7 0.0 0.1 0.0 0.7 1.2 0.0 0.0 0.0 0.0 0.0 0.0 0.0 0.0 0.0 0.0 0.0 0.0 0.0 0.0 0.0
0.0 0.0 0.0 0.0 0.0 0.0 0.0 0.0 0.0 0.0 0.0 0.0 0.0 0.0 0.0 0.0 0.0 0.0 0.0 0.0 0.0 0.1 7.2 6.3 10.1 6.4 0.2 0.1 0.1 0.1 0.0 1.6 0.2 0.9 0.0 0.0 0.4 2.0 0.0 0.0 0.1 0.0 0.0 0.0 0.0 0.0 0.0 0.0 0.0 0.0 0.0 0.0 0.0 0.0
0.0 0.0 0.0 0.0 0.0 0.0 0.0 0.0 0.0 0.0 0.0 0.0 0.0 0.0 0.2 0.0 0.0 0.0 0.0 1.4 2.7 2.4 3.0 6.6 2.6 2.8 1.1 2.0 0.7 0.8 0.1 1.9 4.8 0.0 0.0 0.6 0.1 0.0 0.0 0.2 0.1 0.0 0.0 0.0 2.9 1.7 0.5 1.1 0.2 0.1 0.0 0.0 0.0 0.0
0.0 0.0 0.0 0.0 0.0 0.0 0.0 0.0 0.0 0.0 0.0 0.0 0.0 0.3 0.0 0.0 0.0 0.0 4.3 4.0 1.8 2.6 2.4 2.4 2.2 2.3 0.0 3.2 1.2 0.3 2.5 1.7 6.9 1.9 0.9 1.5 2.6 0.6 0.0 0.2 0.0 0.0 0.1 0.0 0.0 0.1 0.9 1.5 2.0 1.0 0.4 1.5 0.9 1.5
0.0 0.0 0.0 0.0 0.0 0.0 0.0 0.0 0.0 0.0 0.0 0.0 0.0 0.0 0.0 1.7 4.7 7.4 6.8 1.0 1.1 1.7 0.6 0.9 0.5 0.2 0.5 0.0 1.7 1.0 2.5 2.3 2.8 1.4 3.9 3.4 1.5 0.9 1.2 0.4 0.2 0.1 0.0 0.1 0.1 1.1 0.5 0.5 0.8 0.8 1.9 2.4 2.2 2.2
0.0 0.0 0.0 0.0 0.0 0.0 0.0 0.0 0.0 0.0 0.0 0.0 0.1 1.3 2.7 4.7 8.0 5.5 4.9 1.5 0.5 0.3 0.4 0.6 0.9 0.1 0.0 0.1 1.3 2.0 2.2 1.0 2.1 4.9 3.6 1.3 0.3 0.0 0.3 1.1 1.0 0.7 0.1 0.5 0.9 0.0 0.3 0.3 0.3 0.3 0.2 0.1 0.0 0.0
0.0 0.0 0.0 0.0 0.0 0.0 0.0 0.0 0.0 0.0 0.0 0.1 0.8 1.8 3.0 3.5 3.3 2.2 1.3 1.0 0.0 0.2 0.0 0.0 0.6 0.9 0.1 1.2 1.0 2.4 0.3 1.8 6.2 3.2 2.5 0.3 0.4 0.3 0.1 0.2 0.4 0.5 0.7 1.0 2.8 2.8 1.4 0.8 0.3 0.1 0.0 0.1 0.0 0.0
0.0 0.0 0.0 0.0 0.0 0.0 0.0 0.0 0.0 0.0 0.0 0.0 0.9 1.6 1.4 1.3 0.6 0.3 0.1 0.4 0.0 0.0 0.0 0.0 0.1 0.3 1.0 1.8 1.1 1.6 2.0 4.4 3.3 3.1 1.0 0.4 0.4 0.6 0.4 0.2 0.2 0.4 0.5 1.2 1.2 2.1 3.2 1.9 0.7 0.0 0.0 0.0 0.3 0.3
0.0 0.0 0.0 0.0 0.0 0.0 0.0 0.0 0.0 0.0 0.0 0.2 0.7 1.4 0.6 0.5 0.3 0.1 0.0 0.1 0.0 0.0 0.1 0.2 0.5 1.0 0.8 2.2 1.2 2.0 3.0 3.8 2.2 1.0 0.5 0.3 0.6 0.0 0.2 0.2 0.0 0.0 0.0 0.1 1.0 1.4 2.0 1.9 1.3 0.7 0.5 0.1 0.2 0.9
0.0 0.0 0.0 0.0 0.0 0.0 0.0 0.0 0.0 0.0 0.1 0.0 0.2 0.4 0.6 0.3 0.3 0.2 0.0 0.0 0.0 0.2 1.0 1.5 2.2 0.7 0.4 1.2 0.7 0.4 1.4 1.0 0.6 0.0 0.1 0.0 0.1 0.0 0.0 0.0 0.0 0.0 0.0 0.0 0.5 0.9 1.6 2.2 2.4 1.4 1.8 1.5 1.2 0.8
0.0 0.0 0.0 0.0 0.0 0.0 0.0 0.0 0.0 0.0 0.0 0.0 0.0 0.0 0.0 0.0 0.2 0.2 0.0 0.0 0.0 0.4 1.3 4.4 2.4 1.6 0.3 0.2 0.0 0.1 0.0 0.0 0.1 0.0 0.1 0.0 0.0 0.0 0.0 0.0 0.0 0.1 0.7 1.7 1.5 1.6 1.1 1.7 1.6 1.3 1.0 0.8 0.8 1.0
0.0 0.0 0.0 0.0 0.0 0.0 0.0 0.0 0.0 0.0 0.0 0.0 0.0 0.0 0.0 0.0 0.0 0.0 0.0 0.0 0.0 0.0 0.3 2.5 2.4 0.4 0.0 0.0 0.0 0.0 0.0 0.0 0.0 0.0 0.0 0.0 0.0 0.0 0.0 0.3 0.3 0.7 1.8 1.6 0.4 0.4 0.4 0.3 0.7 0.4 1.0 0.7 0.8 0.8
0.0 0.0 0.0 0.0 0.0 0.0 0.0 0.0 0.0 0.0 0.0 0.0 0.0 0.0 0.0 0.0 0.0 0.0 0.0 0.1 0.3 1.6 1.8 1.9 0.0 0.2 0.1 0.3 0.3 0.1 0.0 0.0 0.0 0.0 0.0 0.0 0.0 0.0 0.0 0.0 0.1 0.3 0.7 0.6 0.5 0.7 0.5 0.7 0.5 0.2 0.6 0.5 0.9 1.0
0.0 0.0 0.0 0.0 0.3 0.1 0.0 0.0 0.0 0.0 0.0 0.0 0.0 0.0 0.0 0.0 0.0 0.0 0.0 1.0 2.0 2.5 1.9 1.2 0.2 0.1 0.0 0.5 0.2 0.0 0.0 0.0 0.0 0.0 0.0 0.0 0.0 0.0 0.0 0.0 0.0 0.0 0.0 0.3 0.2 0.1 0.5 0.3 0.7 0.5 0.2 0.8 0.7 0.9
0.4 0.0 1.7 1.5 1.6 0.4 0.2 0.0 0.0 0.0 0.0 0.0 0.0 0.0 0.0 0.0 0.0 0.0 0.1 1.7 3.4 2.0 1.5 1.1 1.0 0.6 0.2 0.0 0.8 0.9 0.4 0.0 0.0 0.0 0.0 0.0 0.0 0.0 0.0 0.0 0.0 0.0 0.0 0.0 0.0 0.0 0.0 0.1 0.1 0.4 0.4 1.0 0.8 0.4
0.3 1.3 2.9 2.3 1.7 1.3 0.3 0.1 0.1 0.0 0.0 0.0 0.0 0.0 0.1 0.0 0.0 0.1 1.1 1.5 1.6 1.2 1.0 0.8 1.0 2.2 2.3 1.8 1.5 1.1 0.6 0.1 0.0 0.2 0.1 0.0 0.0 0.0 0.0 0.0 0.0 0.0 0.0 0.0 0.0 0.0 0.0 0.0 0.0 0.0 0.0 0.0 0.7 0.7
0.0 2.7 3.5 2.7 1.9 0.8 0.4 0.1 0.2 0.0 0.0 0.0 0.0 0.0 0.0 0.0 0.1 0.0 0.8 0.6 0.4 0.4 1.3 1.6 1.3 1.1 0.6 1.5 1.8 2.2 2.3 1.4 0.4 0.0 0.7 0.3 0.1 0.0 0.0 0.0 0.0 0.0 0.0 0.0 0.0 0.0 0.0 0.0 0.0 0.0 0.0 0.0 0.0 0.0
5.4 5.6 3.6 3.7 1.4 0.7 0.2 0.2 0.1 0.0 0.1 0.0 0.2 0.0 0.0 0.0 0.2 0.2 0.0 0.0 0.1 0.2 0.6 1.4 1.5 1.4 1.4 1.0 1.4 1.3 1.2 1.5 2.5 2.7 0.1 1.5 0.8 0.2 0.0 0.0 0.3 0.0 0.0 0.2 0.1 0.1 0.0 0.0 0.0 0.0 0.0 0.0 0.0 0.0
7.2 2.5 1.1 0.1 0.0 0.1 0.0 0.0 0.1 0.0 0.1 0.1 0.2 0.0 0.0 0.1 0.2 0.0 0.0 0.0 0.1 0.3 0.4 0.6 1.2 1.2 0.9 0.8 1.0 1.8 1.7 1.5 1.3 2.4 1.4 2.0 1.6 2.1 2.0 0.2 1.5 0.7 0.2 0.1 0.6 0.6 0.3 0.1 0.1 0.0 0.0 0.0 0.2 0.1
3.6 1.2 0.0 0.0 0.1 0.1 0.0 0.0 0.1 0.0 0.0 0.3 0.0 0.0 0.0 0.3 0.1 0.0 0.0 0.0 0.0 0.4 0.7 1.1 2.2 1.9 1.3 1.4 1.3 1.8 2.0 2.2 2.0 1.5 2.0 4.3 4.0 2.5 1.2 2.1 1.9 1.2 0.9 0.4 1.1 0.8 0.8 0.7 0.5 0.6 0.6 0.7 0.5 0.6
0.4 0.0 0.0 0.0 0.1 0.0 0.1 0.3 0.3 0.2 0.0 0.0 0.4 0.3 0.2 0.0 0.0 0.0 0.0 0.0 0.0 0.0 0.8 1.3 1.8 2.4 2.2 1.9 1.9 2.6 2.8 3.1 3.4 3.2 4.5 5.2 5.4 5.0 3.9 3.1 2.4 2.7 2.8 2.0 1.5 1.9 1.7 1.4 1.0 1.8 1.5 1.4 1.3 1.1
0.1 0.0 0.1 0.1 0.0 0.1 0.1 0.0 0.0 0.0 0.0 0.0 0.0 0.0 0.0 0.0 0.0 0.0 0.0 0.0 0.0 0.8 1.0 1.5 1.9 2.0 2.8 2.9 2.8 3.5 3.5 3.6 3.1 2.5 2.0 2.4 4.3 6.0 5.6 4.8 5.5 5.6 3.7 3.8 2.6 3.0 2.7 3.3 3.1 3.2 3.5 3.6 3.3 3.2
0.1 0.0 0.0 0.1 0.0 0.1 0.0 0.0 0.0 0.0 0.0 0.0 0.0 0.0 0.0 0.0 0.0 0.0 0.0 0.0 0.0 1.4 1.8 2.4 2.3 2.4 3.5 3.4 3.5 3.3 4.1 4.1 3.8 2.2 2.1 2.2 2.8 4.1 5.8 5.8 5.9 6.4 6.0 5.6 6.4 6.8 5.0 6.1 6.3 6.4 5.7 5.5 5.3 4.8
0.1 0.0 0.0 0.0 0.0 0.0 0.0 0.0 0.0 0.0 0.0 0.0 0.0 0.0 0.0 0.0 0.0 0.0 0.3 0.6 1.4 2.0 2.7 3.4 3.8 4.4 4.6 5.0 4.9 4.4 4.5 5.2 5.3 5.5 4.4 4.8 4.8 4.8 5.5 6.2 5.8 6.3 6.3 5.9 5.2 4.9 5.0 4.7 4.2 4.4 4.3 4.3 3.9 3.6
0.0 0.0 0.0 0.0 0.0 0.1 0.0 0.0 0.0 0.0 0.0 0.0 0.0 0.0 0.0 0.0 0.0 0.0 0.5 0.8 1.8 2.3 2.7 3.4 3.9 5.0 5.6 5.4 5.4 5.3 4.2 4.8 4.8 6.0 5.1 4.5 4.5 3.9 4.9 5.6 6.1 5.7 6.2 6.4 5.8 6.3 6.2 6.2 6.3 5.8 5.7 5.7 5.3 4.8
1.1 0.6 0.4 0.3 0.0 0.0 0.0 0.0 0.0 0.0 0.0 0.0 0.0 0.0 0.0 0.1 0.0 0.4 0.6 1.0 2.0 2.5 2.7 4.1 4.7 4.7 4.5 4.4 4.9 5.2 5.2 5.1 6.0 5.7 5.7 5.9 5.6 6.0 5.4 5.5 5.7 6.4 6.4 6.7 7.0 7.6 7.9 7.3 7.0 6.6 6.1 5.8 5.3 5.0

GFSWCAN_prec_kuchsnow_072.txt.gz
Snowfall_Accumulation
0.0 0.0 0.0 0.0 0.0 0.0 0.0 0.0 0.0 0.0 0.0 0.0 0.0 0.0 0.0 0.0 0.0 0.0 0.0 0.0 0.0 0.0 0.0 0.0 0.0 0.0 0.0 0.0 0.0 0.0 0.0 0.0 0.0 0.1 0.0 0.1 0.0 0.0 0.0 0.0 0.0 0.0 0.1 0.2 0.3 0.8 0.0 0.0 0.0 0.0 0.0 0.0 0.0 0.0
0.0 0.0 0.0 0.0 0.0 0.0 0.0 0.0 0.0 0.0 0.0 0.0 0.0 0.0 0.0 0.0 0.0 0.0 0.0 0.0 0.0 0.0 0.0 0.0 0.0 0.0 0.0 0.0 0.0 0.0 0.0 0.0 0.0 0.2 0.1 0.0 0.0 0.0 0.0 0.0 0.0 0.0 0.0 0.0 0.0 0.0 0.0 0.0 0.0 0.0 0.0 0.0 0.0 0.0
0.0 0.0 0.0 0.0 0.0 0.0 0.0 0.0 0.0 0.0 0.0 0.0 0.0 0.0 0.0 0.0 0.0 0.0 0.0 0.0 0.0 0.2 0.0 0.0 0.0 0.0 0.0 0.0 0.0 0.0 0.0 0.0 0.0 0.0 0.1 0.1 0.0 0.0 0.0 0.0 0.0 0.0 0.0 0.0 0.0 0.0 0.0 0.0 0.0 0.0 0.0 0.0 0.0 0.0
0.0 0.0 0.0 0.0 0.0 0.0 0.0 0.0 0.0 0.0 0.0 0.0 0.0 0.0 0.0 0.0 0.0 0.0 0.0 0.0 0.0 0.2 1.5 0.0 0.0 0.0 0.0 0.0 0.0 0.0 0.0 0.0 0.0 0.4 0.5 0.2 0.2 0.0 0.0 0.0 0.0 0.0 0.0 0.0 0.0 0.0 0.0 0.0 0.0 0.0 0.0 0.0 0.0 0.0
0.0 0.0 0.0 0.0 0.0 0.0 0.0 0.0 0.0 0.0 0.0 0.0 0.0 0.0 0.0 0.0 0.0 0.0 0.0 0.0 0.0 0.3 2.2 0.7 0.0 0.0 0.0 0.0 0.0 0.0 0.0 0.0 0.2 0.7 1.3 0.7 0.0 0.0 0.0 0.0 0.0 0.0 0.0 0.0 0.0 0.0 0.0 0.0 0.0 0.0 0.0 0.0 0.0 0.0
0.0 0.0 0.0 0.0 0.0 0.0 0.0 0.0 0.0 0.0 0.0 0.0 0.0 0.0 0.0 0.0 0.0 0.0 0.0 0.0 0.0 0.0 2.6 3.1 0.0 0.0 0.0 0.0 0.0 0.0 0.0 0.0 0.8 0.3 1.6 0.0 0.0 0.0 0.9 0.1 0.0 0.0 0.0 0.0 0.0 0.0 0.0 0.0 0.0 0.0 0.0 0.0 0.0 0.0
0.0 0.0 0.0 0.0 0.0 0.0 0.0 0.0 0.0 0.0 0.0 0.0 0.0 0.0 0.0 0.0 0.0 0.1 0.1 0.0 0.0 0.0 2.6 7.8 4.1 0.1 0.0 0.0 0.0 0.0 0.0 0.0 1.2 1.1 0.0 0.8 0.2 1.1 1.0 0.0 0.0 0.0 0.0 0.0 0.0 0.0 0.0 0.0 0.0 0.0 0.0 0.0 0.0 0.0
0.0 0.0 0.0 0.0 0.0 0.0 0.0 0.0 0.0 0.0 0.0 0.0 0.0 0.0 0.0 0.0 0.0 0.0 0.0 0.0 0.0 1.5 4.2 11.3 8.8 4.6 0.0 0.0 0.1 0.0 0.0 0.0 1.9 0.7 0.0 0.1 0.0 0.7 1.2 0.0 0.0 0.0 0.0 0.0 0.0 0.0 0.0 0.0 0.0 0.0 0.0 0.0 0.0 0.0
0.0 0.0 0.0 0.0 0.0 0.0 0.0 0.0 0.0 0.0 0.0 0.0 0.0 0.0 0.0 0.0 0.0 0.0 0.0 0.0 0.0 0.1 7.2 6.3 10.1 6.4 0.2 0.1 0.1 0.1 0.0 1.6 0.2 0.9 0.0 0.0 0.4 2.0 0.0 0.0 0.1 0.0 0.0 0.0 0.0 0.0 0.0 0.0 0.0 0.0 0.0 0.0 0.0 0.0
0.0 0.0 0.0 0.0 0.0 0.0 0.0 0.0 0.0 0.0 0.0 0.0 0.0 0.0 0.2 0.0 0.0 0.0 0.0 1.4 2.7 2.4 3.0 6.6 2.6 2.8 1.1 2.0 0.7 0.8 0.1 1.9 4.8 0.0 0.0 0.6 0.1 0.0 0.0 0.2 0.1 0.0 0.0 0.0 2.9 1.7 0.5 1.1 0.2 0.1 0.0 0.0 0.0 0.0
0.0 0.0 0.0 0.0 0.0 0.0 0.0 0.0 0.0 0.0 0.0 0.0 0.0 0.3 0.0 0.0 0.0 0.0 4.3 4.0 1.8 2.6 2.4 2.4 2.2 2.3 0.0 3.2 1.2 0.3 2.5 1.7 6.9 1.9 0.9 1.5 2.6 0.6 0.0 0.2 0.0 0.0 0.1 0.0 0.0 0.1 0.9 1.5 2.0 1.0 0.4 1.5 0.9 1.5
0.0 0.0 0.0 0.0 0.0 0.0 0.0 0.0 0.0 0.0 0.0 0.0 0.0 0.0 0.0 1.7 4.7 7.4 6.9 1.0 1.1 1.7 0.6 0.9 0.5 0.2 0.5 0.0 1.7 1.0 2.5 2.3 2.8 1.4 3.9 3.4 1.5 0.9 1.2 0.4 0.2 0.1 0.0 0.1 0.1 1.1 0.5 0.5 0.8 0.8 1.9 2.4 2.2 2.2
0.0 0.0 0.0 0.0 0.0 0.0 0.0 0.0 0.0 0.0 0.0 0.0 0.1 1.3 2.7 4.7 8.0 5.5 4.9 1.5 0.5 0.3 0.4 0.6 0.9 0.1 0.0 0.1 1.3 2.0 2.2 1.0 2.1 4.9 3.6 1.3 0.3 0.0 0.3 1.1 1.0 0.7 0.1 0.5 0.9 0.0 0.3 0.3 0.3 0.3 0.2 0.1 0.0 0.0
0.0 0.0 0.0 0.0 0.0 0.0 0.0 0.0 0.0 0.0 0.0 0.1 0.8 1.8 3.0 3.5 3.3 2.2 1.3 1.0 0.0 0.2 0.0 0.0 0.6 0.9 0.1 1.2 1.0 2.4 0.3 1.8 6.2 3.2 2.5 0.3 0.4 0.3 0.1 0.2 0.4 0.5 0.7 1.0 2.8 2.8 1.4 0.8 0.3 0.1 0.0 0.1 0.0 0.0
0.0 0.0 0.0 0.0 0.0 0.0 0.0 0.0 0.0 0.0 0.0 0.0 0.9 1.6 1.4 1.3 0.6 0.3 0.1 0.4 0.0 0.0 0.0 0.0 0.1 0.3 1.0 1.8 1.1 1.6 2.0 4.4 3.3 3.1 1.0 0.4 0.4 0.6 0.4 0.2 0.2 0.4 0.5 1.2 1.2 2.1 3.2 1.9 0.7 0.0 0.0 0.0 0.3 0.3
0.0 0.0 0.0 0.0 0.0 0.0 0.0 0.0 0.0 0.0 0.0 0.2 0.7 1.4 0.6 0.5 0.3 0.1 0.0 0.1 0.0 0.0 0.1 0.2 0.5 1.0 0.8 2.2 1.2 2.0 3.0 3.8 2.2 1.0 0.5 0.3 0.6 0.0 0.2 0.2 0.0 0.0 0.0 0.1 1.0 1.4 2.0 1.9 1.3 0.7 0.5 0.1 0.2 0.9
0.0 0.0 0.0 0.0 0.0 0.0 0.0 0.0 0.0 0.0 0.1 0.0 0.2 0.4 0.6 0.3 0.3 0.2 0.0 0.0 0.0 0.2 1.0 1.5 2.2 0.7 0.4 1.2 0.7 0.4 1.4 1.0 0.6 0.0 0.1 0.0 0.1 0.0 0.0 0.0 0.0 0.0 0.0 0.0 0.5 0.9 1.6 2.2 2.4 1.4 1.8 1.5 1.2 0.8
0.0 0.0 0.0 0.0 0.0 0.0 0.0 0.0 0.0 0.0 0.0 0.0 0.0 0.0 0.0 0.0 0.2 0.2 0.0 0.0 0.0 0.4 1.3 4.4 2.4 1.6 0.3 0.2 0.0 0.1 0.0 0.0 0.1 0.0 0.1 0.0 0.0 0.0 0.0 0.0 0.0 0.1 0.7 1.7 1.5 1.6 1.1 1.7 1.6 1.3 1.0 0.8 0.8 1.0
0.0 0.0 0.0 0.0 0.0 0.0 0.3 0.1 0.0 0.0 0.0 0.0 0.0 0.0 0.0 0.0 0.0 0.0 0.0 0.0 0.0 0.0 0.3 2.5 2.4 0.4 0.0 0.0 0.0 0.0 0.0 0.0 0.0 0.0 0.0 0.0 0.0 0.0 0.0 0.3 0.3 0.7 1.8 1.6 0.4 0.4 0.4 0.3 0.7 0.4 1.0 0.7 0.8 0.8
0.0 0.0 0.0 0.0 0.0 0.0 0.0 0.0 0.0 0.0 0.0 0.0 0.0 0.0 0.0 0.0 0.0 0.0 0.0 0.1 0.3 1.6 1.8 1.9 0.0 0.2 0.1 0.3 0.3 0.1 0.0 0.0 0.0 0.0 0.0 0.0 0.0 0.0 0.0 0.0 0.1 0.3 0.7 0.6 0.5 0.7 0.5 0.7 0.5 0.2 0.6 0.5 0.9 1.0
0.0 0.0 0.0 0.0 0.3 0.1 0.0 0.0 0.0 0.0 0.0 0.0 0.0 0.0 0.0 0.0 0.0 0.0 0.0 1.0 2.0 2.5 1.9 1.2 0.2 0.1 0.0 0.5 0.2 0.0 0.0 0.0 0.0 0.0 0.0 0.0 0.0 0.0 0.0 0.0 0.0 0.0 0.0 0.3 0.2 0.1 0.5 0.3 0.7 0.5 0.2 0.8 0.7 0.9
0.4 0.0 2.4 1.5 1.6 0.4 0.2 0.0 0.0 0.0 0.0 0.0 0.0 0.0 0.0 0.0 0.0 0.0 0.1 1.7 3.4 2.0 1.5 1.1 1.0 0.6 0.2 0.0 0.8 0.9 0.4 0.0 0.0 0.0 0.0 0.0 0.0 0.0 0.0 0.0 0.0 0.0 0.0 0.0 0.0 0.0 0.0 0.1 0.1 0.5 0.5 1.1 0.9 0.4
0.3 1.3 2.9 2.3 1.8 1.3 0.3 0.1 0.1 0.0 0.0 0.0 0.0 0.0 0.1 0.0 0.0 0.1 1.1 1.5 1.6 1.2 1.0 0.8 1.0 2.2 2.3 1.8 1.5 1.1 0.6 0.1 0.0 0.2 0.1 0.0 0.0 0.0 0.0 0.0 0.0 0.0 0.0 0.0 0.0 0.0 0.0 0.0 0.0 0.0 0.0 0.0 0.7 0.7
0.0 3.3 3.7 2.8 1.9 0.9 0.5 0.1 0.2 0.0 0.0 0.0 0.0 0.0 0.0 0.0 0.1 0.0 0.8 0.6 0.4 0.4 1.3 1.6 1.3 1.1 0.6 1.5 1.8 2.2 2.3 1.4 0.4 0.0 0.7 0.3 0.1 0.0 0.0 0.0 0.0 0.0 0.0 0.0 0.0 0.0 0.0 0.0 0.0 0.0 0.0 0.0 0.0 0.0
6.0 6.1 3.9 3.8 1.4 0.7 0.2 0.2 0.1 0.0 0.1 0.0 0.2 0.0 0.1 0.0 0.2 0.2 0.0 0.0 0.1 0.2 0.6 1.4 1.5 1.4 1.4 1.0 1.4 1.3 1.2 1.5 2.5 2.7 0.1 1.5 0.8 0.2 0.0 0.0 0.3 0.0 0.0 0.2 0.1 0.1 0.0 0.0 0.0 0.0 0.0 0.0 0.0 0.0
8.0 2.8 1.1 0.1 0.0 0.1 0.0 0.0 0.1 0.0 0.1 0.1 0.3 0.0 0.0 0.1 0.2 0.0 0.0 0.0 0.1 0.3 0.4 0.6 1.2 1.2 0.9 0.8 1.0 1.8 1.7 1.5 1.3 2.4 1.4 2.0 1.6 2.1 2.1 0.2 1.5 0.7 0.2 0.1 0.7 0.7 0.3 0.1 0.1 0.0 0.0 0.1 0.4 0.3
3.7 1.2 0.0 0.0 0.1 0.1 0.0 0.0 0.1 0.0 0.3 0.4 0.0 0.0 0.0 0.3 0.1 0.0 0.0 0.0 0.0 0.4 0.7 1.1 2.2 1.9 1.3 1.4 1.3 1.8 2.0 2.2 2.0 1.5 2.0 4.3 4.0 2.5 1.2 2.1 1.9 1.2 0.9 0.5 1.2 0.9 1.0 0.9 0.6 0.6 0.6 0.7 0.5 0.8
0.4 0.0 0.0 0.0 0.1 0.0 0.1 0.3 0.5 0.4 0.2 0.0 0.4 0.3 0.2 0.0 0.0 0.0 0.0 0.0 0.0 0.0 0.8 1.3 1.8 2.4 2.2 1.9 1.9 2.6 2.8 3.1 3.4 3.2 4.5 5.2 5.4 5.0 3.9 3.1 2.4 2.7 2.8 2.0 1.7 2.1 1.9 1.5 1.2 1.9 1.6 1.4 1.3 1.1
0.1 0.0 0.1 0.1 0.0 0.1 0.2 0.3 0.2 0.0 0.0 0.0 0.0 0.0 0.0 0.0 0.0 0.0 0.0 0.0 0.0 0.8 1.0 1.5 1.9 2.0 2.8 2.9 2.8 3.5 3.5 3.6 3.1 2.5 2.0 2.4 4.3 6.0 5.6 4.8 5.5 5.6 3.7 3.8 2.6 3.0 2.9 3.5 3.3 3.4 3.7 3.6 3.3 3.3
0.1 0.0 0.0 0.1 0.0 0.1 0.2 0.1 0.0 0.0 0.0 0.0 0.0 0.0 0.0 0.0 0.0 0.0 0.0 0.0 0.0 1.4 1.8 2.4 2.3 2.4 3.5 3.4 3.5 3.3 4.1 4.1 3.8 2.2 2.1 2.2 2.8 4.1 5.8 5.8 5.9 6.4 6.0 5.6 6.4 6.8 5.0 6.1 6.3 6.4 5.7 5.5 5.4 4.8
0.1 0.0 0.0 0.0 0.0 0.2 0.1 0.0 0.0 0.0 0.0 0.0 0.0 0.0 0.0 0.0 0.0 0.0 0.3 0.6 1.4 2.0 2.7 3.4 3.8 4.4 4.6 5.0 4.9 4.4 4.5 5.2 5.3 5.5 4.4 4.8 4.8 4.8 5.5 6.3 5.8 6.4 6.4 5.9 5.2 4.9 5.0 4.7 4.2 4.4 4.3 4.3 3.9 3.6
0.0 0.0 0.0 0.1 0.1 0.1 0.0 0.0 0.0 0.0 0.0 0.0 0.0 0.0 0.0 0.0 0.0 0.0 0.5 0.8 1.8 2.3 2.7 3.4 3.9 5.0 5.6 5.4 5.4 5.3 4.2 4.8 4.8 6.0 5.1 4.5 4.5 3.9 5.1 5.6 6.2 5.7 6.2 6.4 5.8 6.3 6.2 6.2 6.3 5.8 5.7 5.7 5.3 4.8
1.1 0.6 0.5 0.4 0.0 0.0 0.0 0.0 0.0 0.0 0.0 0.0 0.0 0.0 0.0 0.1 0.0 0.4 0.6 1.0 2.0 2.5 2.7 4.1 4.7 4.7 4.5 4.4 4.9 5.2 5.2 5.1 6.0 5.7 5.7 5.9 5.7 6.2 5.4 5.5 5.7 6.4 6.4 6.7 7.0 7.6 7.9 7.3 7.0 6.6 6.1 5.8 5.3 5.0

GFSWCAN_prec_kuchsnow_075.txt.gz
Snowfall_Accumulation
0.0 0.0 0.0 0.0 0.0 0.0 0.0 0.0 0.0 0.0 0.0 0.0 0.0 0.0 0.0 0.0 0.0 0.0 0.0 0.0 0.0 0.0 0.0 0.0 0.0 0.0 0.0 0.0 0.0 0.0 0.0 0.0 0.0 0.1 0.0 0.1 0.0 0.0 0.0 0.0 0.0 0.0 0.1 0.2 0.3 0.8 0.0 0.0 0.0 0.0 0.0 0.0 0.0 0.0
0.0 0.0 0.0 0.0 0.0 0.0 0.0 0.0 0.0 0.0 0.0 0.0 0.0 0.0 0.0 0.0 0.0 0.0 0.0 0.0 0.0 0.0 0.0 0.0 0.0 0.0 0.0 0.0 0.0 0.0 0.0 0.0 0.0 0.2 0.1 0.0 0.0 0.0 0.0 0.0 0.0 0.0 0.0 0.0 0.0 0.0 0.0 0.0 0.0 0.0 0.0 0.0 0.0 0.0
0.0 0.0 0.0 0.0 0.0 0.0 0.0 0.0 0.0 0.0 0.0 0.0 0.0 0.0 0.0 0.0 0.0 0.0 0.0 0.0 0.0 0.2 0.0 0.0 0.0 0.0 0.0 0.0 0.0 0.0 0.0 0.0 0.0 0.0 0.1 0.1 0.0 0.0 0.0 0.0 0.0 0.0 0.0 0.0 0.0 0.0 0.0 0.0 0.0 0.0 0.0 0.0 0.0 0.0
0.0 0.0 0.0 0.0 0.0 0.0 0.0 0.0 0.0 0.0 0.0 0.0 0.0 0.0 0.0 0.0 0.0 0.0 0.0 0.0 0.0 0.2 1.5 0.0 0.0 0.0 0.0 0.0 0.0 0.0 0.0 0.0 0.0 0.4 0.5 0.2 0.2 0.0 0.0 0.0 0.0 0.0 0.0 0.0 0.0 0.0 0.0 0.0 0.0 0.0 0.0 0.0 0.0 0.0
0.0 0.0 0.0 0.0 0.0 0.0 0.0 0.0 0.0 0.0 0.0 0.0 0.0 0.0 0.0 0.0 0.0 0.0 0.0 0.0 0.0 0.3 2.2 0.7 0.0 0.0 0.0 0.0 0.0 0.0 0.0 0.0 0.2 0.7 1.3 0.7 0.0 0.0 0.0 0.0 0.0 0.0 0.0 0.0 0.0 0.0 0.0 0.0 0.0 0.0 0.0 0.0 0.0 0.0
0.0 0.0 0.0 0.0 0.0 0.0 0.0 0.0 0.0 0.0 0.0 0.0 0.0 0.0 0.0 0.0 0.0 0.0 0.0 0.0 0.0 0.0 2.6 3.1 0.0 0.0 0.0 0.0 0.0 0.0 0.0 0.0 0.8 0.3 1.6 0.0 0.0 0.0 0.9 0.1 0.0 0.0 0.0 0.0 0.0 0.0 0.0 0.0 0.0 0.0 0.0 0.0 0.0 0.0
0.0 0.0 0.0 0.0 0.0 0.0 0.0 0.0 0.0 0.0 0.0 0.0 0.0 0.0 0.0 0.0 0.0 0.1 0.1 0.0 0.0 0.0 2.6 7.8 4.1 0.1 0.0 0.0 0.0 0.0 0.0 0.0 1.2 1.1 0.0 0.8 0.2 1.1 1.0 0.0 0.0 0.0 0.0 0.0 0.0 0.0 0.0 0.0 0.0 0.0 0.0 0.0 0.0 0.0
0.0 0.0 0.0 0.0 0.0 0.0 0.0 0.0 0.0 0.0 0.0 0.0 0.0 0.0 0.0 0.0 0.0 0.0 0.0 0.0 0.0 1.5 4.2 11.3 8.8 4.6 0.0 0.0 0.1 0.0 0.0 0.0 1.9 0.7 0.0 0.1 0.0 0.7 1.2 0.0 0.0 0.0 0.0 0.0 0.0 0.0 0.0 0.0 0.0 0.0 0.0 0.0 0.0 0.0
0.0 0.0 0.0 0.0 0.0 0.0 0.0 0.0 0.0 0.0 0.0 0.0 0.0 0.0 0.0 0.0 0.0 0.0 0.0 0.0 0.0 0.1 7.2 6.3 10.1 6.4 0.2 0.1 0.1 0.1 0.0 1.6 0.2 0.9 0.0 0.0 0.4 2.0 0.0 0.0 0.1 0.0 0.0 0.0 0.0 0.0 0.0 0.0 0.0 0.0 0.0 0.0 0.0 0.0
0.0 0.0 0.0 0.0 0.0 0.0 0.0 0.0 0.0 0.0 0.0 0.0 0.0 0.0 0.2 0.0 0.0 0.0 0.0 1.4 2.7 2.4 3.0 6.6 2.6 2.8 1.1 2.0 0.7 0.8 0.1 1.9 4.8 0.0 0.0 0.6 0.1 0.0 0.0 0.2 0.1 0.0 0.0 0.0 2.9 1.7 0.5 1.1 0.2 0.1 0.0 0.0 0.0 0.0
0.0 0.0 0.0 0.0 0.0 0.0 0.0 0.0 0.0 0.0 0.0 0.0 0.0 0.3 0.0 0.0 0.0 0.0 4.3 4.0 1.8 2.6 2.4 2.4 2.2 2.3 0.0 3.2 1.2 0.3 2.5 1.7 6.9 1.9 0.9 1.5 2.6 0.6 0.0 0.2 0.0 0.0 0.1 0.0 0.0 0.1 0.9 1.5 2.0 1.0 0.4 1.5 0.9 1.5
0.0 0.0 0.0 0.0 0.0 0.0 0.0 0.0 0.0 0.0 0.0 0.0 0.0 0.0 0.0 1.7 4.7 7.4 6.9 1.0 1.1 1.7 0.6 0.9 0.5 0.2 0.5 0.0 1.7 1.0 2.5 2.3 2.8 1.4 3.9 3.4 1.5 0.9 1.2 0.4 0.2 0.1 0.0 0.1 0.1 1.1 0.5 0.5 0.8 0.8 1.9 2.4 2.2 2.2
0.0 0.0 0.0 0.0 0.0 0.0 0.0 0.0 0.0 0.0 0.0 0.0 0.1 1.3 2.7 4.7 8.0 5.5 4.9 1.5 0.5 0.3 0.4 0.6 0.9 0.1 0.0 0.1 1.3 2.0 2.2 1.0 2.1 4.9 3.6 1.3 0.3 0.0 0.3 1.1 1.0 0.7 0.1 0.5 0.9 0.0 0.3 0.3 0.3 0.3 0.2 0.1 0.0 0.0
0.0 0.0 0.0 0.0 0.0 0.0 0.0 0.0 0.0 0.0 0.0 0.1 0.8 1.8 3.0 3.5 3.3 2.2 1.3 1.0 0.0 0.2 0.0 0.0 0.6 0.9 0.1 1.2 1.0 2.4 0.3 1.8 6.2 3.2 2.5 0.3 0.4 0.3 0.1 0.2 0.4 0.5 0.7 1.0 2.8 2.8 1.4 0.8 0.3 0.1 0.0 0.1 0.0 0.0
0.0 0.0 0.0 0.0 0.0 0.0 0.0 0.0 0.0 0.0 0.0 0.0 0.9 1.6 1.4 1.3 0.6 0.3 0.1 0.4 0.0 0.0 0.0 0.0 0.1 0.3 1.0 1.8 1.1 1.6 2.0 4.4 3.3 3.1 1.0 0.4 0.4 0.6 0.4 0.2 0.2 0.4 0.5 1.2 1.2 2.1 3.2 1.9 0.7 0.0 0.0 0.0 0.3 0.3
0.0 0.0 0.0 0.0 0.0 0.0 0.0 0.0 0.0 0.0 0.0 0.2 0.7 1.4 0.6 0.5 0.3 0.1 0.0 0.1 0.0 0.0 0.1 0.2 0.5 1.0 0.8 2.2 1.2 2.0 3.0 3.8 2.2 1.0 0.5 0.3 0.6 0.0 0.2 0.2 0.0 0.0 0.0 0.1 1.0 1.4 2.0 1.9 1.3 0.7 0.5 0.1 0.2 0.9
0.0 0.0 0.0 0.0 0.0 0.0 0.0 0.0 0.0 0.1 0.2 0.0 0.2 0.4 0.6 0.3 0.3 0.2 0.0 0.0 0.0 0.2 1.0 1.5 2.2 0.7 0.4 1.2 0.7 0.4 1.4 1.0 0.6 0.0 0.1 0.0 0.1 0.0 0.0 0.0 0.0 0.0 0.0 0.0 0.5 0.9 1.6 2.2 2.4 1.4 1.8 1.5 1.2 0.8
0.0 0.0 0.0 0.0 0.0 0.0 0.0 0.0 0.4 0.3 0.0 0.0 0.0 0.0 0.0 0.0 0.2 0.2 0.0 0.0 0.0 0.4 1.3 4.4 2.4 1.6 0.3 0.2 0.0 0.1 0.0 0.0 0.1 0.0 0.1 0.0 0.0 0.0 0.0 0.0 0.0 0.1 0.7 1.7 1.5 1.6 1.1 1.7 1.6 1.3 1.0 0.8 0.8 1.0
0.0 0.0 0.0 0.0 0.0 0.0 1.0 0.6 0.1 0.0 0.0 0.0 0.0 0.0 0.0 0.0 0.0 0.0 0.0 0.0 0.0 0.0 0.3 2.5 2.4 0.4 0.0 0.0 0.0 0.0 0.0 0.0 0.0 0.0 0.0 0.0 0.0 0.0 0.0 0.3 0.3 0.7 1.8 1.6 0.4 0.4 0.4 0.3 0.7 0.4 1.0 0.7 0.8 0.8
0.0 0.0 0.0 0.0 0.0 0.2 0.0 0.7 0.0 0.0 0.0 0.0 0.0 0.0 0.0 0.0 0.0 0.0 0.0 0.1 0.3 1.6 1.8 1.9 0.0 0.2 0.1 0.3 0.3 0.1 0.0 0.0 0.0 0.0 0.0 0.0 0.0 0.0 0.0 0.0 0.1 0.3 0.7 0.6 0.5 0.7 0.5 0.7 0.5 0.2 0.6 0.5 1.0 1.0
0.0 0.0 0.0 0.0 1.9 0.7 0.2 0.1 0.0 0.0 0.0 0.0 0.0 0.0 0.0 0.0 0.0 0.0 0.0 1.0 2.0 2.5 1.9 1.2 0.2 0.1 0.0 0.5 0.2 0.0 0.0 0.0 0.0 0.0 0.0 0.0 0.0 0.0 0.0 0.0 0.0 0.0 0.0 0.3 0.2 0.1 0.5 0.3 0.7 0.5 0.3 0.8 0.7 1.0
0.4 0.0 5.3 4.0 3.6 1.0 0.3 0.0 0.0 0.0 0.0 0.0 0.0 0.0 0.0 0.0 0.0 0.0 0.1 1.7 3.4 2.0 1.5 1.1 1.0 0.6 0.2 0.0 0.8 0.9 0.4 0.0 0.0 0.0 0.0 0.0 0.0 0.0 0.0 0.0 0.0 0.0 0.0 0.0 0.0 0.1 0.0 0.1 0.1 0.5 0.5 1.1 0.9 0.4
0.3 1.3 5.2 4.4 3.2 1.6 0.4 0.1 0.2 0.0 0.0 0.1 0.1 0.0 0.1 0.0 0.0 0.1 1.1 1.5 1.6 1.2 1.0 0.8 1.0 2.2 2.3 1.8 1.5 1.1 0.6 0.1 0.0 0.2 0.1 0.0 0.0 0.0 0.0 0.0 0.0 0.0 0.0 0.0 0.0 0.0 0.0 0.0 0.0 0.0 0.0 0.0 0.7 0.7
0.0 5.8 6.6 4.5 2.4 1.1 0.5 0.3 0.4 0.2 0.1 0.1 0.0 0.0 0.0 0.0 0.1 0.0 0.8 0.6 0.4 0.4 1.3 1.6 1.3 1.1 0.6 1.5 1.8 2.2 2.3 1.4 0.4 0.0 0.7 0.3 0.1 0.0 0.0 0.0 0.0 0.0 0.0 0.0 0.0 0.0 0.0 0.0 0.0 0.0 0.0 0.0 0.0 0.0
9.0 8.7 5.1 4.7 1.6 0.8 0.2 0.2 0.1 0.1 0.1 0.0 0.2 0.0 0.1 0.0 0.2 0.2 0.0 0.0 0.1 0.2 0.6 1.4 1.5 1.4 1.4 1.0 1.4 1.3 1.2 1.5 2.5 2.7 0.1 1.5 0.8 0.2 0.0 0.0 0.3 0.0 0.0 0.2 0.1 0.1 0.0 0.0 0.0 0.0 0.0 0.1 0.2 0.2
10.9 4.6 1.6 0.1 0.0 0.1 0.0 0.0 0.1 0.1 0.1 0.1 0.3 0.0 0.0 0.1 0.2 0.0 0.0 0.0 0.1 0.3 0.4 0.6 1.2 1.2 0.9 0.8 1.0 1.8 1.7 1.5 1.3 2.4 1.4 2.0 1.6 2.1 2.1 0.2 1.5 0.7 0.2 0.1 0.8 0.8 0.3 0.1 0.1 0.0 0.0 0.1 0.4 0.5
4.7 1.4 0.0 0.0 0.1 0.1 0.0 0.0 0.1 0.0 0.3 0.4 0.0 0.0 0.0 0.4 0.1 0.0 0.0 0.0 0.0 0.4 0.7 1.1 2.2 1.9 1.3 1.4 1.3 1.8 2.0 2.2 2.0 1.5 2.0 4.3 4.0 2.5 1.2 2.1 2.0 1.2 0.9 0.6 1.3 1.0 1.1 1.0 0.6 0.7 0.6 0.7 0.5 1.0
0.4 0.0 0.0 0.0 0.1 0.0 0.2 0.4 0.7 0.6 0.3 0.0 0.4 0.3 0.2 0.0 0.0 0.0 0.0 0.0 0.0 0.0 0.8 1.3 1.8 2.4 2.2 1.9 1.9 2.6 2.8 3.1 3.4 3.2 4.5 5.2 5.4 5.0 3.9 3.1 2.4 2.7 2.9 2.1 1.7 2.2 2.0 1.6 1.3 2.0 1.7 1.5 1.3 1.1
0.1 0.0 0.1 0.1 0.0 0.1 0.3 0.3 0.3 0.1 0.0 0.0 0.1 0.0 0.0 0.0 0.0 0.0 0.0 0.0 0.0 0.8 1.0 1.5 1.9 2.0 2.8 2.9 2.8 3.5 3.5 3.6 3.1 2.5 2.0 2.4 4.3 6.0 5.6 4.8 5.5 5.6 3.7 3.8 2.6 3.0 3.0 3.7 3.5 3.5 3.8 3.7 3.4 3.4
0.1 0.0 0.0 0.1 0.1 0.2 0.3 0.1 0.0 0.0 0.0 0.0 0.0 0.0 0.0 0.0 0.0 0.0 0.0 0.0 0.0 1.4 1.8 2.4 2.3 2.4 3.5 3.4 3.5 3.3 4.1 4.1 3.8 2.2 2.1 2.2 2.8 4.1 5.8 5.8 5.9 6.4 6.0 5.6 6.4 6.8 5.0 6.1 6.3 6.4 5.7 5.5 5.4 4.8
0.1 0.0 0.1 0.1 0.1 0.3 0.1 0.2 0.1 0.0 0.0 0.0 0.0 0.0 0.0 0.0 0.0 0.0 0.3 0.6 1.4 2.0 2.7 3.4 3.8 4.4 4.6 5.0 4.9 4.4 4.5 5.2 5.3 5.5 4.4 4.8 4.8 4.8 5.5 6.3 5.9 6.5 6.4 5.9 5.2 4.9 5.0 4.7 4.2 4.4 4.3 4.3 3.9 3.6
0.0 0.0 0.0 0.1 0.1 0.1 0.4 0.3 0.1 0.0 0.0 0.0 0.0 0.0 0.0 0.0 0.0 0.0 0.5 0.8 1.8 2.3 2.7 3.4 3.9 5.0 5.6 5.4 5.4 5.3 4.2 4.8 4.8 6.0 5.1 4.5 4.5 3.9 5.1 5.6 6.2 5.7 6.2 6.4 5.8 6.3 6.2 6.2 6.3 5.8 5.7 5.7 5.3 4.8
1.1 0.6 0.5 0.4 0.7 0.6 0.3 0.1 0.1 0.0 0.0 0.0 0.0 0.0 0.0 0.1 0.0 0.4 0.6 1.0 2.0 2.5 2.7 4.1 4.7 4.7 4.5 4.4 4.9 5.2 5.2 5.1 6.0 5.7 5.7 5.9 5.7 6.3 5.5 5.5 5.7 6.4 6.4 6.7 7.0 7.6 7.9 7.3 7.0 6.6 6.1 5.8 5.3 5.0

GFSWCAN_prec_kuchsnow_078.txt.gz
Snowfall_Accumulation
0.0 0.0 0.0 0.0 0.0 0.0 0.0 0.0 0.0 0.0 0.0 0.0 0.0 0.0 0.0 0.0 0.0 0.0 0.0 0.0 0.0 0.0 0.0 0.0 0.0 0.0 0.0 0.0 0.0 0.0 0.0 0.0 0.0 0.1 0.0 0.1 0.0 0.0 0.0 0.0 0.0 0.0 0.1 0.2 0.3 0.8 0.0 0.0 0.0 0.0 0.0 0.0 0.0 0.0
0.0 0.0 0.0 0.0 0.0 0.0 0.0 0.0 0.0 0.0 0.0 0.0 0.0 0.0 0.0 0.0 0.0 0.0 0.0 0.0 0.0 0.0 0.0 0.0 0.0 0.0 0.0 0.0 0.0 0.0 0.0 0.0 0.0 0.2 0.1 0.0 0.0 0.0 0.0 0.0 0.0 0.0 0.0 0.0 0.0 0.0 0.0 0.0 0.0 0.0 0.0 0.0 0.0 0.0
0.0 0.0 0.0 0.0 0.0 0.0 0.0 0.0 0.0 0.0 0.0 0.0 0.0 0.0 0.0 0.0 0.0 0.0 0.0 0.0 0.0 0.2 0.0 0.0 0.0 0.0 0.0 0.0 0.0 0.0 0.0 0.0 0.0 0.0 0.1 0.1 0.0 0.0 0.0 0.0 0.0 0.0 0.0 0.0 0.0 0.0 0.0 0.0 0.0 0.0 0.0 0.0 0.0 0.0
0.0 0.0 0.0 0.0 0.0 0.0 0.0 0.0 0.0 0.0 0.0 0.0 0.0 0.0 0.0 0.0 0.0 0.0 0.0 0.0 0.0 0.2 1.5 0.0 0.0 0.0 0.0 0.0 0.0 0.0 0.0 0.0 0.0 0.4 0.5 0.2 0.2 0.0 0.0 0.0 0.0 0.0 0.0 0.0 0.0 0.0 0.0 0.0 0.0 0.0 0.0 0.0 0.0 0.0
0.0 0.0 0.0 0.0 0.0 0.0 0.0 0.0 0.0 0.0 0.0 0.0 0.0 0.0 0.0 0.0 0.0 0.0 0.0 0.0 0.0 0.3 2.2 0.7 0.0 0.0 0.0 0.0 0.0 0.0 0.0 0.0 0.2 0.7 1.3 0.7 0.0 0.0 0.0 0.0 0.0 0.0 0.0 0.0 0.0 0.0 0.0 0.0 0.0 0.0 0.0 0.0 0.0 0.0
0.0 0.0 0.0 0.0 0.0 0.0 0.0 0.0 0.0 0.0 0.0 0.0 0.0 0.0 0.0 0.0 0.0 0.0 0.0 0.0 0.0 0.0 2.6 3.1 0.0 0.0 0.0 0.0 0.0 0.0 0.0 0.0 0.8 0.3 1.6 0.0 0.0 0.0 0.9 0.1 0.0 0.0 0.0 0.0 0.0 0.0 0.0 0.0 0.0 0.0 0.0 0.0 0.0 0.0
0.0 0.0 0.0 0.0 0.0 0.0 0.0 0.0 0.0 0.0 0.0 0.0 0.0 0.0 0.0 0.0 0.0 0.1 0.1 0.0 0.0 0.0 2.6 7.8 4.1 0.1 0.0 0.0 0.0 0.0 0.0 0.0 1.2 1.1 0.0 0.8 0.2 1.1 1.0 0.0 0.0 0.0 0.0 0.0 0.0 0.0 0.0 0.0 0.0 0.0 0.0 0.0 0.0 0.0
0.0 0.0 0.0 0.0 0.0 0.0 0.0 0.0 0.0 0.0 0.0 0.0 0.0 0.0 0.0 0.0 0.0 0.0 0.0 0.0 0.0 1.5 4.2 11.3 8.8 4.6 0.0 0.0 0.1 0.0 0.0 0.0 1.9 0.7 0.0 0.1 0.0 0.7 1.2 0.0 0.0 0.0 0.0 0.0 0.0 0.0 0.0 0.0 0.0 0.0 0.0 0.0 0.0 0.0
0.0 0.0 0.0 0.0 0.0 0.0 0.0 0.0 0.0 0.0 0.0 0.0 0.0 0.0 0.0 0.0 0.0 0.0 0.0 0.0 0.0 0.1 7.2 6.3 10.1 6.4 0.2 0.1 0.1 0.1 0.0 1.6 0.2 0.9 0.0 0.0 0.4 2.0 0.0 0.0 0.1 0.0 0.0 0.0 0.0 0.0 0.0 0.0 0.0 0.0 0.0 0.0 0.0 0.0
0.0 0.0 0.0 0.0 0.0 0.0 0.0 0.0 0.0 0.0 0.0 0.0 0.0 0.0 0.2 0.0 0.0 0.0 0.0 1.4 2.7 2.4 3.0 6.6 2.6 2.8 1.1 2.0 0.7 0.8 0.1 1.9 4.8 0.0 0.0 0.6 0.1 0.0 0.0 0.2 0.1 0.0 0.0 0.0 2.9 1.7 0.5 1.1 0.2 0.1 0.0 0.0 0.0 0.0
0.0 0.0 0.0 0.0 0.0 0.0 0.0 0.0 0.0 0.0 0.0 0.0 0.0 0.3 0.0 0.0 0.0 0.0 4.3 4.0 1.8 2.6 2.4 2.4 2.2 2.3 0.0 3.2 1.2 0.3 2.5 1.7 6.9 1.9 0.9 1.5 2.6 0.6 0.0 0.2 0.0 0.0 0.1 0.0 0.0 0.1 0.9 1.5 2.0 1.0 0.4 1.5 0.9 1.5
0.0 0.0 0.0 0.0 0.0 0.0 0.0 0.0 0.0 0.0 0.0 0.0 0.0 0.0 0.0 1.7 4.7 7.4 6.9 1.0 1.1 1.7 0.6 0.9 0.5 0.2 0.5 0.0 1.7 1.0 2.5 2.3 2.8 1.4 3.9 3.4 1.5 0.9 1.2 0.4 0.2 0.1 0.0 0.1 0.1 1.1 0.5 0.5 0.8 0.8 1.9 2.4 2.2 2.2
0.0 0.0 0.0 0.0 0.0 0.0 0.0 0.0 0.0 0.0 0.0 0.0 0.1 1.3 2.7 4.7 8.0 5.5 4.9 1.5 0.5 0.3 0.4 0.6 0.9 0.1 0.0 0.1 1.3 2.0 2.2 1.0 2.1 4.9 3.6 1.3 0.3 0.0 0.3 1.1 1.0 0.7 0.1 0.5 0.9 0.0 0.3 0.3 0.3 0.3 0.2 0.1 0.0 0.0
0.0 0.0 0.0 0.0 0.0 0.0 0.0 0.0 0.0 0.0 0.0 0.1 0.8 1.8 3.0 3.5 3.3 2.2 1.3 1.0 0.0 0.2 0.0 0.0 0.6 0.9 0.1 1.2 1.0 2.4 0.3 1.8 6.2 3.2 2.5 0.3 0.4 0.3 0.1 0.2 0.4 0.5 0.7 1.0 2.8 2.8 1.4 0.8 0.3 0.1 0.0 0.1 0.0 0.0
0.0 0.0 0.0 0.0 0.0 0.0 0.0 0.0 0.0 0.0 0.0 0.0 0.9 1.6 1.4 1.3 0.6 0.3 0.1 0.4 0.0 0.0 0.0 0.0 0.1 0.3 1.0 1.8 1.1 1.6 2.0 4.4 3.3 3.1 1.0 0.4 0.4 0.6 0.4 0.2 0.2 0.4 0.5 1.2 1.2 2.1 3.2 1.9 0.7 0.0 0.0 0.0 0.3 0.3
0.0 0.0 0.0 0.0 0.0 0.0 0.0 0.0 0.0 0.0 0.0 0.2 0.7 1.4 0.6 0.5 0.3 0.1 0.0 0.1 0.0 0.0 0.1 0.2 0.5 1.0 0.8 2.2 1.2 2.0 3.0 3.8 2.2 1.0 0.5 0.3 0.6 0.0 0.2 0.2 0.0 0.0 0.0 0.1 1.0 1.4 2.0 1.9 1.3 0.7 0.5 0.1 0.2 0.9
0.0 0.0 0.0 0.0 0.0 0.0 0.0 0.0 0.0 1.9 1.1 0.1 0.2 0.4 0.6 0.3 0.3 0.2 0.0 0.0 0.0 0.2 1.0 1.5 2.2 0.7 0.4 1.2 0.7 0.4 1.4 1.0 0.6 0.0 0.1 0.0 0.1 0.0 0.0 0.0 0.0 0.0 0.0 0.0 0.5 0.9 1.6 2.2 2.4 1.4 1.8 1.5 1.2 0.8
0.0 0.0 0.0 0.0 0.0 0.0 0.0 0.0 0.4 1.9 1.1 0.1 0.0 0.0 0.0 0.0 0.2 0.2 0.0 0.0 0.0 0.4 1.3 4.4 2.4 1.6 0.3 0.2 0.0 0.1 0.0 0.0 0.1 0.0 0.1 0.0 0.0 0.0 0.0 0.0 0.0 0.1 0.7 1.7 1.5 1.6 1.1 1.7 1.6 1.3 1.0 0.8 0.8 1.0
0.0 0.0 0.0 0.0 0.0 0.0 3.0 3.1 1.3 0.8 0.2 0.0 0.0 0.0 0.0 0.0 0.0 0.0 0.0 0.0 0.0 0.0 0.3 2.5 2.4 0.4 0.0 0.0 0.0 0.0 0.0 0.0 0.0 0.0 0.0 0.0 0.0 0.0 0.0 0.3 0.3 0.7 1.8 1.6 0.4 0.4 0.4 0.3 0.7 0.4 1.0 0.7 0.9 0.8
0.0 0.0 0.0 0.0 0.0 1.3 1.2 2.3 0.6 0.0 0.0 0.0 0.0 0.0 0.0 0.0 0.0 0.0 0.0 0.1 0.3 1.6 1.8 1.9 0.0 0.2 0.1 0.3 0.3 0.1 0.0 0.0 0.0 0.0 0.0 0.0 0.0 0.0 0.0 0.0 0.1 0.3 0.7 0.6 0.5 0.7 0.5 0.7 0.5 0.2 0.6 0.5 1.0 1.1
0.0 0.0 0.0 0.0 1.9 2.1 1.0 0.6 0.1 0.0 0.0 0.0 0.0 0.0 0.0 0.0 0.0 0.0 0.0 1.0 2.0 2.5 1.9 1.2 0.2 0.1 0.0 0.5 0.2 0.0 0.0 0.0 0.0 0.0 0.0 0.0 0.0 0.0 0.0 0.0 0.0 0.0 0.0 0.3 0.2 0.1 0.5 0.3 0.7 0.5 0.3 0.8 0.7 1.0
0.4 0.0 6.5 4.0 6.1 2.6 1.0 0.2 0.0 0.0 0.0 0.0 0.0 0.0 0.0 0.0 0.0 0.0 0.1 1.7 3.4 2.0 1.5 1.1 1.0 0.6 0.2 0.0 0.8 0.9 0.4 0.0 0.0 0.0 0.0 0.0 0.0 0.0 0.0 0.0 0.0 0.0 0.0 0.0 0.0 0.1 0.0 0.1 0.1 0.5 0.5 1.1 0.9 0.4
0.3 1.3 5.8 6.0 5.8 3.0 1.4 0.1 0.2 0.0 0.0 0.3 0.3 0.2 0.2 0.1 0.0 0.1 1.1 1.5 1.6 1.2 1.0 0.8 1.0 2.2 2.3 1.8 1.5 1.1 0.6 0.1 0.0 0.2 0.1 0.0 0.0 0.0 0.0 0.0 0.0 0.0 0.0 0.0 0.0 0.0 0.0 0.0 0.0 0.0 0.0 0.0 0.7 0.7
0.0 6.3 8.1 6.0 3.1 1.9 0.9 0.8 0.5 0.3 0.2 0.3 0.5 0.3 0.1 0.0 0.1 0.0 0.8 0.6 0.4 0.4 1.3 1.6 1.3 1.1 0.6 1.5 1.8 2.2 2.3 1.4 0.4 0.0 0.7 0.3 0.1 0.0 0.0 0.0 0.0 0.0 0.0 0.0 0.0 0.0 0.0 0.0 0.0 0.0 0.0 0.0 0.0 0.0
9.9 10.4 6.6 6.3 2.4 1.2 0.3 0.3 0.1 0.1 0.3 0.2 0.4 0.1 0.1 0.0 0.2 0.2 0.0 0.0 0.1 0.2 0.6 1.4 1.5 1.4 1.4 1.0 1.4 1.3 1.2 1.5 2.5 2.7 0.1 1.5 0.8 0.2 0.0 0.0 0.3 0.0 0.0 0.2 0.1 0.1 0.0 0.0 0.0 0.0 0.0 0.1 0.2 0.3
12.5 6.3 1.6 0.1 0.0 0.1 0.0 0.0 0.1 0.1 0.1 0.1 0.4 0.1 0.0 0.1 0.2 0.0 0.0 0.0 0.1 0.3 0.4 0.6 1.2 1.2 0.9 0.8 1.0 1.8 1.7 1.5 1.3 2.4 1.4 2.0 1.6 2.1 2.1 0.2 1.5 0.7 0.2 0.1 0.9 0.8 0.3 0.1 0.1 0.0 0.0 0.1 0.4 0.5
6.5 2.5 0.3 0.1 0.1 0.1 0.0 0.0 0.1 0.0 0.3 0.6 0.1 0.0 0.1 0.5 0.2 0.0 0.0 0.0 0.0 0.4 0.7 1.1 2.2 1.9 1.3 1.4 1.3 1.8 2.0 2.2 2.0 1.5 2.0 4.3 4.0 2.5 1.2 2.1 2.0 1.2 0.9 0.6 1.3 1.0 1.2 1.0 0.6 0.7 0.6 0.7 0.5 1.1
1.4 0.1 0.0 0.0 0.1 0.0 0.2 0.4 0.7 0.6 0.5 0.0 0.4 0.4 0.3 0.0 0.0 0.0 0.0 0.0 0.0 0.0 0.8 1.3 1.8 2.4 2.2 1.9 1.9 2.6 2.8 3.1 3.4 3.2 4.5 5.2 5.4 5.0 3.9 3.1 2.4 2.7 3.0 2.1 1.8 2.3 2.1 1.7 1.4 2.1 1.7 1.5 1.3 1.1
0.1 0.0 0.1 0.1 0.0 0.1 0.3 0.3 0.3 0.1 0.0 0.0 0.1 0.0 0.0 0.0 0.0 0.0 0.0 0.0 0.0 0.8 1.0 1.5 1.9 2.0 2.8 2.9 2.8 3.5 3.5 3.6 3.1 2.5 2.0 2.4 4.3 6.0 5.6 4.8 5.5 5.6 3.7 3.8 2.6 3.0 3.0 3.8 3.6 3.6 3.8 3.7 3.4 3.4
0.1 0.0 0.0 0.1 0.1 0.2 0.3 0.1 0.0 0.0 0.0 0.0 0.0 0.0 0.0 0.0 0.0 0.0 0.0 0.0 0.0 1.4 1.8 2.4 2.3 2.4 3.5 3.4 3.5 3.3 4.1 4.1 3.8 2.2 2.1 2.2 2.8 4.1 5.8 5.8 5.9 6.4 6.0 5.6 6.4 6.8 5.0 6.1 6.3 6.4 5.7 5.5 5.4 4.8
0.1 0.0 0.1 0.1 0.1 0.3 0.2 0.3 0.2 0.2 0.0 0.1 0.1 0.1 0.1 0.0 0.0 0.0 0.3 0.6 1.4 2.0 2.7 3.4 3.8 4.4 4.6 5.0 4.9 4.4 4.5 5.2 5.3 5.5 4.4 4.8 4.8 4.8 5.5 6.3 5.9 6.5 6.4 5.9 5.2 4.9 5.0 4.7 4.2 4.4 4.3 4.3 3.9 3.6
0.0 0.0 0.0 0.1 0.1 0.1 0.5 0.4 0.2 0.1 0.1 0.1 0.1 0.1 0.0 0.0 0.0 0.0 0.5 0.8 1.8 2.3 2.7 3.4 3.9 5.0 5.6 5.4 5.4 5.3 4.2 4.8 4.8 6.0 5.1 4.5 4.5 3.9 5.1 5.6 6.2 5.7 6.2 6.4 5.8 6.3 6.2 6.2 6.3 5.8 5.7 5.7 5.3 4.8
1.1 0.6 0.5 0.4 0.7 0.9 0.3 0.1 0.1 0.0 0.0 0.0 0.0 0.0 0.0 0.1 0.0 0.4 0.6 1.0 2.0 2.5 2.7 4.1 4.7 4.7 4.5 4.4 4.9 5.2 5.2 5.1 6.0 5.7 5.7 5.9 5.7 6.3 5.5 5.5 5.7 6.4 6.4 6.7 7.0 7.6 7.9 7.3 7.0 6.6 6.1 5.8 5.3 5.0

GFSWCAN_prec_kuchsnow_081.txt.gz
Snowfall_Accumulation
0.0 0.0 0.0 0.0 0.0 0.0 0.0 0.0 0.0 0.0 0.0 0.0 0.0 0.0 0.0 0.0 0.0 0.0 0.0 0.0 0.0 0.0 0.0 0.0 0.0 0.0 0.0 0.0 0.0 0.0 0.0 0.0 0.0 0.1 0.0 0.1 0.0 0.0 0.0 0.0 0.0 0.0 0.1 0.2 0.3 0.8 0.0 0.0 0.0 0.0 0.0 0.0 0.0 0.0
0.0 0.0 0.0 0.0 0.0 0.0 0.0 0.0 0.0 0.0 0.0 0.0 0.0 0.0 0.0 0.0 0.0 0.0 0.0 0.0 0.0 0.0 0.0 0.0 0.0 0.0 0.0 0.0 0.0 0.0 0.0 0.0 0.0 0.2 0.1 0.0 0.0 0.0 0.0 0.0 0.0 0.0 0.0 0.0 0.0 0.0 0.0 0.0 0.0 0.0 0.0 0.0 0.0 0.0
0.0 0.0 0.0 0.0 0.0 0.0 0.0 0.0 0.0 0.0 0.0 0.0 0.0 0.0 0.0 0.0 0.0 0.0 0.0 0.0 0.0 0.2 0.0 0.0 0.0 0.0 0.0 0.0 0.0 0.0 0.0 0.0 0.0 0.0 0.1 0.1 0.0 0.0 0.0 0.0 0.0 0.0 0.0 0.0 0.0 0.0 0.0 0.0 0.0 0.0 0.0 0.0 0.0 0.0
0.0 0.0 0.0 0.0 0.0 0.0 0.0 0.0 0.0 0.0 0.0 0.0 0.0 0.0 0.0 0.0 0.0 0.0 0.0 0.0 0.0 0.2 1.5 0.0 0.0 0.0 0.0 0.0 0.0 0.0 0.0 0.0 0.0 0.4 0.5 0.2 0.2 0.0 0.0 0.0 0.0 0.0 0.0 0.0 0.0 0.0 0.0 0.0 0.0 0.0 0.0 0.0 0.0 0.0
0.0 0.0 0.0 0.0 0.0 0.0 0.0 0.0 0.0 0.0 0.0 0.0 0.0 0.0 0.0 0.0 0.0 0.0 0.0 0.0 0.0 0.3 2.2 0.7 0.0 0.0 0.0 0.0 0.0 0.0 0.0 0.0 0.2 0.7 1.3 0.7 0.0 0.0 0.0 0.0 0.0 0.0 0.0 0.0 0.0 0.0 0.0 0.0 0.0 0.0 0.0 0.0 0.0 0.0
0.0 0.0 0.0 0.0 0.0 0.0 0.0 0.0 0.0 0.0 0.0 0.0 0.0 0.0 0.0 0.0 0.0 0.0 0.0 0.0 0.0 0.0 2.6 3.1 0.0 0.0 0.0 0.0 0.0 0.0 0.0 0.0 0.8 0.3 1.6 0.0 0.0 0.0 0.9 0.1 0.0 0.0 0.0 0.0 0.0 0.0 0.0 0.0 0.0 0.0 0.0 0.0 0.0 0.0
0.0 0.0 0.0 0.0 0.0 0.0 0.0 0.0 0.0 0.0 0.0 0.0 0.0 0.0 0.0 0.0 0.0 0.1 0.1 0.0 0.0 0.0 2.6 7.8 4.1 0.1 0.0 0.0 0.0 0.0 0.0 0.0 1.2 1.1 0.0 0.8 0.2 1.1 1.0 0.0 0.0 0.0 0.0 0.0 0.0 0.0 0.0 0.0 0.0 0.0 0.0 0.0 0.0 0.0
0.0 0.0 0.0 0.0 0.0 0.0 0.0 0.0 0.0 0.0 0.0 0.0 0.0 0.0 0.0 0.0 0.0 0.0 0.0 0.0 0.0 1.5 4.2 11.3 8.8 4.6 0.0 0.0 0.1 0.0 0.0 0.0 1.9 0.7 0.0 0.1 0.0 0.7 1.2 0.0 0.0 0.0 0.0 0.0 0.0 0.0 0.0 0.0 0.0 0.0 0.0 0.0 0.0 0.0
0.0 0.0 0.0 0.0 0.0 0.0 0.0 0.0 0.0 0.0 0.0 0.0 0.0 0.0 0.0 0.0 0.0 0.0 0.0 0.0 0.0 0.1 7.2 6.3 10.1 6.4 0.2 0.1 0.1 0.1 0.0 1.6 0.2 0.9 0.0 0.0 0.4 2.0 0.0 0.0 0.1 0.0 0.0 0.0 0.0 0.0 0.0 0.0 0.0 0.0 0.0 0.0 0.0 0.0
0.0 0.0 0.0 0.0 0.0 0.0 0.0 0.0 0.0 0.0 0.0 0.0 0.0 0.0 0.2 0.0 0.0 0.0 0.0 1.4 2.7 2.4 3.0 6.6 2.6 2.8 1.1 2.0 0.7 0.8 0.1 1.9 4.8 0.0 0.0 0.6 0.1 0.0 0.0 0.2 0.1 0.0 0.0 0.0 2.9 1.7 0.5 1.1 0.2 0.1 0.0 0.0 0.0 0.0
0.0 0.0 0.0 0.0 0.0 0.0 0.0 0.0 0.0 0.0 0.0 0.0 0.0 0.3 0.0 0.0 0.0 0.0 4.3 4.0 1.8 2.6 2.4 2.4 2.2 2.3 0.0 3.2 1.2 0.3 2.5 1.7 6.9 1.9 0.9 1.5 2.6 0.6 0.0 0.2 0.0 0.0 0.1 0.0 0.0 0.1 0.9 1.5 2.0 1.0 0.4 1.5 0.9 1.5
0.0 0.0 0.0 0.0 0.0 0.0 0.0 0.0 0.0 0.0 0.0 0.0 0.0 0.0 0.0 1.7 4.7 7.4 6.9 1.0 1.1 1.7 0.6 0.9 0.5 0.2 0.5 0.0 1.7 1.0 2.5 2.3 2.8 1.4 3.9 3.4 1.5 0.9 1.2 0.4 0.2 0.1 0.0 0.1 0.1 1.1 0.5 0.5 0.8 0.8 1.9 2.4 2.2 2.2
0.0 0.0 0.0 0.0 0.0 0.0 0.0 0.0 0.0 0.0 0.0 0.0 0.1 1.3 2.7 4.7 8.0 5.5 4.9 1.5 0.5 0.3 0.4 0.6 0.9 0.1 0.0 0.1 1.3 2.0 2.2 1.0 2.1 4.9 3.6 1.3 0.3 0.0 0.3 1.1 1.0 0.7 0.1 0.5 0.9 0.0 0.3 0.3 0.3 0.3 0.2 0.1 0.0 0.0
0.0 0.0 0.0 0.0 0.0 0.0 0.0 0.0 0.0 0.0 0.0 0.1 0.8 1.8 3.0 3.5 3.3 2.2 1.3 1.0 0.0 0.2 0.0 0.0 0.6 0.9 0.1 1.2 1.0 2.4 0.3 1.8 6.2 3.2 2.5 0.3 0.4 0.3 0.1 0.2 0.4 0.5 0.7 1.0 2.8 2.8 1.4 0.8 0.3 0.1 0.0 0.1 0.0 0.0
0.0 0.0 0.0 0.0 0.0 0.0 0.0 0.0 0.0 0.0 0.0 0.3 1.0 1.6 1.4 1.3 0.6 0.3 0.1 0.4 0.0 0.0 0.0 0.0 0.1 0.3 1.0 1.8 1.1 1.6 2.0 4.4 3.3 3.1 1.0 0.4 0.4 0.6 0.4 0.2 0.2 0.4 0.5 1.2 1.2 2.1 3.2 1.9 0.7 0.0 0.0 0.0 0.3 0.3
0.0 0.0 0.0 0.0 0.0 0.0 0.0 0.0 0.0 0.0 0.6 0.4 0.7 1.4 0.6 0.5 0.3 0.1 0.0 0.1 0.0 0.0 0.1 0.2 0.5 1.0 0.8 2.2 1.2 2.0 3.0 3.8 2.2 1.0 0.5 0.3 0.6 0.0 0.2 0.2 0.0 0.0 0.0 0.1 1.0 1.4 2.0 1.9 1.3 0.7 0.5 0.1 0.2 0.9
0.0 0.0 0.0 0.0 0.0 0.0 0.0 0.0 0.0 1.9 2.1 0.9 0.2 0.4 0.6 0.3 0.3 0.2 0.0 0.0 0.0 0.2 1.0 1.5 2.2 0.7 0.4 1.2 0.7 0.4 1.4 1.0 0.6 0.0 0.1 0.0 0.1 0.0 0.0 0.0 0.0 0.0 0.0 0.0 0.5 0.9 1.6 2.2 2.4 1.4 1.8 1.5 1.2 0.8
0.0 0.0 0.0 0.0 0.0 0.0 0.0 0.0 0.4 2.6 2.4 0.1 0.0 0.0 0.0 0.0 0.2 0.2 0.0 0.0 0.0 0.4 1.3 4.4 2.4 1.6 0.3 0.2 0.0 0.1 0.0 0.0 0.1 0.0 0.1 0.0 0.0 0.0 0.0 0.0 0.0 0.1 0.7 1.7 1.5 1.6 1.1 1.7 1.6 1.3 1.0 0.8 0.8 1.0
0.0 0.0 0.0 0.0 0.0 0.0 3.5 3.7 1.3 0.8 0.2 0.0 0.0 0.0 0.0 0.0 0.0 0.0 0.0 0.0 0.0 0.0 0.3 2.5 2.4 0.4 0.0 0.0 0.0 0.0 0.0 0.0 0.0 0.0 0.0 0.0 0.0 0.0 0.0 0.3 0.3 0.7 1.8 1.6 0.4 0.4 0.4 0.3 0.7 0.4 1.0 0.7 1.0 0.8
0.0 0.0 0.0 0.0 0.0 1.7 2.0 3.2 1.0 0.0 0.0 0.0 0.0 0.0 0.0 0.0 0.0 0.0 0.0 0.1 0.3 1.6 1.8 1.9 0.0 0.2 0.1 0.3 0.3 0.1 0.0 0.0 0.0 0.0 0.0 0.0 0.0 0.0 0.0 0.0 0.1 0.3 0.7 0.6 0.5 0.7 0.5 0.7 0.5 0.2 0.6 0.5 1.0 1.1
0.0 0.0 0.0 0.0 1.9 2.6 1.6 1.0 0.1 0.0 0.0 0.0 0.0 0.0 0.0 0.0 0.0 0.0 0.0 1.0 2.0 2.5 1.9 1.2 0.2 0.1 0.0 0.5 0.2 0.0 0.0 0.0 0.0 0.0 0.0 0.0 0.0 0.0 0.0 0.0 0.0 0.0 0.0 0.3 0.2 0.1 0.5 0.3 0.7 0.5 0.3 0.8 0.7 1.0
0.4 0.0 6.5 4.0 8.1 3.9 1.7 0.6 0.0 0.0 0.0 0.0 0.0 0.0 0.0 0.0 0.1 0.1 0.1 1.7 3.4 2.0 1.5 1.1 1.0 0.6 0.2 0.0 0.8 0.9 0.4 0.0 0.0 0.0 0.0 0.0 0.0 0.0 0.0 0.0 0.0 0.0 0.0 0.0 0.0 0.1 0.0 0.1 0.1 0.5 0.5 1.1 0.9 0.4
0.3 1.3 6.2 6.7 7.4 4.5 2.4 0.2 0.2 0.2 0.1 0.4 0.3 0.2 0.6 0.4 0.2 0.2 1.2 1.5 1.6 1.2 1.0 0.8 1.0 2.2 2.3 1.8 1.5 1.1 0.6 0.1 0.0 0.2 0.1 0.0 0.0 0.0 0.0 0.0 0.0 0.0 0.0 0.0 0.0 0.0 0.0 0.0 0.0 0.0 0.0 0.0 0.7 0.7
0.0 6.9 8.9 7.0 3.8 2.7 1.6 1.4 0.9 0.3 0.4 0.6 0.8 0.7 0.3 0.0 0.3 0.2 0.9 0.6 0.4 0.4 1.3 1.6 1.3 1.1 0.6 1.5 1.8 2.2 2.3 1.4 0.4 0.0 0.7 0.3 0.1 0.0 0.0 0.0 0.0 0.0 0.0 0.0 0.0 0.0 0.0 0.0 0.0 0.0 0.0 0.0 0.0 0.0
11.3 12.5 7.8 7.7 3.2 1.4 0.3 0.6 0.4 0.4 0.6 0.5 0.4 0.1 0.1 0.0 0.4 0.3 0.0 0.0 0.1 0.2 0.6 1.4 1.5 1.4 1.4 1.0 1.4 1.3 1.2 1.5 2.5 2.7 0.1 1.5 0.8 0.2 0.0 0.0 0.3 0.0 0.0 0.2 0.1 0.1 0.0 0.0 0.0 0.0 0.0 0.1 0.3 0.4
14.7 8.4 2.5 0.5 0.2 0.1 0.0 0.0 0.1 0.1 0.1 0.1 0.4 0.1 0.0 0.1 0.3 0.0 0.0 0.0 0.1 0.3 0.4 0.6 1.2 1.2 0.9 0.8 1.0 1.8 1.7 1.5 1.3 2.4 1.4 2.0 1.6 2.1 2.1 0.2 1.5 0.7 0.2 0.1 0.9 0.8 0.3 0.1 0.1 0.0 0.0 0.1 0.4 0.5
8.8 4.4 0.7 0.1 0.1 0.1 0.0 0.0 0.1 0.0 0.3 0.6 0.1 0.0 0.1 0.5 0.2 0.0 0.0 0.0 0.0 0.4 0.7 1.1 2.2 1.9 1.3 1.4 1.3 1.8 2.0 2.2 2.0 1.5 2.0 4.3 4.0 2.5 1.2 2.1 2.0 1.2 0.9 0.6 1.3 1.0 1.2 1.0 0.6 0.7 0.6 0.7 0.5 1.1
2.5 0.3 0.0 0.0 0.1 0.0 0.2 0.4 0.7 0.6 0.5 0.0 0.4 0.4 0.3 0.0 0.0 0.0 0.0 0.0 0.0 0.0 0.8 1.3 1.8 2.4 2.2 1.9 1.9 2.6 2.8 3.1 3.4 3.2 4.5 5.2 5.4 5.0 3.9 3.1 2.4 2.7 3.0 2.1 1.8 2.4 2.1 1.7 1.4 2.1 1.7 1.5 1.3 1.1
0.2 0.0 0.1 0.1 0.0 0.1 0.3 0.3 0.3 0.1 0.0 0.0 0.1 0.0 0.0 0.0 0.0 0.0 0.0 0.0 0.0 0.8 1.0 1.5 1.9 2.0 2.8 2.9 2.8 3.5 3.5 3.6 3.1 2.5 2.0 2.4 4.3 6.0 5.6 4.8 5.5 5.6 3.7 3.8 2.6 3.0 3.1 3.9 3.6 3.6 3.8 3.7 3.4 3.4
0.1 0.0 0.0 0.1 0.1 0.2 0.3 0.1 0.0 0.0 0.0 0.0 0.0 0.0 0.0 0.0 0.0 0.0 0.1 0.0 0.0 1.4 1.8 2.4 2.3 2.4 3.5 3.4 3.5 3.3 4.1 4.1 3.8 2.2 2.1 2.2 2.8 4.1 5.8 5.8 5.9 6.4 6.0 5.6 6.4 6.8 5.0 6.1 6.3 6.4 5.7 5.5 5.4 4.8
0.1 0.0 0.1 0.1 0.1 0.3 0.2 0.3 0.2 0.2 0.0 0.1 0.1 0.1 0.1 0.1 0.0 0.0 0.3 0.6 1.4 2.0 2.7 3.4 3.8 4.4 4.6 5.0 4.9 4.4 4.5 5.2 5.3 5.5 4.4 4.8 4.8 4.8 5.5 6.3 5.9 6.5 6.4 5.9 5.2 4.9 5.0 4.7 4.2 4.4 4.3 4.3 3.9 3.6
0.0 0.0 0.0 0.1 0.1 0.1 0.5 0.4 0.2 0.1 0.1 0.1 0.2 0.1 0.1 0.1 0.1 0.0 0.5 0.8 1.8 2.3 2.7 3.4 3.9 5.0 5.6 5.4 5.4 5.3 4.2 4.8 4.8 6.0 5.1 4.5 4.5 3.9 5.1 5.6 6.2 5.7 6.2 6.4 5.8 6.3 6.2 6.2 6.3 5.8 5.7 5.7 5.3 4.8
1.1 0.6 0.5 0.4 0.7 0.9 0.3 0.1 0.1 0.0 0.0 0.0 0.1 0.0 0.0 0.1 0.0 0.4 0.6 1.0 2.0 2.5 2.7 4.1 4.7 4.7 4.5 4.4 4.9 5.2 5.2 5.1 6.0 5.7 5.7 5.9 5.7 6.3 5.5 5.5 5.7 6.4 6.4 6.7 7.0 7.6 7.9 7.3 7.0 6.6 6.1 5.8 5.3 5.0

GFSWCAN_prec_kuchsnow_084.txt.gz
Snowfall_Accumulation
0.0 0.0 0.0 0.0 0.0 0.0 0.0 0.0 0.0 0.0 0.0 0.0 0.0 0.0 0.0 0.0 0.0 0.0 0.0 0.0 0.0 0.0 0.0 0.0 0.0 0.0 0.0 0.0 0.0 0.0 0.0 0.0 0.0 0.1 0.0 0.1 0.0 0.0 0.0 0.0 0.0 0.0 0.1 0.2 0.3 0.8 0.0 0.0 0.0 0.0 0.0 0.0 0.0 0.0
0.0 0.0 0.0 0.0 0.0 0.0 0.0 0.0 0.0 0.0 0.0 0.0 0.0 0.0 0.0 0.0 0.0 0.0 0.0 0.0 0.0 0.0 0.0 0.0 0.0 0.0 0.0 0.0 0.0 0.0 0.0 0.0 0.0 0.2 0.1 0.0 0.0 0.0 0.0 0.0 0.0 0.0 0.0 0.0 0.0 0.0 0.0 0.0 0.0 0.0 0.0 0.0 0.0 0.0
0.0 0.0 0.0 0.0 0.0 0.0 0.0 0.0 0.0 0.0 0.0 0.0 0.0 0.0 0.0 0.0 0.0 0.0 0.0 0.0 0.0 0.2 0.0 0.0 0.0 0.0 0.0 0.0 0.0 0.0 0.0 0.0 0.0 0.0 0.1 0.1 0.0 0.0 0.0 0.0 0.0 0.0 0.0 0.0 0.0 0.0 0.0 0.0 0.0 0.0 0.0 0.0 0.0 0.0
0.0 0.0 0.0 0.0 0.0 0.0 0.0 0.0 0.0 0.0 0.0 0.0 0.0 0.0 0.0 0.0 0.0 0.0 0.0 0.0 0.0 0.2 1.5 0.0 0.0 0.0 0.0 0.0 0.0 0.0 0.0 0.0 0.0 0.4 0.5 0.2 0.2 0.0 0.0 0.0 0.0 0.0 0.0 0.0 0.0 0.0 0.0 0.0 0.0 0.0 0.0 0.0 0.0 0.0
0.0 0.0 0.0 0.0 0.0 0.0 0.0 0.0 0.0 0.0 0.0 0.0 0.0 0.0 0.0 0.0 0.0 0.0 0.0 0.0 0.0 0.3 2.2 0.7 0.0 0.0 0.0 0.0 0.0 0.0 0.0 0.0 0.2 0.7 1.3 0.7 0.0 0.0 0.0 0.0 0.0 0.0 0.0 0.0 0.0 0.0 0.0 0.0 0.0 0.0 0.0 0.0 0.0 0.0
0.0 0.0 0.0 0.0 0.0 0.0 0.0 0.0 0.0 0.0 0.0 0.0 0.0 0.0 0.0 0.0 0.0 0.0 0.0 0.0 0.0 0.0 2.6 3.1 0.0 0.0 0.0 0.0 0.0 0.0 0.0 0.0 0.8 0.3 1.6 0.0 0.0 0.0 0.9 0.1 0.0 0.0 0.0 0.0 0.0 0.0 0.0 0.0 0.0 0.0 0.0 0.0 0.0 0.0
0.0 0.0 0.0 0.0 0.0 0.0 0.0 0.0 0.0 0.0 0.0 0.0 0.0 0.0 0.0 0.0 0.0 0.1 0.1 0.0 0.0 0.0 2.6 7.8 4.1 0.1 0.0 0.0 0.0 0.0 0.0 0.0 1.2 1.1 0.0 0.8 0.2 1.1 1.0 0.0 0.0 0.0 0.0 0.0 0.0 0.0 0.0 0.0 0.0 0.0 0.0 0.0 0.0 0.0
0.0 0.0 0.0 0.0 0.0 0.0 0.0 0.0 0.0 0.0 0.0 0.0 0.0 0.0 0.0 0.0 0.0 0.0 0.0 0.0 0.0 1.5 4.2 11.3 8.8 4.6 0.0 0.0 0.1 0.0 0.0 0.0 1.9 0.7 0.0 0.1 0.0 0.7 1.2 0.0 0.0 0.0 0.0 0.0 0.0 0.0 0.0 0.0 0.0 0.0 0.0 0.0 0.0 0.0
0.0 0.0 0.0 0.0 0.0 0.0 0.0 0.0 0.0 0.0 0.0 0.0 0.0 0.0 0.0 0.0 0.0 0.0 0.0 0.0 0.0 0.1 7.2 6.3 10.1 6.4 0.2 0.1 0.1 0.1 0.0 1.6 0.2 0.9 0.0 0.0 0.4 2.0 0.0 0.0 0.1 0.0 0.0 0.0 0.0 0.0 0.0 0.0 0.0 0.0 0.0 0.0 0.0 0.0
0.0 0.0 0.0 0.0 0.0 0.0 0.0 0.0 0.0 0.0 0.0 0.0 0.0 0.0 0.2 0.0 0.0 0.0 0.0 1.4 2.7 2.4 3.0 6.6 2.6 2.8 1.1 2.0 0.7 0.8 0.1 1.9 4.8 0.0 0.0 0.6 0.1 0.0 0.0 0.2 0.1 0.0 0.0 0.0 2.9 1.7 0.5 1.1 0.2 0.1 0.0 0.0 0.0 0.0
0.0 0.0 0.0 0.0 0.0 0.0 0.0 0.0 0.0 0.0 0.0 0.0 0.0 0.3 0.0 0.0 0.0 0.0 4.3 4.0 1.8 2.6 2.4 2.4 2.2 2.3 0.0 3.2 1.2 0.3 2.5 1.7 6.9 1.9 0.9 1.5 2.6 0.6 0.0 0.2 0.0 0.0 0.1 0.0 0.0 0.1 0.9 1.5 2.0 1.0 0.4 1.5 0.9 1.5
0.0 0.0 0.0 0.0 0.0 0.0 0.0 0.0 0.0 0.0 0.0 0.0 0.0 0.0 0.0 1.7 4.7 7.4 6.9 1.0 1.1 1.7 0.6 0.9 0.5 0.2 0.5 0.0 1.7 1.0 2.5 2.3 2.8 1.4 3.9 3.4 1.5 0.9 1.2 0.4 0.2 0.1 0.0 0.1 0.1 1.1 0.5 0.5 0.8 0.8 1.9 2.4 2.2 2.2
0.0 0.0 0.0 0.0 0.0 0.0 0.0 0.0 0.0 0.0 0.0 0.0 0.1 1.3 2.7 4.7 8.0 5.5 4.9 1.5 0.5 0.3 0.4 0.6 0.9 0.1 0.0 0.1 1.3 2.0 2.2 1.0 2.1 4.9 3.6 1.3 0.3 0.0 0.3 1.1 1.0 0.7 0.1 0.5 0.9 0.0 0.3 0.3 0.3 0.3 0.2 0.1 0.0 0.0
0.0 0.0 0.0 0.0 0.0 0.0 0.0 0.0 0.0 0.0 0.0 0.1 0.8 1.8 3.0 3.5 3.3 2.2 1.3 1.0 0.0 0.2 0.0 0.0 0.6 0.9 0.1 1.2 1.0 2.4 0.3 1.8 6.2 3.2 2.5 0.3 0.4 0.3 0.1 0.2 0.4 0.5 0.7 1.0 2.8 2.8 1.4 0.8 0.3 0.1 0.0 0.1 0.0 0.0
0.0 0.0 0.0 0.0 0.0 0.0 0.0 0.0 0.0 0.0 0.0 0.3 1.0 1.6 1.4 1.3 0.6 0.3 0.1 0.4 0.0 0.0 0.0 0.0 0.1 0.3 1.0 1.8 1.1 1.6 2.0 4.4 3.3 3.1 1.0 0.4 0.4 0.6 0.4 0.2 0.2 0.4 0.5 1.2 1.2 2.1 3.2 1.9 0.7 0.0 0.0 0.0 0.3 0.3
0.0 0.0 0.0 0.0 0.0 0.0 0.0 0.0 0.0 0.0 0.6 0.6 0.7 1.4 0.6 0.5 0.3 0.1 0.0 0.1 0.0 0.0 0.1 0.2 0.5 1.0 0.8 2.2 1.2 2.0 3.0 3.8 2.2 1.0 0.5 0.3 0.6 0.0 0.2 0.2 0.0 0.0 0.0 0.1 1.0 1.4 2.0 1.9 1.3 0.7 0.5 0.1 0.2 0.9
0.0 0.0 0.0 0.0 0.0 0.0 0.0 0.0 0.0 1.9 2.4 1.2 0.2 0.4 0.6 0.3 0.3 0.2 0.0 0.0 0.0 0.2 1.0 1.5 2.2 0.7 0.4 1.2 0.7 0.4 1.4 1.0 0.6 0.0 0.1 0.0 0.1 0.0 0.0 0.0 0.0 0.0 0.0 0.0 0.5 0.9 1.6 2.2 2.4 1.4 1.8 1.5 1.2 0.8
0.0 0.0 0.0 0.0 0.0 0.0 0.0 0.0 0.4 2.7 2.6 0.1 0.0 0.0 0.0 0.0 0.2 0.2 0.0 0.0 0.0 0.4 1.3 4.4 2.4 1.6 0.3 0.2 0.0 0.1 0.0 0.0 0.1 0.0 0.1 0.0 0.0 0.0 0.0 0.0 0.0 0.1 0.7 1.7 1.5 1.6 1.1 1.7 1.6 1.3 1.0 0.8 0.8 1.0
0.0 0.0 0.0 0.0 0.0 0.0 3.5 4.2 1.3 0.9 0.2 0.0 0.0 0.0 0.0 0.0 0.0 0.0 0.0 0.0 0.0 0.0 0.3 2.5 2.4 0.4 0.0 0.0 0.0 0.0 0.0 0.0 0.0 0.0 0.0 0.0 0.0 0.0 0.0 0.3 0.3 0.7 1.8 1.6 0.4 0.4 0.4 0.3 0.7 0.4 1.0 0.7 1.0 0.8
0.0 0.0 0.0 0.0 0.0 1.7 2.4 3.9 1.3 0.0 0.0 0.0 0.0 0.0 0.0 0.0 0.0 0.0 0.0 0.1 0.3 1.7 1.9 1.9 0.0 0.2 0.1 0.3 0.3 0.1 0.0 0.0 0.0 0.0 0.0 0.0 0.0 0.0 0.0 0.0 0.1 0.3 0.7 0.6 0.5 0.7 0.5 0.7 0.5 0.2 0.6 0.5 1.0 1.1
0.0 0.0 0.0 0.0 1.9 2.6 1.6 1.0 0.1 0.0 0.0 0.0 0.0 0.0 0.0 0.0 0.0 0.0 0.0 1.0 2.0 2.5 1.9 1.2 0.2 0.1 0.0 0.5 0.2 0.0 0.0 0.0 0.0 0.0 0.0 0.0 0.0 0.0 0.0 0.0 0.0 0.0 0.0 0.3 0.2 0.1 0.5 0.3 0.7 0.5 0.3 0.8 0.7 1.0
0.4 0.0 6.5 4.0 8.9 4.9 2.1 0.8 0.0 0.0 0.0 0.0 0.0 0.0 0.0 0.0 0.1 0.1 0.1 1.7 3.4 2.0 1.5 1.1 1.0 0.6 0.2 0.0 0.8 0.9 0.4 0.0 0.0 0.0 0.0 0.0 0.0 0.0 0.0 0.0 0.0 0.0 0.0 0.0 0.0 0.1 0.0 0.1 0.1 0.5 0.5 1.1 0.9 0.4
0.3 1.3 6.7 7.9 8.2 5.1 3.1 0.5 0.4 0.2 0.1 0.6 0.4 0.2 0.6 0.4 0.2 0.2 1.2 1.5 1.6 1.2 1.0 0.8 1.0 2.2 2.3 1.8 1.5 1.1 0.6 0.1 0.0 0.2 0.1 0.0 0.0 0.0 0.0 0.0 0.0 0.0 0.0 0.0 0.0 0.0 0.0 0.0 0.0 0.0 0.0 0.0 0.7 0.7
0.0 6.9 9.4 8.1 4.4 3.3 2.1 1.9 1.3 0.6 0.7 0.8 0.9 0.7 0.4 0.0 0.5 0.9 0.9 0.6 0.4 0.4 1.3 1.6 1.3 1.1 0.6 1.5 1.8 2.2 2.3 1.4 0.4 0.0 0.7 0.3 0.1 0.0 0.0 0.0 0.0 0.0 0.0 0.0 0.0 0.0 0.0 0.0 0.0 0.0 0.0 0.0 0.0 0.0
12.5 13.9 8.6 8.8 3.9 1.5 0.4 0.8 0.7 0.6 0.7 0.5 0.4 0.1 0.1 0.0 0.4 0.3 0.0 0.0 0.1 0.2 0.6 1.4 1.5 1.4 1.4 1.0 1.4 1.3 1.2 1.5 2.5 2.7 0.1 1.5 0.8 0.2 0.0 0.0 0.3 0.0 0.0 0.2 0.1 0.1 0.0 0.0 0.0 0.0 0.0 0.1 0.3 0.4
15.9 9.3 3.1 0.5 0.2 0.1 0.0 0.0 0.1 0.1 0.1 0.1 0.4 0.1 0.0 0.1 0.3 0.0 0.0 0.0 0.1 0.3 0.4 0.6 1.2 1.2 0.9 0.8 1.0 1.8 1.7 1.5 1.3 2.4 1.4 2.0 1.6 2.1 2.1 0.2 1.5 0.7 0.2 0.1 0.9 0.8 0.3 0.1 0.1 0.0 0.0 0.1 0.4 0.5
10.7 6.3 1.6 0.1 0.1 0.1 0.0 0.0 0.1 0.0 0.3 0.6 0.1 0.0 0.1 0.5 0.2 0.0 0.0 0.0 0.0 0.4 0.7 1.1 2.2 1.9 1.3 1.4 1.3 1.8 2.0 2.2 2.0 1.5 2.0 4.3 4.0 2.5 1.2 2.1 2.0 1.2 0.9 0.6 1.3 1.0 1.2 1.0 0.6 0.7 0.6 0.7 0.5 1.1
2.5 0.3 0.0 0.0 0.1 0.0 0.2 0.4 0.7 0.6 0.5 0.0 0.4 0.4 0.3 0.0 0.0 0.0 0.0 0.0 0.0 0.0 0.8 1.3 1.8 2.4 2.2 1.9 1.9 2.6 2.8 3.1 3.4 3.2 4.5 5.2 5.4 5.0 3.9 3.1 2.4 2.7 3.0 2.1 1.8 2.4 2.1 1.7 1.4 2.1 1.7 1.5 1.3 1.1
1.1 0.2 0.1 0.1 0.0 0.1 0.3 0.3 0.3 0.1 0.0 0.0 0.1 0.0 0.0 0.0 0.0 0.0 0.0 0.0 0.0 0.8 1.0 1.5 1.9 2.0 2.8 2.9 2.8 3.5 3.5 3.6 3.1 2.5 2.0 2.4 4.3 6.0 5.6 4.8 5.5 5.6 3.7 3.8 2.6 3.0 3.1 4.0 3.6 3.6 3.8 3.7 3.4 3.4
0.1 0.0 0.0 0.1 0.1 0.2 0.3 0.1 0.0 0.0 0.0 0.0 0.0 0.0 0.0 0.0 0.0 0.0 0.1 0.0 0.0 1.4 1.8 2.4 2.3 2.4 3.5 3.4 3.5 3.3 4.1 4.1 3.8 2.2 2.1 2.2 2.8 4.1 5.8 5.8 5.9 6.4 6.0 5.6 6.4 6.8 5.0 6.1 6.3 6.4 5.7 5.5 5.4 4.8
0.1 0.0 0.1 0.1 0.1 0.3 0.2 0.3 0.2 0.2 0.0 0.1 0.1 0.1 0.1 0.1 0.0 0.0 0.3 0.6 1.4 2.0 2.7 3.4 3.8 4.5 4.6 5.0 4.9 4.4 4.5 5.2 5.3 5.5 4.4 4.8 4.8 4.8 5.5 6.3 5.9 6.5 6.4 5.9 5.2 4.9 5.0 4.7 4.2 4.4 4.3 4.3 3.9 3.6
0.0 0.0 0.0 0.1 0.1 0.1 0.5 0.4 0.2 0.1 0.1 0.1 0.2 0.1 0.1 0.1 0.1 0.0 0.5 0.8 1.8 2.3 2.7 3.4 3.9 5.0 5.6 5.4 5.4 5.3 4.2 4.8 4.8 6.0 5.1 4.5 4.5 3.9 5.1 5.6 6.2 5.7 6.2 6.4 5.8 6.3 6.2 6.2 6.3 5.8 5.7 5.7 5.3 4.8
1.1 0.6 0.5 0.4 0.8 0.9 0.3 0.1 0.1 0.0 0.0 0.0 0.1 0.0 0.0 0.1 0.0 0.4 0.6 1.0 2.0 2.5 2.7 4.1 4.7 4.7 4.5 4.4 4.9 5.2 5.2 5.1 6.0 5.7 5.7 5.9 5.7 6.3 5.5 5.5 5.7 6.4 6.4 6.7 7.0 7.6 7.9 7.3 7.0 6.6 6.1 5.8 5.3 5.0

GFSWCAN_prec_kuchsnow_087.txt.gz
Snowfall_Accumulation
0.0 0.0 0.0 0.0 0.0 0.0 0.0 0.0 0.0 0.0 0.0 0.0 0.0 0.0 0.0 0.0 0.0 0.0 0.0 0.0 0.0 0.0 0.0 0.0 0.0 0.0 0.0 0.0 0.0 0.0 0.0 0.0 0.0 0.1 0.0 0.1 0.0 0.0 0.0 0.0 0.0 0.0 0.1 0.2 0.3 0.8 0.0 0.0 0.0 0.0 0.0 0.0 0.0 0.0
0.0 0.0 0.0 0.0 0.0 0.0 0.0 0.0 0.0 0.0 0.0 0.0 0.0 0.0 0.0 0.0 0.0 0.0 0.0 0.0 0.0 0.0 0.0 0.0 0.0 0.0 0.0 0.0 0.0 0.0 0.0 0.0 0.0 0.2 0.1 0.0 0.0 0.0 0.0 0.0 0.0 0.0 0.0 0.0 0.0 0.0 0.0 0.0 0.0 0.0 0.0 0.0 0.0 0.0
0.0 0.0 0.0 0.0 0.0 0.0 0.0 0.0 0.0 0.0 0.0 0.0 0.0 0.0 0.0 0.0 0.0 0.0 0.0 0.0 0.0 0.2 0.0 0.0 0.0 0.0 0.0 0.0 0.0 0.0 0.0 0.0 0.0 0.0 0.1 0.1 0.0 0.0 0.0 0.0 0.0 0.0 0.0 0.0 0.0 0.0 0.0 0.0 0.0 0.0 0.0 0.0 0.0 0.0
0.0 0.0 0.0 0.0 0.0 0.0 0.0 0.0 0.0 0.0 0.0 0.0 0.0 0.0 0.0 0.0 0.0 0.0 0.0 0.0 0.0 0.2 1.5 0.0 0.0 0.0 0.0 0.0 0.0 0.0 0.0 0.0 0.0 0.4 0.5 0.2 0.2 0.0 0.0 0.0 0.0 0.0 0.0 0.0 0.0 0.0 0.0 0.0 0.0 0.0 0.0 0.0 0.0 0.0
0.0 0.0 0.0 0.0 0.0 0.0 0.0 0.0 0.0 0.0 0.0 0.0 0.0 0.0 0.0 0.0 0.0 0.0 0.0 0.0 0.0 0.3 2.2 0.7 0.0 0.0 0.0 0.0 0.0 0.0 0.0 0.0 0.2 0.7 1.3 0.7 0.0 0.0 0.0 0.0 0.0 0.0 0.0 0.0 0.0 0.0 0.0 0.0 0.0 0.0 0.0 0.0 0.0 0.0
0.0 0.0 0.0 0.0 0.0 0.0 0.0 0.0 0.0 0.0 0.0 0.0 0.0 0.0 0.0 0.0 0.0 0.0 0.0 0.0 0.0 0.0 2.6 3.1 0.0 0.0 0.0 0.0 0.0 0.0 0.0 0.0 0.8 0.3 1.6 0.0 0.0 0.0 0.9 0.1 0.0 0.0 0.0 0.0 0.0 0.0 0.0 0.0 0.0 0.0 0.0 0.0 0.0 0.0
0.0 0.0 0.0 0.0 0.0 0.0 0.0 0.0 0.0 0.0 0.0 0.0 0.0 0.0 0.0 0.0 0.0 0.1 0.1 0.0 0.0 0.0 2.6 7.8 4.1 0.1 0.0 0.0 0.0 0.0 0.0 0.0 1.2 1.1 0.0 0.8 0.2 1.1 1.0 0.0 0.0 0.0 0.0 0.0 0.0 0.0 0.0 0.0 0.0 0.0 0.0 0.0 0.0 0.0
0.0 0.0 0.0 0.0 0.0 0.0 0.0 0.0 0.0 0.0 0.0 0.0 0.0 0.0 0.0 0.0 0.0 0.0 0.0 0.0 0.0 1.5 4.2 11.3 8.8 4.6 0.0 0.0 0.1 0.0 0.0 0.0 1.9 0.7 0.0 0.1 0.0 0.7 1.2 0.0 0.0 0.0 0.0 0.0 0.0 0.0 0.0 0.0 0.0 0.0 0.0 0.0 0.0 0.0
0.0 0.0 0.0 0.0 0.0 0.0 0.0 0.0 0.0 0.0 0.0 0.0 0.0 0.0 0.0 0.0 0.0 0.0 0.0 0.0 0.0 0.1 7.2 6.3 10.1 6.4 0.2 0.1 0.1 0.1 0.0 1.6 0.2 0.9 0.0 0.0 0.4 2.0 0.0 0.0 0.1 0.0 0.0 0.0 0.0 0.0 0.0 0.0 0.0 0.0 0.0 0.0 0.0 0.0
0.0 0.0 0.0 0.0 0.0 0.0 0.0 0.0 0.0 0.0 0.0 0.0 0.0 0.0 0.2 0.0 0.0 0.0 0.0 1.4 2.7 2.4 3.0 6.6 2.6 2.8 1.1 2.0 0.7 0.8 0.1 1.9 4.8 0.0 0.0 0.6 0.1 0.0 0.0 0.2 0.1 0.0 0.0 0.0 2.9 1.7 0.5 1.1 0.2 0.1 0.0 0.0 0.0 0.0
0.0 0.0 0.0 0.0 0.0 0.0 0.0 0.0 0.0 0.0 0.0 0.0 0.0 0.3 0.0 0.0 0.0 0.0 4.3 4.0 1.8 2.6 2.4 2.4 2.2 2.3 0.0 3.2 1.2 0.3 2.5 1.7 6.9 1.9 0.9 1.5 2.6 0.6 0.0 0.2 0.0 0.0 0.1 0.0 0.0 0.1 0.9 1.5 2.0 1.0 0.4 1.5 0.9 1.5
0.0 0.0 0.0 0.0 0.0 0.0 0.0 0.0 0.0 0.0 0.0 0.0 0.0 0.0 0.0 1.7 4.7 7.4 6.9 1.0 1.1 1.7 0.6 0.9 0.5 0.2 0.5 0.0 1.7 1.0 2.5 2.3 2.8 1.4 3.9 3.4 1.5 0.9 1.2 0.4 0.2 0.1 0.0 0.1 0.1 1.1 0.5 0.5 0.8 0.8 1.9 2.4 2.2 2.2
0.0 0.0 0.0 0.0 0.0 0.0 0.0 0.0 0.0 0.0 0.0 0.0 0.1 1.3 2.7 4.7 8.0 5.5 4.9 1.5 0.5 0.3 0.4 0.6 0.9 0.1 0.0 0.1 1.3 2.0 2.2 1.0 2.1 4.9 3.6 1.3 0.3 0.0 0.3 1.1 1.0 0.7 0.1 0.5 0.9 0.0 0.3 0.3 0.3 0.3 0.2 0.1 0.0 0.0
0.0 0.0 0.0 0.0 0.0 0.0 0.0 0.0 0.0 0.0 0.0 0.1 0.8 1.8 3.0 3.5 3.3 2.2 1.3 1.0 0.0 0.2 0.0 0.0 0.6 0.9 0.1 1.2 1.0 2.4 0.3 1.8 6.2 3.2 2.5 0.3 0.4 0.3 0.1 0.2 0.4 0.5 0.7 1.0 2.8 2.8 1.4 0.8 0.3 0.1 0.0 0.1 0.0 0.0
0.0 0.0 0.0 0.0 0.0 0.0 0.0 0.0 0.0 0.0 0.0 0.3 1.0 1.6 1.4 1.3 0.6 0.3 0.1 0.4 0.0 0.0 0.0 0.0 0.1 0.3 1.0 1.8 1.1 1.6 2.0 4.4 3.3 3.1 1.0 0.4 0.4 0.6 0.4 0.2 0.2 0.4 0.5 1.2 1.2 2.1 3.2 1.9 0.7 0.0 0.0 0.0 0.3 0.3
0.0 0.0 0.0 0.0 0.0 0.0 0.0 0.0 0.0 0.0 0.6 0.6 0.7 1.4 0.6 0.5 0.3 0.1 0.0 0.1 0.0 0.0 0.1 0.2 0.5 1.0 0.8 2.2 1.2 2.0 3.0 3.8 2.2 1.0 0.5 0.3 0.6 0.0 0.2 0.2 0.0 0.0 0.0 0.1 1.0 1.4 2.0 1.9 1.3 0.7 0.5 0.1 0.2 0.9
0.0 0.0 0.0 0.0 0.0 0.0 0.0 0.0 0.0 1.9 2.4 1.2 0.2 0.4 0.6 0.3 0.3 0.2 0.0 0.0 0.0 0.2 1.0 1.5 2.2 0.7 0.4 1.2 0.7 0.4 1.4 1.1 0.6 0.0 0.1 0.0 0.1 0.0 0.0 0.0 0.0 0.0 0.0 0.0 0.5 0.9 1.6 2.2 2.4 1.4 1.8 1.5 1.2 0.8
0.0 0.0 0.0 0.0 0.0 0.0 0.0 0.0 0.4 2.7 2.6 0.1 0.0 0.0 0.0 0.0 0.2 0.2 0.0 0.0 0.0 0.4 1.3 4.4 2.4 1.6 0.3 0.2 0.0 0.1 0.0 0.0 0.1 0.0 0.1 0.0 0.0 0.0 0.0 0.0 0.0 0.1 0.7 1.7 1.5 1.6 1.1 1.7 1.6 1.3 1.0 0.8 0.8 1.0
0.0 0.0 0.0 0.0 0.0 0.0 3.5 4.2 1.3 1.0 0.2 0.0 0.0 0.0 0.0 0.0 0.0 0.0 0.0 0.0 0.0 0.0 0.3 2.5 2.4 0.4 0.0 0.0 0.0 0.0 0.0 0.0 0.0 0.0 0.0 0.0 0.0 0.0 0.0 0.3 0.3 0.7 1.8 1.6 0.4 0.4 0.4 0.3 0.7 0.4 1.0 0.7 1.0 0.8
0.0 0.0 0.0 0.0 0.0 1.7 2.5 4.2 1.5 0.0 0.0 0.0 0.0 0.0 0.0 0.0 0.0 0.0 0.0 0.1 0.3 1.7 1.9 1.9 0.0 0.2 0.1 0.3 0.3 0.1 0.0 0.0 0.0 0.0 0.0 0.0 0.0 0.0 0.0 0.0 0.1 0.3 0.7 0.6 0.5 0.7 0.5 0.7 0.5 0.2 0.6 0.5 1.0 1.1
0.0 0.0 0.0 0.0 1.9 2.6 1.6 1.0 0.1 0.0 0.0 0.0 0.0 0.0 0.0 0.0 0.0 0.0 0.0 1.0 2.0 2.5 1.9 1.2 0.2 0.1 0.0 0.5 0.2 0.0 0.0 0.0 0.0 0.0 0.0 0.0 0.0 0.0 0.0 0.0 0.0 0.0 0.0 0.3 0.2 0.1 0.5 0.3 0.7 0.5 0.3 0.8 0.7 1.0
0.4 0.0 6.5 4.0 9.6 5.6 2.1 0.8 0.0 0.0 0.0 0.0 0.0 0.0 0.0 0.0 0.1 0.1 0.1 1.7 3.4 2.0 1.5 1.1 1.0 0.6 0.2 0.0 0.8 0.9 0.4 0.0 0.0 0.0 0.0 0.0 0.0 0.0 0.0 0.0 0.0 0.0 0.0 0.0 0.0 0.1 0.0 0.1 0.1 0.5 0.5 1.1 0.9 0.4
0.3 1.3 7.3 8.6 9.2 5.9 3.5 0.5 0.4 0.2 0.1 0.6 0.5 0.2 0.6 0.4 0.2 0.2 1.2 1.5 1.6 1.2 1.0 0.8 1.0 2.2 2.3 1.8 1.5 1.1 0.6 0.1 0.0 0.2 0.1 0.0 0.0 0.0 0.0 0.0 0.0 0.0 0.0 0.0 0.0 0.0 0.0 0.0 0.0 0.0 0.0 0.0 0.7 0.7
0.0 7.2 9.9 8.8 4.8 3.7 2.5 2.2 1.6 0.8 1.0 0.9 0.9 0.7 0.4 0.0 0.6 0.9 0.9 0.6 0.4 0.4 1.3 1.6 1.3 1.1 0.6 1.5 1.8 2.2 2.3 1.4 0.4 0.0 0.7 0.3 0.1 0.0 0.0 0.0 0.0 0.0 0.0 0.0 0.0 0.0 0.0 0.0 0.0 0.0 0.0 0.0 0.0 0.0
13.5 15.0 8.9 9.3 4.4 1.8 0.5 0.9 0.7 0.7 0.7 0.5 0.4 0.1 0.1 0.1 0.5 0.4 0.0 0.0 0.1 0.2 0.6 1.4 1.5 1.4 1.4 1.0 1.4 1.3 1.2 1.5 2.5 2.7 0.1 1.5 0.8 0.2 0.0 0.0 0.3 0.0 0.0 0.2 0.1 0.1 0.0 0.0 0.0 0.0 0.0 0.1 0.3 0.4
17.3 10.0 3.3 0.6 0.2 0.1 0.1 0.0 0.1 0.1 0.1 0.1 0.4 0.1 0.0 0.1 0.3 0.0 0.0 0.0 0.1 0.3 0.4 0.6 1.2 1.2 0.9 0.8 1.0 1.8 1.7 1.5 1.3 2.4 1.4 2.0 1.6 2.1 2.1 0.2 1.5 0.7 0.2 0.1 0.9 0.8 0.3 0.1 0.1 0.0 0.0 0.1 0.4 0.5
11.1 6.5 1.9 0.1 0.1 0.1 0.0 0.0 0.1 0.0 0.3 0.6 0.1 0.0 0.1 0.5 0.2 0.0 0.0 0.0 0.0 0.4 0.7 1.1 2.2 1.9 1.3 1.4 1.3 1.8 2.0 2.2 2.0 1.5 2.0 4.3 4.0 2.5 1.2 2.1 2.0 1.2 0.9 0.6 1.3 1.0 1.2 1.0 0.6 0.7 0.6 0.7 0.5 1.1
2.5 0.3 0.0 0.0 0.1 0.0 0.2 0.4 0.7 0.6 0.5 0.0 0.4 0.4 0.3 0.0 0.0 0.0 0.0 0.0 0.0 0.0 0.8 1.3 1.8 2.4 2.2 1.9 1.9 2.6 2.8 3.1 3.4 3.2 4.5 5.2 5.4 5.0 3.9 3.1 2.4 2.7 3.0 2.1 1.8 2.4 2.1 1.7 1.4 2.1 1.7 1.5 1.3 1.1
1.1 0.2 0.1 0.1 0.0 0.1 0.3 0.3 0.3 0.1 0.0 0.0 0.1 0.0 0.0 0.0 0.0 0.0 0.0 0.0 0.0 0.8 1.0 1.5 1.9 2.0 2.8 2.9 2.8 3.5 3.5 3.6 3.1 2.5 2.0 2.4 4.3 6.0 5.6 4.8 5.5 5.6 3.7 3.8 2.6 3.0 3.1 4.0 3.6 3.6 3.8 3.7 3.4 3.4
0.1 0.0 0.0 0.1 0.1 0.2 0.3 0.1 0.0 0.0 0.0 0.0 0.0 0.0 0.0 0.0 0.0 0.0 0.1 0.0 0.0 1.4 1.8 2.4 2.3 2.4 3.5 3.4 3.5 3.3 4.1 4.1 3.8 2.2 2.1 2.2 2.8 4.1 5.8 5.8 5.9 6.4 6.0 5.6 6.4 6.8 5.1 6.1 6.3 6.4 5.7 5.5 5.4 4.8
0.1 0.0 0.1 0.1 0.1 0.3 0.2 0.3 0.2 0.2 0.0 0.1 0.1 0.1 0.1 0.1 0.0 0.0 0.3 0.6 1.4 2.0 2.7 3.4 3.8 4.5 4.6 5.0 4.9 4.4 4.5 5.2 5.3 5.5 4.4 4.8 4.8 4.8 5.5 6.3 5.9 6.5 6.4 5.9 5.2 4.9 5.0 4.7 4.2 4.4 4.3 4.3 3.9 3.6
0.0 0.0 0.0 0.1 0.1 0.1 0.5 0.4 0.2 0.1 0.1 0.1 0.2 0.1 0.1 0.1 0.1 0.0 0.5 0.8 1.8 2.3 2.7 3.4 3.9 5.0 5.6 5.4 5.4 5.3 4.2 4.8 4.8 6.0 5.1 4.5 4.5 3.9 5.1 5.6 6.2 5.7 6.2 6.4 5.8 6.3 6.2 6.2 6.3 5.8 5.7 5.7 5.3 4.8
1.2 0.6 0.5 0.4 0.8 0.9 0.3 0.1 0.1 0.0 0.0 0.0 0.1 0.0 0.0 0.1 0.0 0.4 0.6 1.0 2.0 2.5 2.7 4.1 4.7 4.7 4.5 4.4 4.9 5.2 5.2 5.1 6.0 5.7 5.7 5.9 5.7 6.3 5.5 5.5 5.7 6.4 6.4 6.7 7.0 7.6 7.9 7.3 7.0 6.6 6.1 5.8 5.3 5.0

GFSWCAN_prec_kuchsnow_090.txt.gz
Snowfall_Accumulation
0.0 0.0 0.0 0.0 0.0 0.0 0.0 0.0 0.0 0.0 0.0 0.0 0.0 0.0 0.0 0.0 0.0 0.0 0.0 0.0 0.0 0.0 0.0 0.0 0.0 0.0 0.0 0.0 0.0 0.0 0.0 0.0 0.0 0.1 0.0 0.1 0.0 0.0 0.0 0.0 0.0 0.0 0.1 0.2 0.3 0.8 0.0 0.0 0.0 0.0 0.0 0.0 0.0 0.0
0.0 0.0 0.0 0.0 0.0 0.0 0.0 0.0 0.0 0.0 0.0 0.0 0.0 0.0 0.0 0.0 0.0 0.0 0.0 0.0 0.0 0.0 0.0 0.0 0.0 0.0 0.0 0.0 0.0 0.0 0.0 0.0 0.0 0.2 0.1 0.0 0.0 0.0 0.0 0.0 0.0 0.0 0.0 0.0 0.0 0.0 0.0 0.0 0.0 0.0 0.0 0.0 0.0 0.0
0.0 0.0 0.0 0.0 0.0 0.0 0.0 0.0 0.0 0.0 0.0 0.0 0.0 0.0 0.0 0.0 0.0 0.0 0.0 0.0 0.0 0.2 0.0 0.0 0.0 0.0 0.0 0.0 0.0 0.0 0.0 0.0 0.0 0.0 0.1 0.1 0.0 0.0 0.0 0.0 0.0 0.0 0.0 0.0 0.0 0.0 0.0 0.0 0.0 0.0 0.0 0.0 0.0 0.0
0.0 0.0 0.0 0.0 0.0 0.0 0.0 0.0 0.0 0.0 0.0 0.0 0.0 0.0 0.0 0.0 0.0 0.0 0.0 0.0 0.0 0.2 1.5 0.0 0.0 0.0 0.0 0.0 0.0 0.0 0.0 0.0 0.0 0.4 0.5 0.2 0.2 0.0 0.0 0.0 0.0 0.0 0.0 0.0 0.0 0.0 0.0 0.0 0.0 0.0 0.0 0.0 0.0 0.0
0.0 0.0 0.0 0.0 0.0 0.0 0.0 0.0 0.0 0.0 0.0 0.0 0.0 0.0 0.0 0.0 0.0 0.0 0.0 0.0 0.0 0.3 2.2 0.7 0.0 0.0 0.0 0.0 0.0 0.0 0.0 0.0 0.2 0.7 1.3 0.7 0.0 0.0 0.0 0.0 0.0 0.0 0.0 0.0 0.0 0.0 0.0 0.0 0.0 0.0 0.0 0.0 0.0 0.0
0.0 0.0 0.0 0.0 0.0 0.0 0.0 0.0 0.0 0.0 0.0 0.0 0.0 0.0 0.0 0.0 0.0 0.0 0.0 0.0 0.0 0.0 2.6 3.1 0.0 0.0 0.0 0.0 0.0 0.0 0.0 0.0 0.8 0.3 1.6 0.0 0.0 0.0 0.9 0.1 0.0 0.0 0.0 0.0 0.0 0.0 0.0 0.0 0.0 0.0 0.0 0.0 0.0 0.0
0.0 0.0 0.0 0.0 0.0 0.0 0.0 0.0 0.0 0.0 0.0 0.0 0.0 0.0 0.0 0.0 0.0 0.1 0.1 0.0 0.0 0.0 2.6 7.8 4.1 0.1 0.0 0.0 0.0 0.0 0.0 0.0 1.2 1.1 0.0 0.8 0.2 1.1 1.0 0.0 0.0 0.0 0.0 0.0 0.0 0.0 0.0 0.0 0.0 0.0 0.0 0.0 0.0 0.0
0.0 0.0 0.0 0.0 0.0 0.0 0.0 0.0 0.0 0.0 0.0 0.0 0.0 0.0 0.0 0.0 0.0 0.0 0.0 0.0 0.0 1.5 4.2 11.3 8.8 4.6 0.0 0.0 0.1 0.0 0.0 0.0 1.9 0.7 0.0 0.1 0.0 0.7 1.2 0.0 0.0 0.0 0.0 0.0 0.0 0.0 0.0 0.0 0.0 0.0 0.0 0.0 0.0 0.0
0.0 0.0 0.0 0.0 0.0 0.0 0.0 0.0 0.0 0.0 0.0 0.0 0.0 0.0 0.0 0.0 0.0 0.0 0.0 0.0 0.0 0.1 7.2 6.3 10.1 6.4 0.2 0.1 0.1 0.1 0.0 1.6 0.2 0.9 0.0 0.0 0.4 2.0 0.0 0.0 0.1 0.0 0.0 0.0 0.0 0.0 0.0 0.0 0.0 0.0 0.0 0.0 0.0 0.0
0.0 0.0 0.0 0.0 0.0 0.0 0.0 0.0 0.0 0.0 0.0 0.0 0.0 0.0 0.2 0.0 0.0 0.0 0.0 1.4 2.7 2.4 3.0 6.6 2.6 2.8 1.1 2.0 0.7 0.8 0.1 1.9 4.8 0.0 0.0 0.6 0.1 0.0 0.0 0.2 0.1 0.0 0.0 0.0 2.9 1.7 0.5 1.1 0.2 0.1 0.0 0.0 0.0 0.0
0.0 0.0 0.0 0.0 0.0 0.0 0.0 0.0 0.0 0.0 0.0 0.0 0.0 0.3 0.0 0.0 0.0 0.0 4.3 4.0 1.8 2.6 2.4 2.4 2.2 2.3 0.0 3.2 1.2 0.3 2.5 1.7 6.9 1.9 0.9 1.5 2.6 0.6 0.0 0.2 0.0 0.0 0.1 0.0 0.0 0.1 0.9 1.5 2.0 1.0 0.4 1.5 0.9 1.5
0.0 0.0 0.0 0.0 0.0 0.0 0.0 0.0 0.0 0.0 0.0 0.0 0.0 0.0 0.0 1.7 4.7 7.4 6.9 1.0 1.1 1.7 0.6 0.9 0.5 0.2 0.5 0.0 1.7 1.0 2.5 2.3 2.8 1.4 3.9 3.4 1.5 0.9 1.2 0.4 0.2 0.1 0.0 0.1 0.1 1.1 0.5 0.5 0.8 0.8 1.9 2.4 2.2 2.2
0.0 0.0 0.0 0.0 0.0 0.0 0.0 0.0 0.0 0.0 0.0 0.0 0.1 1.3 2.7 4.7 8.0 5.5 4.9 1.5 0.5 0.3 0.4 0.6 0.9 0.1 0.0 0.1 1.3 2.0 2.2 1.0 2.1 4.9 3.6 1.3 0.3 0.0 0.3 1.1 1.0 0.7 0.1 0.5 0.9 0.0 0.3 0.3 0.3 0.3 0.2 0.1 0.0 0.0
0.0 0.0 0.0 0.0 0.0 0.0 0.0 0.0 0.0 0.0 0.0 0.1 0.8 1.8 3.0 3.5 3.3 2.2 1.3 1.0 0.0 0.2 0.0 0.0 0.6 0.9 0.1 1.2 1.0 2.4 0.3 1.8 6.2 3.2 2.5 0.3 0.4 0.3 0.1 0.2 0.4 0.5 0.7 1.0 2.8 2.8 1.4 0.8 0.3 0.1 0.0 0.1 0.0 0.0
0.0 0.0 0.0 0.0 0.0 0.0 0.0 0.0 0.0 0.0 0.0 0.3 1.0 1.6 1.4 1.3 0.6 0.3 0.1 0.4 0.0 0.0 0.0 0.0 0.1 0.3 1.0 1.8 1.1 1.6 2.0 4.4 3.3 3.1 1.0 0.4 0.4 0.6 0.4 0.2 0.2 0.4 0.5 1.2 1.2 2.1 3.2 1.9 0.7 0.0 0.0 0.0 0.3 0.3
0.0 0.0 0.0 0.0 0.0 0.0 0.0 0.0 0.0 0.0 0.6 0.6 0.7 1.4 0.6 0.5 0.3 0.1 0.0 0.1 0.0 0.0 0.1 0.2 0.5 1.0 0.8 2.2 1.2 2.0 3.0 3.8 2.2 1.0 0.5 0.3 0.6 0.0 0.2 0.2 0.0 0.0 0.0 0.1 1.0 1.4 2.0 1.9 1.3 0.7 0.5 0.1 0.2 0.9
0.0 0.0 0.0 0.0 0.0 0.0 0.0 0.0 0.0 1.9 2.4 1.2 0.2 0.4 0.6 0.3 0.3 0.2 0.0 0.0 0.0 0.2 1.0 1.5 2.2 0.7 0.4 1.2 0.7 0.4 1.4 1.1 0.6 0.0 0.1 0.0 0.1 0.0 0.0 0.0 0.0 0.0 0.0 0.0 0.5 0.9 1.6 2.2 2.4 1.4 1.8 1.5 1.2 0.8
0.0 0.0 0.0 0.0 0.0 0.0 0.0 0.0 0.4 2.7 2.6 0.1 0.0 0.0 0.0 0.0 0.2 0.2 0.0 0.0 0.0 0.4 1.3 4.4 2.4 1.6 0.3 0.2 0.0 0.1 0.0 0.0 0.1 0.0 0.1 0.0 0.0 0.0 0.0 0.0 0.0 0.1 0.7 1.7 1.5 1.6 1.1 1.7 1.6 1.3 1.0 0.8 0.8 1.0
0.0 0.0 0.0 0.0 0.0 0.0 3.5 4.2 1.3 1.2 0.2 0.0 0.0 0.0 0.0 0.0 0.0 0.0 0.0 0.0 0.0 0.0 0.3 2.5 2.4 0.4 0.0 0.0 0.0 0.0 0.0 0.0 0.0 0.0 0.0 0.0 0.0 0.0 0.0 0.3 0.3 0.7 1.8 1.6 0.4 0.4 0.4 0.3 0.7 0.4 1.0 0.7 1.0 0.8
0.0 0.0 0.0 0.0 0.0 1.7 2.8 4.4 1.5 0.0 0.0 0.0 0.0 0.0 0.0 0.0 0.0 0.0 0.0 0.1 0.3 1.7 1.9 1.9 0.0 0.2 0.1 0.3 0.3 0.1 0.0 0.0 0.0 0.0 0.0 0.0 0.0 0.0 0.0 0.0 0.1 0.3 0.7 0.6 0.5 0.7 0.5 0.7 0.5 0.2 0.6 0.5 1.0 1.1
0.0 0.0 0.0 0.0 1.9 2.6 1.6 1.1 0.1 0.0 0.0 0.0 0.0 0.0 0.0 0.0 0.0 0.0 0.0 1.0 2.0 2.5 1.9 1.2 0.2 0.1 0.0 0.5 0.2 0.0 0.0 0.0 0.0 0.0 0.0 0.0 0.0 0.0 0.0 0.0 0.0 0.0 0.0 0.3 0.2 0.1 0.5 0.3 0.7 0.5 0.3 0.8 0.7 1.0
0.4 0.0 6.5 4.0 11.1 6.2 2.3 0.8 0.0 0.0 0.0 0.0 0.0 0.0 0.0 0.0 0.1 0.1 0.1 1.7 3.4 2.0 1.5 1.1 1.0 0.6 0.2 0.0 0.8 0.9 0.4 0.0 0.0 0.0 0.0 0.0 0.0 0.0 0.0 0.0 0.0 0.0 0.0 0.0 0.0 0.1 0.0 0.1 0.1 0.5 0.5 1.1 0.9 0.4
0.3 1.3 9.8 10.7 11.5 7.5 4.3 0.5 0.4 0.2 0.1 0.6 0.5 0.2 0.6 0.4 0.2 0.2 1.2 1.5 1.6 1.2 1.0 0.8 1.0 2.2 2.3 1.8 1.5 1.1 0.6 0.1 0.0 0.2 0.1 0.0 0.0 0.0 0.0 0.0 0.0 0.0 0.0 0.0 0.0 0.0 0.0 0.0 0.0 0.0 0.0 0.0 0.7 0.7
0.0 9.9 13.3 11.4 6.1 5.3 3.1 2.9 1.9 0.8 1.2 0.9 0.9 0.7 0.4 0.0 0.7 1.0 0.9 0.6 0.4 0.4 1.3 1.6 1.3 1.1 0.6 1.5 1.8 2.2 2.3 1.4 0.4 0.0 0.7 0.3 0.1 0.0 0.0 0.0 0.0 0.0 0.0 0.0 0.0 0.0 0.0 0.0 0.0 0.0 0.0 0.0 0.0 0.0
16.9 18.8 11.7 12.0 5.7 2.3 0.8 1.2 0.9 0.8 0.8 0.6 0.4 0.1 0.1 0.1 0.5 0.4 0.0 0.0 0.1 0.2 0.6 1.4 1.5 1.4 1.4 1.0 1.4 1.3 1.2 1.5 2.5 2.7 0.1 1.5 0.8 0.2 0.0 0.0 0.3 0.0 0.0 0.2 0.1 0.1 0.0 0.0 0.0 0.0 0.0 0.1 0.3 0.4
20.2 12.0 4.4 1.0 0.5 0.1 0.1 0.0 0.2 0.1 0.1 0.1 0.4 0.1 0.0 0.1 0.3 0.0 0.0 0.0 0.1 0.3 0.4 0.6 1.2 1.2 0.9 0.8 1.0 1.8 1.7 1.5 1.3 2.4 1.4 2.0 1.6 2.1 2.1 0.2 1.5 0.7 0.2 0.1 0.9 0.8 0.3 0.1 0.1 0.0 0.0 0.1 0.4 0.5
13.1 7.4 2.1 0.1 0.1 0.1 0.0 0.0 0.1 0.0 0.3 0.6 0.1 0.0 0.1 0.6 0.2 0.0 0.0 0.0 0.0 0.4 0.7 1.1 2.2 1.9 1.3 1.4 1.3 1.8 2.0 2.2 2.0 1.5 2.0 4.3 4.0 2.5 1.2 2.1 2.0 1.2 0.9 0.6 1.3 1.0 1.2 1.0 0.6 0.7 0.6 0.7 0.5 1.1
2.8 0.3 0.0 0.0 0.1 0.0 0.2 0.4 0.7 0.6 0.5 0.0 0.4 0.4 0.3 0.0 0.0 0.0 0.0 0.0 0.0 0.0 0.8 1.3 1.8 2.4 2.2 1.9 1.9 2.6 2.8 3.1 3.4 3.2 4.5 5.2 5.4 5.0 3.9 3.1 2.4 2.7 3.0 2.1 1.8 2.4 2.1 1.7 1.4 2.1 1.7 1.5 1.3 1.1
1.3 0.3 0.1 0.1 0.0 0.1 0.3 0.3 0.3 0.1 0.0 0.0 0.1 0.0 0.0 0.0 0.0 0.0 0.0 0.0 0.0 0.8 1.0 1.5 1.9 2.0 2.8 2.9 2.8 3.5 3.5 3.6 3.1 2.5 2.0 2.4 4.3 6.0 5.6 4.8 5.5 5.6 3.7 3.8 2.6 3.0 3.1 4.0 3.6 3.6 3.8 3.7 3.4 3.4
0.2 0.0 0.0 0.1 0.1 0.2 0.3 0.1 0.0 0.0 0.0 0.0 0.0 0.0 0.0 0.0 0.0 0.0 0.1 0.0 0.0 1.4 1.8 2.4 2.3 2.4 3.5 3.4 3.5 3.3 4.1 4.1 3.8 2.2 2.1 2.2 2.9 4.1 5.8 5.8 5.9 6.4 6.0 5.6 6.4 6.8 5.1 6.1 6.3 6.4 5.7 5.5 5.4 4.8
0.1 0.0 0.1 0.1 0.1 0.3 0.2 0.3 0.2 0.2 0.0 0.1 0.1 0.1 0.1 0.1 0.0 0.0 0.3 0.6 1.4 2.0 2.7 3.4 3.8 4.5 4.6 5.0 4.9 4.4 4.5 5.2 5.3 5.5 4.4 4.8 4.8 4.8 5.5 6.3 5.9 6.5 6.4 5.9 5.2 4.9 5.0 4.7 4.2 4.4 4.3 4.3 3.9 3.6
0.0 0.0 0.0 0.1 0.1 0.1 0.5 0.4 0.2 0.1 0.1 0.1 0.2 0.1 0.1 0.1 0.1 0.0 0.5 0.8 1.8 2.3 2.7 3.4 3.9 5.0 5.6 5.4 5.4 5.3 4.2 4.8 4.8 6.0 5.1 4.5 4.5 3.9 5.1 5.6 6.2 5.7 6.2 6.4 5.8 6.3 6.2 6.2 6.3 5.8 5.7 5.7 5.3 4.8
1.2 0.6 0.5 0.4 0.8 0.9 0.3 0.1 0.1 0.0 0.0 0.0 0.1 0.0 0.0 0.1 0.0 0.4 0.6 1.0 2.0 2.5 2.7 4.1 4.7 4.7 4.5 4.4 4.9 5.2 5.2 5.1 6.0 5.7 5.7 5.9 5.7 6.3 5.5 5.5 5.7 6.4 6.4 6.7 7.0 7.6 7.9 7.3 7.0 6.6 6.1 5.8 5.3 5.0

GFSWCAN_prec_kuchsnow_093.txt.gz
Snowfall_Accumulation
0.0 0.0 0.0 0.0 0.0 0.0 0.0 0.0 0.0 0.0 0.0 0.0 0.0 0.0 0.0 0.0 0.0 0.0 0.0 0.0 0.0 0.0 0.0 0.0 0.0 0.0 0.0 0.0 0.0 0.0 0.0 0.0 0.0 0.1 0.0 0.1 0.0 0.0 0.0 0.0 0.0 0.0 0.1 0.2 0.3 0.8 0.0 0.0 0.0 0.0 0.0 0.0 0.0 0.0
0.0 0.0 0.0 0.0 0.0 0.0 0.0 0.0 0.0 0.0 0.0 0.0 0.0 0.0 0.0 0.0 0.0 0.0 0.0 0.0 0.0 0.0 0.0 0.0 0.0 0.0 0.0 0.0 0.0 0.0 0.0 0.0 0.0 0.2 0.1 0.0 0.0 0.0 0.0 0.0 0.0 0.0 0.0 0.0 0.0 0.0 0.0 0.0 0.0 0.0 0.0 0.0 0.0 0.0
0.0 0.0 0.0 0.0 0.0 0.0 0.0 0.0 0.0 0.0 0.0 0.0 0.0 0.0 0.0 0.0 0.0 0.0 0.0 0.0 0.0 0.2 0.0 0.0 0.0 0.0 0.0 0.0 0.0 0.0 0.0 0.0 0.0 0.0 0.1 0.1 0.0 0.0 0.0 0.0 0.0 0.0 0.0 0.0 0.0 0.0 0.0 0.0 0.0 0.0 0.0 0.0 0.0 0.0
0.0 0.0 0.0 0.0 0.0 0.0 0.0 0.0 0.0 0.0 0.0 0.0 0.0 0.0 0.0 0.0 0.0 0.0 0.0 0.0 0.0 0.2 1.5 0.0 0.0 0.0 0.0 0.0 0.0 0.0 0.0 0.0 0.0 0.4 0.5 0.2 0.2 0.0 0.0 0.0 0.0 0.0 0.0 0.0 0.0 0.0 0.0 0.0 0.0 0.0 0.0 0.0 0.0 0.0
0.0 0.0 0.0 0.0 0.0 0.0 0.0 0.0 0.0 0.0 0.0 0.0 0.0 0.0 0.0 0.0 0.0 0.0 0.0 0.0 0.0 0.3 2.2 0.7 0.0 0.0 0.0 0.0 0.0 0.0 0.0 0.0 0.2 0.7 1.3 0.7 0.0 0.0 0.0 0.0 0.0 0.0 0.0 0.0 0.0 0.0 0.0 0.0 0.0 0.0 0.0 0.0 0.0 0.0
0.0 0.0 0.0 0.0 0.0 0.0 0.0 0.0 0.0 0.0 0.0 0.0 0.0 0.0 0.0 0.0 0.0 0.0 0.0 0.0 0.0 0.0 2.6 3.1 0.0 0.0 0.0 0.0 0.0 0.0 0.0 0.0 0.8 0.3 1.6 0.0 0.0 0.0 0.9 0.1 0.0 0.0 0.0 0.0 0.0 0.0 0.0 0.0 0.0 0.0 0.0 0.0 0.0 0.0
0.0 0.0 0.0 0.0 0.0 0.0 0.0 0.0 0.0 0.0 0.0 0.0 0.0 0.0 0.0 0.0 0.0 0.1 0.1 0.0 0.0 0.0 2.6 7.8 4.1 0.1 0.0 0.0 0.0 0.0 0.0 0.0 1.2 1.1 0.0 0.8 0.2 1.1 1.0 0.0 0.0 0.0 0.0 0.0 0.0 0.0 0.0 0.0 0.0 0.0 0.0 0.0 0.0 0.0
0.0 0.0 0.0 0.0 0.0 0.0 0.0 0.0 0.0 0.0 0.0 0.0 0.0 0.0 0.0 0.0 0.0 0.0 0.0 0.0 0.0 1.5 4.2 11.3 8.8 4.6 0.0 0.0 0.1 0.0 0.0 0.0 1.9 0.7 0.0 0.1 0.0 0.7 1.2 0.0 0.0 0.0 0.0 0.0 0.0 0.0 0.0 0.0 0.0 0.0 0.0 0.0 0.0 0.0
0.0 0.0 0.0 0.0 0.0 0.0 0.0 0.0 0.0 0.0 0.0 0.0 0.0 0.0 0.0 0.0 0.0 0.0 0.0 0.0 0.0 0.1 7.2 6.3 10.1 6.4 0.2 0.1 0.1 0.1 0.0 1.6 0.2 0.9 0.0 0.0 0.4 2.0 0.0 0.0 0.1 0.0 0.0 0.0 0.0 0.0 0.0 0.0 0.0 0.0 0.0 0.0 0.0 0.0
0.0 0.0 0.0 0.0 0.0 0.0 0.0 0.0 0.0 0.0 0.0 0.0 0.0 0.0 0.2 0.0 0.0 0.0 0.0 1.4 2.7 2.4 3.0 6.6 2.6 2.8 1.1 2.0 0.7 0.8 0.1 1.9 4.8 0.0 0.0 0.6 0.1 0.0 0.0 0.2 0.1 0.0 0.0 0.0 2.9 1.7 0.5 1.1 0.2 0.1 0.0 0.0 0.0 0.0
0.0 0.0 0.0 0.0 0.0 0.0 0.0 0.0 0.0 0.0 0.0 0.0 0.0 0.3 0.0 0.0 0.0 0.0 4.3 4.0 1.8 2.6 2.4 2.4 2.2 2.3 0.0 3.2 1.2 0.3 2.5 1.7 6.9 1.9 0.9 1.5 2.6 0.6 0.0 0.2 0.0 0.0 0.1 0.0 0.0 0.1 0.9 1.5 2.0 1.0 0.4 1.5 0.9 1.5
0.0 0.0 0.0 0.0 0.0 0.0 0.0 0.0 0.0 0.0 0.0 0.0 0.0 0.0 0.0 1.7 4.7 7.4 6.9 1.0 1.1 1.7 0.6 0.9 0.5 0.2 0.5 0.0 1.7 1.0 2.5 2.3 2.8 1.4 3.9 3.4 1.5 0.9 1.2 0.4 0.2 0.1 0.0 0.1 0.1 1.1 0.5 0.5 0.8 0.8 1.9 2.4 2.2 2.2
0.0 0.0 0.0 0.0 0.0 0.0 0.0 0.0 0.0 0.0 0.0 0.0 0.1 1.3 2.7 4.7 8.0 5.5 4.9 1.5 0.5 0.3 0.4 0.6 0.9 0.1 0.0 0.1 1.3 2.0 2.2 1.0 2.1 4.9 3.6 1.3 0.3 0.0 0.3 1.1 1.0 0.7 0.1 0.5 0.9 0.0 0.3 0.3 0.3 0.3 0.2 0.1 0.0 0.0
0.0 0.0 0.0 0.0 0.0 0.0 0.0 0.0 0.0 0.0 0.0 0.1 0.8 1.8 3.0 3.5 3.3 2.2 1.3 1.0 0.0 0.2 0.0 0.0 0.6 0.9 0.1 1.2 1.0 2.4 0.3 1.8 6.2 3.2 2.5 0.3 0.4 0.3 0.1 0.2 0.4 0.5 0.7 1.0 2.8 2.8 1.4 0.8 0.3 0.1 0.0 0.1 0.0 0.0
0.0 0.0 0.0 0.0 0.0 0.0 0.0 0.0 0.0 0.0 0.0 0.3 1.0 1.6 1.4 1.3 0.6 0.3 0.1 0.4 0.0 0.0 0.0 0.0 0.1 0.3 1.0 1.8 1.1 1.6 2.0 4.4 3.3 3.1 1.0 0.4 0.4 0.6 0.4 0.2 0.2 0.4 0.5 1.2 1.2 2.1 3.2 1.9 0.7 0.0 0.0 0.0 0.3 0.3
0.0 0.0 0.0 0.0 0.0 0.0 0.0 0.0 0.0 0.0 0.6 0.6 0.7 1.4 0.6 0.5 0.3 0.1 0.0 0.1 0.0 0.0 0.1 0.2 0.5 1.0 0.8 2.2 1.2 2.0 3.0 3.8 2.2 1.0 0.5 0.3 0.6 0.0 0.2 0.2 0.0 0.0 0.0 0.1 1.0 1.4 2.0 1.9 1.3 0.7 0.5 0.1 0.2 0.9
0.0 0.0 0.0 0.0 0.0 0.0 0.0 0.0 0.0 1.9 2.4 1.2 0.2 0.4 0.6 0.3 0.3 0.2 0.0 0.0 0.0 0.2 1.0 1.5 2.2 0.7 0.4 1.2 0.7 0.4 1.4 1.1 0.6 0.0 0.1 0.0 0.1 0.0 0.0 0.0 0.0 0.0 0.0 0.0 0.5 0.9 1.6 2.2 2.4 1.4 1.8 1.5 1.2 0.8
0.0 0.0 0.0 0.0 0.0 0.0 0.0 0.0 0.4 2.8 2.8 0.1 0.0 0.0 0.0 0.0 0.2 0.2 0.0 0.0 0.0 0.4 1.3 4.4 2.4 1.6 0.3 0.2 0.0 0.1 0.0 0.0 0.1 0.0 0.1 0.0 0.0 0.0 0.0 0.0 0.0 0.1 0.7 1.7 1.5 1.6 1.1 1.7 1.6 1.3 1.0 0.8 0.8 1.0
0.0 0.0 0.0 0.0 0.0 0.0 4.9 4.2 1.3 1.3 0.2 0.0 0.0 0.0 0.0 0.0 0.0 0.0 0.0 0.0 0.0 0.0 0.3 2.5 2.4 0.4 0.0 0.0 0.0 0.0 0.0 0.0 0.0 0.0 0.0 0.0 0.0 0.0 0.0 0.3 0.3 0.7 1.8 1.6 0.4 0.4 0.4 0.3 0.7 0.4 1.0 0.7 1.0 0.8
0.0 0.0 0.0 0.0 0.0 3.7 5.3 5.7 1.5 0.2 0.1 0.0 0.0 0.0 0.0 0.0 0.0 0.0 0.0 0.1 0.3 1.7 1.9 1.9 0.0 0.2 0.1 0.3 0.3 0.1 0.0 0.0 0.0 0.0 0.0 0.0 0.0 0.0 0.0 0.0 0.1 0.3 0.7 0.6 0.5 0.7 0.5 0.7 0.5 0.2 0.6 0.5 1.0 1.1
0.0 0.0 0.0 0.0 1.9 5.5 2.9 1.8 0.4 0.1 0.0 0.0 0.0 0.0 0.0 0.0 0.0 0.0 0.0 1.0 2.0 2.5 1.9 1.2 0.2 0.1 0.0 0.5 0.2 0.0 0.0 0.0 0.0 0.0 0.0 0.0 0.0 0.0 0.0 0.0 0.0 0.0 0.0 0.3 0.2 0.1 0.5 0.3 0.7 0.5 0.3 0.8 0.7 1.0
0.4 0.0 6.5 4.0 16.0 9.6 3.7 1.4 0.1 0.0 0.0 0.0 0.0 0.0 0.0 0.0 0.1 0.1 0.1 1.7 3.4 2.0 1.5 1.1 1.0 0.6 0.2 0.0 0.8 0.9 0.4 0.0 0.0 0.0 0.0 0.0 0.0 0.0 0.0 0.0 0.0 0.0 0.0 0.0 0.0 0.1 0.0 0.1 0.1 0.5 0.5 1.1 0.9 0.4
0.3 1.3 13.8 14.7 15.7 9.8 5.4 0.9 0.5 0.3 0.1 0.6 0.5 0.2 0.6 0.4 0.2 0.2 1.2 1.6 1.6 1.2 1.0 0.8 1.0 2.2 2.3 1.8 1.5 1.1 0.6 0.1 0.0 0.2 0.1 0.0 0.0 0.0 0.0 0.0 0.0 0.0 0.0 0.0 0.0 0.0 0.0 0.0 0.0 0.0 0.0 0.0 0.7 0.7
0.0 14.2 18.2 15.7 8.7 6.9 4.0 3.8 2.7 1.2 1.4 1.1 1.0 0.7 0.4 0.0 0.8 1.1 1.0 0.6 0.4 0.4 1.3 1.6 1.3 1.1 0.6 1.5 1.8 2.2 2.3 1.4 0.4 0.0 0.7 0.3 0.1 0.0 0.0 0.0 0.0 0.0 0.0 0.0 0.0 0.0 0.0 0.0 0.0 0.0 0.0 0.0 0.0 0.0
22.4 25.2 15.8 15.5 7.2 2.9 1.1 1.5 1.3 1.0 1.1 0.7 0.4 0.1 0.1 0.1 0.5 0.4 0.0 0.0 0.1 0.2 0.6 1.4 1.5 1.4 1.4 1.0 1.4 1.3 1.2 1.5 2.5 2.7 0.1 1.5 0.8 0.2 0.0 0.0 0.3 0.0 0.0 0.2 0.1 0.1 0.0 0.0 0.0 0.0 0.0 0.1 0.3 0.4
25.1 15.0 6.2 1.7 1.0 0.2 0.1 0.0 0.2 0.1 0.1 0.1 0.4 0.1 0.0 0.1 0.3 0.0 0.0 0.0 0.1 0.3 0.4 0.6 1.2 1.2 0.9 0.8 1.0 1.8 1.7 1.5 1.3 2.4 1.4 2.0 1.6 2.1 2.1 0.2 1.5 0.7 0.2 0.1 0.9 0.8 0.3 0.1 0.1 0.0 0.0 0.1 0.4 0.5
17.0 9.1 2.5 0.2 0.1 0.1 0.0 0.0 0.1 0.0 0.3 0.6 0.1 0.0 0.1 0.6 0.2 0.0 0.0 0.0 0.0 0.4 0.7 1.1 2.2 1.9 1.3 1.4 1.3 1.8 2.0 2.2 2.0 1.5 2.0 4.3 4.0 2.5 1.2 2.1 2.0 1.2 0.9 0.6 1.3 1.0 1.2 1.0 0.6 0.7 0.6 0.7 0.5 1.1
4.0 0.7 0.0 0.2 0.1 0.0 0.2 0.4 0.7 0.6 0.5 0.0 0.4 0.4 0.3 0.0 0.0 0.0 0.0 0.0 0.0 0.0 0.8 1.3 1.8 2.4 2.2 1.9 1.9 2.6 2.8 3.1 3.4 3.2 4.5 5.2 5.4 5.0 3.9 3.1 2.5 2.7 3.1 2.1 1.8 2.4 2.1 1.7 1.4 2.1 1.7 1.5 1.3 1.1
1.7 0.4 0.1 0.1 0.0 0.1 0.3 0.3 0.3 0.1 0.0 0.0 0.1 0.0 0.0 0.0 0.0 0.0 0.0 0.0 0.0 0.8 1.0 1.5 1.9 2.0 2.8 2.9 2.8 3.5 3.5 3.6 3.1 2.5 2.0 2.4 4.3 6.0 5.6 4.8 5.5 5.6 3.7 3.8 2.6 3.0 3.1 4.0 3.6 3.6 3.8 3.7 3.4 3.4
0.4 0.0 0.0 0.1 0.1 0.2 0.3 0.1 0.0 0.0 0.0 0.0 0.0 0.0 0.0 0.0 0.0 0.0 0.1 0.0 0.0 1.4 1.8 2.4 2.3 2.4 3.5 3.4 3.5 3.3 4.1 4.1 3.8 2.2 2.1 2.2 2.9 4.1 5.8 5.8 5.9 6.4 6.0 5.6 6.4 6.8 5.1 6.1 6.3 6.4 5.7 5.5 5.4 4.8
0.1 0.0 0.1 0.1 0.1 0.3 0.2 0.3 0.2 0.2 0.0 0.1 0.1 0.1 0.1 0.1 0.0 0.0 0.3 0.6 1.4 2.0 2.7 3.4 3.8 4.5 4.6 5.0 4.9 4.4 4.5 5.2 5.3 5.5 4.4 4.8 4.8 4.8 5.5 6.3 5.9 6.5 6.4 5.9 5.2 4.9 5.0 4.7 4.2 4.4 4.3 4.3 3.9 3.6
0.1 0.0 0.0 0.1 0.1 0.1 0.5 0.4 0.2 0.1 0.1 0.1 0.2 0.1 0.1 0.1 0.1 0.0 0.5 0.8 1.8 2.3 2.7 3.4 3.9 5.0 5.6 5.4 5.4 5.3 4.2 4.8 4.8 6.0 5.1 4.5 4.5 3.9 5.1 5.6 6.2 5.7 6.2 6.4 5.8 6.3 6.2 6.2 6.3 5.8 5.7 5.7 5.3 4.8
1.2 0.6 0.5 0.4 0.8 0.9 0.3 0.1 0.3 0.2 0.1 0.0 0.1 0.0 0.0 0.1 0.0 0.4 0.6 1.0 2.0 2.5 2.7 4.1 4.7 4.7 4.5 4.4 4.9 5.2 5.2 5.1 6.0 5.7 5.7 5.9 5.7 6.3 5.5 5.5 5.7 6.4 6.4 6.7 7.0 7.6 7.9 7.3 7.0 6.6 6.1 5.8 5.3 5.0

GFSWCAN_prec_kuchsnow_096.txt.gz
Snowfall_Accumulation
0.0 0.0 0.0 0.0 0.0 0.0 0.0 0.0 0.0 0.0 0.0 0.0 0.0 0.0 0.0 0.0 0.0 0.0 0.0 0.0 0.0 0.0 0.0 0.0 0.0 0.0 0.0 0.0 0.0 0.0 0.0 0.0 0.0 0.1 0.0 0.1 0.0 0.0 0.0 0.0 0.0 0.0 0.1 0.2 0.3 0.8 0.0 0.0 0.0 0.0 0.0 0.0 0.0 0.0
0.0 0.0 0.0 0.0 0.0 0.0 0.0 0.0 0.0 0.0 0.0 0.0 0.0 0.0 0.0 0.0 0.0 0.0 0.0 0.0 0.0 0.0 0.0 0.0 0.0 0.0 0.0 0.0 0.0 0.0 0.0 0.0 0.0 0.2 0.1 0.0 0.0 0.0 0.0 0.0 0.0 0.0 0.0 0.0 0.0 0.0 0.0 0.0 0.0 0.0 0.0 0.0 0.0 0.0
0.0 0.0 0.0 0.0 0.0 0.0 0.0 0.0 0.0 0.0 0.0 0.0 0.0 0.0 0.0 0.0 0.0 0.0 0.0 0.0 0.0 0.2 0.0 0.0 0.0 0.0 0.0 0.0 0.0 0.0 0.0 0.0 0.0 0.0 0.1 0.1 0.0 0.0 0.0 0.0 0.0 0.0 0.0 0.0 0.0 0.0 0.0 0.0 0.0 0.0 0.0 0.0 0.0 0.0
0.0 0.0 0.0 0.0 0.0 0.0 0.0 0.0 0.0 0.0 0.0 0.0 0.0 0.0 0.0 0.0 0.0 0.0 0.0 0.0 0.0 0.2 1.5 0.0 0.0 0.0 0.0 0.0 0.0 0.0 0.0 0.0 0.0 0.4 0.5 0.2 0.2 0.0 0.0 0.0 0.0 0.0 0.0 0.0 0.0 0.0 0.0 0.0 0.0 0.0 0.0 0.0 0.0 0.0
0.0 0.0 0.0 0.0 0.0 0.0 0.0 0.0 0.0 0.0 0.0 0.0 0.0 0.0 0.0 0.0 0.0 0.0 0.0 0.0 0.0 0.3 2.2 0.7 0.0 0.0 0.0 0.0 0.0 0.0 0.0 0.0 0.2 0.7 1.3 0.7 0.0 0.0 0.0 0.0 0.0 0.0 0.0 0.0 0.0 0.0 0.0 0.0 0.0 0.0 0.0 0.0 0.0 0.0
0.0 0.0 0.0 0.0 0.0 0.0 0.0 0.0 0.0 0.0 0.0 0.0 0.0 0.0 0.0 0.0 0.0 0.0 0.0 0.0 0.0 0.0 2.6 3.1 0.0 0.0 0.0 0.0 0.0 0.0 0.0 0.0 0.8 0.3 1.6 0.0 0.0 0.0 0.9 0.1 0.0 0.0 0.0 0.0 0.0 0.0 0.0 0.0 0.0 0.0 0.0 0.0 0.0 0.0
0.0 0.0 0.0 0.0 0.0 0.0 0.0 0.0 0.0 0.0 0.0 0.0 0.0 0.0 0.0 0.0 0.0 0.1 0.1 0.0 0.0 0.0 2.6 7.8 4.1 0.1 0.0 0.0 0.0 0.0 0.0 0.0 1.2 1.1 0.0 0.8 0.2 1.1 1.0 0.0 0.0 0.0 0.0 0.0 0.0 0.0 0.0 0.0 0.0 0.0 0.0 0.0 0.0 0.0
0.0 0.0 0.0 0.0 0.0 0.0 0.0 0.0 0.0 0.0 0.0 0.0 0.0 0.0 0.0 0.0 0.0 0.0 0.0 0.0 0.0 1.5 4.2 11.3 8.8 4.6 0.0 0.0 0.1 0.0 0.0 0.0 1.9 0.7 0.0 0.1 0.0 0.7 1.2 0.0 0.0 0.0 0.0 0.0 0.0 0.0 0.0 0.0 0.0 0.0 0.0 0.0 0.0 0.0
0.0 0.0 0.0 0.0 0.0 0.0 0.0 0.0 0.0 0.0 0.0 0.0 0.0 0.0 0.0 0.0 0.0 0.0 0.0 0.0 0.0 0.1 7.2 6.3 10.1 6.4 0.2 0.1 0.1 0.1 0.0 1.6 0.2 0.9 0.0 0.0 0.4 2.0 0.0 0.0 0.1 0.0 0.0 0.0 0.0 0.0 0.0 0.0 0.0 0.0 0.0 0.0 0.0 0.0
0.0 0.0 0.0 0.0 0.0 0.0 0.0 0.0 0.0 0.0 0.0 0.0 0.0 0.0 0.2 0.0 0.0 0.0 0.0 1.4 2.7 2.4 3.0 6.6 2.6 2.8 1.1 2.0 0.7 0.8 0.1 1.9 4.8 0.0 0.0 0.6 0.1 0.0 0.0 0.2 0.1 0.0 0.0 0.0 2.9 1.7 0.5 1.1 0.2 0.1 0.0 0.0 0.0 0.0
0.0 0.0 0.0 0.0 0.0 0.0 0.0 0.0 0.0 0.0 0.0 0.0 0.0 0.3 0.0 0.0 0.0 0.0 4.3 4.0 1.8 2.6 2.4 2.4 2.2 2.3 0.0 3.2 1.2 0.3 2.5 1.7 6.9 1.9 0.9 1.5 2.6 0.6 0.0 0.2 0.0 0.0 0.1 0.0 0.0 0.1 0.9 1.5 2.0 1.0 0.4 1.5 0.9 1.5
0.0 0.0 0.0 0.0 0.0 0.0 0.0 0.0 0.0 0.0 0.0 0.0 0.0 0.0 0.0 1.7 4.7 7.4 6.9 1.0 1.1 1.7 0.6 0.9 0.5 0.2 0.5 0.0 1.7 1.0 2.5 2.3 2.8 1.4 3.9 3.4 1.5 0.9 1.2 0.4 0.2 0.1 0.0 0.1 0.1 1.1 0.5 0.5 0.8 0.8 1.9 2.4 2.2 2.2
0.0 0.0 0.0 0.0 0.0 0.0 0.0 0.0 0.0 0.0 0.0 0.0 0.1 1.3 2.7 4.7 8.0 5.5 4.9 1.5 0.5 0.3 0.4 0.6 0.9 0.1 0.0 0.1 1.3 2.0 2.2 1.0 2.1 4.9 3.6 1.3 0.3 0.0 0.3 1.1 1.0 0.7 0.1 0.5 0.9 0.0 0.3 0.3 0.3 0.3 0.2 0.1 0.0 0.0
0.0 0.0 0.0 0.0 0.0 0.0 0.0 0.0 0.0 0.0 0.0 0.1 0.8 1.8 3.0 3.5 3.3 2.2 1.3 1.0 0.0 0.2 0.0 0.0 0.6 0.9 0.1 1.2 1.0 2.4 0.3 1.8 6.2 3.2 2.5 0.3 0.4 0.3 0.1 0.2 0.4 0.5 0.7 1.0 2.8 2.8 1.4 0.8 0.3 0.1 0.0 0.1 0.0 0.0
0.0 0.0 0.0 0.0 0.0 0.0 0.0 0.0 0.0 0.0 0.0 0.3 1.0 1.6 1.4 1.3 0.6 0.3 0.1 0.4 0.0 0.0 0.0 0.0 0.1 0.3 1.0 1.8 1.1 1.6 2.0 4.4 3.3 3.1 1.0 0.4 0.4 0.6 0.4 0.2 0.2 0.4 0.5 1.2 1.2 2.1 3.2 1.9 0.7 0.0 0.0 0.0 0.3 0.3
0.0 0.0 0.0 0.0 0.0 0.0 0.0 0.0 0.0 0.0 0.6 0.6 0.7 1.4 0.6 0.5 0.3 0.1 0.0 0.1 0.0 0.0 0.1 0.2 0.5 1.0 0.8 2.2 1.2 2.0 3.0 3.8 2.2 1.0 0.5 0.3 0.6 0.0 0.2 0.2 0.0 0.0 0.0 0.1 1.0 1.4 2.0 1.9 1.3 0.7 0.5 0.1 0.2 0.9
0.0 0.0 0.0 0.0 0.0 0.0 0.0 0.0 0.0 1.9 2.9 1.2 0.2 0.4 0.6 0.3 0.3 0.2 0.0 0.0 0.0 0.2 1.0 1.5 2.2 0.7 0.4 1.2 0.7 0.4 1.4 1.1 0.6 0.0 0.1 0.0 0.1 0.0 0.0 0.0 0.0 0.0 0.0 0.0 0.5 0.9 1.6 2.2 2.4 1.4 1.8 1.5 1.2 0.8
0.0 0.0 0.0 0.0 0.0 0.0 0.0 0.0 0.4 4.2 3.8 0.3 0.0 0.0 0.0 0.0 0.2 0.2 0.0 0.0 0.0 0.4 1.3 4.4 2.4 1.6 0.3 0.2 0.0 0.1 0.0 0.0 0.1 0.0 0.1 0.0 0.0 0.0 0.0 0.0 0.0 0.1 0.7 1.7 1.5 1.6 1.1 1.7 1.6 1.3 1.0 0.8 0.8 1.0
0.0 0.0 0.0 0.0 0.0 0.0 9.2 7.4 2.6 2.1 0.3 0.0 0.0 0.0 0.0 0.0 0.0 0.0 0.0 0.0 0.0 0.0 0.3 2.5 2.4 0.4 0.0 0.0 0.0 0.0 0.0 0.0 0.0 0.0 0.0 0.0 0.0 0.0 0.0 0.3 0.3 0.7 1.8 1.6 0.4 0.4 0.4 0.3 0.7 0.4 1.0 0.7 1.0 0.8
0.0 0.0 0.0 0.0 0.0 7.6 9.8 8.2 1.5 0.4 0.2 0.0 0.0 0.0 0.0 0.0 0.0 0.0 0.0 0.1 0.3 1.7 1.9 1.9 0.0 0.2 0.1 0.3 0.3 0.1 0.0 0.0 0.0 0.0 0.0 0.0 0.0 0.0 0.0 0.0 0.1 0.3 0.7 0.6 0.5 0.7 0.5 0.7 0.5 0.2 0.6 0.5 1.0 1.1
0.0 0.0 0.0 0.0 1.9 11.0 6.7 3.7 1.0 0.1 0.0 0.0 0.0 0.0 0.0 0.0 0.0 0.1 0.1 1.0 2.0 2.5 1.9 1.2 0.2 0.1 0.0 0.5 0.2 0.0 0.0 0.0 0.0 0.0 0.0 0.0 0.0 0.0 0.0 0.0 0.0 0.0 0.0 0.3 0.2 0.1 0.5 0.3 0.7 0.5 0.3 0.8 0.7 1.0
0.4 0.0 6.5 4.0 21.1 15.5 7.1 2.6 0.3 0.0 0.0 0.0 0.0 0.0 0.0 0.0 0.1 0.1 0.2 1.8 3.4 2.0 1.5 1.1 1.0 0.6 0.2 0.0 0.8 0.9 0.4 0.0 0.0 0.0 0.0 0.0 0.0 0.0 0.0 0.0 0.0 0.0 0.0 0.0 0.0 0.1 0.0 0.1 0.1 0.5 0.5 1.1 0.9 0.4
0.3 1.3 17.4 18.2 20.2 13.5 8.5 1.8 0.7 0.5 0.1 0.6 0.5 0.2 0.6 0.4 0.2 0.2 1.2 1.6 1.6 1.2 1.0 0.8 1.0 2.2 2.3 1.8 1.5 1.1 0.6 0.1 0.0 0.2 0.1 0.0 0.0 0.0 0.0 0.0 0.0 0.0 0.0 0.0 0.0 0.0 0.0 0.0 0.0 0.0 0.0 0.0 0.7 0.7
0.0 18.1 22.8 20.1 11.9 9.4 5.7 5.1 3.5 1.6 1.8 1.5 1.4 0.8 0.5 0.0 0.8 1.1 1.0 0.6 0.4 0.4 1.3 1.6 1.3 1.1 0.6 1.5 1.8 2.2 2.3 1.4 0.4 0.0 0.7 0.3 0.1 0.0 0.0 0.0 0.0 0.0 0.0 0.0 0.0 0.0 0.0 0.0 0.0 0.0 0.0 0.0 0.0 0.0
27.4 31.0 19.7 19.6 9.4 3.7 1.5 1.9 1.6 1.3 1.1 1.0 0.5 0.2 0.1 0.1 0.5 0.4 0.0 0.0 0.1 0.2 0.6 1.4 1.5 1.4 1.4 1.0 1.4 1.3 1.2 1.5 2.5 2.7 0.1 1.5 0.8 0.2 0.0 0.0 0.3 0.0 0.0 0.2 0.1 0.1 0.0 0.0 0.0 0.0 0.0 0.1 0.3 0.4
29.9 18.2 8.0 2.7 1.6 0.3 0.1 0.0 0.2 0.1 0.1 0.3 0.4 0.1 0.0 0.1 0.3 0.0 0.0 0.0 0.1 0.3 0.4 0.6 1.2 1.2 0.9 0.8 1.0 1.8 1.7 1.5 1.3 2.4 1.4 2.0 1.6 2.1 2.1 0.2 1.5 0.7 0.2 0.1 0.9 0.8 0.3 0.1 0.1 0.0 0.0 0.1 0.4 0.5
21.2 11.3 3.0 0.3 0.1 0.1 0.0 0.0 0.1 0.0 0.3 0.6 0.3 0.1 0.1 0.6 0.2 0.0 0.0 0.0 0.0 0.4 0.7 1.1 2.2 1.9 1.3 1.4 1.3 1.8 2.0 2.2 2.0 1.5 2.0 4.3 4.0 2.5 1.2 2.1 2.0 1.2 0.9 0.6 1.3 1.0 1.2 1.0 0.6 0.7 0.6 0.7 0.5 1.1
5.4 1.0 0.0 0.3 0.1 0.0 0.2 0.4 0.7 0.6 0.5 0.0 0.4 0.4 0.3 0.0 0.0 0.0 0.0 0.0 0.0 0.0 0.8 1.3 1.8 2.4 2.2 1.9 1.9 2.6 2.8 3.1 3.4 3.2 4.5 5.2 5.4 5.0 3.9 3.1 2.5 2.7 3.1 2.1 1.8 2.4 2.1 1.7 1.4 2.1 1.7 1.5 1.3 1.1
2.0 0.4 0.1 0.1 0.0 0.1 0.3 0.3 0.3 0.1 0.0 0.0 0.1 0.0 0.0 0.0 0.0 0.0 0.0 0.0 0.0 0.8 1.0 1.5 1.9 2.0 2.8 2.9 2.8 3.5 3.5 3.6 3.1 2.5 2.0 2.4 4.3 6.0 5.6 4.8 5.5 5.6 3.7 3.8 2.6 3.0 3.1 4.0 3.6 3.6 3.8 3.7 3.4 3.4
0.4 0.0 0.0 0.1 0.1 0.2 0.3 0.1 0.0 0.0 0.0 0.0 0.0 0.0 0.0 0.0 0.0 0.0 0.1 0.0 0.0 1.4 1.8 2.4 2.3 2.4 3.5 3.4 3.5 3.3 4.1 4.1 3.8 2.2 2.1 2.2 2.9 4.1 5.8 5.8 5.9 6.4 6.0 5.6 6.4 6.8 5.1 6.1 6.3 6.4 5.7 5.5 5.4 4.8
0.1 0.0 0.1 0.1 0.1 0.3 0.2 0.3 0.2 0.2 0.0 0.1 0.1 0.1 0.1 0.1 0.0 0.0 0.3 0.6 1.4 2.0 2.7 3.4 3.8 4.5 4.6 5.0 4.9 4.4 4.5 5.2 5.3 5.5 4.4 4.8 4.8 4.8 5.5 6.3 5.9 6.5 6.4 5.9 5.2 4.9 5.0 4.7 4.2 4.4 4.3 4.3 3.9 3.6
0.2 0.0 0.0 0.1 0.1 0.1 0.5 0.4 0.2 0.1 0.1 0.1 0.2 0.1 0.1 0.1 0.1 0.0 0.5 0.8 1.8 2.3 2.7 3.4 3.9 5.0 5.6 5.4 5.4 5.3 4.2 4.8 4.8 6.0 5.1 4.5 4.5 3.9 5.1 5.6 6.2 5.7 6.2 6.4 5.8 6.3 6.2 6.2 6.3 5.8 5.7 5.7 5.3 4.8
1.4 0.6 0.5 0.4 0.8 0.9 0.3 0.1 0.3 0.3 0.3 0.1 0.1 0.0 0.0 0.1 0.0 0.4 0.6 1.0 2.0 2.5 2.7 4.1 4.7 4.7 4.5 4.4 4.9 5.2 5.2 5.1 6.0 5.7 5.7 5.9 5.7 6.3 5.5 5.5 5.7 6.4 6.5 6.7 7.0 7.6 7.9 7.3 7.0 6.6 6.1 5.8 5.3 5.0

GFSWCAN_prec_kuchsnow_099.txt.gz
Snowfall_Accumulation
0.0 0.0 0.0 0.0 0.0 0.0 0.0 0.0 0.0 0.0 0.0 0.0 0.0 0.0 0.0 0.0 0.0 0.0 0.0 0.0 0.0 0.0 0.0 0.0 0.0 0.0 0.0 0.0 0.0 0.0 0.0 0.0 0.0 0.1 0.0 0.1 0.0 0.0 0.0 0.0 0.0 0.0 0.1 0.2 0.3 0.8 0.0 0.0 0.0 0.0 0.0 0.0 0.0 0.0
0.0 0.0 0.0 0.0 0.0 0.0 0.0 0.0 0.0 0.0 0.0 0.0 0.0 0.0 0.0 0.0 0.0 0.0 0.0 0.0 0.0 0.0 0.0 0.0 0.0 0.0 0.0 0.0 0.0 0.0 0.0 0.0 0.0 0.2 0.1 0.0 0.0 0.0 0.0 0.0 0.0 0.0 0.0 0.0 0.0 0.0 0.0 0.0 0.0 0.0 0.0 0.0 0.0 0.0
0.0 0.0 0.0 0.0 0.0 0.0 0.0 0.0 0.0 0.0 0.0 0.0 0.0 0.0 0.0 0.0 0.0 0.0 0.0 0.0 0.0 0.2 0.0 0.0 0.0 0.0 0.0 0.0 0.0 0.0 0.0 0.0 0.0 0.0 0.1 0.1 0.0 0.0 0.0 0.0 0.0 0.0 0.0 0.0 0.0 0.0 0.0 0.0 0.0 0.0 0.0 0.0 0.0 0.0
0.0 0.0 0.0 0.0 0.0 0.0 0.0 0.0 0.0 0.0 0.0 0.0 0.0 0.0 0.0 0.0 0.0 0.0 0.0 0.0 0.0 0.2 1.5 0.0 0.0 0.0 0.0 0.0 0.0 0.0 0.0 0.0 0.0 0.4 0.5 0.2 0.2 0.0 0.0 0.0 0.0 0.0 0.0 0.0 0.0 0.0 0.0 0.0 0.0 0.0 0.0 0.0 0.0 0.0
0.0 0.0 0.0 0.0 0.0 0.0 0.0 0.0 0.0 0.0 0.0 0.0 0.0 0.0 0.0 0.0 0.0 0.0 0.0 0.0 0.0 0.3 2.2 0.7 0.0 0.0 0.0 0.0 0.0 0.0 0.0 0.0 0.2 0.7 1.3 0.7 0.0 0.0 0.0 0.0 0.0 0.0 0.0 0.0 0.0 0.0 0.0 0.0 0.0 0.0 0.0 0.0 0.0 0.0
0.0 0.0 0.0 0.0 0.0 0.0 0.0 0.0 0.0 0.0 0.0 0.0 0.0 0.0 0.0 0.0 0.0 0.0 0.0 0.0 0.0 0.0 2.6 3.1 0.0 0.0 0.0 0.0 0.0 0.0 0.0 0.0 0.8 0.3 1.6 0.0 0.0 0.0 0.9 0.1 0.0 0.0 0.0 0.0 0.0 0.0 0.0 0.0 0.0 0.0 0.0 0.0 0.0 0.0
0.0 0.0 0.0 0.0 0.0 0.0 0.0 0.0 0.0 0.0 0.0 0.0 0.0 0.0 0.0 0.0 0.0 0.1 0.1 0.0 0.0 0.0 2.6 7.8 4.1 0.1 0.0 0.0 0.0 0.0 0.0 0.0 1.2 1.1 0.0 0.8 0.2 1.1 1.0 0.0 0.0 0.0 0.0 0.0 0.0 0.0 0.0 0.0 0.0 0.0 0.0 0.0 0.0 0.0
0.0 0.0 0.0 0.0 0.0 0.0 0.0 0.0 0.0 0.0 0.0 0.0 0.0 0.0 0.0 0.0 0.0 0.0 0.0 0.0 0.0 1.5 4.2 11.3 8.8 4.6 0.0 0.0 0.1 0.0 0.0 0.0 1.9 0.7 0.0 0.1 0.0 0.7 1.2 0.0 0.0 0.0 0.0 0.0 0.0 0.0 0.0 0.0 0.0 0.0 0.0 0.0 0.0 0.0
0.0 0.0 0.0 0.0 0.0 0.0 0.0 0.0 0.0 0.0 0.0 0.0 0.0 0.0 0.0 0.0 0.0 0.0 0.0 0.0 0.0 0.1 7.2 6.3 10.1 6.4 0.2 0.1 0.1 0.1 0.0 1.6 0.2 0.9 0.0 0.0 0.4 2.0 0.0 0.0 0.1 0.0 0.0 0.0 0.0 0.0 0.0 0.0 0.0 0.0 0.0 0.0 0.0 0.0
0.0 0.0 0.0 0.0 0.0 0.0 0.0 0.0 0.0 0.0 0.0 0.0 0.0 0.0 0.2 0.0 0.0 0.0 0.0 1.4 2.7 2.4 3.0 6.6 2.6 2.8 1.1 2.0 0.7 0.8 0.1 1.9 4.8 0.0 0.0 0.6 0.1 0.0 0.0 0.2 0.1 0.0 0.0 0.0 2.9 1.7 0.5 1.1 0.2 0.1 0.0 0.0 0.0 0.0
0.0 0.0 0.0 0.0 0.0 0.0 0.0 0.0 0.0 0.0 0.0 0.0 0.0 0.3 0.0 0.0 0.0 0.0 4.3 4.0 1.8 2.6 2.4 2.4 2.2 2.3 0.0 3.2 1.2 0.3 2.5 1.7 6.9 1.9 0.9 1.5 2.6 0.6 0.0 0.2 0.0 0.0 0.1 0.0 0.0 0.1 0.9 1.5 2.0 1.0 0.4 1.5 0.9 1.5
0.0 0.0 0.0 0.0 0.0 0.0 0.0 0.0 0.0 0.0 0.0 0.0 0.0 0.0 0.0 1.7 4.7 7.4 6.9 1.0 1.1 1.7 0.6 0.9 0.5 0.2 0.5 0.0 1.7 1.0 2.5 2.3 2.8 1.4 3.9 3.4 1.5 0.9 1.2 0.4 0.2 0.1 0.0 0.1 0.1 1.1 0.5 0.5 0.8 0.8 1.9 2.4 2.2 2.2
0.0 0.0 0.0 0.0 0.0 0.0 0.0 0.0 0.0 0.0 0.0 0.0 0.1 1.3 2.7 4.7 8.0 5.5 4.9 1.5 0.5 0.3 0.4 0.6 0.9 0.1 0.0 0.1 1.3 2.0 2.2 1.0 2.1 4.9 3.6 1.3 0.3 0.0 0.3 1.1 1.0 0.7 0.1 0.5 0.9 0.0 0.3 0.3 0.3 0.3 0.2 0.1 0.0 0.0
0.0 0.0 0.0 0.0 0.0 0.0 0.0 0.0 0.0 0.0 0.0 0.1 0.9 1.8 3.0 3.5 3.3 2.2 1.3 1.0 0.0 0.2 0.0 0.0 0.6 0.9 0.1 1.2 1.0 2.4 0.3 1.8 6.2 3.2 2.5 0.3 0.4 0.3 0.1 0.2 0.4 0.5 0.7 1.0 2.8 2.8 1.4 0.8 0.3 0.1 0.0 0.1 0.0 0.0
0.0 0.0 0.0 0.0 0.0 0.0 0.0 0.0 0.0 0.0 0.0 0.6 1.1 1.6 1.4 1.3 0.6 0.3 0.1 0.4 0.0 0.0 0.0 0.0 0.1 0.3 1.0 1.8 1.1 1.6 2.0 4.4 3.3 3.1 1.0 0.4 0.4 0.6 0.4 0.2 0.2 0.4 0.5 1.2 1.2 2.1 3.2 1.9 0.7 0.0 0.0 0.0 0.3 0.3
0.0 0.0 0.0 0.0 0.0 0.0 0.0 0.0 0.0 0.0 0.6 1.1 0.9 1.4 0.6 0.5 0.3 0.1 0.0 0.1 0.0 0.0 0.1 0.2 0.5 1.0 0.8 2.2 1.2 2.0 3.0 3.8 2.2 1.0 0.5 0.3 0.6 0.0 0.2 0.2 0.0 0.0 0.0 0.1 1.0 1.4 2.0 1.9 1.3 0.7 0.5 0.1 0.2 0.9
0.0 0.0 0.0 0.0 0.0 0.0 0.0 0.0 0.0 5.4 4.8 2.0 0.3 0.4 0.6 0.3 0.3 0.2 0.0 0.0 0.0 0.2 1.0 1.5 2.2 0.7 0.4 1.2 0.7 0.4 1.4 1.1 0.6 0.0 0.1 0.0 0.1 0.0 0.0 0.0 0.0 0.0 0.0 0.0 0.5 0.9 1.6 2.2 2.4 1.4 1.8 1.5 1.2 0.8
0.0 0.0 0.0 0.0 0.0 0.0 0.0 0.0 4.5 7.3 5.7 0.3 0.0 0.0 0.0 0.0 0.2 0.2 0.0 0.0 0.0 0.4 1.3 4.4 2.4 1.6 0.3 0.2 0.0 0.1 0.0 0.0 0.1 0.0 0.1 0.0 0.0 0.0 0.0 0.0 0.0 0.1 0.7 1.7 1.5 1.6 1.1 1.7 1.6 1.3 1.0 0.8 0.8 1.0
0.0 0.0 0.0 0.0 0.0 0.0 15.1 13.7 6.6 4.8 0.8 0.0 0.0 0.0 0.0 0.0 0.0 0.0 0.0 0.0 0.0 0.0 0.3 2.5 2.4 0.4 0.0 0.0 0.0 0.0 0.0 0.0 0.0 0.0 0.0 0.0 0.0 0.0 0.0 0.3 0.3 0.7 1.8 1.6 0.4 0.4 0.4 0.3 0.7 0.4 1.0 0.7 1.0 0.8
0.0 0.0 0.0 0.0 0.0 7.6 15.8 12.6 3.7 1.0 0.3 0.0 0.0 0.0 0.0 0.0 0.0 0.0 0.0 0.3 0.3 1.7 1.9 1.9 0.0 0.2 0.1 0.3 0.3 0.1 0.0 0.0 0.0 0.0 0.0 0.0 0.0 0.0 0.0 0.0 0.1 0.3 0.7 0.6 0.5 0.7 0.5 0.7 0.5 0.2 0.6 0.5 1.0 1.1
0.0 0.0 0.0 0.0 1.9 11.0 11.3 7.3 2.4 0.4 0.0 0.0 0.0 0.0 0.0 0.0 0.0 0.1 0.1 1.1 2.4 2.7 1.9 1.2 0.2 0.1 0.0 0.5 0.2 0.0 0.0 0.0 0.0 0.0 0.0 0.0 0.0 0.0 0.0 0.0 0.0 0.0 0.0 0.3 0.2 0.1 0.5 0.3 0.7 0.5 0.3 0.8 0.7 1.0
0.4 0.0 6.5 4.0 25.6 20.6 10.9 4.7 1.0 0.0 0.0 0.0 0.0 0.0 0.1 0.1 0.1 0.1 0.2 3.4 4.7 2.0 1.5 1.1 1.0 0.6 0.2 0.0 0.8 0.9 0.4 0.0 0.0 0.0 0.0 0.0 0.0 0.0 0.0 0.0 0.0 0.0 0.0 0.0 0.0 0.1 0.0 0.1 0.1 0.5 0.5 1.1 0.9 0.4
0.3 1.3 21.0 21.6 24.2 17.5 11.9 3.1 1.3 0.6 0.1 0.6 0.5 0.4 0.9 0.5 0.2 0.2 1.4 1.6 1.6 1.2 1.0 0.8 1.0 2.2 2.3 1.8 1.5 1.1 0.6 0.1 0.0 0.2 0.1 0.0 0.0 0.0 0.0 0.0 0.0 0.0 0.0 0.0 0.0 0.0 0.0 0.0 0.0 0.0 0.0 0.0 0.7 0.7
0.0 21.4 26.8 24.7 15.3 12.9 8.0 6.8 4.2 1.6 2.1 1.7 1.6 1.0 0.6 0.0 1.0 1.3 1.0 0.6 0.4 0.4 1.3 1.6 1.3 1.1 0.6 1.5 1.8 2.2 2.3 1.4 0.4 0.0 0.7 0.3 0.1 0.0 0.0 0.0 0.0 0.0 0.0 0.0 0.0 0.0 0.0 0.0 0.0 0.0 0.0 0.0 0.0 0.0
31.2 36.0 23.8 23.7 11.8 5.0 2.0 2.3 1.8 1.3 1.1 1.0 0.5 0.2 0.4 0.3 0.7 0.7 0.0 0.0 0.1 0.2 0.6 1.4 1.5 1.4 1.4 1.0 1.4 1.3 1.2 1.5 2.5 2.7 0.1 1.5 0.8 0.2 0.0 0.0 0.3 0.0 0.0 0.2 0.1 0.1 0.0 0.0 0.0 0.0 0.0 0.1 0.3 0.4
34.9 21.4 10.0 3.8 2.1 0.4 0.1 0.0 0.2 0.1 0.1 0.3 0.4 0.1 0.0 0.1 0.7 0.1 0.0 0.0 0.1 0.3 0.4 0.6 1.2 1.2 0.9 0.8 1.0 1.8 1.7 1.5 1.3 2.4 1.4 2.0 1.6 2.1 2.1 0.2 1.5 0.7 0.2 0.1 0.9 0.8 0.3 0.1 0.1 0.0 0.0 0.1 0.4 0.5
26.0 14.5 3.8 0.4 0.1 0.1 0.0 0.0 0.1 0.0 0.3 0.6 0.4 0.2 0.1 0.7 0.2 0.0 0.0 0.0 0.0 0.4 0.7 1.1 2.2 1.9 1.3 1.4 1.3 1.8 2.0 2.2 2.0 1.5 2.0 4.3 4.0 2.5 1.2 2.1 2.0 1.2 0.9 0.6 1.3 1.0 1.2 1.0 0.6 0.7 0.6 0.7 0.5 1.1
7.5 1.8 0.0 0.3 0.1 0.0 0.2 0.4 0.7 0.6 0.5 0.0 0.4 0.4 0.3 0.0 0.0 0.0 0.0 0.0 0.0 0.0 0.8 1.3 1.8 2.4 2.2 1.9 1.9 2.6 2.8 3.1 3.4 3.2 4.5 5.2 5.4 5.0 3.9 3.1 2.5 2.7 3.1 2.1 1.8 2.4 2.1 1.7 1.4 2.1 1.7 1.5 1.3 1.1
2.3 0.4 0.1 0.1 0.0 0.1 0.3 0.3 0.3 0.1 0.0 0.0 0.1 0.0 0.0 0.0 0.0 0.0 0.0 0.0 0.0 0.8 1.0 1.5 1.9 2.0 2.8 2.9 2.8 3.5 3.5 3.6 3.1 2.5 2.0 2.4 4.3 6.0 5.6 4.8 5.5 5.6 3.7 3.8 2.6 3.0 3.1 4.0 3.6 3.6 3.8 3.7 3.4 3.4
0.4 0.0 0.0 0.1 0.1 0.2 0.3 0.1 0.0 0.0 0.0 0.0 0.0 0.0 0.0 0.0 0.0 0.0 0.1 0.0 0.0 1.4 1.8 2.4 2.3 2.4 3.5 3.4 3.5 3.3 4.1 4.1 3.8 2.2 2.1 2.2 2.9 4.1 5.8 5.8 5.9 6.4 6.0 5.6 6.4 6.8 5.1 6.1 6.3 6.4 5.7 5.5 5.4 4.8
0.1 0.0 0.1 0.1 0.1 0.3 0.2 0.3 0.2 0.2 0.0 0.1 0.1 0.1 0.1 0.1 0.0 0.0 0.3 0.6 1.4 2.0 2.7 3.4 3.8 4.5 4.6 5.0 4.9 4.4 4.5 5.2 5.3 5.5 4.4 4.8 4.8 4.8 5.5 6.3 5.9 6.5 6.4 5.9 5.2 4.9 5.0 4.7 4.2 4.4 4.3 4.3 3.9 3.6
0.3 0.1 0.0 0.1 0.1 0.1 0.5 0.4 0.2 0.1 0.1 0.1 0.2 0.1 0.1 0.1 0.1 0.0 0.5 0.8 1.8 2.3 2.7 3.4 3.9 5.0 5.6 5.4 5.4 5.3 4.2 4.8 4.8 6.0 5.1 4.5 4.5 3.9 5.1 5.6 6.2 5.7 6.2 6.4 5.8 6.3 6.2 6.2 6.3 5.8 5.7 5.7 5.3 4.8
1.7 1.0 0.7 0.5 1.0 1.1 0.4 0.1 0.3 0.3 0.3 0.1 0.1 0.0 0.0 0.1 0.0 0.4 0.6 1.0 2.0 2.5 2.7 4.1 4.7 4.7 4.5 4.4 4.9 5.2 5.2 5.1 6.0 5.7 5.7 5.9 5.7 6.3 5.5 5.5 5.7 6.4 6.5 6.7 7.0 7.6 7.9 7.3 7.0 6.6 6.1 5.8 5.3 5.0

GFSWCAN_prec_kuchsnow_102.txt.gz
Snowfall_Accumulation
0.0 0.0 0.0 0.0 0.0 0.0 0.0 0.0 0.0 0.0 0.0 0.0 0.0 0.0 0.0 0.0 0.0 0.0 0.0 0.0 0.0 0.0 0.0 0.0 0.0 0.0 0.0 0.0 0.0 0.0 0.0 0.0 0.0 0.1 0.0 0.1 0.0 0.0 0.0 0.0 0.0 0.0 0.1 0.2 0.3 0.8 0.0 0.0 0.0 0.0 0.0 0.0 0.0 0.0
0.0 0.0 0.0 0.0 0.0 0.0 0.0 0.0 0.0 0.0 0.0 0.0 0.0 0.0 0.0 0.0 0.0 0.0 0.0 0.0 0.0 0.0 0.0 0.0 0.0 0.0 0.0 0.0 0.0 0.0 0.0 0.0 0.0 0.2 0.1 0.0 0.0 0.0 0.0 0.0 0.0 0.0 0.0 0.0 0.0 0.0 0.0 0.0 0.0 0.0 0.0 0.0 0.0 0.0
0.0 0.0 0.0 0.0 0.0 0.0 0.0 0.0 0.0 0.0 0.0 0.0 0.0 0.0 0.0 0.0 0.0 0.0 0.0 0.0 0.0 0.2 0.0 0.0 0.0 0.0 0.0 0.0 0.0 0.0 0.0 0.0 0.0 0.0 0.1 0.1 0.0 0.0 0.0 0.0 0.0 0.0 0.0 0.0 0.0 0.0 0.0 0.0 0.0 0.0 0.0 0.0 0.0 0.0
0.0 0.0 0.0 0.0 0.0 0.0 0.0 0.0 0.0 0.0 0.0 0.0 0.0 0.0 0.0 0.0 0.0 0.0 0.0 0.0 0.0 0.2 1.5 0.0 0.0 0.0 0.0 0.0 0.0 0.0 0.0 0.0 0.0 0.4 0.5 0.2 0.2 0.0 0.0 0.0 0.0 0.0 0.0 0.0 0.0 0.0 0.0 0.0 0.0 0.0 0.0 0.0 0.0 0.0
0.0 0.0 0.0 0.0 0.0 0.0 0.0 0.0 0.0 0.0 0.0 0.0 0.0 0.0 0.0 0.0 0.0 0.0 0.0 0.0 0.0 0.3 2.2 0.7 0.0 0.0 0.0 0.0 0.0 0.0 0.0 0.0 0.2 0.7 1.3 0.7 0.0 0.0 0.0 0.0 0.0 0.0 0.0 0.0 0.0 0.0 0.0 0.0 0.0 0.0 0.0 0.0 0.0 0.0
0.0 0.0 0.0 0.0 0.0 0.0 0.0 0.0 0.0 0.0 0.0 0.0 0.0 0.0 0.0 0.0 0.0 0.0 0.0 0.0 0.0 0.0 2.6 3.1 0.0 0.0 0.0 0.0 0.0 0.0 0.0 0.0 0.8 0.3 1.6 0.0 0.0 0.0 0.9 0.1 0.0 0.0 0.0 0.0 0.0 0.0 0.0 0.0 0.0 0.0 0.0 0.0 0.0 0.0
0.0 0.0 0.0 0.0 0.0 0.0 0.0 0.0 0.0 0.0 0.0 0.0 0.0 0.0 0.0 0.0 0.0 0.1 0.1 0.0 0.0 0.0 2.6 7.8 4.1 0.1 0.0 0.0 0.0 0.0 0.0 0.0 1.2 1.1 0.0 0.8 0.2 1.1 1.0 0.0 0.0 0.0 0.0 0.0 0.0 0.0 0.0 0.0 0.0 0.0 0.0 0.0 0.0 0.0
0.0 0.0 0.0 0.0 0.0 0.0 0.0 0.0 0.0 0.0 0.0 0.0 0.0 0.0 0.0 0.0 0.0 0.0 0.0 0.0 0.0 1.5 4.2 11.3 8.8 4.6 0.0 0.0 0.1 0.0 0.0 0.0 1.9 0.7 0.0 0.1 0.0 0.7 1.2 0.0 0.0 0.0 0.0 0.0 0.0 0.0 0.0 0.0 0.0 0.0 0.0 0.0 0.0 0.0
0.0 0.0 0.0 0.0 0.0 0.0 0.0 0.0 0.0 0.0 0.0 0.0 0.0 0.0 0.0 0.0 0.0 0.0 0.0 0.0 0.0 0.1 7.2 6.3 10.1 6.4 0.2 0.1 0.1 0.1 0.0 1.6 0.2 0.9 0.0 0.0 0.4 2.0 0.0 0.0 0.1 0.0 0.0 0.0 0.0 0.0 0.0 0.0 0.0 0.0 0.0 0.0 0.0 0.0
0.0 0.0 0.0 0.0 0.0 0.0 0.0 0.0 0.0 0.0 0.0 0.0 0.0 0.0 0.2 0.0 0.0 0.0 0.0 1.4 2.7 2.4 3.0 6.6 2.6 2.8 1.1 2.0 0.7 0.8 0.1 1.9 4.8 0.0 0.0 0.6 0.1 0.0 0.0 0.2 0.1 0.0 0.0 0.0 2.9 1.7 0.5 1.1 0.2 0.1 0.0 0.0 0.0 0.0
0.0 0.0 0.0 0.0 0.0 0.0 0.0 0.0 0.0 0.0 0.0 0.0 0.0 0.3 0.0 0.0 0.0 0.0 4.3 4.0 1.8 2.6 2.4 2.4 2.2 2.3 0.0 3.2 1.2 0.3 2.5 1.7 6.9 1.9 0.9 1.5 2.6 0.6 0.0 0.2 0.0 0.0 0.1 0.0 0.0 0.1 0.9 1.5 2.0 1.0 0.4 1.5 0.9 1.5
0.0 0.0 0.0 0.0 0.0 0.0 0.0 0.0 0.0 0.0 0.0 0.0 0.0 0.0 0.0 1.7 4.7 7.4 6.9 1.0 1.1 1.7 0.6 0.9 0.5 0.2 0.5 0.0 1.7 1.0 2.5 2.3 2.8 1.4 3.9 3.4 1.5 0.9 1.2 0.4 0.2 0.1 0.0 0.1 0.1 1.1 0.5 0.5 0.8 0.8 1.9 2.4 2.2 2.2
0.0 0.0 0.0 0.0 0.0 0.0 0.0 0.0 0.0 0.0 0.0 0.0 0.1 1.5 2.7 4.7 8.0 5.5 4.9 1.5 0.5 0.3 0.4 0.6 0.9 0.1 0.0 0.1 1.3 2.0 2.2 1.0 2.1 4.9 3.6 1.3 0.3 0.0 0.3 1.1 1.0 0.7 0.1 0.5 0.9 0.0 0.3 0.3 0.3 0.3 0.2 0.1 0.0 0.0
0.0 0.0 0.0 0.0 0.0 0.0 0.0 0.0 0.0 0.0 0.0 0.1 1.9 2.7 3.1 3.5 3.3 2.2 1.3 1.0 0.0 0.2 0.0 0.0 0.6 0.9 0.1 1.2 1.0 2.4 0.3 1.8 6.2 3.2 2.5 0.3 0.4 0.3 0.1 0.2 0.4 0.5 0.7 1.0 2.8 2.8 1.4 0.8 0.3 0.1 0.0 0.1 0.0 0.0
0.0 0.0 0.0 0.0 0.0 0.0 0.0 0.0 0.0 0.0 0.0 2.3 2.4 2.2 1.4 1.3 0.6 0.3 0.1 0.4 0.0 0.0 0.0 0.0 0.1 0.3 1.0 1.8 1.1 1.6 2.0 4.4 3.3 3.1 1.0 0.4 0.4 0.6 0.4 0.2 0.2 0.4 0.5 1.2 1.2 2.1 3.2 1.9 0.7 0.0 0.0 0.0 0.3 0.3
0.0 0.0 0.0 0.0 0.0 0.0 0.0 0.0 0.0 0.0 0.6 4.1 3.2 1.8 0.6 0.5 0.3 0.1 0.0 0.1 0.0 0.0 0.1 0.2 0.5 1.0 0.8 2.2 1.2 2.0 3.0 3.8 2.2 1.0 0.5 0.3 0.6 0.0 0.2 0.2 0.0 0.0 0.0 0.1 1.0 1.4 2.0 1.9 1.3 0.7 0.5 0.1 0.2 0.9
0.0 0.0 0.0 0.0 0.0 0.0 0.0 0.0 0.0 10.4 8.6 5.5 1.8 0.4 0.6 0.3 0.3 0.2 0.0 0.0 0.0 0.2 1.0 1.5 2.2 0.7 0.4 1.2 0.7 0.4 1.4 1.1 0.6 0.0 0.1 0.0 0.1 0.0 0.0 0.0 0.0 0.0 0.0 0.0 0.5 0.9 1.6 2.2 2.4 1.4 1.8 1.5 1.2 0.8
0.0 0.0 0.0 0.0 0.0 0.0 0.0 0.0 8.2 11.4 9.8 1.3 0.0 0.0 0.0 0.0 0.2 0.2 0.0 0.0 0.0 0.4 1.4 4.4 2.4 1.6 0.3 0.2 0.0 0.1 0.0 0.0 0.1 0.0 0.1 0.0 0.0 0.0 0.0 0.0 0.0 0.1 0.7 1.7 1.5 1.6 1.1 1.7 1.6 1.3 1.0 0.8 0.8 1.0
0.0 0.0 0.0 0.0 0.0 0.0 15.1 17.4 10.1 8.8 2.1 0.1 0.0 0.0 0.0 0.0 0.0 0.0 0.0 0.0 0.0 0.0 0.3 2.6 2.4 0.4 0.0 0.0 0.0 0.0 0.0 0.0 0.0 0.0 0.0 0.0 0.0 0.0 0.0 0.3 0.3 0.7 1.8 1.6 0.4 0.4 0.4 0.3 0.7 0.4 1.0 0.7 1.0 0.8
0.0 0.0 0.0 0.0 0.0 7.6 19.5 16.3 6.7 2.5 0.8 0.0 0.0 0.0 0.0 0.0 0.0 0.0 0.0 0.3 0.4 1.9 2.1 2.0 0.0 0.2 0.1 0.3 0.3 0.1 0.0 0.0 0.0 0.0 0.0 0.0 0.0 0.0 0.0 0.0 0.1 0.3 0.7 0.6 0.5 0.7 0.5 0.7 0.5 0.2 0.6 0.5 1.0 1.1
0.0 0.0 0.0 0.0 1.9 11.0 14.7 10.5 3.8 0.4 0.0 0.0 0.0 0.0 0.0 0.0 0.0 0.1 0.1 1.2 3.1 4.2 2.3 1.2 0.2 0.1 0.0 0.5 0.2 0.0 0.0 0.0 0.0 0.0 0.0 0.0 0.0 0.0 0.0 0.0 0.0 0.0 0.0 0.3 0.2 0.1 0.5 0.3 0.7 0.5 0.3 0.8 0.7 1.0
0.4 0.0 6.5 4.0 25.6 24.7 13.7 6.3 1.5 0.0 0.0 0.0 0.0 0.0 0.2 0.2 0.1 0.1 0.2 3.9 5.6 2.1 1.5 1.1 1.0 0.6 0.2 0.0 0.8 0.9 0.4 0.0 0.0 0.0 0.0 0.0 0.0 0.0 0.0 0.0 0.0 0.0 0.0 0.0 0.0 0.1 0.0 0.1 0.1 0.5 0.5 1.1 0.9 0.4
0.3 1.3 21.0 24.6 28.0 22.2 15.1 4.2 2.0 0.8 0.1 0.6 0.5 0.4 1.1 0.6 0.2 0.3 2.0 2.1 1.6 1.2 1.0 0.8 1.0 2.2 2.3 1.8 1.5 1.1 0.6 0.1 0.0 0.2 0.1 0.0 0.0 0.0 0.0 0.0 0.0 0.0 0.0 0.0 0.0 0.0 0.0 0.0 0.0 0.0 0.0 0.0 0.7 0.7
0.0 22.9 29.8 28.9 18.9 16.8 10.2 8.6 5.2 2.0 2.4 1.8 1.7 1.2 0.6 0.0 1.2 1.9 1.3 0.6 0.4 0.4 1.3 1.6 1.3 1.1 0.6 1.5 1.8 2.2 2.3 1.4 0.4 0.0 0.7 0.3 0.1 0.0 0.0 0.0 0.0 0.0 0.0 0.0 0.0 0.0 0.0 0.0 0.0 0.0 0.0 0.0 0.0 0.0
33.0 38.7 27.2 28.3 14.4 6.7 3.0 2.6 1.9 1.4 1.3 1.1 0.6 0.2 0.4 0.4 1.1 0.9 0.0 0.0 0.1 0.2 0.6 1.4 1.5 1.4 1.4 1.0 1.4 1.3 1.2 1.5 2.5 2.7 0.1 1.5 0.8 0.2 0.0 0.0 0.3 0.0 0.0 0.2 0.1 0.1 0.0 0.0 0.0 0.0 0.0 0.1 0.3 0.4
37.2 22.9 11.5 4.6 2.6 0.4 0.2 0.0 0.3 0.1 0.1 0.3 0.4 0.1 0.0 0.2 1.1 0.2 0.0 0.0 0.1 0.3 0.4 0.6 1.2 1.2 0.9 0.8 1.0 1.8 1.7 1.5 1.3 2.4 1.4 2.0 1.6 2.1 2.1 0.2 1.5 0.7 0.2 0.1 0.9 0.8 0.3 0.1 0.1 0.0 0.0 0.1 0.4 0.5
27.9 16.0 3.8 0.4 0.1 0.1 0.0 0.0 0.1 0.0 0.3 0.6 0.4 0.3 0.1 1.0 0.2 0.0 0.0 0.0 0.0 0.4 0.7 1.1 2.2 1.9 1.3 1.4 1.3 1.8 2.0 2.2 2.0 1.5 2.0 4.3 4.0 2.5 1.2 2.1 2.0 1.2 0.9 0.6 1.3 1.0 1.2 1.0 0.6 0.7 0.6 0.7 0.5 1.1
8.4 1.8 0.0 0.3 0.1 0.0 0.2 0.4 0.7 0.6 0.5 0.0 0.4 0.4 0.3 0.1 0.0 0.0 0.0 0.0 0.0 0.0 0.8 1.3 1.8 2.4 2.2 1.9 1.9 2.6 2.8 3.1 3.4 3.2 4.5 5.2 5.4 5.0 3.9 3.1 2.5 2.7 3.1 2.1 1.8 2.4 2.1 1.7 1.4 2.1 1.7 1.5 1.3 1.1
2.3 0.6 0.1 0.1 0.0 0.1 0.3 0.3 0.3 0.1 0.0 0.0 0.1 0.0 0.0 0.0 0.0 0.0 0.0 0.0 0.0 0.8 1.0 1.5 1.9 2.0 2.8 2.9 2.8 3.5 3.5 3.6 3.1 2.5 2.0 2.4 4.3 6.0 5.6 4.8 5.5 5.6 3.7 3.8 2.6 3.0 3.1 4.0 3.6 3.6 3.8 3.7 3.4 3.4
0.4 0.0 0.0 0.1 0.2 0.2 0.3 0.1 0.0 0.0 0.0 0.0 0.0 0.0 0.0 0.0 0.0 0.0 0.1 0.0 0.0 1.4 1.8 2.4 2.3 2.4 3.5 3.4 3.5 3.3 4.1 4.1 3.8 2.2 2.1 2.2 2.9 4.1 5.8 5.8 5.9 6.4 6.0 5.6 6.4 6.8 5.1 6.1 6.3 6.4 5.7 5.5 5.4 4.8
0.1 0.0 0.1 0.1 0.1 0.3 0.2 0.3 0.2 0.2 0.0 0.1 0.1 0.1 0.1 0.1 0.0 0.0 0.3 0.6 1.4 2.0 2.7 3.4 3.8 4.5 4.6 5.0 4.9 4.4 4.5 5.2 5.3 5.5 4.4 4.8 4.8 4.8 5.5 6.3 5.9 6.5 6.4 5.9 5.2 4.9 5.0 4.7 4.2 4.4 4.3 4.3 3.9 3.6
0.3 0.1 0.0 0.1 0.1 0.1 0.5 0.4 0.2 0.1 0.1 0.1 0.2 0.1 0.1 0.1 0.1 0.0 0.5 0.8 1.8 2.3 2.7 3.4 3.9 5.0 5.6 5.4 5.4 5.3 4.2 4.8 4.8 6.0 5.1 4.5 4.5 3.9 5.1 5.6 6.2 5.7 6.2 6.4 5.8 6.3 6.2 6.2 6.3 5.8 5.7 5.7 5.3 4.8
1.8 1.0 0.7 0.5 1.0 1.1 0.4 0.1 0.3 0.3 0.3 0.1 0.1 0.0 0.0 0.1 0.0 0.4 0.6 1.0 2.0 2.5 2.7 4.1 4.7 4.7 4.5 4.4 4.9 5.2 5.2 5.1 6.0 5.7 5.7 5.9 5.7 6.3 5.5 5.5 5.7 6.4 6.5 6.7 7.0 7.6 7.9 7.3 7.0 6.6 6.1 5.8 5.3 5.0

GFSWCAN_prec_kuchsnow_105.txt.gz
Snowfall_Accumulation
0.0 0.0 0.0 0.0 0.0 0.0 0.0 0.0 0.0 0.0 0.0 0.0 0.0 0.0 0.0 0.0 0.0 0.0 0.0 0.0 0.0 0.0 0.0 0.0 0.0 0.0 0.0 0.0 0.0 0.0 0.0 0.0 0.0 0.1 0.0 0.1 0.0 0.0 0.0 0.0 0.0 0.0 0.1 0.2 0.3 0.8 0.0 0.0 0.0 0.0 0.0 0.0 0.0 0.0
0.0 0.0 0.0 0.0 0.0 0.0 0.0 0.0 0.0 0.0 0.0 0.0 0.0 0.0 0.0 0.0 0.0 0.0 0.0 0.0 0.0 0.0 0.0 0.0 0.0 0.0 0.0 0.0 0.0 0.0 0.0 0.0 0.0 0.2 0.1 0.0 0.0 0.0 0.0 0.0 0.0 0.0 0.0 0.0 0.0 0.0 0.0 0.0 0.0 0.0 0.0 0.0 0.0 0.0
0.0 0.0 0.0 0.0 0.0 0.0 0.0 0.0 0.0 0.0 0.0 0.0 0.0 0.0 0.0 0.0 0.0 0.0 0.0 0.0 0.0 0.2 0.0 0.0 0.0 0.0 0.0 0.0 0.0 0.0 0.0 0.0 0.0 0.0 0.1 0.1 0.0 0.0 0.0 0.0 0.0 0.0 0.0 0.0 0.0 0.0 0.0 0.0 0.0 0.0 0.0 0.0 0.0 0.0
0.0 0.0 0.0 0.0 0.0 0.0 0.0 0.0 0.0 0.0 0.0 0.0 0.0 0.0 0.0 0.0 0.0 0.0 0.0 0.0 0.0 0.2 1.5 0.0 0.0 0.0 0.0 0.0 0.0 0.0 0.0 0.0 0.0 0.4 0.5 0.2 0.2 0.0 0.0 0.0 0.0 0.0 0.0 0.0 0.0 0.0 0.0 0.0 0.0 0.0 0.0 0.0 0.0 0.0
0.0 0.0 0.0 0.0 0.0 0.0 0.0 0.0 0.0 0.0 0.0 0.0 0.0 0.0 0.0 0.0 0.0 0.0 0.0 0.0 0.0 0.3 2.2 0.7 0.0 0.0 0.0 0.0 0.0 0.0 0.0 0.0 0.2 0.7 1.3 0.7 0.0 0.0 0.0 0.0 0.0 0.0 0.0 0.0 0.0 0.0 0.0 0.0 0.0 0.0 0.0 0.0 0.0 0.0
0.0 0.0 0.0 0.0 0.0 0.0 0.0 0.0 0.0 0.0 0.0 0.0 0.0 0.0 0.0 0.0 0.0 0.0 0.0 0.0 0.0 0.0 2.6 3.1 0.0 0.0 0.0 0.0 0.0 0.0 0.0 0.0 0.8 0.3 1.6 0.0 0.0 0.0 0.9 0.1 0.0 0.0 0.0 0.0 0.0 0.0 0.0 0.0 0.0 0.0 0.0 0.0 0.0 0.0
0.0 0.0 0.0 0.0 0.0 0.0 0.0 0.0 0.0 0.0 0.0 0.0 0.0 0.0 0.0 0.0 0.0 0.1 0.1 0.0 0.0 0.0 2.6 7.8 4.1 0.1 0.0 0.0 0.0 0.0 0.0 0.0 1.2 1.1 0.0 0.8 0.2 1.1 1.0 0.0 0.0 0.0 0.0 0.0 0.0 0.0 0.0 0.0 0.0 0.0 0.0 0.0 0.0 0.0
0.0 0.0 0.0 0.0 0.0 0.0 0.0 0.0 0.0 0.0 0.0 0.0 0.0 0.0 0.0 0.0 0.0 0.0 0.0 0.0 0.0 1.5 4.2 11.3 8.8 4.6 0.0 0.0 0.1 0.0 0.0 0.0 1.9 0.7 0.0 0.1 0.0 0.7 1.2 0.0 0.0 0.0 0.0 0.0 0.0 0.0 0.0 0.0 0.0 0.0 0.0 0.0 0.0 0.0
0.0 0.0 0.0 0.0 0.0 0.0 0.0 0.0 0.0 0.0 0.0 0.0 0.0 0.0 0.0 0.0 0.0 0.0 0.0 0.0 0.0 0.1 7.2 6.3 10.1 6.4 0.2 0.1 0.1 0.1 0.0 1.6 0.2 0.9 0.0 0.0 0.4 2.0 0.0 0.0 0.1 0.0 0.0 0.0 0.0 0.0 0.0 0.0 0.0 0.0 0.0 0.0 0.0 0.0
0.0 0.0 0.0 0.0 0.0 0.0 0.0 0.0 0.0 0.0 0.0 0.0 0.0 0.0 0.2 0.0 0.0 0.0 0.0 1.4 2.7 2.4 3.0 6.6 2.6 2.8 1.1 2.0 0.7 0.8 0.1 1.9 4.8 0.0 0.0 0.6 0.1 0.0 0.0 0.2 0.1 0.0 0.0 0.0 2.9 1.7 0.5 1.1 0.2 0.1 0.0 0.0 0.0 0.0
0.0 0.0 0.0 0.0 0.0 0.0 0.0 0.0 0.0 0.0 0.0 0.0 0.0 0.3 0.0 0.0 0.0 0.0 4.3 4.0 1.8 2.6 2.4 2.4 2.2 2.3 0.0 3.2 1.2 0.3 2.5 1.7 6.9 1.9 0.9 1.5 2.6 0.6 0.0 0.2 0.0 0.0 0.1 0.0 0.0 0.1 0.9 1.5 2.0 1.0 0.4 1.5 0.9 1.5
0.0 0.0 0.0 0.0 0.0 0.0 0.0 0.0 0.0 0.0 0.0 0.0 0.0 0.0 0.0 1.8 4.8 7.4 6.9 1.0 1.1 1.7 0.6 0.9 0.5 0.2 0.5 0.0 1.7 1.0 2.5 2.3 2.8 1.4 3.9 3.4 1.5 0.9 1.2 0.4 0.2 0.1 0.0 0.1 0.1 1.1 0.5 0.5 0.8 0.8 1.9 2.4 2.2 2.2
0.0 0.0 0.0 0.0 0.0 0.0 0.0 0.0 0.0 0.0 0.0 0.0 0.1 2.7 3.5 5.1 8.4 5.7 4.9 1.5 0.5 0.3 0.4 0.6 0.9 0.1 0.0 0.1 1.3 2.0 2.2 1.0 2.1 4.9 3.6 1.3 0.3 0.0 0.3 1.1 1.0 0.7 0.1 0.5 0.9 0.0 0.3 0.3 0.3 0.3 0.2 0.1 0.0 0.0
0.0 0.0 0.0 0.0 0.0 0.0 0.0 0.0 0.0 0.0 0.0 0.1 4.4 5.4 4.2 3.7 3.3 2.2 1.3 1.0 0.0 0.2 0.0 0.0 0.6 0.9 0.1 1.2 1.0 2.4 0.3 1.8 6.2 3.2 2.5 0.3 0.4 0.3 0.1 0.2 0.4 0.5 0.7 1.0 2.8 2.8 1.4 0.8 0.3 0.1 0.0 0.1 0.0 0.0
0.0 0.0 0.0 0.0 0.0 0.0 0.0 0.0 0.0 0.0 0.0 4.7 5.1 4.0 1.9 1.3 0.6 0.3 0.1 0.4 0.0 0.0 0.0 0.0 0.1 0.3 1.0 1.8 1.1 1.6 2.0 4.4 3.3 3.1 1.0 0.4 0.4 0.6 0.4 0.2 0.2 0.4 0.5 1.2 1.2 2.1 3.2 1.9 0.7 0.0 0.0 0.0 0.3 0.3
0.0 0.0 0.0 0.0 0.0 0.0 0.0 0.0 0.0 0.0 0.6 7.1 6.8 3.4 0.7 0.5 0.3 0.1 0.0 0.1 0.0 0.0 0.1 0.2 0.5 1.0 0.8 2.2 1.2 2.0 3.0 3.8 2.2 1.0 0.5 0.3 0.6 0.0 0.2 0.2 0.0 0.0 0.0 0.1 1.0 1.4 2.0 1.9 1.3 0.7 0.5 0.1 0.2 0.9
0.0 0.0 0.0 0.0 0.0 0.0 0.0 0.0 0.0 10.4 10.8 8.7 1.8 0.4 0.6 0.3 0.3 0.2 0.0 0.0 0.0 0.2 1.0 1.6 2.3 0.7 0.4 1.2 0.7 0.4 1.4 1.1 0.6 0.0 0.1 0.0 0.1 0.0 0.0 0.0 0.0 0.0 0.0 0.0 0.5 0.9 1.6 2.2 2.4 1.4 1.8 1.5 1.2 0.8
0.0 0.0 0.0 0.0 0.0 0.0 0.0 0.0 8.2 13.2 12.9 2.9 0.0 0.0 0.0 0.0 0.2 0.2 0.0 0.0 0.0 0.4 1.4 4.5 2.5 1.6 0.3 0.2 0.0 0.1 0.0 0.0 0.1 0.0 0.1 0.0 0.0 0.0 0.0 0.0 0.0 0.1 0.7 1.7 1.5 1.6 1.1 1.7 1.6 1.3 1.0 0.8 0.8 1.0
0.0 0.0 0.0 0.0 0.0 0.0 15.1 17.4 10.1 10.6 2.1 0.1 0.0 0.0 0.0 0.0 0.0 0.0 0.0 0.0 0.0 0.0 0.3 2.9 2.7 0.5 0.0 0.0 0.0 0.0 0.0 0.0 0.0 0.0 0.0 0.0 0.0 0.0 0.0 0.3 0.3 0.7 1.8 1.6 0.4 0.4 0.4 0.3 0.7 0.4 1.0 0.7 1.0 0.8
0.0 0.0 0.0 0.0 0.0 7.6 24.1 20.7 9.3 3.9 1.1 0.0 0.0 0.0 0.0 0.0 0.0 0.0 0.0 0.3 0.5 2.5 3.5 3.2 0.3 0.2 0.1 0.3 0.3 0.1 0.0 0.0 0.0 0.0 0.0 0.0 0.0 0.0 0.0 0.0 0.1 0.3 0.7 0.6 0.5 0.7 0.5 0.7 0.5 0.2 0.6 0.5 1.0 1.1
0.0 0.0 0.0 0.0 1.9 11.0 18.1 14.7 7.1 1.4 0.2 0.0 0.0 0.0 0.0 0.0 0.0 0.1 0.1 1.2 4.1 6.5 3.6 1.2 0.2 0.1 0.0 0.5 0.2 0.0 0.0 0.0 0.0 0.0 0.0 0.0 0.0 0.0 0.0 0.0 0.0 0.0 0.0 0.3 0.2 0.1 0.5 0.3 0.7 0.5 0.3 0.8 0.7 1.0
0.4 0.0 6.5 4.0 25.6 26.2 16.1 8.4 3.5 1.0 0.3 0.1 0.0 0.0 0.2 0.2 0.1 0.1 0.2 4.3 6.7 2.5 1.5 1.1 1.0 0.6 0.2 0.0 0.8 0.9 0.4 0.0 0.0 0.0 0.0 0.0 0.0 0.0 0.0 0.0 0.0 0.0 0.0 0.0 0.0 0.1 0.0 0.1 0.1 0.5 0.5 1.1 0.9 0.4
0.3 1.3 21.0 24.6 31.1 25.4 17.2 4.8 3.2 1.9 0.8 1.2 0.9 0.9 1.3 0.6 0.2 0.3 2.3 2.2 1.6 1.2 1.0 0.8 1.0 2.2 2.3 1.8 1.5 1.1 0.6 0.1 0.0 0.2 0.1 0.0 0.0 0.0 0.0 0.0 0.0 0.0 0.1 0.0 0.0 0.0 0.0 0.0 0.0 0.0 0.0 0.0 0.7 0.7
0.0 24.0 31.8 32.0 21.7 19.9 12.5 10.2 5.9 2.4 2.9 2.2 2.0 1.5 0.7 0.0 1.4 2.3 1.6 0.6 0.4 0.4 1.3 1.6 1.3 1.1 0.6 1.5 1.8 2.2 2.3 1.4 0.4 0.0 0.7 0.3 0.1 0.0 0.0 0.0 0.0 0.0 0.0 0.0 0.0 0.0 0.0 0.0 0.0 0.0 0.0 0.0 0.0 0.0
35.8 41.9 29.0 30.5 16.1 8.0 4.0 3.5 2.5 1.6 1.5 1.3 0.6 0.2 0.5 0.5 1.4 1.4 0.1 0.0 0.1 0.2 0.6 1.4 1.5 1.4 1.4 1.0 1.4 1.3 1.2 1.5 2.5 2.7 0.1 1.5 0.8 0.2 0.0 0.0 0.3 0.0 0.0 0.2 0.1 0.1 0.0 0.0 0.0 0.0 0.0 0.1 0.3 0.4
40.5 24.3 12.9 4.6 2.6 0.4 0.2 0.1 0.3 0.1 0.1 0.3 0.4 0.1 0.1 0.4 1.7 0.6 0.0 0.0 0.1 0.3 0.4 0.6 1.2 1.2 0.9 0.8 1.0 1.8 1.7 1.5 1.3 2.4 1.4 2.0 1.6 2.1 2.1 0.2 1.5 0.7 0.2 0.1 0.9 0.8 0.3 0.1 0.1 0.0 0.0 0.1 0.4 0.5
30.0 16.6 3.8 0.4 0.1 0.1 0.0 0.0 0.1 0.0 0.3 0.6 0.4 0.3 0.2 1.5 0.2 0.0 0.0 0.0 0.0 0.4 0.7 1.1 2.2 1.9 1.3 1.4 1.3 1.8 2.0 2.2 2.0 1.5 2.0 4.3 4.0 2.5 1.2 2.1 2.0 1.2 0.9 0.6 1.3 1.0 1.2 1.0 0.6 0.7 0.6 0.7 0.5 1.1
8.4 1.8 0.0 0.4 0.1 0.0 0.2 0.4 0.7 0.6 0.5 0.0 0.4 0.4 0.3 0.1 0.0 0.0 0.0 0.0 0.0 0.0 0.8 1.3 1.8 2.4 2.2 1.9 1.9 2.6 2.8 3.1 3.4 3.2 4.5 5.2 5.4 5.0 3.9 3.1 2.5 2.7 3.1 2.1 1.8 2.4 2.1 1.7 1.4 2.1 1.7 1.5 1.3 1.1
2.3 0.8 0.6 0.8 0.3 0.2 0.3 0.3 0.3 0.1 0.0 0.0 0.1 0.0 0.0 0.0 0.0 0.0 0.0 0.0 0.0 0.8 1.0 1.5 1.9 2.0 2.8 2.9 2.8 3.5 3.5 3.6 3.1 2.5 2.0 2.4 4.3 6.0 5.6 4.8 5.5 5.6 3.7 3.8 2.6 3.0 3.1 4.0 3.6 3.6 3.8 3.7 3.4 3.4
0.4 0.0 0.0 0.1 0.3 0.3 0.3 0.1 0.0 0.0 0.0 0.0 0.0 0.0 0.0 0.0 0.0 0.0 0.1 0.0 0.0 1.4 1.8 2.4 2.3 2.4 3.5 3.4 3.5 3.3 4.1 4.1 3.8 2.2 2.1 2.2 2.9 4.1 5.8 5.8 5.9 6.4 6.0 5.6 6.4 6.8 5.1 6.1 6.3 6.4 5.7 5.5 5.4 4.8
0.1 0.0 0.1 0.1 0.1 0.3 0.2 0.3 0.2 0.2 0.0 0.1 0.1 0.1 0.1 0.1 0.0 0.0 0.3 0.6 1.4 2.0 2.7 3.4 3.8 4.5 4.6 5.0 4.9 4.4 4.5 5.2 5.3 5.5 4.4 4.8 4.8 4.8 5.5 6.3 5.9 6.5 6.4 5.9 5.2 4.9 5.0 4.7 4.2 4.4 4.3 4.3 3.9 3.6
0.3 0.1 0.0 0.1 0.1 0.1 0.5 0.4 0.2 0.1 0.1 0.1 0.2 0.1 0.1 0.1 0.1 0.0 0.5 0.8 1.8 2.3 2.7 3.4 3.9 5.0 5.6 5.4 5.4 5.3 4.2 4.8 4.8 6.0 5.1 4.5 4.5 3.9 5.1 5.6 6.2 5.7 6.2 6.4 5.8 6.3 6.2 6.2 6.3 5.8 5.7 5.7 5.3 4.8
2.0 1.1 0.7 0.5 1.0 1.1 0.4 0.1 0.3 0.3 0.3 0.1 0.1 0.0 0.0 0.1 0.0 0.4 0.6 1.0 2.0 2.5 2.7 4.1 4.7 4.7 4.5 4.4 4.9 5.2 5.2 5.1 6.0 5.7 5.7 5.9 5.7 6.3 5.5 5.5 5.7 6.4 6.5 6.7 7.0 7.6 7.9 7.3 7.0 6.6 6.1 5.8 5.3 5.0

GFSWCAN_prec_kuchsnow_108.txt.gz
Snowfall_Accumulation
0.0 0.0 0.0 0.0 0.0 0.0 0.0 0.0 0.0 0.0 0.0 0.0 0.0 0.0 0.0 0.0 0.0 0.0 0.0 0.0 0.0 0.0 0.0 0.0 0.0 0.0 0.0 0.0 0.0 0.0 0.0 0.0 0.0 0.1 0.0 0.1 0.0 0.0 0.0 0.0 0.0 0.0 0.1 0.2 0.3 0.8 0.0 0.0 0.0 0.0 0.0 0.0 0.0 0.0
0.0 0.0 0.0 0.0 0.0 0.0 0.0 0.0 0.0 0.0 0.0 0.0 0.0 0.0 0.0 0.0 0.0 0.0 0.0 0.0 0.0 0.0 0.0 0.0 0.0 0.0 0.0 0.0 0.0 0.0 0.0 0.0 0.0 0.2 0.1 0.0 0.0 0.0 0.0 0.0 0.0 0.0 0.0 0.0 0.0 0.0 0.0 0.0 0.0 0.0 0.0 0.0 0.0 0.0
0.0 0.0 0.0 0.0 0.0 0.0 0.0 0.0 0.0 0.0 0.0 0.0 0.0 0.0 0.0 0.0 0.0 0.0 0.0 0.0 0.0 0.2 0.0 0.0 0.0 0.0 0.0 0.0 0.0 0.0 0.0 0.0 0.0 0.0 0.1 0.1 0.0 0.0 0.0 0.0 0.0 0.0 0.0 0.0 0.0 0.0 0.0 0.0 0.0 0.0 0.0 0.0 0.0 0.0
0.0 0.0 0.0 0.0 0.0 0.0 0.0 0.0 0.0 0.0 0.0 0.0 0.0 0.0 0.0 0.0 0.0 0.0 0.0 0.0 0.0 0.2 1.5 0.0 0.0 0.0 0.0 0.0 0.0 0.0 0.0 0.0 0.0 0.4 0.5 0.2 0.2 0.0 0.0 0.0 0.0 0.0 0.0 0.0 0.0 0.0 0.0 0.0 0.0 0.0 0.0 0.0 0.0 0.0
0.0 0.0 0.0 0.0 0.0 0.0 0.0 0.0 0.0 0.0 0.0 0.0 0.0 0.0 0.0 0.0 0.0 0.0 0.0 0.0 0.0 0.3 2.2 0.7 0.0 0.0 0.0 0.0 0.0 0.0 0.0 0.0 0.2 0.7 1.3 0.7 0.0 0.0 0.0 0.0 0.0 0.0 0.0 0.0 0.0 0.0 0.0 0.0 0.0 0.0 0.0 0.0 0.0 0.0
0.0 0.0 0.0 0.0 0.0 0.0 0.0 0.0 0.0 0.0 0.0 0.0 0.0 0.0 0.0 0.0 0.0 0.0 0.0 0.0 0.0 0.0 2.6 3.1 0.0 0.0 0.0 0.0 0.0 0.0 0.0 0.0 0.8 0.3 1.6 0.0 0.0 0.0 0.9 0.1 0.0 0.0 0.0 0.0 0.0 0.0 0.0 0.0 0.0 0.0 0.0 0.0 0.0 0.0
0.0 0.0 0.0 0.0 0.0 0.0 0.0 0.0 0.0 0.0 0.0 0.0 0.0 0.0 0.0 0.0 0.0 0.1 0.1 0.0 0.0 0.0 2.6 7.8 4.1 0.1 0.0 0.0 0.0 0.0 0.0 0.0 1.2 1.1 0.0 0.8 0.2 1.1 1.0 0.0 0.0 0.0 0.0 0.0 0.0 0.0 0.0 0.0 0.0 0.0 0.0 0.0 0.0 0.0
0.0 0.0 0.0 0.0 0.0 0.0 0.0 0.0 0.0 0.0 0.0 0.0 0.0 0.0 0.0 0.0 0.0 0.0 0.0 0.0 0.0 1.5 4.2 11.3 8.8 4.6 0.0 0.0 0.1 0.0 0.0 0.0 1.9 0.7 0.0 0.1 0.0 0.7 1.2 0.0 0.0 0.0 0.0 0.0 0.0 0.0 0.0 0.0 0.0 0.0 0.0 0.0 0.0 0.0
0.0 0.0 0.0 0.0 0.0 0.0 0.0 0.0 0.0 0.0 0.0 0.0 0.0 0.0 0.0 0.0 0.0 0.0 0.0 0.0 0.0 0.1 7.2 6.3 10.1 6.4 0.2 0.1 0.1 0.1 0.0 1.6 0.2 0.9 0.0 0.0 0.4 2.0 0.0 0.0 0.1 0.0 0.0 0.0 0.0 0.0 0.0 0.0 0.0 0.0 0.0 0.0 0.0 0.0
0.0 0.0 0.0 0.0 0.0 0.0 0.0 0.0 0.0 0.0 0.0 0.0 0.0 0.0 0.2 0.0 0.0 0.0 0.0 1.4 2.7 2.4 3.0 6.6 2.6 2.8 1.1 2.0 0.7 0.8 0.1 1.9 4.8 0.0 0.0 0.7 0.1 0.0 0.0 0.2 0.1 0.0 0.0 0.0 2.9 1.7 0.5 1.1 0.2 0.1 0.0 0.0 0.0 0.0
0.0 0.0 0.0 0.0 0.0 0.0 0.0 0.0 0.0 0.0 0.0 0.0 0.0 0.3 0.0 0.0 0.0 0.0 4.3 4.0 1.8 2.6 2.4 2.4 2.2 2.3 0.0 3.2 1.2 0.3 2.5 1.7 6.9 1.9 0.9 1.5 2.6 0.6 0.0 0.2 0.0 0.0 0.1 0.0 0.0 0.1 0.9 1.5 2.0 1.0 0.4 1.5 0.9 1.5
0.0 0.0 0.0 0.0 0.0 0.0 0.0 0.0 0.0 0.0 0.0 0.0 0.0 0.0 0.0 2.0 5.1 7.7 7.0 1.0 1.1 1.7 0.6 0.9 0.5 0.2 0.5 0.0 1.7 1.0 2.5 2.3 2.8 1.4 3.9 3.4 1.5 0.9 1.2 0.4 0.2 0.1 0.0 0.1 0.1 1.1 0.5 0.5 0.8 0.8 1.9 2.4 2.2 2.2
0.0 0.0 0.0 0.0 0.0 0.0 0.0 0.0 0.0 0.0 0.0 0.0 0.1 4.1 4.8 5.8 9.2 6.2 4.9 1.5 0.5 0.3 0.4 0.6 0.9 0.1 0.0 0.1 1.3 2.0 2.2 1.0 2.1 4.9 3.6 1.3 0.3 0.0 0.3 1.1 1.0 0.7 0.1 0.5 0.9 0.0 0.3 0.3 0.3 0.3 0.2 0.1 0.0 0.0
0.0 0.0 0.0 0.0 0.0 0.0 0.0 0.0 0.0 0.0 0.0 0.1 6.1 7.9 5.5 4.2 3.3 2.2 1.3 1.0 0.0 0.2 0.0 0.0 0.6 0.9 0.1 1.2 1.0 2.4 0.3 1.8 6.2 3.2 2.5 0.3 0.4 0.3 0.1 0.2 0.4 0.5 0.7 1.0 2.8 2.8 1.4 0.8 0.3 0.1 0.0 0.1 0.0 0.0
0.0 0.0 0.0 0.0 0.0 0.0 0.0 0.0 0.0 0.0 0.0 5.7 7.1 6.0 2.9 1.3 0.6 0.3 0.1 0.4 0.0 0.0 0.0 0.0 0.1 0.3 1.0 1.8 1.1 1.6 2.0 4.4 3.3 3.1 1.0 0.4 0.4 0.6 0.4 0.2 0.2 0.4 0.5 1.2 1.2 2.1 3.2 1.9 0.7 0.0 0.0 0.0 0.3 0.3
0.0 0.0 0.0 0.0 0.0 0.0 0.0 0.0 0.0 0.0 0.6 7.9 7.9 3.4 0.7 0.5 0.3 0.1 0.0 0.1 0.0 0.0 0.1 0.2 0.6 1.0 0.8 2.2 1.2 2.0 3.0 3.8 2.2 1.0 0.5 0.3 0.6 0.0 0.2 0.2 0.0 0.0 0.0 0.1 1.0 1.4 2.0 1.9 1.3 0.7 0.5 0.1 0.2 0.9
0.0 0.0 0.0 0.0 0.0 0.0 0.0 0.0 0.0 10.4 12.5 10.5 2.5 0.4 0.6 0.3 0.3 0.2 0.0 0.0 0.0 0.2 1.0 2.0 3.3 1.1 0.8 1.5 0.7 0.4 1.4 1.1 0.6 0.0 0.1 0.0 0.1 0.0 0.0 0.0 0.0 0.0 0.0 0.0 0.5 0.9 1.6 2.2 2.4 1.4 1.8 1.5 1.2 0.8
0.0 0.0 0.0 0.0 0.0 0.0 0.0 0.0 8.2 14.2 12.9 2.9 0.0 0.0 0.0 0.0 0.2 0.2 0.0 0.0 0.0 0.4 1.4 4.9 3.0 2.2 0.6 0.2 0.0 0.1 0.0 0.0 0.1 0.0 0.1 0.0 0.0 0.0 0.0 0.0 0.0 0.1 0.7 1.7 1.5 1.6 1.1 1.7 1.6 1.3 1.0 0.8 0.8 1.0
0.0 0.0 0.0 0.0 0.0 0.0 15.6 17.4 10.1 12.0 2.1 0.1 0.0 0.0 0.0 0.0 0.0 0.0 0.0 0.0 0.0 0.0 0.4 3.9 4.4 1.9 0.1 0.0 0.0 0.0 0.0 0.0 0.0 0.0 0.0 0.0 0.0 0.0 0.0 0.3 0.3 0.7 1.8 1.6 0.4 0.4 0.4 0.3 0.7 0.4 1.0 0.7 1.0 0.8
0.0 0.0 0.0 0.0 0.0 8.1 25.3 22.1 10.6 5.3 1.7 0.0 0.0 0.0 0.0 0.0 0.0 0.0 0.0 0.3 0.5 2.5 4.8 5.0 0.3 0.2 0.1 0.3 0.3 0.1 0.0 0.0 0.0 0.0 0.0 0.0 0.0 0.0 0.0 0.0 0.1 0.3 0.7 0.6 0.5 0.7 0.5 0.7 0.5 0.2 0.6 0.5 1.0 1.1
0.0 0.0 0.0 0.0 1.9 11.0 18.1 15.7 8.1 1.4 0.2 0.2 0.0 0.0 0.0 0.0 0.0 0.1 0.1 1.2 4.1 7.0 4.2 1.2 0.2 0.1 0.0 0.5 0.2 0.0 0.0 0.0 0.0 0.0 0.0 0.0 0.0 0.0 0.0 0.0 0.0 0.0 0.0 0.3 0.2 0.1 0.5 0.3 0.7 0.5 0.3 0.8 0.7 1.0
0.4 0.0 6.5 4.0 26.1 26.7 16.8 8.6 3.9 1.0 0.9 0.6 0.0 0.0 0.2 0.2 0.1 0.1 0.2 4.5 7.0 2.5 1.5 1.1 1.0 0.6 0.2 0.0 0.8 0.9 0.4 0.0 0.0 0.0 0.0 0.0 0.0 0.0 0.0 0.0 0.0 0.0 0.0 0.0 0.0 0.1 0.0 0.1 0.1 0.5 0.5 1.1 0.9 0.4
0.3 1.3 21.5 25.2 32.2 26.7 17.2 4.8 3.3 1.9 1.0 1.2 0.9 0.9 1.6 0.6 0.2 0.3 3.1 2.7 1.6 1.2 1.0 0.8 1.0 2.2 2.3 1.8 1.5 1.1 0.6 0.1 0.0 0.2 0.1 0.0 0.0 0.0 0.0 0.0 0.0 0.0 0.1 0.0 0.0 0.0 0.0 0.0 0.1 0.1 0.0 0.0 0.7 0.7
0.0 25.0 33.1 33.8 23.5 21.4 12.5 10.2 5.9 2.4 2.9 2.4 2.0 1.5 0.7 0.0 1.9 3.2 2.4 0.6 0.4 0.4 1.3 1.6 1.3 1.1 0.6 1.5 1.8 2.2 2.3 1.4 0.4 0.0 0.7 0.3 0.1 0.0 0.0 0.0 0.0 0.0 0.0 0.0 0.0 0.0 0.0 0.0 0.1 0.1 0.0 0.0 0.0 0.0
38.2 45.0 31.2 32.2 16.5 8.8 4.7 4.1 3.4 2.6 2.4 1.7 0.8 0.4 0.6 0.6 1.7 1.7 0.1 0.0 0.1 0.2 0.6 1.4 1.5 1.4 1.4 1.0 1.4 1.3 1.2 1.5 2.5 2.7 0.1 1.5 0.8 0.2 0.0 0.0 0.3 0.0 0.0 0.2 0.1 0.1 0.0 0.0 0.0 0.0 0.0 0.1 0.3 0.4
44.3 25.4 14.3 4.6 2.6 0.5 0.2 0.1 0.3 0.1 0.1 0.3 0.5 0.2 0.3 0.9 2.4 0.8 0.0 0.0 0.1 0.3 0.4 0.6 1.2 1.2 0.9 0.8 1.0 1.8 1.7 1.5 1.3 2.4 1.4 2.0 1.6 2.1 2.1 0.2 1.5 0.7 0.2 0.1 0.9 0.8 0.3 0.1 0.1 0.0 0.0 0.1 0.4 0.5
32.1 16.6 4.4 0.4 0.1 0.1 0.1 0.0 0.1 0.0 0.5 0.8 0.5 0.4 0.7 2.6 0.2 0.0 0.0 0.0 0.0 0.4 0.7 1.1 2.2 1.9 1.3 1.4 1.3 1.8 2.0 2.2 2.0 1.5 2.0 4.3 4.0 2.5 1.2 2.1 2.0 1.2 0.9 0.6 1.3 1.0 1.2 1.0 0.6 0.7 0.6 0.7 0.5 1.1
8.4 2.5 0.0 0.4 0.2 0.0 0.3 0.4 0.7 0.6 0.5 0.0 0.5 0.6 0.6 0.1 0.0 0.0 0.0 0.0 0.0 0.0 0.8 1.3 1.8 2.4 2.2 1.9 1.9 2.6 2.8 3.1 3.4 3.2 4.5 5.2 5.4 5.0 3.9 3.1 2.5 2.7 3.1 2.1 1.8 2.4 2.1 1.7 1.4 2.1 1.7 1.5 1.3 1.1
2.3 1.4 1.1 1.3 0.8 0.5 0.3 0.3 0.3 0.1 0.0 0.0 0.1 0.0 0.0 0.0 0.0 0.0 0.0 0.0 0.0 0.8 1.0 1.5 1.9 2.0 2.8 2.9 2.8 3.5 3.5 3.6 3.1 2.5 2.0 2.4 4.3 6.0 5.6 4.8 5.5 5.6 3.7 3.8 2.6 3.0 3.1 4.0 3.6 3.6 3.8 3.7 3.4 3.4
0.4 0.0 0.0 0.1 0.7 0.8 0.3 0.1 0.0 0.0 0.0 0.0 0.0 0.0 0.0 0.0 0.0 0.0 0.1 0.0 0.0 1.4 1.8 2.4 2.3 2.4 3.5 3.4 3.5 3.3 4.1 4.1 3.8 2.2 2.1 2.2 2.9 4.1 5.8 5.8 5.9 6.4 6.0 5.6 6.4 6.8 5.1 6.1 6.3 6.4 5.7 5.5 5.4 4.8
0.1 0.0 0.1 0.1 0.1 0.3 0.2 0.3 0.2 0.2 0.0 0.1 0.1 0.1 0.1 0.1 0.0 0.0 0.3 0.6 1.4 2.0 2.7 3.4 3.8 4.5 4.6 5.0 4.9 4.4 4.5 5.2 5.3 5.5 4.4 4.8 4.8 4.8 5.5 6.3 5.9 6.5 6.4 5.9 5.2 4.9 5.0 4.7 4.2 4.4 4.3 4.3 3.9 3.6
0.3 0.1 0.0 0.1 0.1 0.1 0.5 0.4 0.2 0.1 0.1 0.1 0.2 0.1 0.1 0.1 0.1 0.0 0.5 0.8 1.8 2.3 2.7 3.4 3.9 5.0 5.6 5.4 5.4 5.3 4.2 4.8 4.8 6.0 5.1 4.5 4.5 3.9 5.1 5.6 6.2 5.7 6.2 6.4 5.8 6.3 6.2 6.2 6.3 5.8 5.7 5.7 5.3 4.8
2.0 1.1 0.7 0.5 1.0 1.1 0.4 0.1 0.3 0.3 0.3 0.1 0.1 0.0 0.0 0.1 0.0 0.4 0.6 1.0 2.0 2.5 2.7 4.1 4.7 4.7 4.5 4.4 4.9 5.2 5.2 5.1 6.0 5.7 5.7 5.9 5.7 6.3 5.5 5.5 5.7 6.4 6.5 6.7 7.0 7.6 7.9 7.3 7.0 6.6 6.1 5.8 5.3 5.0

GFSWCAN_prec_kuchsnow_111.txt.gz
Snowfall_Accumulation
0.0 0.0 0.0 0.0 0.0 0.0 0.0 0.0 0.0 0.0 0.0 0.0 0.0 0.0 0.0 0.0 0.0 0.0 0.0 0.0 0.0 0.0 0.0 0.0 0.0 0.0 0.0 0.0 0.0 0.0 0.0 0.0 0.0 0.1 0.0 0.1 0.0 0.0 0.0 0.0 0.0 0.0 0.1 0.2 0.3 0.8 0.0 0.0 0.0 0.0 0.0 0.0 0.0 0.0
0.0 0.0 0.0 0.0 0.0 0.0 0.0 0.0 0.0 0.0 0.0 0.0 0.0 0.0 0.0 0.0 0.0 0.0 0.0 0.0 0.0 0.0 0.0 0.0 0.0 0.0 0.0 0.0 0.0 0.0 0.0 0.0 0.0 0.2 0.1 0.0 0.0 0.0 0.0 0.0 0.0 0.0 0.0 0.0 0.0 0.0 0.0 0.0 0.0 0.0 0.0 0.0 0.0 0.0
0.0 0.0 0.0 0.0 0.0 0.0 0.0 0.0 0.0 0.0 0.0 0.0 0.0 0.0 0.0 0.0 0.0 0.0 0.0 0.0 0.0 0.2 0.0 0.0 0.0 0.0 0.0 0.0 0.0 0.0 0.0 0.0 0.0 0.0 0.1 0.1 0.0 0.0 0.0 0.0 0.0 0.0 0.0 0.0 0.0 0.0 0.0 0.0 0.0 0.0 0.0 0.0 0.0 0.0
0.0 0.0 0.0 0.0 0.0 0.0 0.0 0.0 0.0 0.0 0.0 0.0 0.0 0.0 0.0 0.0 0.0 0.0 0.0 0.0 0.0 0.2 1.5 0.0 0.0 0.0 0.0 0.0 0.0 0.0 0.0 0.0 0.0 0.4 0.5 0.2 0.2 0.0 0.0 0.0 0.0 0.0 0.0 0.0 0.0 0.0 0.0 0.0 0.0 0.0 0.0 0.0 0.0 0.0
0.0 0.0 0.0 0.0 0.0 0.0 0.0 0.0 0.0 0.0 0.0 0.0 0.0 0.0 0.0 0.0 0.0 0.0 0.0 0.0 0.0 0.3 2.2 0.7 0.0 0.0 0.0 0.0 0.0 0.0 0.0 0.0 0.2 0.7 1.3 0.7 0.0 0.0 0.0 0.0 0.0 0.0 0.0 0.0 0.0 0.0 0.0 0.0 0.0 0.0 0.0 0.0 0.0 0.0
0.0 0.0 0.0 0.0 0.0 0.0 0.0 0.0 0.0 0.0 0.0 0.0 0.0 0.0 0.0 0.0 0.0 0.0 0.0 0.0 0.0 0.0 2.6 3.1 0.0 0.0 0.0 0.0 0.0 0.0 0.0 0.0 0.8 0.3 1.6 0.0 0.0 0.0 0.9 0.1 0.0 0.0 0.0 0.0 0.0 0.0 0.0 0.0 0.0 0.0 0.0 0.0 0.0 0.0
0.0 0.0 0.0 0.0 0.0 0.0 0.0 0.0 0.0 0.0 0.0 0.0 0.0 0.0 0.0 0.0 0.0 0.1 0.1 0.0 0.0 0.0 2.6 7.8 4.1 0.1 0.0 0.0 0.0 0.0 0.0 0.0 1.2 1.1 0.0 0.8 0.2 1.1 1.0 0.0 0.0 0.0 0.0 0.0 0.0 0.0 0.0 0.0 0.0 0.0 0.0 0.0 0.0 0.0
0.0 0.0 0.0 0.0 0.0 0.0 0.0 0.0 0.0 0.0 0.0 0.0 0.0 0.0 0.0 0.0 0.0 0.0 0.0 0.0 0.0 1.5 4.2 11.3 8.8 4.6 0.0 0.0 0.1 0.0 0.0 0.0 1.9 0.7 0.0 0.1 0.0 0.7 1.2 0.0 0.0 0.0 0.0 0.0 0.0 0.0 0.0 0.0 0.0 0.0 0.0 0.0 0.0 0.0
0.0 0.0 0.0 0.0 0.0 0.0 0.0 0.0 0.0 0.0 0.0 0.0 0.0 0.0 0.0 0.0 0.0 0.0 0.0 0.0 0.0 0.1 7.2 6.3 10.1 6.4 0.2 0.1 0.1 0.1 0.0 1.6 0.2 0.9 0.0 0.0 0.4 2.0 0.0 0.0 0.1 0.0 0.0 0.0 0.0 0.0 0.0 0.0 0.0 0.0 0.0 0.0 0.0 0.0
0.0 0.0 0.0 0.0 0.0 0.0 0.0 0.0 0.0 0.0 0.0 0.0 0.0 0.0 0.2 0.0 0.0 0.0 0.0 1.4 2.7 2.4 3.0 6.7 2.6 2.8 1.1 2.0 0.7 0.8 0.1 1.9 4.8 0.0 0.0 0.7 0.1 0.0 0.0 0.2 0.1 0.0 0.0 0.0 2.9 1.7 0.5 1.1 0.2 0.1 0.0 0.0 0.0 0.0
0.0 0.0 0.0 0.0 0.0 0.0 0.0 0.0 0.0 0.0 0.0 0.0 0.0 0.3 0.0 0.0 0.0 0.0 4.3 4.1 1.8 2.7 2.4 2.4 2.2 2.3 0.0 3.2 1.2 0.3 2.5 1.7 6.9 1.9 0.9 1.5 2.6 0.6 0.0 0.2 0.0 0.0 0.1 0.0 0.0 0.1 0.9 1.5 2.0 1.0 0.4 1.5 0.9 1.5
0.0 0.0 0.0 0.0 0.0 0.0 0.0 0.0 0.0 0.0 0.0 0.0 0.0 0.0 0.0 2.2 5.6 8.0 7.2 1.1 1.1 1.7 0.6 0.9 0.5 0.2 0.5 0.0 1.7 1.0 2.5 2.3 2.8 1.4 3.9 3.4 1.5 0.9 1.2 0.4 0.2 0.1 0.0 0.1 0.1 1.1 0.5 0.5 0.8 0.8 1.9 2.4 2.2 2.2
0.0 0.0 0.0 0.0 0.0 0.0 0.0 0.0 0.0 0.0 0.0 0.0 0.1 4.1 4.8 6.2 9.8 6.5 5.0 1.6 0.5 0.3 0.4 0.6 0.9 0.1 0.0 0.1 1.3 2.0 2.2 1.0 2.1 4.9 3.6 1.3 0.3 0.0 0.3 1.1 1.0 0.7 0.1 0.5 0.9 0.0 0.3 0.3 0.3 0.3 0.2 0.1 0.0 0.0
0.0 0.0 0.0 0.0 0.0 0.0 0.0 0.0 0.0 0.0 0.0 0.1 6.1 8.9 5.8 4.2 3.3 2.2 1.3 1.0 0.0 0.2 0.0 0.0 0.6 0.9 0.1 1.2 1.0 2.4 0.3 1.8 6.2 3.2 2.5 0.3 0.4 0.3 0.1 0.2 0.4 0.5 0.7 1.0 2.8 2.8 1.4 0.8 0.3 0.1 0.0 0.1 0.0 0.0
0.0 0.0 0.0 0.0 0.0 0.0 0.0 0.0 0.0 0.0 0.0 5.7 7.7 6.0 2.9 1.3 0.6 0.3 0.1 0.4 0.0 0.0 0.0 0.1 0.3 0.5 1.3 2.3 1.4 1.7 2.1 4.4 3.3 3.1 1.0 0.4 0.4 0.6 0.4 0.2 0.2 0.4 0.5 1.2 1.2 2.1 3.2 1.9 0.7 0.0 0.0 0.0 0.3 0.3
0.0 0.0 0.0 0.0 0.0 0.0 0.0 0.0 0.0 0.0 0.6 8.2 8.3 3.4 0.7 0.5 0.3 0.1 0.0 0.1 0.0 0.0 0.1 0.3 1.0 1.7 1.1 2.2 1.8 2.1 3.1 3.8 2.2 1.0 0.5 0.3 0.6 0.0 0.2 0.2 0.0 0.0 0.0 0.1 1.0 1.4 2.0 1.9 1.3 0.7 0.5 0.1 0.2 0.9
0.0 0.0 0.0 0.0 0.0 0.0 0.0 0.0 0.0 10.4 12.5 11.9 2.7 0.4 0.6 0.3 0.3 0.2 0.0 0.0 0.0 0.2 1.2 2.4 4.4 1.7 1.5 2.4 1.0 0.4 1.4 1.1 0.6 0.0 0.1 0.0 0.1 0.0 0.0 0.0 0.0 0.0 0.0 0.0 0.5 0.9 1.6 2.2 2.4 1.4 1.8 1.5 1.2 0.8
0.0 0.0 0.0 0.0 0.0 0.0 0.0 0.0 8.2 14.6 13.0 2.9 0.0 0.0 0.0 0.0 0.2 0.2 0.0 0.0 0.0 0.4 1.4 5.1 3.1 3.2 1.6 1.0 0.2 0.1 0.0 0.0 0.1 0.0 0.1 0.0 0.0 0.0 0.0 0.0 0.0 0.1 0.7 1.7 1.5 1.6 1.1 1.7 1.6 1.3 1.0 0.8 0.8 1.0
0.0 0.0 0.0 0.0 0.0 0.0 15.6 17.4 10.1 12.8 2.3 0.1 0.0 0.0 0.0 0.0 0.0 0.0 0.0 0.0 0.0 0.0 0.4 4.2 4.9 2.3 0.1 0.0 0.0 0.0 0.0 0.0 0.0 0.0 0.0 0.0 0.0 0.0 0.0 0.3 0.3 0.7 1.8 1.6 0.4 0.4 0.4 0.3 0.7 0.4 1.0 0.7 1.0 0.8
0.0 0.0 0.0 0.0 0.0 8.6 26.1 22.4 10.6 5.3 1.7 0.0 0.0 0.0 0.0 0.0 0.0 0.0 0.0 0.3 0.5 2.5 5.2 5.6 0.3 0.2 0.1 0.3 0.3 0.1 0.0 0.0 0.0 0.0 0.0 0.0 0.0 0.0 0.0 0.0 0.1 0.3 0.7 0.6 0.5 0.7 0.5 0.7 0.5 0.2 0.6 0.5 1.0 1.1
0.0 0.0 0.0 0.0 1.9 11.8 19.2 15.7 8.3 1.4 0.2 0.2 0.0 0.0 0.0 0.0 0.0 0.1 0.1 1.2 4.4 7.8 4.2 1.2 0.2 0.1 0.0 0.5 0.2 0.0 0.0 0.0 0.0 0.0 0.0 0.0 0.0 0.0 0.0 0.0 0.0 0.0 0.0 0.3 0.2 0.1 0.5 0.3 0.7 0.5 0.3 0.8 0.7 1.0
0.4 0.0 6.5 4.0 27.3 28.4 18.3 8.9 4.0 1.1 0.9 0.6 0.0 0.0 0.2 0.4 0.1 0.1 0.2 5.2 7.9 2.5 1.5 1.1 1.0 0.6 0.2 0.0 0.8 0.9 0.4 0.0 0.0 0.0 0.0 0.0 0.0 0.0 0.0 0.0 0.0 0.0 0.0 0.0 0.0 0.1 0.0 0.1 0.1 0.5 0.5 1.1 0.9 0.4
0.3 1.3 22.2 26.0 33.5 28.1 17.7 4.8 3.3 1.9 1.1 1.2 0.9 1.0 1.7 0.6 0.2 0.3 4.0 2.7 1.6 1.2 1.0 0.8 1.0 2.2 2.3 1.8 1.5 1.1 0.6 0.1 0.0 0.2 0.1 0.0 0.0 0.0 0.0 0.0 0.0 0.0 0.1 0.0 0.0 0.0 0.0 0.0 0.1 0.1 0.0 0.0 1.2 1.2
0.0 26.2 34.8 36.0 25.0 22.1 12.5 10.2 5.9 2.5 2.9 2.4 2.1 1.5 0.7 0.0 1.9 3.2 2.7 0.6 0.4 0.4 1.3 1.6 1.3 1.1 0.6 1.5 1.8 2.2 2.3 1.4 0.4 0.0 0.7 0.3 0.1 0.0 0.0 0.0 0.0 0.0 0.0 0.0 0.0 0.0 0.0 0.0 0.1 0.1 0.0 0.0 0.8 0.8
40.5 48.8 33.2 33.8 16.9 9.0 4.9 4.3 3.7 3.0 2.4 1.7 1.1 0.4 0.6 0.6 2.0 2.1 0.1 0.0 0.1 0.2 0.6 1.4 1.5 1.4 1.4 1.0 1.4 1.3 1.2 1.5 2.5 2.7 0.1 1.5 0.8 0.2 0.0 0.0 0.3 0.0 0.0 0.2 0.1 0.1 0.0 0.0 0.0 0.0 0.0 0.7 1.2 1.3
47.1 26.2 15.5 5.1 2.8 0.6 0.2 0.1 0.3 0.1 0.1 0.7 1.3 0.9 0.3 2.5 4.4 1.7 0.0 0.0 0.1 0.3 0.4 0.6 1.2 1.2 0.9 0.8 1.0 1.8 1.7 1.5 1.3 2.4 1.4 2.0 1.6 2.1 2.1 0.2 1.5 0.7 0.2 0.1 0.9 0.8 0.3 0.1 0.1 0.0 0.4 0.6 0.8 0.8
34.1 17.2 4.5 0.4 0.1 0.1 0.3 0.0 0.1 0.1 0.5 0.9 0.5 0.4 0.7 3.3 0.2 0.0 0.0 0.0 0.0 0.4 0.7 1.1 2.2 1.9 1.3 1.4 1.3 1.8 2.0 2.2 2.0 1.5 2.0 4.3 4.0 2.5 1.2 2.1 2.0 1.2 0.9 0.6 1.3 1.0 1.2 1.0 0.6 0.7 0.7 0.7 0.5 1.1
8.4 2.5 0.0 0.4 0.2 0.0 0.3 0.4 0.7 0.6 0.5 0.0 0.5 0.9 1.3 0.1 0.0 0.0 0.0 0.0 0.0 0.0 0.8 1.3 1.8 2.4 2.2 1.9 1.9 2.6 2.8 3.1 3.4 3.2 4.5 5.2 5.4 5.0 3.9 3.1 2.5 2.7 3.1 2.1 1.8 2.4 2.1 1.7 1.4 2.1 1.7 1.5 1.3 1.1
2.3 1.4 1.3 1.3 0.8 0.5 0.4 0.3 0.3 0.1 0.0 0.0 0.1 0.1 0.0 0.0 0.0 0.0 0.0 0.0 0.0 0.8 1.0 1.5 1.9 2.0 2.8 2.9 2.8 3.5 3.5 3.6 3.1 2.5 2.0 2.4 4.3 6.0 5.6 4.8 5.5 5.6 3.7 3.8 2.6 3.0 3.1 4.0 3.6 3.6 3.8 3.7 3.4 3.4
0.4 0.0 0.0 0.1 0.7 1.6 0.3 0.1 0.0 0.0 0.0 0.0 0.0 0.0 0.0 0.0 0.0 0.0 0.1 0.0 0.0 1.4 1.8 2.4 2.3 2.4 3.5 3.4 3.5 3.3 4.1 4.1 3.8 2.2 2.1 2.2 2.9 4.1 5.8 5.8 5.9 6.4 6.0 5.6 6.4 6.8 5.1 6.1 6.3 6.4 5.7 5.5 5.4 4.8
0.1 0.0 0.1 0.1 0.1 0.3 0.2 0.3 0.2 0.2 0.0 0.1 0.1 0.1 0.1 0.1 0.0 0.0 0.3 0.6 1.4 2.0 2.7 3.4 3.8 4.5 4.6 5.0 4.9 4.4 4.5 5.2 5.3 5.5 4.4 4.8 4.8 4.8 5.5 6.3 5.9 6.5 6.4 5.9 5.2 4.9 5.0 4.7 4.2 4.4 4.3 4.3 3.9 3.6
0.3 0.1 0.0 0.1 0.1 0.1 0.5 0.4 0.2 0.1 0.1 0.1 0.2 0.1 0.1 0.1 0.1 0.0 0.5 0.8 1.8 2.3 2.7 3.4 3.9 5.0 5.6 5.4 5.4 5.3 4.2 4.8 4.8 6.0 5.1 4.5 4.5 3.9 5.1 5.6 6.2 5.7 6.2 6.4 5.8 6.3 6.2 6.2 6.3 5.8 5.7 5.7 5.3 4.8
2.0 1.1 0.7 0.5 1.0 1.1 0.4 0.1 0.3 0.3 0.3 0.1 0.1 0.0 0.0 0.1 0.0 0.4 0.6 1.0 2.0 2.5 2.7 4.1 4.7 4.7 4.5 4.4 4.9 5.2 5.2 5.1 6.0 5.7 5.7 5.9 5.7 6.3 5.5 5.5 5.7 6.4 6.5 6.7 7.0 7.6 7.9 7.3 7.0 6.6 6.1 5.8 5.3 5.0

GFSWCAN_prec_kuchsnow_114.txt.gz
Snowfall_Accumulation
0.0 0.0 0.0 0.0 0.0 0.0 0.0 0.0 0.0 0.0 0.0 0.0 0.0 0.0 0.0 0.0 0.0 0.0 0.0 0.0 0.0 0.0 0.0 0.0 0.0 0.0 0.0 0.0 0.0 0.0 0.0 0.0 0.0 0.1 0.0 0.1 0.0 0.0 0.0 0.0 0.0 0.0 0.1 0.2 0.3 0.8 0.0 0.0 0.0 0.0 0.0 0.0 0.0 0.0
0.0 0.0 0.0 0.0 0.0 0.0 0.0 0.0 0.0 0.0 0.0 0.0 0.0 0.0 0.0 0.0 0.0 0.0 0.0 0.0 0.0 0.0 0.0 0.0 0.0 0.0 0.0 0.0 0.0 0.0 0.0 0.0 0.0 0.2 0.1 0.0 0.0 0.0 0.0 0.0 0.0 0.0 0.0 0.0 0.0 0.0 0.0 0.0 0.0 0.0 0.0 0.0 0.0 0.0
0.0 0.0 0.0 0.0 0.0 0.0 0.0 0.0 0.0 0.0 0.0 0.0 0.0 0.0 0.0 0.0 0.0 0.0 0.0 0.0 0.0 0.2 0.0 0.0 0.0 0.0 0.0 0.0 0.0 0.0 0.0 0.0 0.0 0.0 0.1 0.1 0.0 0.0 0.0 0.0 0.0 0.0 0.0 0.0 0.0 0.0 0.0 0.0 0.0 0.0 0.0 0.0 0.0 0.0
0.0 0.0 0.0 0.0 0.0 0.0 0.0 0.0 0.0 0.0 0.0 0.0 0.0 0.0 0.0 0.0 0.0 0.0 0.0 0.0 0.0 0.2 1.5 0.0 0.0 0.0 0.0 0.0 0.0 0.0 0.0 0.0 0.0 0.4 0.5 0.2 0.2 0.0 0.0 0.0 0.0 0.0 0.0 0.0 0.0 0.0 0.0 0.0 0.0 0.0 0.0 0.0 0.0 0.0
0.0 0.0 0.0 0.0 0.0 0.0 0.0 0.0 0.0 0.0 0.0 0.0 0.0 0.0 0.0 0.0 0.0 0.0 0.0 0.0 0.0 0.3 2.2 0.7 0.0 0.0 0.0 0.0 0.0 0.0 0.0 0.0 0.2 0.7 1.3 0.7 0.0 0.0 0.0 0.0 0.0 0.0 0.0 0.0 0.0 0.0 0.0 0.0 0.0 0.0 0.0 0.0 0.0 0.0
0.0 0.0 0.0 0.0 0.0 0.0 0.0 0.0 0.0 0.0 0.0 0.0 0.0 0.0 0.0 0.0 0.0 0.0 0.0 0.0 0.0 0.0 2.6 3.1 0.0 0.0 0.0 0.0 0.0 0.0 0.0 0.0 0.8 0.3 1.6 0.0 0.0 0.0 0.9 0.1 0.0 0.0 0.0 0.0 0.0 0.0 0.0 0.0 0.0 0.0 0.0 0.0 0.0 0.0
0.0 0.0 0.0 0.0 0.0 0.0 0.0 0.0 0.0 0.0 0.0 0.0 0.0 0.0 0.0 0.0 0.0 0.1 0.1 0.0 0.0 0.0 2.6 7.8 4.1 0.1 0.0 0.0 0.0 0.0 0.0 0.0 1.2 1.1 0.0 0.8 0.2 1.1 1.0 0.0 0.0 0.0 0.0 0.0 0.0 0.0 0.0 0.0 0.0 0.0 0.0 0.0 0.0 0.0
0.0 0.0 0.0 0.0 0.0 0.0 0.0 0.0 0.0 0.0 0.0 0.0 0.0 0.0 0.0 0.0 0.0 0.0 0.0 0.0 0.0 1.5 4.2 11.3 8.8 4.6 0.0 0.0 0.1 0.0 0.0 0.0 1.9 0.7 0.0 0.1 0.0 0.7 1.2 0.0 0.0 0.0 0.0 0.0 0.0 0.0 0.0 0.0 0.0 0.0 0.0 0.0 0.0 0.0
0.0 0.0 0.0 0.0 0.0 0.0 0.0 0.0 0.0 0.0 0.0 0.0 0.0 0.0 0.0 0.0 0.0 0.0 0.0 0.0 0.0 0.1 7.2 6.3 10.1 6.4 0.2 0.1 0.1 0.1 0.0 1.6 0.2 0.9 0.0 0.0 0.4 2.0 0.0 0.0 0.1 0.0 0.0 0.0 0.0 0.0 0.0 0.0 0.0 0.0 0.0 0.0 0.0 0.0
0.0 0.0 0.0 0.0 0.0 0.0 0.0 0.0 0.0 0.0 0.0 0.0 0.0 0.0 0.2 0.0 0.0 0.0 0.0 1.4 2.7 2.4 3.1 6.8 2.6 2.8 1.1 2.0 0.7 0.8 0.1 1.9 4.8 0.0 0.0 0.7 0.1 0.0 0.0 0.2 0.1 0.0 0.0 0.0 2.9 1.7 0.5 1.1 0.2 0.1 0.0 0.0 0.0 0.0
0.0 0.0 0.0 0.0 0.0 0.0 0.0 0.0 0.0 0.0 0.0 0.0 0.0 0.3 0.0 0.0 0.0 0.0 4.4 4.2 1.9 3.0 2.4 2.4 2.2 2.3 0.0 3.2 1.2 0.3 2.5 1.7 6.9 1.9 0.9 1.5 2.6 0.6 0.0 0.2 0.0 0.0 0.1 0.0 0.0 0.1 0.9 1.5 2.0 1.0 0.4 1.5 0.9 1.5
0.0 0.0 0.0 0.0 0.0 0.0 0.0 0.0 0.0 0.0 0.0 0.0 0.0 0.0 0.0 2.2 5.6 8.1 7.4 1.3 1.3 1.7 0.6 0.9 0.5 0.2 0.5 0.0 1.7 1.0 2.5 2.3 2.8 1.4 3.9 3.4 1.5 0.9 1.2 0.4 0.2 0.1 0.0 0.1 0.1 1.1 0.5 0.5 0.8 0.8 1.9 2.4 2.2 2.2
0.0 0.0 0.0 0.0 0.0 0.0 0.0 0.0 0.0 0.0 0.0 0.0 0.1 4.1 4.8 6.2 9.8 6.8 5.0 1.7 0.5 0.3 0.4 0.6 0.9 0.1 0.0 0.1 1.3 2.0 2.3 1.0 2.1 4.9 3.6 1.3 0.3 0.0 0.3 1.1 1.0 0.7 0.1 0.5 0.9 0.0 0.3 0.3 0.3 0.3 0.2 0.1 0.0 0.0
0.0 0.0 0.0 0.0 0.0 0.0 0.0 0.0 0.0 0.0 0.0 0.1 6.2 9.1 5.8 4.2 3.3 2.2 1.3 1.0 0.0 0.2 0.0 0.0 0.6 0.9 0.1 1.2 1.0 2.7 0.3 1.8 6.2 3.2 2.5 0.3 0.4 0.3 0.1 0.2 0.4 0.5 0.7 1.0 2.8 2.8 1.4 0.8 0.3 0.1 0.0 0.1 0.0 0.0
0.0 0.0 0.0 0.0 0.0 0.0 0.0 0.0 0.0 0.0 0.0 5.7 7.9 6.1 2.9 1.3 0.6 0.3 0.1 0.4 0.0 0.0 0.0 0.1 0.3 0.5 1.6 3.2 2.0 2.3 2.8 4.8 3.3 3.1 1.0 0.4 0.4 0.6 0.4 0.2 0.2 0.4 0.5 1.2 1.2 2.1 3.2 1.9 0.7 0.0 0.0 0.0 0.3 0.3
0.0 0.0 0.0 0.0 0.0 0.0 0.0 0.0 0.0 0.0 0.6 8.6 8.4 3.4 0.7 0.5 0.3 0.1 0.0 0.1 0.0 0.0 0.1 0.3 1.0 1.7 1.1 2.2 2.5 2.1 3.4 3.8 2.2 1.0 0.5 0.3 0.6 0.0 0.2 0.2 0.0 0.0 0.0 0.1 1.0 1.4 2.0 1.9 1.3 0.7 0.5 0.1 0.2 0.9
0.0 0.0 0.0 0.0 0.0 0.0 0.0 0.0 0.0 10.8 12.9 12.3 2.7 0.4 0.6 0.3 0.3 0.2 0.0 0.0 0.0 0.2 1.2 2.4 5.0 1.7 1.5 3.2 1.0 0.4 1.7 1.1 0.6 0.0 0.1 0.0 0.1 0.0 0.0 0.0 0.0 0.0 0.0 0.0 0.5 0.9 1.6 2.2 2.4 1.4 1.8 1.5 1.2 0.8
0.0 0.0 0.0 0.0 0.0 0.0 0.0 0.0 8.2 14.6 13.6 3.0 0.0 0.0 0.0 0.0 0.2 0.2 0.0 0.0 0.0 0.4 1.4 5.2 3.2 3.2 1.6 1.0 0.2 0.1 0.0 0.0 0.1 0.0 0.1 0.0 0.0 0.0 0.0 0.0 0.0 0.1 0.7 1.7 1.5 1.6 1.1 1.7 1.6 1.3 1.0 0.8 0.8 1.0
0.0 0.0 0.0 0.0 0.0 0.0 15.8 17.6 10.2 13.0 2.3 0.1 0.0 0.0 0.0 0.0 0.0 0.0 0.0 0.0 0.0 0.0 0.7 4.7 5.5 2.3 0.1 0.0 0.0 0.0 0.0 0.0 0.0 0.0 0.0 0.0 0.0 0.0 0.0 0.3 0.3 0.7 1.8 1.6 0.4 0.4 0.4 0.3 0.7 0.4 1.0 0.7 1.0 0.8
0.0 0.0 0.0 0.0 0.0 9.5 27.7 23.2 10.7 5.3 1.7 0.0 0.0 0.0 0.0 0.0 0.0 0.0 0.0 0.3 0.5 2.8 5.8 6.3 0.3 0.2 0.1 0.3 0.3 0.1 0.0 0.0 0.0 0.0 0.0 0.0 0.0 0.0 0.0 0.0 0.1 0.3 0.7 0.6 0.5 0.7 0.5 0.7 0.5 0.2 0.6 0.5 1.0 1.1
0.0 0.0 0.0 0.0 1.9 13.1 20.4 16.4 8.8 1.4 0.2 0.2 0.0 0.0 0.0 0.0 0.0 0.1 0.1 1.2 4.4 8.0 4.3 1.2 0.2 0.1 0.0 0.5 0.2 0.0 0.0 0.0 0.0 0.0 0.0 0.0 0.0 0.0 0.0 0.0 0.0 0.0 0.0 0.3 0.2 0.1 0.5 0.3 0.7 0.5 0.3 0.8 0.7 1.0
0.4 0.0 6.5 4.0 29.2 31.2 21.6 9.9 4.2 1.1 0.9 0.6 0.0 0.0 0.2 0.4 0.1 0.1 0.2 5.5 8.2 2.5 1.5 1.1 1.0 0.6 0.2 0.0 0.8 0.9 0.4 0.0 0.0 0.0 0.0 0.0 0.0 0.0 0.0 0.0 0.0 0.0 0.0 0.0 0.0 0.1 0.0 0.1 0.1 0.5 0.5 1.1 0.9 0.5
0.3 1.3 23.4 27.4 35.4 29.8 19.0 5.1 4.0 2.4 1.5 1.3 0.9 1.0 1.7 0.6 0.2 0.3 4.0 2.7 1.6 1.2 1.0 0.8 1.0 2.2 2.3 1.8 1.5 1.1 0.6 0.1 0.0 0.2 0.1 0.0 0.0 0.0 0.0 0.0 0.0 0.0 0.1 0.0 0.0 0.0 0.0 0.0 0.1 0.1 0.0 0.0 1.2 1.8
0.0 27.7 36.8 38.2 26.5 22.9 12.7 10.3 5.9 2.5 2.9 2.4 2.1 1.5 0.7 0.0 1.9 3.2 3.1 0.6 0.4 0.4 1.3 1.6 1.3 1.1 0.6 1.5 1.8 2.2 2.3 1.4 0.4 0.0 0.7 0.3 0.1 0.0 0.0 0.0 0.0 0.0 0.0 0.0 0.0 0.0 0.0 0.0 0.1 0.1 0.0 0.0 0.8 1.6
44.4 52.2 34.8 35.6 17.6 9.6 5.7 4.3 3.7 3.0 2.4 1.7 1.1 0.4 0.6 0.6 2.0 2.1 0.1 0.0 0.1 0.2 0.6 1.4 1.5 1.4 1.4 1.0 1.4 1.3 1.2 1.5 2.5 2.7 0.1 1.5 0.8 0.2 0.0 0.0 0.3 0.0 0.0 0.2 0.1 0.1 0.0 0.0 0.0 0.0 0.0 1.0 1.6 2.1
49.9 27.3 17.1 5.1 2.8 0.6 0.2 0.1 0.3 0.1 0.1 0.7 1.3 0.9 0.3 2.5 5.3 2.3 0.0 0.0 0.1 0.3 0.4 0.6 1.2 1.2 0.9 0.8 1.0 1.8 1.7 1.5 1.3 2.4 1.4 2.0 1.6 2.1 2.1 0.2 1.5 0.7 0.2 0.1 0.9 0.8 0.3 0.1 0.1 0.0 0.6 1.0 1.5 2.0
35.5 17.7 4.5 0.4 0.1 0.1 0.3 0.0 0.1 0.1 0.5 0.9 0.5 0.4 0.7 4.8 0.2 0.0 0.0 0.0 0.0 0.4 0.7 1.1 2.2 1.9 1.3 1.4 1.3 1.8 2.0 2.2 2.0 1.5 2.0 4.3 4.0 2.5 1.2 2.1 2.0 1.2 0.9 0.6 1.3 1.0 1.2 1.0 0.6 1.0 1.3 1.5 1.4 1.9
8.4 2.5 0.0 0.4 0.2 0.0 0.3 0.4 0.7 0.6 0.5 0.0 0.5 0.9 1.5 0.1 0.0 0.0 0.0 0.0 0.0 0.0 0.8 1.3 1.8 2.4 2.2 1.9 1.9 2.6 2.8 3.1 3.4 3.2 4.5 5.2 5.4 5.0 3.9 3.1 2.5 2.7 3.1 2.1 1.8 2.4 2.1 1.7 1.4 2.4 2.0 1.7 1.3 1.2
2.3 1.4 1.3 1.3 0.8 0.5 0.4 0.3 0.3 0.1 0.0 0.0 0.1 0.1 0.0 0.0 0.0 0.0 0.0 0.0 0.0 0.8 1.0 1.5 1.9 2.0 2.8 2.9 2.8 3.5 3.5 3.6 3.1 2.5 2.0 2.4 4.3 6.0 5.6 4.8 5.5 5.6 3.7 3.8 2.6 3.0 3.1 4.0 3.6 3.6 3.8 3.7 3.4 3.4
0.4 0.0 0.0 0.1 0.7 1.6 0.3 0.1 0.0 0.0 0.0 0.0 0.0 0.0 0.0 0.0 0.0 0.0 0.1 0.0 0.0 1.4 1.8 2.4 2.3 2.4 3.5 3.4 3.5 3.3 4.1 4.1 3.8 2.2 2.1 2.2 2.9 4.1 5.8 5.8 5.9 6.4 6.0 5.6 6.4 6.8 5.1 6.1 6.3 6.4 5.7 5.5 5.4 4.8
0.1 0.0 0.1 0.1 0.1 0.3 0.2 0.3 0.2 0.2 0.0 0.1 0.1 0.1 0.1 0.1 0.0 0.0 0.3 0.6 1.4 2.0 2.7 3.4 3.8 4.5 4.6 5.0 4.9 4.4 4.5 5.2 5.3 5.5 4.4 4.8 4.8 4.8 5.5 6.3 5.9 6.5 6.4 5.9 5.2 4.9 5.0 4.7 4.2 4.4 4.3 4.3 3.9 3.6
0.3 0.1 0.0 0.1 0.1 0.1 0.5 0.4 0.2 0.1 0.1 0.1 0.2 0.1 0.1 0.1 0.1 0.0 0.5 0.8 1.8 2.3 2.7 3.4 3.9 5.0 5.6 5.4 5.4 5.3 4.2 4.8 4.8 6.0 5.1 4.5 4.5 3.9 5.1 5.6 6.2 5.7 6.2 6.4 5.8 6.3 6.2 6.2 6.3 5.8 5.7 5.7 5.3 4.8
2.0 1.1 0.7 0.5 1.0 1.1 0.4 0.1 0.3 0.3 0.3 0.1 0.1 0.0 0.0 0.1 0.0 0.4 0.6 1.0 2.0 2.5 2.7 4.1 4.7 4.7 4.5 4.4 4.9 5.2 5.2 5.1 6.0 5.7 5.7 5.9 5.7 6.3 5.5 5.5 5.7 6.4 6.5 6.7 7.0 7.6 7.9 7.3 7.0 6.6 6.1 5.8 5.3 5.0

GFSWCAN_prec_kuchsnow_117.txt.gz
Snowfall_Accumulation
0.0 0.0 0.0 0.0 0.0 0.0 0.0 0.0 0.0 0.0 0.0 0.0 0.0 0.0 0.0 0.0 0.0 0.0 0.0 0.0 0.0 0.0 0.0 0.0 0.0 0.0 0.0 0.0 0.0 0.0 0.0 0.0 0.0 0.1 0.0 0.1 0.0 0.0 0.0 0.0 0.0 0.0 0.1 0.2 0.3 0.8 0.0 0.0 0.0 0.0 0.0 0.0 0.0 0.0
0.0 0.0 0.0 0.0 0.0 0.0 0.0 0.0 0.0 0.0 0.0 0.0 0.0 0.0 0.0 0.0 0.0 0.0 0.0 0.0 0.0 0.0 0.0 0.0 0.0 0.0 0.0 0.0 0.0 0.0 0.0 0.0 0.0 0.2 0.1 0.0 0.0 0.0 0.0 0.0 0.0 0.0 0.0 0.0 0.0 0.0 0.0 0.0 0.0 0.0 0.0 0.0 0.0 0.0
0.0 0.0 0.0 0.0 0.0 0.0 0.0 0.0 0.0 0.0 0.0 0.0 0.0 0.0 0.0 0.0 0.0 0.0 0.0 0.0 0.0 0.2 0.0 0.0 0.0 0.0 0.0 0.0 0.0 0.0 0.0 0.0 0.0 0.0 0.1 0.1 0.0 0.0 0.0 0.0 0.0 0.0 0.0 0.0 0.0 0.0 0.0 0.0 0.0 0.0 0.0 0.0 0.0 0.0
0.0 0.0 0.0 0.0 0.0 0.0 0.0 0.0 0.0 0.0 0.0 0.0 0.0 0.0 0.0 0.0 0.0 0.0 0.0 0.0 0.0 0.2 1.5 0.0 0.0 0.0 0.0 0.0 0.0 0.0 0.0 0.0 0.0 0.4 0.5 0.2 0.2 0.0 0.0 0.0 0.0 0.0 0.0 0.0 0.0 0.0 0.0 0.0 0.0 0.0 0.0 0.0 0.0 0.0
0.0 0.0 0.0 0.0 0.0 0.0 0.0 0.0 0.0 0.0 0.0 0.0 0.0 0.0 0.0 0.0 0.0 0.0 0.0 0.0 0.0 0.3 2.2 0.7 0.0 0.0 0.0 0.0 0.0 0.0 0.0 0.0 0.2 0.7 1.3 0.7 0.0 0.0 0.0 0.0 0.0 0.0 0.0 0.0 0.0 0.0 0.0 0.0 0.0 0.0 0.0 0.0 0.0 0.0
0.0 0.0 0.0 0.0 0.0 0.0 0.0 0.0 0.0 0.0 0.0 0.0 0.0 0.0 0.0 0.0 0.0 0.0 0.0 0.0 0.0 0.0 2.6 3.1 0.0 0.0 0.0 0.0 0.0 0.0 0.0 0.0 0.8 0.3 1.6 0.0 0.0 0.0 0.9 0.1 0.0 0.0 0.0 0.0 0.0 0.0 0.0 0.0 0.0 0.0 0.0 0.0 0.0 0.0
0.0 0.0 0.0 0.0 0.0 0.0 0.0 0.0 0.0 0.0 0.0 0.0 0.0 0.0 0.0 0.0 0.0 0.1 0.1 0.0 0.0 0.0 2.6 7.8 4.1 0.1 0.0 0.0 0.0 0.0 0.0 0.0 1.2 1.1 0.0 0.8 0.2 1.1 1.0 0.0 0.0 0.0 0.0 0.0 0.0 0.0 0.0 0.0 0.0 0.0 0.0 0.0 0.0 0.0
0.0 0.0 0.0 0.0 0.0 0.0 0.0 0.0 0.0 0.0 0.0 0.0 0.0 0.0 0.0 0.0 0.0 0.0 0.0 0.0 0.0 1.5 4.2 11.4 8.8 4.6 0.0 0.0 0.1 0.0 0.0 0.0 1.9 0.7 0.0 0.1 0.0 0.7 1.2 0.0 0.0 0.0 0.0 0.0 0.0 0.0 0.0 0.0 0.0 0.0 0.0 0.0 0.0 0.0
0.0 0.0 0.0 0.0 0.0 0.0 0.0 0.0 0.0 0.0 0.0 0.0 0.0 0.0 0.0 0.0 0.0 0.0 0.0 0.0 0.0 0.1 7.3 6.5 10.1 6.4 0.2 0.1 0.1 0.1 0.0 1.6 0.2 0.9 0.0 0.0 0.4 2.0 0.0 0.0 0.1 0.0 0.0 0.0 0.0 0.0 0.0 0.0 0.0 0.0 0.0 0.0 0.0 0.0
0.0 0.0 0.0 0.0 0.0 0.0 0.0 0.0 0.0 0.0 0.0 0.0 0.0 0.0 0.2 0.0 0.0 0.0 0.0 1.4 2.7 2.4 3.3 7.0 2.6 2.8 1.1 2.0 0.7 0.8 0.1 1.9 4.8 0.0 0.0 0.8 0.1 0.0 0.0 0.2 0.1 0.0 0.0 0.0 2.9 1.7 0.5 1.1 0.2 0.1 0.0 0.0 0.0 0.0
0.0 0.0 0.0 0.0 0.0 0.0 0.0 0.0 0.0 0.0 0.0 0.0 0.0 0.3 0.0 0.0 0.0 0.0 4.4 4.4 2.1 3.2 2.4 2.4 2.2 2.3 0.0 3.2 1.2 0.3 2.5 1.7 6.9 1.9 0.9 1.5 2.6 0.6 0.0 0.2 0.0 0.0 0.1 0.0 0.0 0.1 0.9 1.5 2.0 1.0 0.4 1.5 0.9 1.5
0.0 0.0 0.0 0.0 0.0 0.0 0.0 0.0 0.0 0.0 0.0 0.0 0.0 0.0 0.0 2.2 5.6 8.1 7.6 1.5 1.3 1.7 0.6 0.9 0.5 0.2 0.5 0.0 1.7 1.0 2.5 2.3 2.8 1.4 4.0 3.4 1.5 0.9 1.2 0.4 0.2 0.1 0.0 0.1 0.1 1.1 0.5 0.5 0.8 0.8 1.9 2.4 2.2 2.2
0.0 0.0 0.0 0.0 0.0 0.0 0.0 0.0 0.0 0.0 0.0 0.0 0.1 4.1 4.8 6.2 9.8 7.1 5.0 1.7 0.5 0.3 0.4 0.6 0.9 0.1 0.0 0.1 1.3 2.2 2.5 1.1 2.1 5.0 3.6 1.3 0.3 0.0 0.3 1.1 1.0 0.7 0.1 0.5 0.9 0.0 0.3 0.3 0.3 0.3 0.2 0.1 0.0 0.0
0.0 0.0 0.0 0.0 0.0 0.0 0.0 0.0 0.0 0.0 0.0 0.1 6.2 9.1 5.8 4.2 3.3 2.2 1.3 1.0 0.0 0.2 0.0 0.0 0.6 0.9 0.1 1.2 1.0 3.0 0.3 1.8 6.5 3.2 2.5 0.3 0.4 0.3 0.1 0.2 0.4 0.5 0.7 1.0 2.8 2.8 1.4 0.8 0.3 0.1 0.0 0.1 0.0 0.0
0.0 0.0 0.0 0.0 0.0 0.0 0.0 0.0 0.0 0.0 0.0 5.7 7.9 6.2 2.9 1.3 0.6 0.3 0.1 0.4 0.0 0.0 0.0 0.1 0.3 0.6 1.7 3.2 2.0 2.3 3.1 4.8 3.3 3.1 1.0 0.4 0.4 0.6 0.4 0.2 0.2 0.4 0.5 1.2 1.2 2.1 3.2 1.9 0.7 0.0 0.0 0.0 0.3 0.3
0.0 0.0 0.0 0.0 0.0 0.0 0.0 0.0 0.0 0.0 0.6 8.9 8.5 3.4 0.7 0.5 0.3 0.1 0.0 0.1 0.0 0.0 0.1 0.3 1.0 1.7 1.1 2.2 2.6 2.1 3.4 3.8 2.2 1.0 0.5 0.3 0.6 0.0 0.2 0.2 0.0 0.0 0.0 0.1 1.0 1.4 2.0 1.9 1.3 0.7 0.5 0.1 0.2 0.9
0.0 0.0 0.0 0.0 0.0 0.0 0.0 0.0 0.0 10.8 13.4 12.7 2.8 0.4 0.6 0.3 0.3 0.2 0.0 0.0 0.0 0.2 1.2 2.5 5.5 1.9 1.5 3.3 1.0 0.4 1.7 1.1 0.6 0.0 0.1 0.0 0.1 0.0 0.0 0.0 0.0 0.0 0.0 0.0 0.5 0.9 1.6 2.2 2.4 1.4 1.8 1.5 1.2 0.8
0.0 0.0 0.0 0.0 0.0 0.0 0.0 0.0 8.3 14.6 13.6 3.0 0.0 0.0 0.0 0.0 0.2 0.2 0.0 0.0 0.0 0.4 1.4 5.2 3.4 3.2 1.6 1.0 0.2 0.1 0.0 0.0 0.1 0.0 0.1 0.0 0.0 0.0 0.0 0.0 0.0 0.1 0.7 1.7 1.5 1.6 1.1 1.7 1.6 1.3 1.0 0.8 0.8 1.0
0.0 0.0 0.0 0.0 0.0 0.0 16.7 18.8 10.7 13.4 2.3 0.1 0.0 0.0 0.0 0.0 0.0 0.0 0.0 0.0 0.0 0.0 1.2 5.5 6.5 2.6 0.1 0.0 0.0 0.0 0.0 0.0 0.0 0.0 0.0 0.0 0.0 0.0 0.0 0.3 0.3 0.7 1.8 1.6 0.4 0.4 0.4 0.3 0.7 0.4 1.0 0.7 1.0 0.8
0.0 0.0 0.0 0.0 0.0 11.6 30.6 24.8 11.8 5.7 1.7 0.0 0.0 0.0 0.0 0.0 0.0 0.0 0.0 0.3 0.5 2.8 5.8 6.3 0.3 0.2 0.1 0.3 0.3 0.1 0.0 0.0 0.0 0.0 0.0 0.0 0.0 0.0 0.0 0.0 0.1 0.3 0.7 0.6 0.5 0.7 0.5 0.7 0.5 0.2 0.6 0.5 1.0 1.1
0.0 0.0 0.0 0.0 1.9 13.1 22.7 18.1 10.0 1.7 0.2 0.2 0.0 0.0 0.0 0.0 0.0 0.1 0.1 1.2 4.4 8.0 4.3 1.2 0.2 0.1 0.0 0.5 0.2 0.0 0.0 0.0 0.0 0.0 0.0 0.0 0.0 0.0 0.0 0.0 0.0 0.0 0.0 0.3 0.2 0.1 0.5 0.3 0.7 0.5 0.3 0.8 0.7 1.0
0.4 0.0 6.5 4.0 31.0 34.8 25.3 11.4 4.9 1.2 0.9 0.6 0.0 0.0 0.2 0.4 0.1 0.1 0.2 5.5 8.2 2.5 1.5 1.1 1.0 0.6 0.2 0.0 0.8 0.9 0.4 0.0 0.0 0.0 0.0 0.0 0.0 0.0 0.0 0.0 0.0 0.0 0.0 0.0 0.0 0.1 0.0 0.1 0.1 0.5 0.5 1.1 0.9 0.5
0.3 1.3 24.0 28.6 38.8 33.8 22.6 5.9 5.1 3.1 1.5 1.3 0.9 1.0 1.7 0.6 0.2 0.3 4.0 2.7 1.6 1.2 1.0 0.8 1.0 2.2 2.3 1.8 1.5 1.1 0.6 0.1 0.0 0.2 0.1 0.0 0.0 0.0 0.0 0.0 0.0 0.0 0.1 0.0 0.0 0.0 0.0 0.0 0.1 0.1 0.0 0.0 1.2 1.8
0.0 28.9 39.1 41.3 28.9 25.4 14.6 12.0 6.8 3.0 3.1 2.5 2.1 1.5 0.7 0.0 1.9 3.2 3.1 0.6 0.4 0.4 1.3 1.6 1.3 1.1 0.6 1.5 1.8 2.2 2.3 1.4 0.4 0.0 0.7 0.3 0.1 0.0 0.0 0.0 0.0 0.0 0.0 0.0 0.0 0.0 0.0 0.0 0.1 0.1 0.0 0.0 0.8 1.6
50.1 57.9 37.7 38.3 19.5 10.9 6.4 4.7 3.9 3.1 2.4 1.7 1.1 0.4 0.6 0.6 2.0 2.1 0.1 0.0 0.1 0.2 0.6 1.4 1.5 1.4 1.4 1.0 1.4 1.3 1.2 1.5 2.5 2.7 0.1 1.5 0.8 0.2 0.0 0.0 0.3 0.0 0.0 0.2 0.1 0.1 0.0 0.0 0.0 0.0 0.0 1.1 1.8 2.4
55.4 30.8 19.8 6.7 3.9 0.6 0.4 0.1 0.3 0.1 0.1 0.7 1.3 0.9 0.3 2.5 5.3 2.3 0.0 0.0 0.1 0.3 0.4 0.6 1.2 1.2 0.9 0.8 1.0 1.8 2.1 1.5 1.3 2.7 1.4 2.0 1.6 2.1 2.1 0.2 1.5 0.7 0.2 0.1 0.9 0.8 0.3 0.1 0.1 0.0 0.8 1.2 1.7 2.5
37.8 19.4 5.4 0.4 0.4 0.2 0.3 0.0 0.1 0.1 0.5 0.9 0.5 0.4 0.7 4.8 0.2 0.0 0.0 0.0 0.0 0.4 0.7 1.1 2.2 1.9 1.3 1.4 1.3 1.8 2.0 2.2 2.0 1.5 2.0 4.3 4.0 2.5 1.2 2.1 2.0 1.2 0.9 0.6 1.3 1.0 1.2 1.0 0.6 1.0 1.8 2.2 2.2 2.8
8.4 2.5 0.0 0.4 0.2 0.0 0.3 0.4 0.7 0.6 0.5 0.0 0.5 0.9 1.5 0.1 0.0 0.0 0.0 0.0 0.0 0.0 0.8 1.3 1.8 2.4 2.2 1.9 1.9 2.6 2.8 3.1 3.4 3.2 4.5 5.2 5.4 5.0 3.9 3.1 2.5 2.7 3.1 2.1 1.8 2.4 2.1 1.7 1.4 2.4 2.5 2.1 1.3 1.6
2.4 1.4 1.3 1.3 0.8 0.5 0.4 0.3 0.3 0.1 0.0 0.0 0.1 0.1 0.0 0.0 0.0 0.0 0.0 0.0 0.0 0.8 1.0 1.5 1.9 2.0 2.8 2.9 2.8 3.5 3.5 3.6 3.1 2.5 2.0 2.4 4.3 6.0 5.6 4.8 5.5 5.6 3.7 3.8 2.6 3.0 3.1 4.0 3.6 3.6 3.8 3.7 3.4 3.4
0.4 0.0 0.0 0.1 0.7 1.6 0.3 0.1 0.0 0.0 0.0 0.0 0.0 0.0 0.0 0.0 0.0 0.0 0.1 0.0 0.0 1.4 1.8 2.4 2.3 2.4 3.5 3.4 3.5 3.3 4.1 4.1 3.8 2.2 2.1 2.2 2.9 4.1 5.8 5.8 5.9 6.4 6.0 5.6 6.4 6.8 5.1 6.1 6.3 6.4 5.7 5.5 5.4 4.8
0.1 0.0 0.1 0.1 0.1 0.3 0.2 0.3 0.2 0.2 0.0 0.1 0.1 0.1 0.1 0.1 0.0 0.0 0.3 0.6 1.4 2.0 2.7 3.4 3.8 4.5 4.6 5.0 4.9 4.4 4.5 5.2 5.3 5.5 4.4 4.8 4.8 4.8 5.5 6.3 5.9 6.5 6.4 5.9 5.2 4.9 5.0 4.7 4.2 4.4 4.3 4.3 3.9 3.6
0.3 0.1 0.0 0.1 0.1 0.1 0.5 0.4 0.2 0.1 0.1 0.1 0.2 0.1 0.1 0.1 0.1 0.0 0.5 0.8 1.8 2.3 2.7 3.4 3.9 5.0 5.6 5.4 5.4 5.3 4.2 4.8 4.8 6.0 5.1 4.5 4.5 3.9 5.1 5.6 6.2 5.7 6.2 6.4 5.8 6.3 6.2 6.2 6.3 5.8 5.7 5.7 5.3 4.8
2.0 1.1 0.7 0.5 1.0 1.1 0.4 0.1 0.3 0.3 0.3 0.1 0.1 0.0 0.0 0.1 0.0 0.4 0.6 1.0 2.0 2.5 2.7 4.1 4.7 4.7 4.5 4.4 4.9 5.2 5.2 5.1 6.0 5.7 5.7 5.9 5.7 6.3 5.5 5.5 5.7 6.4 6.5 6.7 7.0 7.6 7.9 7.3 7.0 6.6 6.1 5.8 5.3 5.0

GFSWCAN_prec_kuchsnow_120.txt.gz
Snowfall_Accumulation
0.0 0.0 0.0 0.0 0.0 0.0 0.0 0.0 0.0 0.0 0.0 0.0 0.0 0.0 0.0 0.0 0.0 0.0 0.0 0.0 0.0 0.0 0.0 0.0 0.0 0.0 0.0 0.0 0.0 0.0 0.0 0.0 0.0 0.1 0.0 0.1 0.0 0.0 0.0 0.0 0.0 0.0 0.1 0.2 0.3 0.8 0.0 0.0 0.0 0.0 0.0 0.0 0.0 0.0
0.0 0.0 0.0 0.0 0.0 0.0 0.0 0.0 0.0 0.0 0.0 0.0 0.0 0.0 0.0 0.0 0.0 0.0 0.0 0.0 0.0 0.0 0.0 0.0 0.0 0.0 0.0 0.0 0.0 0.0 0.0 0.0 0.0 0.2 0.1 0.0 0.0 0.0 0.0 0.0 0.0 0.0 0.0 0.0 0.0 0.0 0.0 0.0 0.0 0.0 0.0 0.0 0.0 0.0
0.0 0.0 0.0 0.0 0.0 0.0 0.0 0.0 0.0 0.0 0.0 0.0 0.0 0.0 0.0 0.0 0.0 0.0 0.0 0.0 0.0 0.2 0.0 0.0 0.0 0.0 0.0 0.0 0.0 0.0 0.0 0.0 0.0 0.0 0.1 0.1 0.0 0.0 0.0 0.0 0.0 0.0 0.0 0.0 0.0 0.0 0.0 0.0 0.0 0.0 0.0 0.0 0.0 0.0
0.0 0.0 0.0 0.0 0.0 0.0 0.0 0.0 0.0 0.0 0.0 0.0 0.0 0.0 0.0 0.0 0.0 0.0 0.0 0.0 0.0 0.2 1.5 0.0 0.0 0.0 0.0 0.0 0.0 0.0 0.0 0.0 0.0 0.4 0.5 0.2 0.2 0.0 0.0 0.0 0.0 0.0 0.0 0.0 0.0 0.0 0.0 0.0 0.0 0.0 0.0 0.0 0.0 0.0
0.0 0.0 0.0 0.0 0.0 0.0 0.0 0.0 0.0 0.0 0.0 0.0 0.0 0.0 0.0 0.0 0.0 0.0 0.0 0.0 0.0 0.3 2.2 0.7 0.0 0.0 0.0 0.0 0.0 0.0 0.0 0.0 0.2 0.7 1.3 0.7 0.0 0.0 0.0 0.0 0.0 0.0 0.0 0.0 0.0 0.0 0.0 0.0 0.0 0.0 0.0 0.0 0.0 0.0
0.0 0.0 0.0 0.0 0.0 0.0 0.0 0.0 0.0 0.0 0.0 0.0 0.0 0.0 0.0 0.0 0.0 0.0 0.0 0.0 0.0 0.0 2.6 3.1 0.0 0.0 0.0 0.0 0.0 0.0 0.0 0.0 0.8 0.3 1.6 0.0 0.0 0.0 0.9 0.1 0.0 0.0 0.0 0.0 0.0 0.0 0.0 0.0 0.0 0.0 0.0 0.0 0.0 0.0
0.0 0.0 0.0 0.0 0.0 0.0 0.0 0.0 0.0 0.0 0.0 0.0 0.0 0.0 0.0 0.0 0.0 0.1 0.1 0.0 0.0 0.0 2.6 7.8 4.1 0.1 0.0 0.0 0.0 0.0 0.0 0.0 1.2 1.1 0.0 0.8 0.2 1.1 1.0 0.0 0.0 0.0 0.0 0.0 0.0 0.0 0.0 0.0 0.0 0.0 0.0 0.0 0.0 0.0
0.0 0.0 0.0 0.0 0.0 0.0 0.0 0.0 0.0 0.0 0.0 0.0 0.0 0.0 0.0 0.0 0.0 0.0 0.0 0.0 0.0 1.5 4.2 11.4 8.8 4.6 0.0 0.0 0.1 0.0 0.0 0.0 1.9 0.7 0.0 0.1 0.0 0.7 1.2 0.0 0.0 0.0 0.0 0.0 0.0 0.0 0.0 0.0 0.0 0.0 0.0 0.0 0.0 0.0
0.0 0.0 0.0 0.0 0.0 0.0 0.0 0.0 0.0 0.0 0.0 0.0 0.0 0.0 0.0 0.0 0.0 0.0 0.0 0.0 0.0 0.1 7.3 6.7 10.1 6.4 0.2 0.1 0.1 0.1 0.0 1.6 0.2 1.0 0.0 0.0 0.4 2.0 0.0 0.0 0.1 0.0 0.0 0.0 0.0 0.0 0.0 0.0 0.0 0.0 0.0 0.0 0.0 0.0
0.0 0.0 0.0 0.0 0.0 0.0 0.0 0.0 0.0 0.0 0.0 0.0 0.0 0.0 0.2 0.0 0.0 0.0 0.0 1.4 2.7 2.4 3.4 7.1 2.6 2.8 1.1 2.0 0.7 0.8 0.1 1.9 4.8 0.0 0.0 0.9 0.1 0.0 0.0 0.2 0.1 0.0 0.0 0.0 2.9 1.7 0.5 1.1 0.2 0.1 0.0 0.0 0.0 0.0
0.0 0.0 0.0 0.0 0.0 0.0 0.0 0.0 0.0 0.0 0.0 0.0 0.0 0.3 0.0 0.0 0.0 0.0 4.4 4.4 2.1 3.3 2.4 2.4 2.2 2.3 0.0 3.2 1.2 0.3 2.5 1.7 6.9 1.9 0.9 1.5 2.6 0.6 0.0 0.2 0.0 0.0 0.1 0.0 0.0 0.1 0.9 1.5 2.0 1.0 0.4 1.5 0.9 1.5
0.0 0.0 0.0 0.0 0.0 0.0 0.0 0.0 0.0 0.0 0.0 0.0 0.0 0.0 0.0 2.2 5.6 8.2 7.8 1.6 1.3 1.7 0.6 0.9 0.5 0.2 0.5 0.0 1.7 1.0 2.5 2.4 3.0 1.4 4.2 3.4 1.5 0.9 1.2 0.4 0.2 0.1 0.0 0.1 0.1 1.1 0.5 0.5 0.8 0.8 1.9 2.4 2.2 2.2
0.0 0.0 0.0 0.0 0.0 0.0 0.0 0.0 0.0 0.0 0.0 0.0 0.1 4.1 4.8 6.2 9.9 7.2 5.0 1.8 0.5 0.3 0.4 0.6 0.9 0.1 0.0 0.1 1.3 2.2 2.7 1.1 2.1 5.2 3.6 1.3 0.3 0.0 0.3 1.1 1.0 0.7 0.1 0.5 0.9 0.0 0.3 0.3 0.3 0.3 0.2 0.1 0.0 0.0
0.0 0.0 0.0 0.0 0.0 0.0 0.0 0.0 0.0 0.0 0.0 0.1 6.2 9.1 5.8 4.2 3.3 2.2 1.3 1.0 0.0 0.2 0.0 0.0 0.6 0.9 0.1 1.2 1.0 3.1 0.3 1.8 6.7 3.3 2.5 0.3 0.4 0.3 0.1 0.2 0.4 0.5 0.7 1.0 2.8 2.8 1.4 0.8 0.3 0.1 0.0 0.1 0.0 0.0
0.0 0.0 0.0 0.0 0.0 0.0 0.0 0.0 0.0 0.0 0.0 5.7 7.9 6.2 2.9 1.3 0.6 0.3 0.1 0.4 0.0 0.0 0.0 0.1 0.3 0.6 1.9 3.3 2.0 2.3 3.2 4.8 3.3 3.1 1.0 0.4 0.4 0.6 0.4 0.2 0.2 0.4 0.5 1.2 1.2 2.1 3.2 1.9 0.7 0.0 0.0 0.0 0.3 0.3
0.0 0.0 0.0 0.0 0.0 0.0 0.0 0.0 0.0 0.0 0.6 8.9 8.5 3.4 0.7 0.5 0.3 0.1 0.0 0.1 0.0 0.0 0.1 0.3 1.0 1.7 1.1 2.2 2.7 2.1 3.4 3.8 2.2 1.0 0.5 0.3 0.6 0.0 0.2 0.2 0.0 0.0 0.0 0.1 1.0 1.4 2.0 1.9 1.3 0.7 0.5 0.1 0.2 0.9
0.0 0.0 0.0 0.0 0.0 0.0 0.0 0.0 0.0 10.9 13.4 13.1 2.8 0.4 0.6 0.3 0.3 0.2 0.0 0.0 0.0 0.2 1.3 2.5 6.0 1.9 1.5 3.3 1.0 0.4 1.7 1.1 0.6 0.0 0.1 0.0 0.1 0.0 0.0 0.0 0.0 0.0 0.0 0.0 0.5 0.9 1.6 2.2 2.4 1.4 1.8 1.5 1.2 0.8
0.0 0.0 0.0 0.0 0.0 0.0 0.0 0.0 9.1 15.0 13.7 3.0 0.0 0.0 0.0 0.0 0.2 0.2 0.0 0.0 0.0 0.4 1.4 5.2 3.4 3.2 1.6 1.0 0.2 0.1 0.0 0.0 0.1 0.0 0.1 0.0 0.0 0.0 0.0 0.0 0.0 0.1 0.7 1.7 1.5 1.6 1.1 1.7 1.6 1.3 1.0 0.8 0.8 1.0
0.0 0.0 0.0 0.0 0.0 0.0 18.4 21.3 12.4 14.4 2.3 0.1 0.0 0.0 0.0 0.0 0.0 0.0 0.0 0.0 0.0 0.1 1.2 5.5 6.5 2.6 0.1 0.0 0.0 0.0 0.0 0.0 0.0 0.0 0.0 0.0 0.0 0.0 0.0 0.3 0.3 0.7 1.8 1.6 0.4 0.4 0.4 0.3 0.7 0.4 1.0 0.7 1.0 0.8
0.0 0.0 0.0 0.0 0.0 12.5 33.3 26.7 13.4 7.2 2.2 0.0 0.0 0.0 0.0 0.0 0.0 0.0 0.0 0.3 0.5 2.8 5.8 6.3 0.3 0.2 0.1 0.3 0.3 0.1 0.0 0.0 0.0 0.0 0.0 0.0 0.0 0.0 0.0 0.0 0.1 0.3 0.7 0.6 0.5 0.7 0.5 0.7 0.5 0.2 0.6 0.5 1.0 1.1
0.0 0.0 0.0 0.0 1.9 13.7 24.6 19.7 11.8 2.6 0.2 0.2 0.0 0.0 0.0 0.0 0.0 0.1 0.1 1.2 4.4 8.0 4.3 1.2 0.2 0.1 0.0 0.5 0.2 0.0 0.0 0.0 0.0 0.0 0.0 0.0 0.0 0.0 0.0 0.0 0.0 0.0 0.0 0.3 0.2 0.1 0.5 0.3 0.7 0.5 0.3 0.8 0.7 1.0
0.4 0.0 6.5 4.0 31.9 34.8 26.9 12.5 6.2 2.1 1.4 0.8 0.0 0.0 0.2 0.4 0.1 0.1 0.2 5.5 8.2 2.5 1.5 1.1 1.0 0.6 0.2 0.0 0.8 0.9 0.4 0.0 0.0 0.0 0.0 0.0 0.0 0.0 0.0 0.0 0.0 0.0 0.0 0.0 0.0 0.1 0.0 0.1 0.1 0.5 0.5 1.1 0.9 0.5
0.3 1.3 24.4 29.0 39.7 35.2 22.6 5.9 6.4 4.5 2.4 1.3 1.0 1.0 1.7 0.6 0.2 0.3 4.0 2.7 1.6 1.2 1.0 0.8 1.0 2.2 2.3 1.8 1.5 1.1 0.6 0.1 0.0 0.2 0.1 0.0 0.0 0.0 0.0 0.0 0.0 0.0 0.1 0.0 0.0 0.0 0.0 0.0 0.1 0.1 0.0 0.0 1.2 1.8
0.0 30.3 41.1 43.3 30.4 26.3 14.6 12.0 6.8 3.8 4.3 3.5 2.7 1.8 0.8 0.0 1.9 3.2 3.1 0.6 0.4 0.4 1.3 1.6 1.3 1.1 0.6 1.5 1.8 2.2 2.3 1.4 0.4 0.0 0.7 0.3 0.1 0.0 0.0 0.0 0.0 0.0 0.0 0.0 0.0 0.0 0.0 0.0 0.1 0.1 0.0 0.0 0.8 1.6
52.4 61.0 39.7 40.3 20.6 11.8 7.2 4.7 3.9 3.9 3.1 1.8 1.1 0.4 0.6 0.6 2.0 2.1 0.1 0.0 0.1 0.2 0.6 1.4 1.5 1.4 1.4 1.0 1.4 1.3 1.2 1.5 2.6 2.7 0.4 1.5 1.5 1.0 0.3 0.0 0.3 0.0 0.0 0.2 0.1 0.1 0.0 0.0 0.0 0.0 0.0 1.2 2.0 2.6
60.3 32.2 21.7 8.1 3.9 0.9 0.4 0.1 0.3 0.1 0.1 0.7 1.3 0.9 0.3 2.5 5.3 2.3 0.0 0.0 0.1 0.3 0.4 0.6 1.2 1.2 0.9 0.8 1.0 1.8 2.1 1.5 1.3 2.7 1.4 2.0 1.6 2.3 2.1 0.2 1.5 0.7 0.2 0.1 0.9 0.8 0.3 0.1 0.1 0.0 0.8 1.2 1.8 2.7
40.3 21.5 6.8 0.4 0.4 0.8 0.7 0.1 0.1 0.1 0.5 1.0 0.5 0.4 0.7 5.2 0.4 0.0 0.0 0.0 0.0 0.4 0.7 1.1 2.2 1.9 1.3 1.4 1.3 1.8 2.0 2.2 2.0 1.5 2.0 4.3 4.0 2.5 1.2 2.1 2.0 1.2 0.9 0.6 1.3 1.0 1.2 1.0 0.6 1.0 1.8 2.2 2.2 3.2
8.4 2.5 0.0 0.4 0.2 0.0 0.5 0.7 0.9 0.8 0.7 0.2 0.6 1.0 1.7 0.2 0.0 0.0 0.0 0.0 0.0 0.0 0.8 1.3 1.8 2.4 2.2 1.9 1.9 2.6 2.8 3.1 3.4 3.2 4.5 5.2 5.4 5.0 3.9 3.1 2.5 2.7 3.1 2.1 1.8 2.4 2.1 1.7 1.4 2.4 2.5 2.1 1.3 1.6
2.4 1.4 1.3 1.3 0.8 0.5 0.6 0.4 0.3 0.1 0.0 0.0 0.1 0.1 0.0 0.0 0.0 0.0 0.0 0.0 0.0 0.8 1.0 1.5 1.9 2.0 2.8 2.9 2.8 3.5 3.5 3.6 3.1 2.5 2.0 2.4 4.3 6.0 5.6 4.8 5.5 5.6 3.7 3.8 2.6 3.0 3.1 4.0 3.6 3.6 3.8 3.7 3.4 3.4
0.4 0.0 0.0 0.1 0.7 1.6 0.3 0.1 0.0 0.0 0.0 0.0 0.0 0.0 0.0 0.0 0.0 0.0 0.1 0.0 0.0 1.4 1.8 2.4 2.3 2.4 3.5 3.4 3.5 3.3 4.1 4.1 3.8 2.2 2.1 2.2 2.9 4.1 5.8 5.8 5.9 6.4 6.0 5.6 6.4 6.8 5.1 6.1 6.3 6.4 5.7 5.5 5.4 4.8
0.1 0.0 0.1 0.1 0.1 0.3 0.2 0.3 0.2 0.2 0.0 0.1 0.1 0.1 0.1 0.1 0.0 0.0 0.3 0.6 1.4 2.0 2.7 3.4 3.8 4.5 4.6 5.0 4.9 4.4 4.5 5.2 5.3 5.5 4.4 4.8 4.8 4.8 5.5 6.3 5.9 6.5 6.4 5.9 5.2 4.9 5.0 4.7 4.2 4.4 4.3 4.3 3.9 3.6
0.3 0.1 0.0 0.1 0.1 0.1 0.5 0.4 0.2 0.1 0.1 0.1 0.2 0.1 0.1 0.1 0.1 0.0 0.5 0.8 1.8 2.3 2.7 3.4 3.9 5.0 5.6 5.4 5.4 5.3 4.2 4.8 4.8 6.0 5.1 4.5 4.5 3.9 5.1 5.6 6.2 5.7 6.2 6.4 5.8 6.3 6.2 6.2 6.3 5.8 5.7 5.7 5.3 4.8
2.0 1.1 0.7 0.5 1.0 1.1 0.4 0.1 0.3 0.3 0.3 0.1 0.1 0.0 0.0 0.1 0.0 0.4 0.6 1.0 2.0 2.5 2.7 4.1 4.7 4.7 4.5 4.4 4.9 5.2 5.2 5.1 6.0 5.7 5.7 5.9 5.7 6.3 5.5 5.5 5.7 6.4 6.5 6.7 7.0 7.6 7.9 7.3 7.0 6.6 6.2 5.9 5.4 5.0

GFSWCAN_prec_kuchsnow_123.txt.gz
Snowfall_Accumulation
0.0 0.0 0.0 0.0 0.0 0.0 0.0 0.0 0.0 0.0 0.0 0.0 0.0 0.0 0.0 0.0 0.0 0.0 0.0 0.0 0.0 0.0 0.0 0.0 0.0 0.0 0.0 0.0 0.0 0.0 0.0 0.0 0.0 0.1 0.0 0.1 0.0 0.0 0.0 0.0 0.0 0.0 0.1 0.2 0.3 0.8 0.0 0.0 0.0 0.0 0.0 0.0 0.0 0.0
0.0 0.0 0.0 0.0 0.0 0.0 0.0 0.0 0.0 0.0 0.0 0.0 0.0 0.0 0.0 0.0 0.0 0.0 0.0 0.0 0.0 0.0 0.0 0.0 0.0 0.0 0.0 0.0 0.0 0.0 0.0 0.0 0.0 0.2 0.1 0.0 0.0 0.0 0.0 0.0 0.0 0.0 0.0 0.0 0.0 0.0 0.0 0.0 0.0 0.0 0.0 0.0 0.0 0.0
0.0 0.0 0.0 0.0 0.0 0.0 0.0 0.0 0.0 0.0 0.0 0.0 0.0 0.0 0.0 0.0 0.0 0.0 0.0 0.0 0.0 0.2 0.0 0.0 0.0 0.0 0.0 0.0 0.0 0.0 0.0 0.0 0.0 0.0 0.1 0.1 0.0 0.0 0.0 0.0 0.0 0.0 0.0 0.0 0.0 0.0 0.0 0.0 0.0 0.0 0.0 0.0 0.0 0.0
0.0 0.0 0.0 0.0 0.0 0.0 0.0 0.0 0.0 0.0 0.0 0.0 0.0 0.0 0.0 0.0 0.0 0.0 0.0 0.0 0.0 0.2 1.5 0.0 0.0 0.0 0.0 0.0 0.0 0.0 0.0 0.0 0.0 0.4 0.5 0.2 0.2 0.0 0.0 0.0 0.0 0.0 0.0 0.0 0.0 0.0 0.0 0.0 0.0 0.0 0.0 0.0 0.0 0.0
0.0 0.0 0.0 0.0 0.0 0.0 0.0 0.0 0.0 0.0 0.0 0.0 0.0 0.0 0.0 0.0 0.0 0.0 0.0 0.0 0.0 0.3 2.2 0.7 0.0 0.0 0.0 0.0 0.0 0.0 0.0 0.0 0.2 0.7 1.3 0.7 0.0 0.0 0.0 0.0 0.0 0.0 0.0 0.0 0.0 0.0 0.0 0.0 0.0 0.0 0.0 0.0 0.0 0.0
0.0 0.0 0.0 0.0 0.0 0.0 0.0 0.0 0.0 0.0 0.0 0.0 0.0 0.0 0.0 0.0 0.0 0.0 0.0 0.0 0.0 0.0 2.6 3.1 0.0 0.0 0.0 0.0 0.0 0.0 0.0 0.0 0.8 0.3 1.6 0.0 0.0 0.0 0.9 0.1 0.0 0.0 0.0 0.0 0.0 0.0 0.0 0.0 0.0 0.0 0.0 0.0 0.0 0.0
0.0 0.0 0.0 0.0 0.0 0.0 0.0 0.0 0.0 0.0 0.0 0.0 0.0 0.0 0.0 0.0 0.0 0.1 0.1 0.0 0.0 0.0 2.6 7.8 4.1 0.1 0.0 0.0 0.0 0.0 0.0 0.0 1.2 1.1 0.0 0.8 0.2 1.1 1.0 0.0 0.0 0.0 0.0 0.0 0.0 0.0 0.0 0.0 0.0 0.0 0.0 0.0 0.0 0.0
0.0 0.0 0.0 0.0 0.0 0.0 0.0 0.0 0.0 0.0 0.0 0.0 0.0 0.0 0.0 0.0 0.0 0.0 0.0 0.0 0.0 1.5 4.2 11.5 8.8 4.6 0.0 0.0 0.1 0.0 0.0 0.0 1.9 0.7 0.0 0.1 0.0 0.7 1.2 0.0 0.0 0.0 0.0 0.0 0.0 0.0 0.0 0.0 0.0 0.0 0.0 0.0 0.0 0.0
0.0 0.0 0.0 0.0 0.0 0.0 0.0 0.0 0.0 0.0 0.0 0.0 0.0 0.0 0.0 0.0 0.0 0.0 0.0 0.0 0.0 0.1 7.3 6.7 10.1 6.4 0.2 0.1 0.1 0.1 0.0 1.6 0.2 1.1 0.0 0.0 0.4 2.0 0.0 0.0 0.1 0.0 0.0 0.0 0.0 0.0 0.0 0.0 0.0 0.0 0.0 0.0 0.0 0.0
0.0 0.0 0.0 0.0 0.0 0.0 0.0 0.0 0.0 0.0 0.0 0.0 0.0 0.0 0.2 0.0 0.0 0.0 0.0 1.4 2.7 2.4 3.5 7.1 2.6 2.8 1.1 2.0 0.7 0.8 0.1 1.9 4.8 0.0 0.0 1.0 0.1 0.0 0.0 0.2 0.1 0.0 0.0 0.0 2.9 1.7 0.5 1.1 0.2 0.1 0.0 0.0 0.0 0.0
0.0 0.0 0.0 0.0 0.0 0.0 0.0 0.0 0.0 0.0 0.0 0.0 0.0 0.3 0.0 0.0 0.0 0.0 4.4 4.4 2.1 3.3 2.4 2.4 2.2 2.3 0.0 3.2 1.2 0.3 2.5 1.7 6.9 1.9 0.9 1.5 2.6 0.6 0.0 0.2 0.0 0.0 0.1 0.0 0.0 0.1 0.9 1.5 2.0 1.0 0.4 1.5 0.9 1.5
0.0 0.0 0.0 0.0 0.0 0.0 0.0 0.0 0.0 0.0 0.0 0.0 0.0 0.0 0.0 2.2 5.6 8.2 7.8 1.7 1.3 1.7 0.6 0.9 0.5 0.2 0.5 0.0 1.7 1.0 2.5 2.5 3.0 1.4 4.3 3.4 1.5 0.9 1.2 0.4 0.2 0.1 0.0 0.1 0.1 1.1 0.5 0.5 0.8 0.8 1.9 2.4 2.2 2.2
0.0 0.0 0.0 0.0 0.0 0.0 0.0 0.0 0.0 0.0 0.0 0.0 0.1 4.1 4.8 6.2 9.9 7.3 5.0 1.8 0.5 0.3 0.4 0.6 0.9 0.1 0.0 0.1 1.3 2.2 2.8 1.2 2.1 5.4 3.6 1.3 0.3 0.0 0.3 1.1 1.0 0.7 0.1 0.5 0.9 0.0 0.3 0.3 0.3 0.3 0.2 0.1 0.0 0.0
0.0 0.0 0.0 0.0 0.0 0.0 0.0 0.0 0.0 0.0 0.0 0.1 6.2 9.1 5.8 4.2 3.3 2.2 1.3 1.0 0.0 0.2 0.0 0.0 0.6 0.9 0.1 1.2 1.0 3.1 0.3 1.9 6.9 3.4 2.5 0.3 0.4 0.3 0.1 0.2 0.4 0.5 0.7 1.0 2.8 2.8 1.4 0.8 0.3 0.1 0.0 0.1 0.0 0.0
0.0 0.0 0.0 0.0 0.0 0.0 0.0 0.0 0.0 0.0 0.0 5.7 7.9 6.2 2.9 1.3 0.6 0.3 0.1 0.4 0.0 0.0 0.0 0.1 0.3 0.6 1.9 3.3 2.0 2.3 3.3 4.8 3.4 3.1 1.0 0.4 0.4 0.6 0.4 0.2 0.2 0.4 0.5 1.2 1.2 2.1 3.2 1.9 0.7 0.0 0.0 0.0 0.3 0.3
0.0 0.0 0.0 0.0 0.0 0.0 0.0 0.0 0.0 0.0 0.6 8.9 8.5 3.4 0.7 0.5 0.3 0.1 0.0 0.1 0.0 0.0 0.1 0.3 1.0 1.7 1.1 2.2 2.8 2.1 3.5 3.8 2.2 1.0 0.5 0.3 0.6 0.0 0.2 0.2 0.0 0.0 0.0 0.1 1.0 1.4 2.0 1.9 1.3 0.7 0.5 0.1 0.2 0.9
0.0 0.0 0.0 0.0 0.0 0.0 0.0 0.0 0.0 11.1 13.6 13.3 2.8 0.4 0.6 0.3 0.3 0.2 0.0 0.0 0.0 0.2 1.3 2.5 6.0 1.9 1.5 3.3 1.0 0.4 1.7 1.1 0.6 0.0 0.1 0.0 0.1 0.0 0.0 0.0 0.0 0.0 0.0 0.0 0.5 0.9 1.6 2.2 2.4 1.4 1.8 1.5 1.2 0.8
0.0 0.0 0.0 0.0 0.0 0.0 0.0 0.0 10.4 15.8 14.2 3.0 0.0 0.0 0.0 0.0 0.2 0.2 0.0 0.0 0.0 0.4 1.4 5.2 3.4 3.2 1.6 1.0 0.2 0.1 0.0 0.0 0.1 0.0 0.1 0.0 0.0 0.0 0.0 0.0 0.0 0.1 0.7 1.7 1.5 1.6 1.1 1.7 1.6 1.3 1.0 0.8 0.8 1.0
0.0 0.0 0.0 0.0 0.0 0.0 18.4 23.1 14.3 16.5 2.6 0.1 0.0 0.0 0.0 0.0 0.0 0.0 0.0 0.0 0.0 0.1 1.2 5.5 6.5 2.6 0.1 0.0 0.0 0.0 0.0 0.0 0.0 0.0 0.0 0.0 0.0 0.0 0.0 0.3 0.3 0.7 1.8 1.6 0.4 0.4 0.4 0.3 0.7 0.4 1.0 0.7 1.0 0.8
0.0 0.0 0.0 0.0 0.0 12.5 34.4 27.5 13.4 8.4 3.3 0.1 0.0 0.0 0.0 0.0 0.0 0.0 0.0 0.3 0.5 2.8 5.8 6.4 0.3 0.2 0.1 0.3 0.3 0.1 0.0 0.0 0.0 0.0 0.0 0.0 0.0 0.0 0.0 0.0 0.1 0.3 0.7 0.6 0.5 0.7 0.5 0.7 0.5 0.2 0.6 0.5 1.0 1.1
0.0 0.0 0.0 0.0 1.9 14.0 25.4 19.7 12.7 3.3 0.5 0.2 0.0 0.0 0.0 0.0 0.0 0.1 0.1 1.2 4.4 8.0 4.3 1.2 0.2 0.1 0.0 0.5 0.2 0.0 0.0 0.0 0.0 0.0 0.0 0.0 0.0 0.0 0.0 0.0 0.0 0.0 0.0 0.3 0.2 0.1 0.5 0.3 0.7 0.5 0.3 0.8 0.7 1.0
0.4 0.0 6.5 4.0 32.3 35.2 27.9 12.9 6.9 2.4 1.4 0.8 0.0 0.0 0.2 0.4 0.1 0.1 0.2 5.5 8.2 2.5 1.5 1.1 1.0 0.6 0.2 0.0 0.8 0.9 0.4 0.0 0.0 0.0 0.0 0.0 0.0 0.0 0.0 0.0 0.0 0.0 0.0 0.0 0.0 0.1 0.0 0.1 0.1 0.5 0.5 1.1 0.9 0.5
0.3 1.3 24.7 29.0 40.2 36.0 22.6 5.9 6.4 4.5 2.4 1.3 1.0 1.0 1.7 0.6 0.2 0.3 4.0 2.7 1.6 1.2 1.0 0.8 1.0 2.2 2.3 1.8 1.5 1.1 0.6 0.1 0.0 0.2 0.1 0.0 0.0 0.0 0.0 0.0 0.0 0.0 0.2 0.1 0.0 0.0 0.0 0.0 0.1 0.1 0.0 0.0 1.2 1.8
0.0 31.7 42.9 45.3 31.4 26.7 14.6 12.0 6.8 3.8 4.3 3.5 2.7 1.8 0.8 0.0 1.9 3.2 3.1 0.6 0.4 0.4 1.3 1.6 1.3 1.1 0.6 1.5 1.8 2.2 2.3 1.4 0.4 0.0 0.7 0.3 0.1 0.0 0.0 0.0 0.0 0.0 0.0 0.2 0.0 0.0 0.0 0.0 0.1 0.1 0.0 0.0 0.8 1.6
55.9 65.4 42.5 42.5 21.4 12.4 7.6 4.7 3.9 3.9 3.1 1.8 1.1 0.4 0.6 0.6 2.0 2.1 0.1 0.0 0.1 0.2 0.6 1.4 1.5 1.4 1.4 1.0 1.4 1.3 1.2 1.5 2.6 2.7 0.4 1.5 1.5 1.0 0.3 0.0 0.3 0.0 0.0 0.2 0.1 0.1 0.0 0.0 0.0 0.0 0.0 1.2 2.0 2.6
63.4 32.9 22.4 8.4 4.1 1.0 0.4 0.1 0.3 0.1 0.1 0.7 1.3 0.9 0.3 2.5 5.3 2.9 0.0 0.0 0.1 0.3 0.4 0.6 1.2 1.2 0.9 0.8 1.0 1.8 2.1 1.5 1.3 2.7 1.4 2.0 1.6 2.3 2.1 0.2 1.5 0.7 0.2 0.1 0.9 0.8 0.3 0.1 0.1 0.0 0.8 1.2 1.8 2.7
42.4 23.3 7.5 0.4 0.4 0.8 0.9 0.3 0.1 0.1 0.7 1.2 0.5 0.4 0.7 6.5 1.1 0.0 0.0 0.0 0.0 0.4 0.7 1.1 2.2 1.9 1.3 1.4 1.3 1.8 2.0 2.2 2.0 1.5 2.0 4.3 4.0 2.5 1.2 2.1 2.0 1.2 0.9 0.6 1.3 1.0 1.2 1.0 0.6 1.0 1.8 2.2 2.2 3.2
8.4 2.5 0.0 0.4 0.2 0.0 0.5 0.7 0.9 1.4 1.3 0.2 0.8 1.1 2.2 0.8 0.0 0.0 0.0 0.0 0.0 0.0 0.8 1.3 1.8 2.4 2.2 1.9 1.9 2.6 2.8 3.1 3.4 3.2 4.5 5.2 5.4 5.0 3.9 3.1 2.5 2.7 3.1 2.1 1.8 2.4 2.1 1.7 1.4 2.4 2.5 2.1 1.3 1.6
2.4 1.4 1.3 1.3 0.8 0.5 0.7 0.4 0.3 0.1 0.0 0.0 0.1 0.1 0.0 0.0 0.0 0.0 0.0 0.0 0.0 0.8 1.0 1.5 1.9 2.0 2.8 2.9 2.8 3.5 3.5 3.6 3.1 2.5 2.0 2.4 4.3 6.0 5.6 4.8 5.5 5.6 3.7 3.8 2.6 3.0 3.1 4.0 3.6 3.6 3.8 3.7 3.4 3.4
0.4 0.0 0.0 0.1 0.7 1.6 0.3 0.1 0.0 0.0 0.0 0.0 0.0 0.0 0.0 0.0 0.0 0.0 0.1 0.0 0.0 1.4 1.8 2.4 2.3 2.4 3.5 3.4 3.5 3.3 4.1 4.1 3.8 2.2 2.1 2.2 2.9 4.1 5.8 5.8 5.9 6.4 6.0 5.6 6.4 6.8 5.1 6.1 6.3 6.4 5.7 5.5 5.4 4.8
0.1 0.0 0.1 0.1 0.1 0.3 0.2 0.3 0.2 0.2 0.0 0.1 0.1 0.1 0.1 0.1 0.0 0.0 0.3 0.6 1.4 2.0 2.7 3.4 3.8 4.5 4.6 5.0 4.9 4.4 4.5 5.2 5.3 5.5 4.4 4.8 4.8 4.8 5.5 6.3 5.9 6.5 6.4 5.9 5.2 4.9 5.0 4.7 4.2 4.4 4.3 4.3 3.9 3.7
0.3 0.1 0.0 0.1 0.1 0.1 0.5 0.4 0.2 0.1 0.1 0.1 0.2 0.1 0.1 0.1 0.1 0.0 0.5 0.8 1.8 2.3 2.7 3.4 3.9 5.0 5.6 5.4 5.4 5.3 4.2 4.8 4.8 6.0 5.1 4.5 4.5 3.9 5.1 5.6 6.2 5.7 6.2 6.4 5.8 6.3 6.2 6.2 6.3 5.8 5.7 5.7 5.7 5.1
2.0 1.1 0.7 0.5 1.0 1.1 0.4 0.1 0.3 0.3 0.3 0.1 0.1 0.0 0.0 0.1 0.0 0.4 0.6 1.0 2.0 2.5 2.7 4.1 4.7 4.7 4.5 4.4 4.9 5.2 5.2 5.1 6.0 5.7 5.7 5.9 5.7 6.3 5.5 5.5 5.7 6.4 6.5 6.7 7.0 7.6 7.9 7.3 7.0 6.6 6.2 6.2 5.9 5.4

GFSWCAN_prec_kuchsnow_126.txt.gz
Snowfall_Accumulation
0.0 0.0 0.0 0.0 0.0 0.0 0.0 0.0 0.0 0.0 0.0 0.0 0.0 0.0 0.0 0.0 0.0 0.0 0.0 0.0 0.0 0.0 0.0 0.0 0.0 0.0 0.0 0.0 0.0 0.0 0.0 0.0 0.0 0.1 0.0 0.1 0.0 0.0 0.0 0.0 0.0 0.0 0.1 0.2 0.3 0.8 0.0 0.0 0.0 0.0 0.0 0.0 0.0 0.0
0.0 0.0 0.0 0.0 0.0 0.0 0.0 0.0 0.0 0.0 0.0 0.0 0.0 0.0 0.0 0.0 0.0 0.0 0.0 0.0 0.0 0.0 0.0 0.0 0.0 0.0 0.0 0.0 0.0 0.0 0.0 0.0 0.0 0.2 0.1 0.0 0.0 0.0 0.0 0.0 0.0 0.0 0.0 0.0 0.0 0.0 0.0 0.0 0.0 0.0 0.0 0.0 0.0 0.0
0.0 0.0 0.0 0.0 0.0 0.0 0.0 0.0 0.0 0.0 0.0 0.0 0.0 0.0 0.0 0.0 0.0 0.0 0.0 0.0 0.0 0.2 0.0 0.0 0.0 0.0 0.0 0.0 0.0 0.0 0.0 0.0 0.0 0.0 0.1 0.1 0.0 0.0 0.0 0.0 0.0 0.0 0.0 0.0 0.0 0.0 0.0 0.0 0.0 0.0 0.0 0.0 0.0 0.0
0.0 0.0 0.0 0.0 0.0 0.0 0.0 0.0 0.0 0.0 0.0 0.0 0.0 0.0 0.0 0.0 0.0 0.0 0.0 0.0 0.0 0.2 1.5 0.0 0.0 0.0 0.0 0.0 0.0 0.0 0.0 0.0 0.0 0.4 0.5 0.2 0.2 0.0 0.0 0.0 0.0 0.0 0.0 0.0 0.0 0.0 0.0 0.0 0.0 0.0 0.0 0.0 0.0 0.0
0.0 0.0 0.0 0.0 0.0 0.0 0.0 0.0 0.0 0.0 0.0 0.0 0.0 0.0 0.0 0.0 0.0 0.0 0.0 0.0 0.0 0.3 2.2 0.7 0.0 0.0 0.0 0.0 0.0 0.0 0.0 0.0 0.2 0.7 1.3 0.7 0.0 0.0 0.0 0.0 0.0 0.0 0.0 0.0 0.0 0.0 0.0 0.0 0.0 0.0 0.0 0.0 0.0 0.0
0.0 0.0 0.0 0.0 0.0 0.0 0.0 0.0 0.0 0.0 0.0 0.0 0.0 0.0 0.0 0.0 0.0 0.0 0.0 0.0 0.0 0.0 2.6 3.1 0.0 0.0 0.0 0.0 0.0 0.0 0.0 0.0 0.8 0.3 1.6 0.0 0.0 0.0 0.9 0.1 0.0 0.0 0.0 0.0 0.0 0.0 0.0 0.0 0.0 0.0 0.0 0.0 0.0 0.0
0.0 0.0 0.0 0.0 0.0 0.0 0.0 0.0 0.0 0.0 0.0 0.0 0.0 0.0 0.0 0.0 0.0 0.1 0.1 0.0 0.0 0.0 2.6 7.8 4.1 0.1 0.0 0.0 0.0 0.0 0.0 0.0 1.2 1.1 0.0 0.8 0.2 1.1 1.0 0.0 0.0 0.0 0.0 0.0 0.0 0.0 0.0 0.0 0.0 0.0 0.0 0.0 0.0 0.0
0.0 0.0 0.0 0.0 0.0 0.0 0.0 0.0 0.0 0.0 0.0 0.0 0.0 0.0 0.0 0.0 0.0 0.0 0.0 0.0 0.0 1.5 4.2 11.5 8.8 4.6 0.0 0.0 0.1 0.0 0.0 0.0 1.9 0.7 0.0 0.1 0.0 0.7 1.2 0.0 0.0 0.0 0.0 0.0 0.0 0.0 0.0 0.0 0.0 0.0 0.0 0.0 0.0 0.0
0.0 0.0 0.0 0.0 0.0 0.0 0.0 0.0 0.0 0.0 0.0 0.0 0.0 0.0 0.0 0.0 0.0 0.0 0.0 0.0 0.0 0.1 7.3 6.7 10.1 6.4 0.2 0.1 0.1 0.1 0.0 1.6 0.2 1.1 0.0 0.0 0.4 2.0 0.0 0.0 0.1 0.0 0.0 0.0 0.0 0.0 0.0 0.0 0.0 0.0 0.0 0.0 0.0 0.0
0.0 0.0 0.0 0.0 0.0 0.0 0.0 0.0 0.0 0.0 0.0 0.0 0.0 0.0 0.2 0.0 0.0 0.0 0.0 1.4 2.7 2.4 3.5 7.1 2.6 2.8 1.1 2.0 0.7 0.8 0.1 1.9 4.9 0.0 0.0 1.1 0.1 0.0 0.0 0.2 0.1 0.0 0.0 0.0 2.9 1.7 0.5 1.1 0.2 0.1 0.0 0.0 0.0 0.0
0.0 0.0 0.0 0.0 0.0 0.0 0.0 0.0 0.0 0.0 0.0 0.0 0.0 0.3 0.0 0.0 0.0 0.0 4.4 4.4 2.1 3.4 2.4 2.4 2.2 2.3 0.0 3.2 1.2 0.3 2.5 1.7 6.9 1.9 0.9 1.5 2.6 0.6 0.0 0.2 0.0 0.0 0.1 0.0 0.0 0.1 0.9 1.5 2.0 1.0 0.4 1.5 0.9 1.5
0.0 0.0 0.0 0.0 0.0 0.0 0.0 0.0 0.0 0.0 0.0 0.0 0.0 0.0 0.0 2.2 5.6 8.2 7.8 1.7 1.3 1.7 0.6 0.9 0.5 0.2 0.5 0.0 1.7 1.1 2.5 2.5 3.0 1.4 4.4 3.4 1.5 0.9 1.2 0.4 0.2 0.1 0.0 0.1 0.1 1.1 0.5 0.5 0.8 0.8 1.9 2.4 2.2 2.2
0.0 0.0 0.0 0.0 0.0 0.0 0.0 0.0 0.0 0.0 0.0 0.0 0.1 4.1 4.8 6.2 10.0 7.3 5.0 1.8 0.5 0.3 0.4 0.6 0.9 0.1 0.0 0.1 1.3 2.2 2.8 1.2 2.1 5.5 3.6 1.3 0.3 0.0 0.3 1.1 1.0 0.7 0.1 0.5 0.9 0.0 0.3 0.3 0.3 0.3 0.2 0.1 0.0 0.0
0.0 0.0 0.0 0.0 0.0 0.0 0.0 0.0 0.0 0.0 0.0 0.1 6.2 9.1 5.8 4.2 3.3 2.2 1.3 1.0 0.0 0.2 0.0 0.1 0.7 0.9 0.1 1.2 1.0 3.2 0.3 1.9 7.1 3.5 2.5 0.3 0.4 0.3 0.1 0.2 0.4 0.5 0.7 1.0 2.8 2.8 1.4 0.8 0.3 0.1 0.0 0.1 0.0 0.0
0.0 0.0 0.0 0.0 0.0 0.0 0.0 0.0 0.0 0.0 0.0 5.7 7.9 6.2 2.9 1.3 0.6 0.3 0.1 0.4 0.0 0.0 0.0 0.2 0.4 0.6 1.9 3.3 2.0 2.3 3.4 4.8 3.4 3.1 1.0 0.4 0.4 0.6 0.4 0.2 0.2 0.4 0.5 1.2 1.2 2.1 3.2 1.9 0.7 0.0 0.0 0.0 0.3 0.3
0.0 0.0 0.0 0.0 0.0 0.0 0.0 0.0 0.0 0.0 0.6 8.9 8.5 3.4 0.7 0.5 0.3 0.1 0.0 0.1 0.0 0.0 0.1 0.3 1.0 1.7 1.1 2.2 2.9 2.1 3.5 3.8 2.2 1.0 0.5 0.3 0.6 0.0 0.2 0.2 0.0 0.0 0.0 0.1 1.0 1.4 2.0 1.9 1.3 0.7 0.5 0.1 0.2 0.9
0.0 0.0 0.0 0.0 0.0 0.0 0.0 0.0 0.0 11.3 13.8 13.3 2.8 0.4 0.6 0.3 0.3 0.2 0.0 0.0 0.0 0.2 1.3 2.5 6.0 1.9 1.5 3.3 1.0 0.4 1.7 1.1 0.6 0.0 0.1 0.0 0.1 0.0 0.0 0.0 0.0 0.0 0.0 0.0 0.5 0.9 1.6 2.2 2.4 1.4 1.8 1.5 1.2 0.8
0.0 0.0 0.0 0.0 0.0 0.0 0.0 0.0 11.2 16.5 14.6 3.0 0.0 0.0 0.0 0.0 0.2 0.2 0.0 0.0 0.0 0.4 1.4 5.2 3.4 3.2 1.6 1.0 0.2 0.1 0.0 0.0 0.1 0.0 0.1 0.0 0.0 0.0 0.0 0.0 0.0 0.1 0.7 1.7 1.5 1.6 1.1 1.7 1.6 1.3 1.0 0.8 0.8 1.0
0.0 0.0 0.0 0.0 0.0 0.0 18.4 23.8 15.5 18.0 2.6 0.1 0.0 0.0 0.0 0.0 0.0 0.0 0.0 0.0 0.0 0.1 1.2 5.5 6.5 2.6 0.1 0.0 0.0 0.0 0.0 0.0 0.0 0.0 0.0 0.0 0.0 0.0 0.0 0.3 0.3 0.7 1.8 1.6 0.4 0.4 0.4 0.3 0.7 0.4 1.0 0.7 1.0 0.8
0.0 0.0 0.0 0.0 0.0 12.5 34.7 27.9 13.4 8.4 3.3 0.1 0.0 0.0 0.0 0.0 0.0 0.0 0.0 0.3 0.5 2.8 5.9 6.5 0.3 0.2 0.1 0.3 0.3 0.1 0.0 0.0 0.0 0.0 0.0 0.0 0.0 0.0 0.0 0.0 0.1 0.3 0.7 0.6 0.5 0.7 0.5 0.7 0.5 0.2 0.6 0.5 1.0 1.1
0.0 0.0 0.0 0.0 1.9 14.0 25.4 19.7 13.1 3.6 0.5 0.2 0.0 0.0 0.0 0.0 0.0 0.1 0.1 1.2 4.4 8.1 4.3 1.2 0.2 0.1 0.0 0.5 0.2 0.0 0.0 0.0 0.0 0.0 0.0 0.0 0.0 0.0 0.0 0.0 0.0 0.0 0.0 0.3 0.2 0.1 0.5 0.3 0.7 0.5 0.3 0.8 0.7 1.1
0.4 0.0 6.5 4.0 32.9 36.4 29.4 13.4 6.9 2.5 1.4 0.8 0.0 0.0 0.2 0.4 0.1 0.1 0.2 5.5 8.2 2.5 1.5 1.1 1.0 0.6 0.2 0.0 0.8 0.9 0.4 0.0 0.0 0.0 0.0 0.0 0.0 0.0 0.0 0.0 0.0 0.0 0.0 0.0 0.0 0.1 0.0 0.1 0.1 0.6 0.7 1.1 0.9 0.5
0.3 1.3 24.9 29.2 40.8 36.7 22.6 5.9 6.4 4.5 2.4 1.3 1.0 1.0 1.7 0.6 0.2 0.3 4.0 2.7 1.6 1.2 1.0 0.8 1.0 2.2 2.3 1.8 1.5 1.1 0.6 0.1 0.0 0.2 0.1 0.0 0.0 0.0 0.0 0.0 0.0 0.0 0.2 0.1 0.0 0.0 0.0 0.0 0.1 0.1 0.0 0.0 1.2 1.8
0.0 32.1 43.6 46.0 31.8 26.7 14.6 12.0 6.8 3.8 4.3 3.5 2.7 1.8 0.8 0.0 1.9 3.2 3.1 0.6 0.4 0.4 1.3 1.6 1.3 1.1 0.6 1.5 1.8 2.2 2.3 1.4 0.4 0.0 0.7 0.3 0.1 0.0 0.0 0.0 0.0 0.0 0.0 0.2 0.0 0.0 0.0 0.0 0.1 0.1 0.0 0.0 0.8 1.6
57.5 67.2 42.5 42.5 21.9 12.6 7.6 4.7 4.0 3.9 3.1 1.8 1.1 0.4 0.6 0.6 2.0 2.1 0.1 0.0 0.1 0.2 0.6 1.4 1.5 1.4 1.4 1.0 1.4 1.3 1.2 1.5 2.6 2.7 0.4 1.5 1.5 1.0 0.3 0.0 0.3 0.0 0.0 0.2 0.1 0.1 0.0 0.0 0.0 0.0 0.0 1.2 2.0 2.6
65.2 32.9 23.4 8.4 4.1 1.5 0.4 0.1 0.3 0.1 0.1 0.7 1.3 0.9 0.3 2.5 5.3 3.2 0.0 0.0 0.1 0.3 0.4 0.6 1.2 1.2 0.9 0.8 1.0 1.8 2.1 1.5 1.3 2.7 1.4 2.0 1.6 2.3 2.1 0.2 1.5 0.7 0.2 0.1 0.9 0.8 0.3 0.1 0.1 0.0 0.8 1.2 1.8 2.7
44.5 23.3 7.5 0.4 0.4 0.8 0.9 0.3 0.1 0.1 0.7 1.2 0.5 0.4 0.7 7.5 1.1 0.0 0.0 0.0 0.0 0.4 0.7 1.1 2.2 1.9 1.3 1.4 1.3 1.8 2.0 2.2 2.0 1.5 2.0 4.3 4.0 2.5 1.2 2.1 2.0 1.2 0.9 0.6 1.3 1.0 1.2 1.0 0.6 1.0 1.8 2.2 2.2 3.2
8.4 2.5 0.0 0.4 0.2 0.0 0.5 0.7 0.9 1.4 1.3 0.2 0.8 1.1 2.2 0.8 0.0 0.0 0.0 0.0 0.0 0.0 0.8 1.3 1.8 2.4 2.2 1.9 1.9 2.6 2.8 3.1 3.4 3.2 4.5 5.2 5.4 5.0 3.9 3.1 2.5 2.7 3.1 2.1 1.8 2.4 2.1 1.7 1.4 2.4 2.5 2.1 1.3 1.6
2.4 1.4 1.3 1.3 0.8 0.5 0.7 0.4 0.3 0.1 0.0 0.0 0.1 0.1 0.0 0.0 0.0 0.0 0.0 0.0 0.0 0.8 1.0 1.5 1.9 2.0 2.8 2.9 2.8 3.5 3.5 3.6 3.1 2.5 2.0 2.4 4.3 6.0 5.6 4.8 5.5 5.6 3.7 3.8 2.6 3.0 3.1 4.0 3.6 3.6 3.8 3.7 3.4 3.4
0.4 0.0 0.0 0.1 0.7 1.6 0.3 0.1 0.0 0.0 0.0 0.0 0.0 0.0 0.0 0.0 0.0 0.0 0.1 0.0 0.0 1.4 1.8 2.4 2.3 2.4 3.5 3.4 3.5 3.3 4.1 4.1 3.8 2.2 2.1 2.2 2.9 4.1 5.8 5.8 5.9 6.4 6.0 5.6 6.4 6.8 5.1 6.1 6.3 6.4 5.7 5.5 5.4 4.8
0.1 0.0 0.1 0.1 0.1 0.3 0.2 0.3 0.2 0.2 0.0 0.1 0.1 0.1 0.1 0.1 0.0 0.0 0.3 0.6 1.4 2.0 2.7 3.4 3.8 4.5 4.6 5.0 4.9 4.4 4.5 5.2 5.3 5.5 4.4 4.8 4.8 4.8 5.5 6.3 5.9 6.5 6.4 5.9 5.2 4.9 5.0 4.7 4.2 4.4 4.3 4.3 3.9 3.7
0.3 0.1 0.0 0.1 0.1 0.1 0.5 0.4 0.2 0.1 0.1 0.1 0.2 0.1 0.1 0.1 0.1 0.0 0.5 0.8 1.8 2.3 2.7 3.4 3.9 5.0 5.6 5.4 5.4 5.3 4.2 4.8 4.8 6.0 5.1 4.5 4.5 3.9 5.1 5.6 6.2 5.7 6.2 6.4 5.8 6.3 6.2 6.2 6.3 5.8 5.7 5.7 5.7 5.1
2.0 1.1 0.7 0.5 1.0 1.1 0.4 0.1 0.3 0.3 0.3 0.1 0.1 0.0 0.0 0.1 0.0 0.4 0.6 1.0 2.0 2.5 2.7 4.1 4.7 4.7 4.5 4.4 4.9 5.2 5.2 5.1 6.0 5.7 5.7 5.9 5.7 6.3 5.5 5.5 5.7 6.4 6.5 6.7 7.0 7.6 7.9 7.3 7.0 6.6 6.2 6.2 5.9 5.7

GFSWCAN_prec_kuchsnow_129.txt.gz
Snowfall_Accumulation
0.0 0.0 0.0 0.0 0.0 0.0 0.0 0.0 0.0 0.0 0.0 0.0 0.0 0.0 0.0 0.0 0.0 0.0 0.0 0.0 0.0 0.0 0.0 0.0 0.0 0.0 0.0 0.0 0.0 0.0 0.0 0.0 0.0 0.1 0.0 0.1 0.0 0.0 0.0 0.0 0.0 0.0 0.1 0.2 0.3 0.8 0.0 0.0 0.0 0.0 0.0 0.0 0.0 0.0
0.0 0.0 0.0 0.0 0.0 0.0 0.0 0.0 0.0 0.0 0.0 0.0 0.0 0.0 0.0 0.0 0.0 0.0 0.0 0.0 0.0 0.0 0.0 0.0 0.0 0.0 0.0 0.0 0.0 0.0 0.0 0.0 0.0 0.2 0.1 0.0 0.0 0.0 0.0 0.0 0.0 0.0 0.0 0.0 0.0 0.0 0.0 0.0 0.0 0.0 0.0 0.0 0.0 0.0
0.0 0.0 0.0 0.0 0.0 0.0 0.0 0.0 0.0 0.0 0.0 0.0 0.0 0.0 0.0 0.0 0.0 0.0 0.0 0.0 0.0 0.2 0.0 0.0 0.0 0.0 0.0 0.0 0.0 0.0 0.0 0.0 0.0 0.0 0.1 0.1 0.0 0.0 0.0 0.0 0.0 0.0 0.0 0.0 0.0 0.0 0.0 0.0 0.0 0.0 0.0 0.0 0.0 0.0
0.0 0.0 0.0 0.0 0.0 0.0 0.0 0.0 0.0 0.0 0.0 0.0 0.0 0.0 0.0 0.0 0.0 0.0 0.0 0.0 0.0 0.2 1.5 0.0 0.0 0.0 0.0 0.0 0.0 0.0 0.0 0.0 0.0 0.4 0.5 0.2 0.2 0.0 0.0 0.0 0.0 0.0 0.0 0.0 0.0 0.0 0.0 0.0 0.0 0.0 0.0 0.0 0.0 0.0
0.0 0.0 0.0 0.0 0.0 0.0 0.0 0.0 0.0 0.0 0.0 0.0 0.0 0.0 0.0 0.0 0.0 0.0 0.0 0.0 0.0 0.3 2.2 0.7 0.0 0.0 0.0 0.0 0.0 0.0 0.0 0.0 0.2 0.7 1.3 0.7 0.0 0.0 0.0 0.0 0.0 0.0 0.0 0.0 0.0 0.0 0.0 0.0 0.0 0.0 0.0 0.0 0.0 0.0
0.0 0.0 0.0 0.0 0.0 0.0 0.0 0.0 0.0 0.0 0.0 0.0 0.0 0.0 0.0 0.0 0.0 0.0 0.0 0.0 0.0 0.0 2.6 3.1 0.0 0.0 0.0 0.0 0.0 0.0 0.0 0.0 0.8 0.3 1.6 0.0 0.0 0.0 0.9 0.1 0.0 0.0 0.0 0.0 0.0 0.0 0.0 0.0 0.0 0.0 0.0 0.0 0.0 0.0
0.0 0.0 0.0 0.0 0.0 0.0 0.0 0.0 0.0 0.0 0.0 0.0 0.0 0.0 0.0 0.0 0.0 0.1 0.1 0.0 0.0 0.0 2.6 7.8 4.1 0.1 0.0 0.0 0.0 0.0 0.0 0.0 1.2 1.1 0.0 0.8 0.2 1.1 1.0 0.0 0.0 0.0 0.0 0.0 0.0 0.0 0.0 0.0 0.0 0.0 0.0 0.0 0.0 0.0
0.0 0.0 0.0 0.0 0.0 0.0 0.0 0.0 0.0 0.0 0.0 0.0 0.0 0.0 0.0 0.0 0.0 0.0 0.0 0.0 0.0 1.5 4.2 11.5 8.8 4.6 0.0 0.0 0.1 0.0 0.0 0.0 1.9 0.7 0.0 0.1 0.0 0.7 1.2 0.0 0.0 0.0 0.0 0.0 0.0 0.0 0.0 0.0 0.0 0.0 0.0 0.0 0.0 0.0
0.0 0.0 0.0 0.0 0.0 0.0 0.0 0.0 0.0 0.0 0.0 0.0 0.0 0.0 0.0 0.0 0.0 0.0 0.0 0.0 0.0 0.1 7.3 6.7 10.1 6.4 0.2 0.1 0.1 0.1 0.0 1.6 0.2 1.1 0.0 0.0 0.4 2.0 0.0 0.0 0.1 0.0 0.0 0.0 0.0 0.0 0.0 0.0 0.0 0.0 0.0 0.0 0.0 0.0
0.0 0.0 0.0 0.0 0.0 0.0 0.0 0.0 0.0 0.0 0.0 0.0 0.0 0.0 0.2 0.0 0.0 0.0 0.0 1.4 2.7 2.4 3.5 7.1 2.6 2.8 1.1 2.0 0.7 0.8 0.1 1.9 4.9 0.0 0.0 1.3 0.1 0.0 0.0 0.2 0.1 0.0 0.0 0.0 2.9 1.7 0.5 1.1 0.2 0.1 0.0 0.0 0.0 0.0
0.0 0.0 0.0 0.0 0.0 0.0 0.0 0.0 0.0 0.0 0.0 0.0 0.0 0.3 0.0 0.0 0.0 0.0 4.4 4.4 2.1 3.4 2.4 2.4 2.2 2.3 0.0 3.2 1.2 0.3 2.5 1.8 6.9 1.9 1.0 1.5 2.6 0.6 0.0 0.2 0.0 0.0 0.1 0.0 0.0 0.1 0.9 1.5 2.0 1.0 0.4 1.5 0.9 1.5
0.0 0.0 0.0 0.0 0.0 0.0 0.0 0.0 0.0 0.0 0.0 0.0 0.0 0.0 0.0 2.2 5.6 8.2 7.8 1.7 1.3 1.7 0.6 0.9 0.5 0.2 0.5 0.0 1.7 1.1 2.6 2.6 3.1 1.4 4.5 3.4 1.5 0.9 1.2 0.4 0.2 0.1 0.0 0.1 0.1 1.1 0.5 0.5 0.8 0.8 1.9 2.4 2.2 2.2
0.0 0.0 0.0 0.0 0.0 0.0 0.0 0.0 0.0 0.0 0.0 0.0 0.1 4.1 4.8 6.2 10.0 7.3 5.0 1.8 0.5 0.3 0.4 0.6 0.9 0.2 0.1 0.2 1.5 2.3 2.9 1.3 2.1 5.6 3.6 1.3 0.3 0.0 0.3 1.1 1.0 0.7 0.1 0.5 0.9 0.0 0.3 0.3 0.3 0.3 0.2 0.1 0.0 0.0
0.0 0.0 0.0 0.0 0.0 0.0 0.0 0.0 0.0 0.0 0.0 0.1 6.2 9.1 5.8 4.2 3.3 2.2 1.3 1.0 0.0 0.2 0.0 0.1 0.8 1.0 0.3 1.3 1.0 3.2 0.3 2.0 7.2 3.6 2.5 0.3 0.4 0.3 0.1 0.2 0.4 0.5 0.7 1.0 2.8 2.8 1.4 0.8 0.3 0.1 0.0 0.1 0.0 0.0
0.0 0.0 0.0 0.0 0.0 0.0 0.0 0.0 0.0 0.0 0.0 5.7 7.9 6.2 2.9 1.3 0.6 0.3 0.1 0.4 0.0 0.0 0.0 0.3 0.6 0.8 2.1 3.5 2.1 2.3 3.4 4.8 3.4 3.1 1.0 0.4 0.4 0.6 0.4 0.2 0.2 0.4 0.5 1.2 1.2 2.1 3.2 1.9 0.7 0.0 0.0 0.0 0.3 0.3
0.0 0.0 0.0 0.0 0.0 0.0 0.0 0.0 0.0 0.0 0.6 8.9 8.5 3.4 0.7 0.5 0.3 0.1 0.0 0.1 0.0 0.0 0.1 0.3 1.0 1.7 1.1 2.2 3.0 2.1 3.6 3.8 2.2 1.0 0.5 0.3 0.6 0.0 0.2 0.2 0.0 0.0 0.0 0.1 1.0 1.4 2.0 1.9 1.3 0.7 0.5 0.1 0.2 0.9
0.0 0.0 0.0 0.0 0.0 0.0 0.0 0.0 0.0 11.3 13.8 13.3 2.8 0.4 0.6 0.3 0.3 0.2 0.0 0.0 0.0 0.2 1.3 2.5 6.0 1.9 1.5 3.3 1.0 0.4 1.7 1.1 0.6 0.0 0.1 0.0 0.1 0.0 0.0 0.0 0.0 0.0 0.0 0.0 0.5 0.9 1.6 2.2 2.4 1.4 1.8 1.5 1.2 0.8
0.0 0.0 0.0 0.0 0.0 0.0 0.0 0.0 11.4 17.0 14.9 3.0 0.0 0.0 0.0 0.0 0.2 0.2 0.0 0.0 0.0 0.4 1.4 5.2 3.4 3.2 1.6 1.0 0.2 0.1 0.0 0.0 0.1 0.0 0.1 0.0 0.0 0.0 0.0 0.0 0.0 0.1 0.7 1.7 1.5 1.6 1.1 1.7 1.6 1.3 1.0 0.8 0.8 1.0
0.0 0.0 0.0 0.0 0.0 0.0 18.4 24.4 16.1 18.7 2.6 0.1 0.0 0.0 0.0 0.0 0.0 0.0 0.0 0.0 0.0 0.1 1.2 5.5 6.5 2.6 0.1 0.0 0.0 0.0 0.0 0.0 0.0 0.0 0.0 0.0 0.0 0.0 0.0 0.3 0.3 0.7 1.8 1.6 0.4 0.4 0.4 0.3 0.7 0.4 1.0 0.7 1.0 0.8
0.0 0.0 0.0 0.0 0.0 12.5 34.8 28.0 13.4 8.6 3.5 0.2 0.0 0.0 0.0 0.0 0.0 0.0 0.0 0.3 0.5 2.8 6.0 6.7 0.3 0.2 0.1 0.3 0.3 0.1 0.0 0.0 0.0 0.0 0.0 0.0 0.0 0.0 0.0 0.0 0.1 0.3 0.7 0.6 0.5 0.7 0.5 0.7 0.5 0.2 0.6 0.5 1.0 1.1
0.0 0.0 0.0 0.0 1.9 14.1 25.4 19.7 13.4 3.6 0.5 0.2 0.0 0.0 0.0 0.0 0.0 0.1 0.1 1.2 4.4 8.1 4.3 1.2 0.2 0.1 0.0 0.5 0.2 0.0 0.0 0.0 0.0 0.0 0.0 0.0 0.0 0.0 0.0 0.0 0.0 0.0 0.0 0.3 0.2 0.1 0.5 0.3 0.7 0.5 0.3 0.8 0.7 1.1
0.4 0.0 6.5 4.0 33.7 37.5 30.5 13.4 6.9 2.5 1.4 0.8 0.0 0.0 0.2 0.4 0.1 0.1 0.2 5.5 8.2 2.5 1.5 1.1 1.0 0.6 0.2 0.0 0.8 0.9 0.4 0.0 0.0 0.0 0.0 0.0 0.0 0.0 0.0 0.0 0.0 0.0 0.0 0.0 0.0 0.1 0.0 0.1 0.1 0.6 0.7 1.1 0.9 0.5
0.3 1.3 25.1 29.2 42.2 38.0 23.4 6.6 7.1 4.7 2.5 1.3 1.0 1.0 1.7 0.6 0.2 0.3 4.0 2.7 1.6 1.2 1.0 0.8 1.0 2.2 2.3 1.8 1.5 1.1 0.6 0.1 0.0 0.2 0.1 0.0 0.0 0.0 0.0 0.0 0.0 0.0 0.2 0.1 0.0 0.0 0.0 0.0 0.1 0.1 0.0 0.0 1.2 1.8
0.0 32.4 44.1 46.0 31.8 26.7 14.7 12.0 6.8 3.8 4.3 3.5 2.7 1.8 0.8 0.0 1.9 3.2 3.1 0.6 0.4 0.4 1.3 1.6 1.3 1.1 0.6 1.5 1.8 2.2 2.3 1.4 0.4 0.0 0.7 0.3 0.1 0.0 0.0 0.0 0.0 0.0 0.0 0.2 0.0 0.0 0.0 0.0 0.1 0.1 0.0 0.0 0.8 1.6
58.2 68.3 43.4 43.3 22.4 12.7 7.6 4.7 4.0 3.9 3.1 1.8 1.1 0.4 0.6 0.6 2.0 2.1 0.1 0.0 0.1 0.2 0.6 1.4 1.5 1.4 1.4 1.0 1.4 1.3 1.2 1.5 2.6 2.7 0.4 1.5 1.5 1.0 0.3 0.0 0.3 0.0 0.0 0.2 0.1 0.1 0.0 0.0 0.0 0.0 0.0 1.2 2.0 2.6
65.8 32.9 23.8 8.4 4.1 1.5 0.4 0.1 0.3 0.1 0.1 0.7 1.3 0.9 0.3 2.5 5.3 3.2 0.0 0.0 0.1 0.3 0.4 0.6 1.2 1.2 0.9 0.8 1.0 1.8 2.1 1.5 1.3 2.7 1.4 2.0 1.6 2.3 2.1 0.2 1.5 0.7 0.2 0.1 0.9 0.8 0.3 0.1 0.1 0.0 0.8 1.2 1.8 2.7
44.5 23.3 7.5 0.4 0.4 0.8 0.9 0.3 0.1 0.1 0.7 1.2 0.5 0.4 0.7 7.9 1.1 0.0 0.0 0.0 0.0 0.4 0.7 1.1 2.2 1.9 1.3 1.4 1.3 1.8 2.0 2.2 2.0 1.5 2.0 4.3 4.0 2.5 1.2 2.1 2.0 1.2 0.9 0.6 1.3 1.0 1.2 1.0 0.6 1.0 1.8 2.2 2.2 3.2
8.4 2.5 0.0 0.4 0.2 0.0 0.5 0.7 0.9 1.4 1.3 0.2 0.8 1.1 2.2 0.8 0.0 0.0 0.0 0.0 0.0 0.0 0.8 1.3 1.8 2.4 2.2 1.9 1.9 2.6 2.8 3.1 3.4 3.2 4.5 5.2 5.4 5.0 3.9 3.1 2.5 2.7 3.1 2.1 1.8 2.4 2.1 1.7 1.4 2.4 2.5 2.1 1.3 1.6
2.4 1.4 1.3 1.3 0.8 0.5 0.7 0.4 0.3 0.1 0.0 0.0 0.1 0.1 0.0 0.0 0.0 0.0 0.0 0.0 0.0 0.8 1.0 1.5 1.9 2.0 2.8 2.9 2.8 3.5 3.5 3.6 3.1 2.5 2.0 2.4 4.3 6.0 5.6 4.8 5.5 5.6 3.7 3.8 2.6 3.0 3.1 4.0 3.6 3.6 3.8 3.7 3.4 3.4
0.4 0.0 0.0 0.1 0.7 1.6 0.3 0.1 0.0 0.0 0.0 0.0 0.0 0.0 0.0 0.0 0.0 0.0 0.1 0.0 0.0 1.4 1.8 2.4 2.3 2.4 3.5 3.4 3.5 3.3 4.1 4.1 3.8 2.2 2.1 2.2 2.9 4.1 5.8 5.8 5.9 6.4 6.0 5.6 6.4 6.8 5.1 6.1 6.3 6.4 5.7 5.5 5.4 4.8
0.1 0.0 0.1 0.1 0.1 0.3 0.2 0.3 0.2 0.2 0.0 0.1 0.1 0.1 0.1 0.1 0.0 0.0 0.3 0.6 1.4 2.0 2.7 3.4 3.8 4.5 4.6 5.0 4.9 4.4 4.5 5.2 5.3 5.5 4.4 4.8 4.8 4.8 5.5 6.3 5.9 6.5 6.4 5.9 5.2 4.9 5.0 4.7 4.2 4.4 4.3 4.3 3.9 3.7
0.3 0.1 0.0 0.1 0.1 0.1 0.5 0.4 0.2 0.1 0.1 0.1 0.2 0.1 0.1 0.1 0.1 0.0 0.5 0.8 1.8 2.3 2.7 3.4 3.9 5.0 5.6 5.4 5.4 5.3 4.2 4.8 4.8 6.0 5.1 4.5 4.5 3.9 5.1 5.6 6.2 5.7 6.2 6.4 5.8 6.3 6.2 6.2 6.3 5.8 5.7 5.7 5.7 5.2
2.0 1.1 0.7 0.5 1.0 1.1 0.4 0.1 0.3 0.3 0.3 0.1 0.1 0.0 0.0 0.1 0.0 0.4 0.6 1.0 2.0 2.5 2.7 4.1 4.7 4.7 4.5 4.4 4.9 5.2 5.2 5.1 6.0 5.7 5.7 5.9 5.7 6.3 5.5 5.5 5.7 6.4 6.5 6.7 7.0 7.6 7.9 7.3 7.0 6.6 6.2 6.2 5.9 5.7

GFSWCAN_prec_kuchsnow_132.txt.gz
Snowfall_Accumulation
0.0 0.0 0.0 0.0 0.0 0.0 0.0 0.0 0.0 0.0 0.0 0.0 0.0 0.0 0.0 0.0 0.0 0.0 0.0 0.0 0.0 0.0 0.0 0.0 0.0 0.0 0.0 0.0 0.0 0.0 0.0 0.0 0.0 0.1 0.0 0.1 0.0 0.0 0.0 0.0 0.0 0.0 0.1 0.2 0.3 0.8 0.0 0.0 0.0 0.0 0.0 0.0 0.0 0.0
0.0 0.0 0.0 0.0 0.0 0.0 0.0 0.0 0.0 0.0 0.0 0.0 0.0 0.0 0.0 0.0 0.0 0.0 0.0 0.0 0.0 0.0 0.0 0.0 0.0 0.0 0.0 0.0 0.0 0.0 0.0 0.0 0.0 0.2 0.1 0.0 0.0 0.0 0.0 0.0 0.0 0.0 0.0 0.0 0.0 0.0 0.0 0.0 0.0 0.0 0.0 0.0 0.0 0.0
0.0 0.0 0.0 0.0 0.0 0.0 0.0 0.0 0.0 0.0 0.0 0.0 0.0 0.0 0.0 0.0 0.0 0.0 0.0 0.0 0.0 0.2 0.0 0.0 0.0 0.0 0.0 0.0 0.0 0.0 0.0 0.0 0.0 0.0 0.1 0.1 0.0 0.0 0.0 0.0 0.0 0.0 0.0 0.0 0.0 0.0 0.0 0.0 0.0 0.0 0.0 0.0 0.0 0.0
0.0 0.0 0.0 0.0 0.0 0.0 0.0 0.0 0.0 0.0 0.0 0.0 0.0 0.0 0.0 0.0 0.0 0.0 0.0 0.0 0.0 0.2 1.5 0.0 0.0 0.0 0.0 0.0 0.0 0.0 0.0 0.0 0.0 0.4 0.5 0.2 0.2 0.0 0.0 0.0 0.0 0.0 0.0 0.0 0.0 0.0 0.0 0.0 0.0 0.0 0.0 0.0 0.0 0.0
0.0 0.0 0.0 0.0 0.0 0.0 0.0 0.0 0.0 0.0 0.0 0.0 0.0 0.0 0.0 0.0 0.0 0.0 0.0 0.0 0.0 0.3 2.2 0.7 0.0 0.0 0.0 0.0 0.0 0.0 0.0 0.0 0.2 0.7 1.3 0.7 0.0 0.0 0.0 0.0 0.0 0.0 0.0 0.0 0.0 0.0 0.0 0.0 0.0 0.0 0.0 0.0 0.0 0.0
0.0 0.0 0.0 0.0 0.0 0.0 0.0 0.0 0.0 0.0 0.0 0.0 0.0 0.0 0.0 0.0 0.0 0.0 0.0 0.0 0.0 0.0 2.6 3.1 0.0 0.0 0.0 0.0 0.0 0.0 0.0 0.0 0.8 0.3 1.6 0.0 0.0 0.0 0.9 0.1 0.0 0.0 0.0 0.0 0.0 0.0 0.0 0.0 0.0 0.0 0.0 0.0 0.0 0.0
0.0 0.0 0.0 0.0 0.0 0.0 0.0 0.0 0.0 0.0 0.0 0.0 0.0 0.0 0.0 0.0 0.0 0.1 0.1 0.0 0.0 0.0 2.6 7.8 4.1 0.1 0.0 0.0 0.0 0.0 0.0 0.0 1.2 1.1 0.0 0.8 0.2 1.1 1.0 0.0 0.0 0.0 0.0 0.0 0.0 0.0 0.0 0.0 0.0 0.0 0.0 0.0 0.0 0.0
0.0 0.0 0.0 0.0 0.0 0.0 0.0 0.0 0.0 0.0 0.0 0.0 0.0 0.0 0.0 0.0 0.0 0.0 0.0 0.0 0.0 1.5 4.2 11.5 8.8 4.6 0.0 0.0 0.1 0.0 0.0 0.0 1.9 0.7 0.0 0.1 0.0 0.7 1.2 0.0 0.0 0.0 0.0 0.0 0.0 0.0 0.0 0.0 0.0 0.0 0.0 0.0 0.0 0.0
0.0 0.0 0.0 0.0 0.0 0.0 0.0 0.0 0.0 0.0 0.0 0.0 0.0 0.0 0.0 0.0 0.0 0.0 0.0 0.0 0.0 0.1 7.3 6.7 10.1 6.4 0.2 0.1 0.1 0.1 0.0 1.6 0.2 1.1 0.0 0.0 0.4 2.0 0.0 0.0 0.1 0.0 0.0 0.0 0.0 0.0 0.0 0.0 0.0 0.0 0.0 0.0 0.0 0.0
0.0 0.0 0.0 0.0 0.0 0.0 0.0 0.0 0.0 0.0 0.0 0.0 0.0 0.0 0.2 0.0 0.0 0.0 0.0 1.4 2.7 2.4 3.5 7.1 2.6 2.8 1.1 2.0 0.7 0.8 0.1 1.9 4.9 0.0 0.0 1.3 0.1 0.0 0.0 0.2 0.1 0.0 0.0 0.0 2.9 1.7 0.5 1.1 0.2 0.1 0.0 0.0 0.0 0.0
0.0 0.0 0.0 0.0 0.0 0.0 0.0 0.0 0.0 0.0 0.0 0.0 0.0 0.3 0.0 0.0 0.0 0.0 4.4 4.4 2.1 3.4 2.4 2.4 2.2 2.3 0.0 3.2 1.2 0.3 2.5 1.8 7.0 1.9 1.0 1.5 2.6 0.6 0.0 0.2 0.0 0.0 0.1 0.0 0.0 0.1 0.9 1.5 2.0 1.0 0.4 1.5 0.9 1.5
0.0 0.0 0.0 0.0 0.0 0.0 0.0 0.0 0.0 0.0 0.0 0.0 0.0 0.0 0.0 2.2 5.6 8.2 7.8 1.7 1.3 1.7 0.6 0.9 0.5 0.2 0.5 0.0 1.7 1.1 2.6 2.7 3.1 1.4 4.6 3.4 1.5 0.9 1.2 0.4 0.2 0.1 0.0 0.1 0.1 1.1 0.5 0.5 0.8 0.8 1.9 2.4 2.2 2.2
0.0 0.0 0.0 0.0 0.0 0.0 0.0 0.0 0.0 0.0 0.0 0.0 0.1 4.1 4.8 6.2 10.0 7.3 5.0 1.8 0.5 0.3 0.4 0.6 1.0 0.2 0.1 0.2 1.5 2.4 3.0 1.4 2.1 5.7 3.6 1.3 0.3 0.0 0.3 1.1 1.0 0.7 0.1 0.5 0.9 0.0 0.3 0.3 0.3 0.3 0.2 0.1 0.0 0.0
0.0 0.0 0.0 0.0 0.0 0.0 0.0 0.0 0.0 0.0 0.0 0.1 6.2 9.1 5.8 4.2 3.3 2.2 1.3 1.0 0.0 0.2 0.0 0.1 0.8 1.0 0.3 1.5 1.1 3.3 0.4 2.1 7.3 3.7 2.5 0.3 0.4 0.3 0.1 0.2 0.4 0.5 0.7 1.0 2.8 2.8 1.4 0.8 0.3 0.1 0.0 0.1 0.0 0.0
0.0 0.0 0.0 0.0 0.0 0.0 0.0 0.0 0.0 0.0 0.0 5.7 7.9 6.2 2.9 1.3 0.6 0.3 0.1 0.4 0.0 0.0 0.0 0.3 0.6 0.8 2.3 3.7 2.1 2.4 3.6 4.8 3.4 3.1 1.0 0.4 0.4 0.6 0.4 0.2 0.2 0.4 0.5 1.2 1.2 2.1 3.2 1.9 0.7 0.0 0.0 0.0 0.3 0.3
0.0 0.0 0.0 0.0 0.0 0.0 0.0 0.0 0.0 0.0 0.6 8.9 8.5 3.4 0.7 0.5 0.3 0.1 0.0 0.1 0.0 0.0 0.1 0.3 1.0 1.7 1.1 2.2 3.2 2.1 3.6 3.8 2.2 1.0 0.5 0.3 0.6 0.0 0.2 0.2 0.0 0.0 0.0 0.1 1.0 1.4 2.0 1.9 1.3 0.7 0.5 0.1 0.2 0.9
0.0 0.0 0.0 0.0 0.0 0.0 0.0 0.0 0.0 11.3 13.8 13.3 2.8 0.4 0.6 0.3 0.3 0.2 0.0 0.0 0.0 0.2 1.3 2.5 6.0 1.9 1.5 3.4 1.1 0.4 1.7 1.1 0.6 0.0 0.1 0.0 0.1 0.0 0.0 0.0 0.0 0.0 0.0 0.0 0.5 0.9 1.6 2.2 2.4 1.4 1.8 1.5 1.2 0.8
0.0 0.0 0.0 0.0 0.0 0.0 0.0 0.0 11.5 17.0 15.1 3.0 0.0 0.0 0.0 0.0 0.2 0.2 0.0 0.0 0.0 0.4 1.4 5.2 3.4 3.2 1.6 1.0 0.2 0.1 0.0 0.0 0.1 0.0 0.1 0.0 0.0 0.0 0.0 0.0 0.0 0.1 0.7 1.7 1.5 1.6 1.1 1.7 1.6 1.3 1.0 0.8 0.8 1.0
0.0 0.0 0.0 0.0 0.0 0.0 18.6 25.0 16.1 18.7 2.6 0.1 0.0 0.0 0.0 0.0 0.0 0.0 0.0 0.0 0.0 0.1 1.2 5.5 6.5 2.6 0.1 0.0 0.0 0.0 0.0 0.0 0.0 0.0 0.0 0.0 0.0 0.0 0.0 0.3 0.3 0.7 1.8 1.6 0.4 0.4 0.4 0.3 0.7 0.4 1.0 0.7 1.0 0.8
0.0 0.0 0.0 0.0 0.0 12.5 34.8 28.0 13.4 8.8 3.7 0.2 0.0 0.0 0.0 0.0 0.0 0.0 0.0 0.3 0.5 2.8 6.0 6.7 0.3 0.2 0.1 0.3 0.3 0.1 0.0 0.0 0.0 0.0 0.0 0.0 0.0 0.0 0.0 0.0 0.1 0.3 0.7 0.6 0.5 0.7 0.5 0.7 0.5 0.2 0.6 0.5 1.0 1.1
0.0 0.0 0.0 0.0 2.0 14.1 25.4 19.7 13.4 3.6 0.5 0.2 0.0 0.0 0.0 0.0 0.0 0.1 0.1 1.2 4.4 8.1 4.3 1.2 0.2 0.1 0.0 0.5 0.2 0.0 0.0 0.0 0.0 0.0 0.0 0.0 0.0 0.0 0.0 0.0 0.0 0.0 0.0 0.3 0.2 0.1 0.5 0.3 0.7 0.5 0.3 0.8 0.7 1.1
0.4 0.0 6.5 4.0 33.7 37.7 30.8 13.4 6.9 2.5 1.4 0.8 0.0 0.0 0.2 0.4 0.1 0.1 0.2 5.5 8.2 2.5 1.5 1.1 1.0 0.6 0.2 0.0 0.8 0.9 0.4 0.0 0.0 0.0 0.0 0.0 0.0 0.0 0.0 0.0 0.0 0.0 0.0 0.0 0.0 0.1 0.0 0.1 0.1 0.6 0.7 1.1 0.9 0.5
0.3 1.3 25.1 29.2 43.5 39.6 24.5 7.0 7.5 4.7 2.5 1.3 1.0 1.0 1.7 0.6 0.2 0.3 4.0 2.7 1.6 1.2 1.0 0.8 1.0 2.2 2.3 1.8 1.5 1.1 0.6 0.1 0.0 0.2 0.1 0.0 0.0 0.0 0.0 0.0 0.0 0.0 0.2 0.1 0.0 0.0 0.0 0.0 0.1 0.1 0.0 0.0 1.2 1.8
0.0 32.5 44.1 46.3 32.0 27.2 15.1 12.3 6.9 3.8 4.4 3.6 2.7 1.8 0.8 0.0 1.9 3.2 3.1 0.6 0.4 0.4 1.3 1.6 1.3 1.1 0.6 1.5 1.8 2.2 2.3 1.4 0.4 0.0 0.7 0.3 0.1 0.0 0.0 0.0 0.0 0.0 0.0 0.2 0.0 0.0 0.0 0.0 0.1 0.1 0.0 0.0 0.8 1.6
58.5 68.3 43.4 43.9 22.8 12.8 7.6 4.7 4.0 4.0 3.1 1.8 1.1 0.4 0.6 0.6 2.0 2.1 0.1 0.0 0.1 0.2 0.6 1.4 1.5 1.4 1.4 1.0 1.4 1.3 1.2 1.5 2.6 2.7 0.4 1.5 1.5 1.0 0.3 0.0 0.3 0.0 0.0 0.2 0.1 0.1 0.0 0.0 0.0 0.0 0.0 1.2 2.0 2.6
66.0 32.9 23.8 8.4 4.1 1.5 0.4 0.1 0.3 0.1 0.1 0.7 1.3 0.9 0.3 2.5 5.3 3.2 0.0 0.0 0.1 0.3 0.4 0.6 1.2 1.2 0.9 0.8 1.0 1.8 2.1 1.5 1.3 2.7 1.4 2.0 1.6 2.3 2.1 0.2 1.5 0.7 0.2 0.1 0.9 0.8 0.3 0.1 0.1 0.0 0.8 1.2 1.8 2.7
44.5 23.3 7.5 0.4 0.4 0.8 0.9 0.3 0.1 0.1 0.7 1.2 0.5 0.4 0.7 7.9 1.1 0.0 0.0 0.0 0.0 0.4 0.7 1.1 2.2 1.9 1.3 1.4 1.3 1.8 2.0 2.2 2.0 1.5 2.0 4.3 4.0 2.5 1.2 2.1 2.0 1.2 0.9 0.6 1.3 1.0 1.2 1.0 0.6 1.0 1.8 2.2 2.2 3.2
8.4 2.5 0.0 0.4 0.2 0.0 0.5 0.7 0.9 1.4 1.3 0.2 0.8 1.1 2.2 0.8 0.0 0.0 0.0 0.0 0.0 0.0 0.8 1.3 1.8 2.4 2.2 1.9 1.9 2.6 2.8 3.1 3.4 3.2 4.5 5.2 5.4 5.0 3.9 3.1 2.5 2.7 3.1 2.1 1.8 2.4 2.1 1.7 1.4 2.4 2.5 2.1 1.3 1.6
2.4 1.4 1.3 1.3 0.8 0.5 0.7 0.4 0.3 0.1 0.0 0.0 0.1 0.1 0.0 0.0 0.0 0.0 0.0 0.0 0.0 0.8 1.0 1.5 1.9 2.0 2.8 2.9 2.8 3.5 3.5 3.6 3.1 2.5 2.0 2.4 4.3 6.0 5.6 4.8 5.5 5.6 3.7 3.8 2.6 3.0 3.1 4.0 3.6 3.6 3.8 3.7 3.4 3.4
0.4 0.0 0.0 0.1 0.7 1.6 0.3 0.1 0.0 0.0 0.0 0.0 0.0 0.0 0.0 0.0 0.0 0.0 0.1 0.0 0.0 1.4 1.8 2.4 2.3 2.4 3.5 3.4 3.5 3.3 4.1 4.1 3.8 2.2 2.1 2.2 2.9 4.1 5.8 5.8 5.9 6.4 6.0 5.6 6.4 6.8 5.1 6.1 6.3 6.4 5.7 5.5 5.4 4.8
0.1 0.0 0.1 0.1 0.1 0.3 0.2 0.3 0.2 0.2 0.0 0.1 0.1 0.1 0.1 0.1 0.0 0.0 0.3 0.6 1.4 2.0 2.7 3.4 3.8 4.5 4.6 5.0 4.9 4.4 4.5 5.2 5.3 5.5 4.4 4.8 4.8 4.8 5.5 6.3 5.9 6.5 6.4 5.9 5.2 4.9 5.0 4.7 4.2 4.4 4.3 4.3 3.9 3.7
0.3 0.1 0.0 0.1 0.1 0.1 0.5 0.4 0.2 0.1 0.1 0.1 0.2 0.1 0.1 0.1 0.1 0.0 0.5 0.8 1.8 2.3 2.7 3.4 3.9 5.0 5.6 5.4 5.4 5.3 4.2 4.8 4.8 6.0 5.1 4.5 4.5 3.9 5.1 5.6 6.2 5.7 6.2 6.4 5.8 6.3 6.2 6.2 6.3 5.8 5.7 5.7 5.7 5.2
2.0 1.1 0.7 0.5 1.0 1.1 0.4 0.1 0.3 0.3 0.3 0.1 0.1 0.0 0.0 0.1 0.0 0.4 0.6 1.0 2.0 2.5 2.7 4.1 4.7 4.7 4.5 4.4 4.9 5.2 5.2 5.1 6.0 5.7 5.7 5.9 5.7 6.3 5.5 5.5 5.7 6.4 6.5 6.7 7.0 7.6 7.9 7.3 7.0 6.6 6.2 6.2 5.9 5.7